<?xml version='1.0' encoding='UTF-8'?><gpx version="1.1" creator="JPX - https://github.com/jenetics/jpx" xmlns="http://www.topografix.com/GPX/1/1"><trk><trkseg><trkpt lat="43.71285315280666" lon="7.074942690382477"><ele>313.66666666666663</ele><time>2026-05-02T11:01:13.005Z</time></trkpt><trkpt lat="43.71292790937221" lon="7.074856363083193"><ele>314.3333333333333</ele><time>2026-05-02T11:04:22.999Z</time></trkpt><trkpt lat="43.71299979410511" lon="7.0748356732550395"><ele>315.0</ele><time>2026-05-02T11:04:24.999Z</time></trkpt><trkpt lat="43.71307008085351" lon="7.074806884865192"><ele>315.6666666666667</ele><time>2026-05-02T11:04:27.999Z</time></trkpt><trkpt lat="43.71308197643532" lon="7.074702830659302"><ele>316.33333333333337</ele><time>2026-05-02T11:04:31.999Z</time></trkpt><trkpt lat="43.71307066649344" lon="7.074608832096677"><ele>317.0</ele><time>2026-05-02T11:04:33.999Z</time></trkpt><trkpt lat="43.71303545318807" lon="7.074529644199316"><ele>317.0</ele><time>2026-05-02T11:04:41.999Z</time></trkpt><trkpt lat="43.71302405826947" lon="7.074438986273432"><ele>317.0</ele><time>2026-05-02T11:04:51.998Z</time></trkpt><trkpt lat="43.713038843301" lon="7.074300798570513"><ele>317.0</ele><time>2026-05-02T11:04:54.998Z</time></trkpt><trkpt lat="43.713096406314655" lon="7.074189536768122"><ele>317.0</ele><time>2026-05-02T11:04:56.998Z</time></trkpt><trkpt lat="43.713160855465986" lon="7.074047472089683"><ele>317.0</ele><time>2026-05-02T11:04:58.998Z</time></trkpt><trkpt lat="43.713210644187356" lon="7.073979881391095"><ele>316.83333333333337</ele><time>2026-05-02T11:04:59.998Z</time></trkpt><trkpt lat="43.71326724946869" lon="7.073907782696455"><ele>316.6666666666667</ele><time>2026-05-02T11:05:00.998Z</time></trkpt><trkpt lat="43.71333228612323" lon="7.073831650250593"><ele>316.5</ele><time>2026-05-02T11:05:01.998Z</time></trkpt><trkpt lat="43.71338526322" lon="7.073774129988338"><ele>316.3333333333333</ele><time>2026-05-02T11:05:03.998Z</time></trkpt><trkpt lat="43.71331716861766" lon="7.073835758864701"><ele>316.16666666666663</ele><time>2026-05-02T11:05:09.998Z</time></trkpt><trkpt lat="43.71326486573721" lon="7.073916437576769"><ele>316.0</ele><time>2026-05-02T11:05:10.998Z</time></trkpt><trkpt lat="43.713192565219295" lon="7.074011911221769"><ele>316.0</ele><time>2026-05-02T11:05:11.998Z</time></trkpt><trkpt lat="43.713144219701206" lon="7.074090373558997"><ele>316.0</ele><time>2026-05-02T11:05:12.998Z</time></trkpt><trkpt lat="43.71310080786292" lon="7.074160074879945"><ele>316.0</ele><time>2026-05-02T11:05:13.998Z</time></trkpt><trkpt lat="43.71306062545878" lon="7.074239219740117"><ele>316.0</ele><time>2026-05-02T11:05:14.998Z</time></trkpt><trkpt lat="43.71302795070888" lon="7.074323847542771"><ele>316.0</ele><time>2026-05-02T11:05:15.998Z</time></trkpt><trkpt lat="43.71302783828401" lon="7.074469868843914"><ele>316.0</ele><time>2026-05-02T11:05:17.998Z</time></trkpt><trkpt lat="43.713078913143804" lon="7.0745899350855534"><ele>316.16666666666663</ele><time>2026-05-02T11:05:19.998Z</time></trkpt><trkpt lat="43.71308542442111" lon="7.074705242985944"><ele>316.3333333333333</ele><time>2026-05-02T11:05:21.999Z</time></trkpt><trkpt lat="43.7130647387133" lon="7.074577236455111"><ele>316.5</ele><time>2026-05-02T11:06:34.999Z</time></trkpt><trkpt lat="43.71302888906203" lon="7.07449901528245"><ele>316.6666666666667</ele><time>2026-05-02T11:06:47.998Z</time></trkpt><trkpt lat="43.71302465532323" lon="7.0743854616507695"><ele>316.83333333333337</ele><time>2026-05-02T11:06:51.998Z</time></trkpt><trkpt lat="43.71305302356309" lon="7.0742624591202246"><ele>317.0</ele><time>2026-05-02T11:06:53.998Z</time></trkpt><trkpt lat="43.71313405627882" lon="7.074134850828508"><ele>316.8571428571429</ele><time>2026-05-02T11:06:55.998Z</time></trkpt><trkpt lat="43.713171179473555" lon="7.074054615919466"><ele>316.7142857142857</ele><time>2026-05-02T11:06:56.998Z</time></trkpt><trkpt lat="43.713216144214314" lon="7.073988293215028"><ele>316.57142857142856</ele><time>2026-05-02T11:06:57.998Z</time></trkpt><trkpt lat="43.71326781427189" lon="7.0739191094260425"><ele>316.42857142857144</ele><time>2026-05-02T11:06:58.998Z</time></trkpt><trkpt lat="43.71332235311499" lon="7.073853727876588"><ele>316.2857142857143</ele><time>2026-05-02T11:06:59.998Z</time></trkpt><trkpt lat="43.713379038795296" lon="7.073785182663709"><ele>316.14285714285717</ele><time>2026-05-02T11:07:00.998Z</time></trkpt><trkpt lat="43.713439765167855" lon="7.073726638394204"><ele>316.0</ele><time>2026-05-02T11:07:01.998Z</time></trkpt><trkpt lat="43.713502888671165" lon="7.073657799830432"><ele>316.0</ele><time>2026-05-02T11:07:02.998Z</time></trkpt><trkpt lat="43.71356632002263" lon="7.073589677169426"><ele>316.0</ele><time>2026-05-02T11:07:03.998Z</time></trkpt><trkpt lat="43.71362563429901" lon="7.0735201113682935"><ele>316.0</ele><time>2026-05-02T11:07:04.998Z</time></trkpt><trkpt lat="43.713687030971535" lon="7.073456522301814"><ele>316.0</ele><time>2026-05-02T11:07:05.998Z</time></trkpt><trkpt lat="43.71375046346725" lon="7.073404047180723"><ele>316.0</ele><time>2026-05-02T11:07:06.998Z</time></trkpt><trkpt lat="43.7138171967906" lon="7.073353580229465"><ele>316.0</ele><time>2026-05-02T11:07:07.998Z</time></trkpt><trkpt lat="43.71388246931266" lon="7.073302669836119"><ele>318.28571428571433</ele><time>2026-05-02T11:07:08.998Z</time></trkpt><trkpt lat="43.71394005480803" lon="7.073243557764658"><ele>320.57142857142856</ele><time>2026-05-02T11:07:09.998Z</time></trkpt><trkpt lat="43.713987209240884" lon="7.073175689996666"><ele>322.8571428571429</ele><time>2026-05-02T11:07:10.998Z</time></trkpt><trkpt lat="43.714038502365725" lon="7.0731025989639225"><ele>325.14285714285717</ele><time>2026-05-02T11:07:11.998Z</time></trkpt><trkpt lat="43.7140906851084" lon="7.0730332067246"><ele>327.42857142857144</ele><time>2026-05-02T11:07:12.998Z</time></trkpt><trkpt lat="43.71414821462736" lon="7.072972188173369"><ele>329.7142857142857</ele><time>2026-05-02T11:07:13.998Z</time></trkpt><trkpt lat="43.714191538426476" lon="7.0729073233430695"><ele>332.0</ele><time>2026-05-02T11:07:14.998Z</time></trkpt><trkpt lat="43.71415940756665" lon="7.072756255710171"><ele>332.0</ele><time>2026-05-02T11:07:16.998Z</time></trkpt><trkpt lat="43.7141353168943" lon="7.072650238418491"><ele>332.0</ele><time>2026-05-02T11:07:18.998Z</time></trkpt><trkpt lat="43.71418393676037" lon="7.072709081148268"><ele>332.0</ele><time>2026-05-02T11:07:21.998Z</time></trkpt><trkpt lat="43.71421937647217" lon="7.072785336397144"><ele>332.0</ele><time>2026-05-02T11:07:22.998Z</time></trkpt><trkpt lat="43.71426202665049" lon="7.072862914508709"><ele>332.0</ele><time>2026-05-02T11:07:23.998Z</time></trkpt><trkpt lat="43.714307965451205" lon="7.072949042159271"><ele>332.0</ele><time>2026-05-02T11:07:24.998Z</time></trkpt><trkpt lat="43.71436077754637" lon="7.073042724442728"><ele>332.0</ele><time>2026-05-02T11:07:25.998Z</time></trkpt><trkpt lat="43.7144212967721" lon="7.073139440130223"><ele>333.20000000000005</ele><time>2026-05-02T11:07:26.998Z</time></trkpt><trkpt lat="43.71448923346494" lon="7.073227764798722"><ele>334.4</ele><time>2026-05-02T11:07:27.999Z</time></trkpt><trkpt lat="43.71455976033995" lon="7.0733126546479905"><ele>335.6</ele><time>2026-05-02T11:07:28.999Z</time></trkpt><trkpt lat="43.71463756200634" lon="7.073379380040022"><ele>336.79999999999995</ele><time>2026-05-02T11:07:29.999Z</time></trkpt><trkpt lat="43.71472269992551" lon="7.073431734558948"><ele>338.0</ele><time>2026-05-02T11:07:30.999Z</time></trkpt><trkpt lat="43.71480477845334" lon="7.0734753955381535"><ele>338.0</ele><time>2026-05-02T11:07:31.999Z</time></trkpt><trkpt lat="43.714888078211295" lon="7.073535031040831"><ele>338.0</ele><time>2026-05-02T11:07:32.999Z</time></trkpt><trkpt lat="43.714975797328286" lon="7.073571155012094"><ele>338.0</ele><time>2026-05-02T11:07:33.999Z</time></trkpt><trkpt lat="43.71506573613492" lon="7.073604318901204"><ele>338.0</ele><time>2026-05-02T11:07:34.999Z</time></trkpt><trkpt lat="43.715156971139905" lon="7.0736242156931715"><ele>338.0</ele><time>2026-05-02T11:07:35.999Z</time></trkpt><trkpt lat="43.71524658010871" lon="7.0736439353518445"><ele>339.4</ele><time>2026-05-02T11:07:36.999Z</time></trkpt><trkpt lat="43.71532878496466" lon="7.073664558148105"><ele>340.79999999999995</ele><time>2026-05-02T11:07:37.999Z</time></trkpt><trkpt lat="43.715397184895764" lon="7.073685461186339"><ele>342.2</ele><time>2026-05-02T11:07:38.999Z</time></trkpt><trkpt lat="43.71549934807933" lon="7.073716689443608"><ele>343.6</ele><time>2026-05-02T11:07:40.999Z</time></trkpt><trkpt lat="43.71557606090583" lon="7.073704139472466"><ele>345.0</ele><time>2026-05-02T11:08:06.999Z</time></trkpt><trkpt lat="43.715688851746506" lon="7.073732308863397"><ele>345.0</ele><time>2026-05-02T11:08:08.999Z</time></trkpt><trkpt lat="43.71575598606388" lon="7.073764923916734"><ele>345.0</ele><time>2026-05-02T11:08:09.999Z</time></trkpt><trkpt lat="43.71583463278994" lon="7.073793729089433"><ele>345.0</ele><time>2026-05-02T11:08:10.999Z</time></trkpt><trkpt lat="43.71591787930617" lon="7.073836885635544"><ele>345.0</ele><time>2026-05-02T11:08:11.999Z</time></trkpt><trkpt lat="43.716004593793656" lon="7.07387429108956"><ele>345.0</ele><time>2026-05-02T11:08:12.999Z</time></trkpt><trkpt lat="43.71609272316492" lon="7.073926687281676"><ele>345.0</ele><time>2026-05-02T11:08:13.999Z</time></trkpt><trkpt lat="43.71618101942675" lon="7.074001900929157"><ele>345.4</ele><time>2026-05-02T11:08:14.999Z</time></trkpt><trkpt lat="43.71626925486084" lon="7.074076306417273"><ele>345.8</ele><time>2026-05-02T11:08:15.999Z</time></trkpt><trkpt lat="43.716352399964066" lon="7.07415732044112"><ele>346.20000000000005</ele><time>2026-05-02T11:08:16.999Z</time></trkpt><trkpt lat="43.7164266288863" lon="7.074248502178743"><ele>346.6</ele><time>2026-05-02T11:08:17.999Z</time></trkpt><trkpt lat="43.71649993772918" lon="7.074347390713386"><ele>347.0</ele><time>2026-05-02T11:08:18.999Z</time></trkpt><trkpt lat="43.71656361476675" lon="7.074448838098497"><ele>347.0</ele><time>2026-05-02T11:08:19.999Z</time></trkpt><trkpt lat="43.71665774766154" lon="7.074520561795221"><ele>347.0</ele><time>2026-05-02T11:08:20.999Z</time></trkpt><trkpt lat="43.716709405666634" lon="7.074625368150869"><ele>347.0</ele><time>2026-05-02T11:08:21.999Z</time></trkpt><trkpt lat="43.71677263579013" lon="7.074721393706328"><ele>347.0</ele><time>2026-05-02T11:08:22.999Z</time></trkpt><trkpt lat="43.71683804981322" lon="7.074822682086531"><ele>347.0</ele><time>2026-05-02T11:08:23.999Z</time></trkpt><trkpt lat="43.716897171686355" lon="7.0749413168162505"><ele>349.40000000000003</ele><time>2026-05-02T11:08:24.999Z</time></trkpt><trkpt lat="43.71693374593786" lon="7.075061409992424"><ele>351.8</ele><time>2026-05-02T11:08:25.999Z</time></trkpt><trkpt lat="43.71699662638515" lon="7.07517291083906"><ele>354.2</ele><time>2026-05-02T11:08:26.999Z</time></trkpt><trkpt lat="43.71705137788335" lon="7.075288385424767"><ele>356.6</ele><time>2026-05-02T11:08:27.999Z</time></trkpt><trkpt lat="43.71710106832472" lon="7.075411855353751"><ele>359.0</ele><time>2026-05-02T11:08:28.999Z</time></trkpt><trkpt lat="43.71714133426414" lon="7.075535355813312"><ele>359.0</ele><time>2026-05-02T11:08:29.999Z</time></trkpt><trkpt lat="43.71717965276181" lon="7.075667960000721"><ele>359.0</ele><time>2026-05-02T11:08:30.999Z</time></trkpt><trkpt lat="43.71713056336879" lon="7.0758314164201055"><ele>359.0</ele><time>2026-05-02T11:08:31.999Z</time></trkpt><trkpt lat="43.71716489690235" lon="7.075951516993192"><ele>359.0</ele><time>2026-05-02T11:08:32.999Z</time></trkpt><trkpt lat="43.71720623697691" lon="7.076078934065602"><ele>359.0</ele><time>2026-05-02T11:08:33.999Z</time></trkpt><trkpt lat="43.71724816481509" lon="7.076206364598363"><ele>356.6</ele><time>2026-05-02T11:08:34.999Z</time></trkpt><trkpt lat="43.71729136669554" lon="7.0763271774613665"><ele>354.2</ele><time>2026-05-02T11:08:35.999Z</time></trkpt><trkpt lat="43.71733859246703" lon="7.076445139173689"><ele>351.8</ele><time>2026-05-02T11:08:36.999Z</time></trkpt><trkpt lat="43.717389276009705" lon="7.07655999700758"><ele>349.40000000000003</ele><time>2026-05-02T11:08:37.999Z</time></trkpt><trkpt lat="43.717454770685514" lon="7.076663765907522"><ele>347.0</ele><time>2026-05-02T11:08:38.999Z</time></trkpt><trkpt lat="43.7175156809358" lon="7.076773249596623"><ele>345.40000000000003</ele><time>2026-05-02T11:08:39.999Z</time></trkpt><trkpt lat="43.717585365915134" lon="7.076876382353979"><ele>343.8</ele><time>2026-05-02T11:08:40.999Z</time></trkpt><trkpt lat="43.717663619181934" lon="7.076971423526107"><ele>342.2</ele><time>2026-05-02T11:08:41.999Z</time></trkpt><trkpt lat="43.71774343644957" lon="7.077062415494382"><ele>340.6</ele><time>2026-05-02T11:08:42.999Z</time></trkpt><trkpt lat="43.71783144545065" lon="7.0771462014041076"><ele>339.0</ele><time>2026-05-02T11:08:43.999Z</time></trkpt><trkpt lat="43.71792476695831" lon="7.077217454145292"><ele>342.4</ele><time>2026-05-02T11:08:44.999Z</time></trkpt><trkpt lat="43.71801854280043" lon="7.077281206921651"><ele>345.79999999999995</ele><time>2026-05-02T11:08:45.999Z</time></trkpt><trkpt lat="43.71811617118451" lon="7.077328363511101"><ele>349.20000000000005</ele><time>2026-05-02T11:08:46.999Z</time></trkpt><trkpt lat="43.718213717919056" lon="7.077371502420891"><ele>352.6</ele><time>2026-05-02T11:08:47.999Z</time></trkpt><trkpt lat="43.71831641225445" lon="7.0774128757226284"><ele>356.0</ele><time>2026-05-02T11:08:48.999Z</time></trkpt><trkpt lat="43.71842599957717" lon="7.077428623639427"><ele>352.4</ele><time>2026-05-02T11:08:49.999Z</time></trkpt><trkpt lat="43.71853151313475" lon="7.077436305686663"><ele>348.8</ele><time>2026-05-02T11:08:50.999Z</time></trkpt><trkpt lat="43.71863968891468" lon="7.077440714793754"><ele>345.2</ele><time>2026-05-02T11:08:51.999Z</time></trkpt><trkpt lat="43.71874798336477" lon="7.07744790021051"><ele>341.59999999999997</ele><time>2026-05-02T11:08:52.999Z</time></trkpt><trkpt lat="43.7188534625043" lon="7.077454446628477"><ele>338.0</ele><time>2026-05-02T11:08:53.999Z</time></trkpt><trkpt lat="43.71895919911183" lon="7.0774618859941745"><ele>337.79999999999995</ele><time>2026-05-02T11:08:54.999Z</time></trkpt><trkpt lat="43.719067639670804" lon="7.077465207970251"><ele>337.6</ele><time>2026-05-02T11:08:55.999Z</time></trkpt><trkpt lat="43.71917722405339" lon="7.077468111553202"><ele>337.4</ele><time>2026-05-02T11:08:56.999Z</time></trkpt><trkpt lat="43.719287903628526" lon="7.077470122074178"><ele>337.20000000000005</ele><time>2026-05-02T11:08:57.999Z</time></trkpt><trkpt lat="43.71939570082784" lon="7.077475050835762"><ele>337.0</ele><time>2026-05-02T11:08:58.999Z</time></trkpt><trkpt lat="43.71949807143089" lon="7.077482543528751"><ele>338.20000000000005</ele><time>2026-05-02T11:08:59.999Z</time></trkpt><trkpt lat="43.7195982602005" lon="7.077492946371202"><ele>339.4</ele><time>2026-05-02T11:09:00.999Z</time></trkpt><trkpt lat="43.71969812321698" lon="7.077504478776211"><ele>340.6</ele><time>2026-05-02T11:09:01.999Z</time></trkpt><trkpt lat="43.719797089351" lon="7.077513284594472"><ele>341.79999999999995</ele><time>2026-05-02T11:09:02.998Z</time></trkpt><trkpt lat="43.71989567756902" lon="7.077523498980872"><ele>343.0</ele><time>2026-05-02T11:09:03.998Z</time></trkpt><trkpt lat="43.71999704577295" lon="7.077532703518573"><ele>343.0</ele><time>2026-05-02T11:09:04.998Z</time></trkpt><trkpt lat="43.72009592137347" lon="7.077540883981873"><ele>343.0</ele><time>2026-05-02T11:09:05.998Z</time></trkpt><trkpt lat="43.7201955133798" lon="7.077564878160284"><ele>343.0</ele><time>2026-05-02T11:09:06.998Z</time></trkpt><trkpt lat="43.72029695687748" lon="7.077596874178474"><ele>343.0</ele><time>2026-05-02T11:09:07.998Z</time></trkpt><trkpt lat="43.720398218130946" lon="7.077634002083555"><ele>343.0</ele><time>2026-05-02T11:09:08.998Z</time></trkpt><trkpt lat="43.720496460491" lon="7.077681148166639"><ele>345.79999999999995</ele><time>2026-05-02T11:09:09.998Z</time></trkpt><trkpt lat="43.72059318203888" lon="7.07773989964867"><ele>348.6</ele><time>2026-05-02T11:09:10.998Z</time></trkpt><trkpt lat="43.72068819488052" lon="7.077809237521319"><ele>351.4</ele><time>2026-05-02T11:09:11.998Z</time></trkpt><trkpt lat="43.720779533517806" lon="7.077881650163534"><ele>354.20000000000005</ele><time>2026-05-02T11:09:12.998Z</time></trkpt><trkpt lat="43.72086726220887" lon="7.077961154914544"><ele>357.0</ele><time>2026-05-02T11:09:13.998Z</time></trkpt><trkpt lat="43.72095023743058" lon="7.078044506422247"><ele>357.0</ele><time>2026-05-02T11:09:14.998Z</time></trkpt><trkpt lat="43.7210277900398" lon="7.07812986555748"><ele>357.0</ele><time>2026-05-02T11:09:15.998Z</time></trkpt><trkpt lat="43.721097565107144" lon="7.078216371661902"><ele>357.0</ele><time>2026-05-02T11:09:16.998Z</time></trkpt><trkpt lat="43.72116439546321" lon="7.0783127521081175"><ele>357.0</ele><time>2026-05-02T11:09:17.998Z</time></trkpt><trkpt lat="43.72122017150655" lon="7.078419315581202"><ele>357.0</ele><time>2026-05-02T11:09:18.998Z</time></trkpt><trkpt lat="43.72127282621282" lon="7.078531108925648"><ele>353.0</ele><time>2026-05-02T11:09:19.998Z</time></trkpt><trkpt lat="43.72132698654877" lon="7.078636444440034"><ele>349.0</ele><time>2026-05-02T11:09:20.998Z</time></trkpt><trkpt lat="43.72137666288471" lon="7.078745294738374"><ele>345.0</ele><time>2026-05-02T11:09:21.998Z</time></trkpt><trkpt lat="43.72142093767799" lon="7.078858671030724"><ele>341.0</ele><time>2026-05-02T11:09:22.998Z</time></trkpt><trkpt lat="43.72146145806404" lon="7.078982675133461"><ele>337.0</ele><time>2026-05-02T11:09:23.998Z</time></trkpt><trkpt lat="43.721500908478674" lon="7.0791143288698875"><ele>337.0</ele><time>2026-05-02T11:09:24.998Z</time></trkpt><trkpt lat="43.72153634174483" lon="7.079251881863064"><ele>337.0</ele><time>2026-05-02T11:09:25.998Z</time></trkpt><trkpt lat="43.72156924815153" lon="7.079391388025776"><ele>337.0</ele><time>2026-05-02T11:09:26.998Z</time></trkpt><trkpt lat="43.72158944195905" lon="7.079534265144172"><ele>337.0</ele><time>2026-05-02T11:09:27.998Z</time></trkpt><trkpt lat="43.72160588202939" lon="7.079682924188448"><ele>337.0</ele><time>2026-05-02T11:09:28.998Z</time></trkpt><trkpt lat="43.72161402184114" lon="7.079835003082009"><ele>338.40000000000003</ele><time>2026-05-02T11:09:29.998Z</time></trkpt><trkpt lat="43.721615166184534" lon="7.0799873022412205"><ele>339.8</ele><time>2026-05-02T11:09:30.998Z</time></trkpt><trkpt lat="43.721611179328676" lon="7.080139369282864"><ele>341.2</ele><time>2026-05-02T11:09:31.998Z</time></trkpt><trkpt lat="43.721601590142754" lon="7.080295054132808"><ele>342.6</ele><time>2026-05-02T11:09:32.998Z</time></trkpt><trkpt lat="43.72158414652135" lon="7.080442568745683"><ele>344.0</ele><time>2026-05-02T11:09:33.999Z</time></trkpt><trkpt lat="43.72156010773383" lon="7.08059349032932"><ele>344.0</ele><time>2026-05-02T11:09:34.999Z</time></trkpt><trkpt lat="43.72153830079707" lon="7.080741008922521"><ele>344.0</ele><time>2026-05-02T11:09:35.999Z</time></trkpt><trkpt lat="43.721501513399154" lon="7.080880740491095"><ele>344.0</ele><time>2026-05-02T11:09:36.999Z</time></trkpt><trkpt lat="43.72145555010683" lon="7.081023589327103"><ele>344.0</ele><time>2026-05-02T11:09:37.999Z</time></trkpt><trkpt lat="43.72140213860537" lon="7.08115552127174"><ele>344.0</ele><time>2026-05-02T11:09:38.999Z</time></trkpt><trkpt lat="43.72133043607625" lon="7.081277901595921"><ele>344.4</ele><time>2026-05-02T11:09:39.999Z</time></trkpt><trkpt lat="43.72126906978512" lon="7.081409433873334"><ele>344.79999999999995</ele><time>2026-05-02T11:09:40.999Z</time></trkpt><trkpt lat="43.721207803692224" lon="7.08153264506544"><ele>345.20000000000005</ele><time>2026-05-02T11:09:41.999Z</time></trkpt><trkpt lat="43.72114891459163" lon="7.081646837771985"><ele>345.6</ele><time>2026-05-02T11:09:42.999Z</time></trkpt><trkpt lat="43.72108022629131" lon="7.081773164262874"><ele>346.0</ele><time>2026-05-02T11:09:43.999Z</time></trkpt><trkpt lat="43.72101432039439" lon="7.081901255026567"><ele>345.0</ele><time>2026-05-02T11:09:44.999Z</time></trkpt><trkpt lat="43.7209471811152" lon="7.082021788670097"><ele>344.0</ele><time>2026-05-02T11:09:45.999Z</time></trkpt><trkpt lat="43.720882654924004" lon="7.082150665896771"><ele>343.0</ele><time>2026-05-02T11:09:46.999Z</time></trkpt><trkpt lat="43.72082293458055" lon="7.082282563512194"><ele>342.0</ele><time>2026-05-02T11:09:47.999Z</time></trkpt><trkpt lat="43.72076656755594" lon="7.082420421636786"><ele>341.5</ele><time>2026-05-02T11:09:48.999Z</time></trkpt><trkpt lat="43.72071241176378" lon="7.082561985189076"><ele>341.0</ele><time>2026-05-02T11:09:49.999Z</time></trkpt><trkpt lat="43.720669825839096" lon="7.082707693746345"><ele>340.5</ele><time>2026-05-02T11:09:50.999Z</time></trkpt><trkpt lat="43.720638459429935" lon="7.082861746595171"><ele>340.0</ele><time>2026-05-02T11:09:51.999Z</time></trkpt><trkpt lat="43.72061357597164" lon="7.0830180355083545"><ele>340.0</ele><time>2026-05-02T11:09:52.999Z</time></trkpt><trkpt lat="43.72059859906391" lon="7.0831749860237885"><ele>340.0</ele><time>2026-05-02T11:09:53.999Z</time></trkpt><trkpt lat="43.72059663406508" lon="7.083334130006621"><ele>340.0</ele><time>2026-05-02T11:09:54.999Z</time></trkpt><trkpt lat="43.720603641308955" lon="7.0834867769047065"><ele>340.0</ele><time>2026-05-02T11:09:55.999Z</time></trkpt><trkpt lat="43.72061569890074" lon="7.083625326578569"><ele>340.0</ele><time>2026-05-02T11:09:56.999Z</time></trkpt><trkpt lat="43.72061952727302" lon="7.083740207530979"><ele>340.0</ele><time>2026-05-02T11:09:57.999Z</time></trkpt><trkpt lat="43.72059709945294" lon="7.083833666508147"><ele>340.0</ele><time>2026-05-02T11:09:58.999Z</time></trkpt><trkpt lat="43.72056337530234" lon="7.083920779940117"><ele>340.0</ele><time>2026-05-02T11:09:59.999Z</time></trkpt><trkpt lat="43.72056855866893" lon="7.084008554294063"><ele>340.0</ele><time>2026-05-02T11:10:00.999Z</time></trkpt><trkpt lat="43.72062566900982" lon="7.08407801555701"><ele>340.0</ele><time>2026-05-02T11:10:01.999Z</time></trkpt><trkpt lat="43.720700890007606" lon="7.084108168398226"><ele>340.0</ele><time>2026-05-02T11:10:02.999Z</time></trkpt><trkpt lat="43.72076255148844" lon="7.084178669285157"><ele>340.0</ele><time>2026-05-02T11:10:03.999Z</time></trkpt><trkpt lat="43.72081410257974" lon="7.084276866483263"><ele>340.0</ele><time>2026-05-02T11:10:04.999Z</time></trkpt><trkpt lat="43.72086560303039" lon="7.0843889557680075"><ele>340.0</ele><time>2026-05-02T11:10:05.999Z</time></trkpt><trkpt lat="43.720930548212124" lon="7.084502156735158"><ele>340.0</ele><time>2026-05-02T11:10:06.999Z</time></trkpt><trkpt lat="43.721009125321416" lon="7.084624859808313"><ele>340.0</ele><time>2026-05-02T11:10:07.999Z</time></trkpt><trkpt lat="43.72109582097755" lon="7.084742639917598"><ele>340.0</ele><time>2026-05-02T11:10:08.999Z</time></trkpt><trkpt lat="43.721188323266325" lon="7.084858038921449"><ele>339.25</ele><time>2026-05-02T11:10:09.999Z</time></trkpt><trkpt lat="43.72128218944855" lon="7.084974587401493"><ele>338.5</ele><time>2026-05-02T11:10:10.999Z</time></trkpt><trkpt lat="43.721370425374865" lon="7.08509146779948"><ele>337.75</ele><time>2026-05-02T11:10:11.999Z</time></trkpt><trkpt lat="43.72145752610368" lon="7.085203805417379"><ele>337.0</ele><time>2026-05-02T11:10:12.999Z</time></trkpt><trkpt lat="43.721543686674806" lon="7.085313467076802"><ele>337.0</ele><time>2026-05-02T11:10:13.999Z</time></trkpt><trkpt lat="43.7216297577776" lon="7.085421394282875"><ele>337.0</ele><time>2026-05-02T11:10:14.999Z</time></trkpt><trkpt lat="43.721714086450454" lon="7.085530954087961"><ele>337.0</ele><time>2026-05-02T11:10:15.999Z</time></trkpt><trkpt lat="43.72180048653682" lon="7.0856408016973536"><ele>337.0</ele><time>2026-05-02T11:10:16.999Z</time></trkpt><trkpt lat="43.721888081920476" lon="7.085749550733878"><ele>336.5</ele><time>2026-05-02T11:10:17.999Z</time></trkpt><trkpt lat="43.721978048828404" lon="7.085860268750803"><ele>336.0</ele><time>2026-05-02T11:10:18.999Z</time></trkpt><trkpt lat="43.7220648712804" lon="7.085970623445269"><ele>335.5</ele><time>2026-05-02T11:10:19.999Z</time></trkpt><trkpt lat="43.722145999285054" lon="7.0860774929477675"><ele>335.0</ele><time>2026-05-02T11:10:20.999Z</time></trkpt><trkpt lat="43.7222269726814" lon="7.08618363057495"><ele>335.0</ele><time>2026-05-02T11:10:21.999Z</time></trkpt><trkpt lat="43.72230793158459" lon="7.086286951090223"><ele>335.0</ele><time>2026-05-02T11:10:22.999Z</time></trkpt><trkpt lat="43.72238527725074" lon="7.086391730750461"><ele>335.0</ele><time>2026-05-02T11:10:23.999Z</time></trkpt><trkpt lat="43.722456742680436" lon="7.086501260563763"><ele>335.0</ele><time>2026-05-02T11:10:24.999Z</time></trkpt><trkpt lat="43.722525282947586" lon="7.086611828135999"><ele>335.0</ele><time>2026-05-02T11:10:25.999Z</time></trkpt><trkpt lat="43.722591064510695" lon="7.086719072920622"><ele>335.2</ele><time>2026-05-02T11:10:26.999Z</time></trkpt><trkpt lat="43.7226560980503" lon="7.086828143752863"><ele>335.4</ele><time>2026-05-02T11:10:27.999Z</time></trkpt><trkpt lat="43.72271853892046" lon="7.08693654453043"><ele>335.6</ele><time>2026-05-02T11:10:28.999Z</time></trkpt><trkpt lat="43.722780892274535" lon="7.087048914778798"><ele>335.8</ele><time>2026-05-02T11:10:29.999Z</time></trkpt><trkpt lat="43.72284094510114" lon="7.087164302543959"><ele>336.0</ele><time>2026-05-02T11:10:30.999Z</time></trkpt><trkpt lat="43.722899631760036" lon="7.087282992863834"><ele>335.6</ele><time>2026-05-02T11:10:31.999Z</time></trkpt><trkpt lat="43.722958191774374" lon="7.087402546062751"><ele>335.20000000000005</ele><time>2026-05-02T11:10:32.999Z</time></trkpt><trkpt lat="43.72301744522954" lon="7.087523132839531"><ele>334.79999999999995</ele><time>2026-05-02T11:10:33.999Z</time></trkpt><trkpt lat="43.72307089099597" lon="7.087645866227434"><ele>334.4</ele><time>2026-05-02T11:10:34.999Z</time></trkpt><trkpt lat="43.723125680076286" lon="7.08776622439634"><ele>334.0</ele><time>2026-05-02T11:10:35.999Z</time></trkpt><trkpt lat="43.72317504008173" lon="7.087890376913216"><ele>334.0</ele><time>2026-05-02T11:10:36.999Z</time></trkpt><trkpt lat="43.72322646310352" lon="7.088015034096139"><ele>334.0</ele><time>2026-05-02T11:10:37.999Z</time></trkpt><trkpt lat="43.72327857481256" lon="7.08814228121571"><ele>334.0</ele><time>2026-05-02T11:10:38.999Z</time></trkpt><trkpt lat="43.723329213058804" lon="7.088266575841333"><ele>334.0</ele><time>2026-05-02T11:10:39.999Z</time></trkpt><trkpt lat="43.72337942366237" lon="7.088382848546159"><ele>334.0</ele><time>2026-05-02T11:10:40.999Z</time></trkpt><trkpt lat="43.72343235460704" lon="7.088490891364209"><ele>333.0</ele><time>2026-05-02T11:10:41.999Z</time></trkpt><trkpt lat="43.723487763357255" lon="7.088581858334689"><ele>332.0</ele><time>2026-05-02T11:10:42.999Z</time></trkpt><trkpt lat="43.723554745024444" lon="7.0886491238328295"><ele>331.0</ele><time>2026-05-02T11:10:43.999Z</time></trkpt><trkpt lat="43.723616115982765" lon="7.088700103759185"><ele>330.0</ele><time>2026-05-02T11:10:44.999Z</time></trkpt><trkpt lat="43.723726630935424" lon="7.0887485931948655"><ele>329.0</ele><time>2026-05-02T11:10:46.999Z</time></trkpt><trkpt lat="43.72380555668381" lon="7.088570610322586"><ele>329.0</ele><time>2026-05-02T11:10:48.999Z</time></trkpt><trkpt lat="43.723823987323186" lon="7.088447216269653"><ele>329.0</ele><time>2026-05-02T11:10:49.999Z</time></trkpt><trkpt lat="43.723843856436964" lon="7.088311676653157"><ele>329.0</ele><time>2026-05-02T11:10:50.999Z</time></trkpt><trkpt lat="43.72385960985032" lon="7.0881727860764"><ele>329.0</ele><time>2026-05-02T11:10:51.999Z</time></trkpt><trkpt lat="43.72386973803119" lon="7.088030682032254"><ele>329.0</ele><time>2026-05-02T11:10:52.999Z</time></trkpt><trkpt lat="43.72387475006132" lon="7.087886476641097"><ele>330.79999999999995</ele><time>2026-05-02T11:10:53.999Z</time></trkpt><trkpt lat="43.72387191849347" lon="7.087744333575026"><ele>332.59999999999997</ele><time>2026-05-02T11:10:54.999Z</time></trkpt><trkpt lat="43.72385558404748" lon="7.0876037584916745"><ele>334.4</ele><time>2026-05-02T11:10:55.999Z</time></trkpt><trkpt lat="43.7238325981495" lon="7.087468361294287"><ele>336.2</ele><time>2026-05-02T11:10:56.999Z</time></trkpt><trkpt lat="43.723807950013565" lon="7.0873306104381895"><ele>338.0</ele><time>2026-05-02T11:10:57.999Z</time></trkpt><trkpt lat="43.72377459293058" lon="7.087196248464501"><ele>338.2</ele><time>2026-05-02T11:10:58.999Z</time></trkpt><trkpt lat="43.72373198763744" lon="7.0870660447525164"><ele>338.4</ele><time>2026-05-02T11:10:59.999Z</time></trkpt><trkpt lat="43.72368387396225" lon="7.086938540392939"><ele>338.59999999999997</ele><time>2026-05-02T11:11:00.999Z</time></trkpt><trkpt lat="43.723635916737344" lon="7.086806354504347"><ele>338.79999999999995</ele><time>2026-05-02T11:11:01.999Z</time></trkpt><trkpt lat="43.72359186256716" lon="7.086683137943244"><ele>339.0</ele><time>2026-05-02T11:11:02.999Z</time></trkpt><trkpt lat="43.723556905770835" lon="7.086571399277308"><ele>339.0</ele><time>2026-05-02T11:11:03.999Z</time></trkpt><trkpt lat="43.7235436050399" lon="7.086465525570245"><ele>339.0</ele><time>2026-05-02T11:11:04.999Z</time></trkpt><trkpt lat="43.72356874144486" lon="7.086369091155979"><ele>339.0</ele><time>2026-05-02T11:11:05.999Z</time></trkpt><trkpt lat="43.72362204495105" lon="7.08629020266327"><ele>339.0</ele><time>2026-05-02T11:11:06.999Z</time></trkpt><trkpt lat="43.72368751909175" lon="7.086224187682068"><ele>339.0</ele><time>2026-05-02T11:11:07.999Z</time></trkpt><trkpt lat="43.723762375983064" lon="7.086155266204042"><ele>339.0</ele><time>2026-05-02T11:11:08.999Z</time></trkpt><trkpt lat="43.72384224029987" lon="7.086072692955678"><ele>340.79999999999995</ele><time>2026-05-02T11:11:09.999Z</time></trkpt><trkpt lat="43.7239335988023" lon="7.086001444979761"><ele>342.59999999999997</ele><time>2026-05-02T11:11:10.999Z</time></trkpt><trkpt lat="43.72401737548346" lon="7.085918737467311"><ele>344.4</ele><time>2026-05-02T11:11:11.999Z</time></trkpt><trkpt lat="43.72410475969878" lon="7.085853831445"><ele>346.2</ele><time>2026-05-02T11:11:12.999Z</time></trkpt><trkpt lat="43.72418586017687" lon="7.085833976321574"><ele>348.0</ele><time>2026-05-02T11:11:13.999Z</time></trkpt><trkpt lat="43.724249274396556" lon="7.08583583468513"><ele>348.0</ele><time>2026-05-02T11:11:14.999Z</time></trkpt><trkpt lat="43.72431754068713" lon="7.085831582365045"><ele>348.0</ele><time>2026-05-02T11:11:17.999Z</time></trkpt><trkpt lat="43.724422870435326" lon="7.085849718221045"><ele>348.0</ele><time>2026-05-02T11:11:19.999Z</time></trkpt><trkpt lat="43.724503654934594" lon="7.085853506451463"><ele>348.0</ele><time>2026-05-02T11:11:21.999Z</time></trkpt><trkpt lat="43.72456784655046" lon="7.085856516595677"><ele>348.0</ele><time>2026-05-02T11:11:22.999Z</time></trkpt><trkpt lat="43.72465095193182" lon="7.085840949193662"><ele>348.0</ele><time>2026-05-02T11:11:23.999Z</time></trkpt><trkpt lat="43.72473099040582" lon="7.085811411339634"><ele>350.2</ele><time>2026-05-02T11:11:24.999Z</time></trkpt><trkpt lat="43.72482811018588" lon="7.085825339109711"><ele>352.4</ele><time>2026-05-02T11:11:25.999Z</time></trkpt><trkpt lat="43.72492699284784" lon="7.085814416242898"><ele>354.59999999999997</ele><time>2026-05-02T11:11:26.999Z</time></trkpt><trkpt lat="43.72502628209544" lon="7.08576698257868"><ele>356.79999999999995</ele><time>2026-05-02T11:11:27.999Z</time></trkpt><trkpt lat="43.72511840457926" lon="7.0856780550918765"><ele>359.0</ele><time>2026-05-02T11:11:28.999Z</time></trkpt><trkpt lat="43.72519013789932" lon="7.085561844970515"><ele>361.6</ele><time>2026-05-02T11:11:29.999Z</time></trkpt><trkpt lat="43.72523471757227" lon="7.085426822747519"><ele>364.2</ele><time>2026-05-02T11:11:30.999Z</time></trkpt><trkpt lat="43.72526391237707" lon="7.08528914099342"><ele>366.8</ele><time>2026-05-02T11:11:31.999Z</time></trkpt><trkpt lat="43.725315832922185" lon="7.08520829312669"><ele>369.40000000000003</ele><time>2026-05-02T11:11:32.999Z</time></trkpt><trkpt lat="43.72539854213657" lon="7.085174263254063"><ele>372.0</ele><time>2026-05-02T11:11:33.999Z</time></trkpt><trkpt lat="43.72548455181856" lon="7.0851566673702795"><ele>372.0</ele><time>2026-05-02T11:11:34.999Z</time></trkpt><trkpt lat="43.7255860870677" lon="7.085165561704122"><ele>372.0</ele><time>2026-05-02T11:11:35.999Z</time></trkpt><trkpt lat="43.72568206613232" lon="7.085215577769653"><ele>372.0</ele><time>2026-05-02T11:11:36.999Z</time></trkpt><trkpt lat="43.725761515831344" lon="7.08529050384175"><ele>372.0</ele><time>2026-05-02T11:11:37.999Z</time></trkpt><trkpt lat="43.7258428687779" lon="7.085333285721345"><ele>372.0</ele><time>2026-05-02T11:11:39Z</time></trkpt><trkpt lat="43.72593029649476" lon="7.08531400465461"><ele>372.0</ele><time>2026-05-02T11:11:40Z</time></trkpt><trkpt lat="43.72602492591802" lon="7.085252189128442"><ele>372.0</ele><time>2026-05-02T11:11:41Z</time></trkpt><trkpt lat="43.726106606208134" lon="7.085156568314071"><ele>372.0</ele><time>2026-05-02T11:11:42Z</time></trkpt><trkpt lat="43.72618180351917" lon="7.085034909588733"><ele>372.0</ele><time>2026-05-02T11:11:43Z</time></trkpt><trkpt lat="43.72625576887218" lon="7.084925286108565"><ele>372.0</ele><time>2026-05-02T11:11:44Z</time></trkpt><trkpt lat="43.726336733422954" lon="7.0848369163267755"><ele>375.20000000000005</ele><time>2026-05-02T11:11:45Z</time></trkpt><trkpt lat="43.7264174855352" lon="7.084755417465503"><ele>378.4</ele><time>2026-05-02T11:11:46Z</time></trkpt><trkpt lat="43.72649146795034" lon="7.084668738874862"><ele>381.6</ele><time>2026-05-02T11:11:47Z</time></trkpt><trkpt lat="43.7265679275276" lon="7.084583574429629"><ele>384.79999999999995</ele><time>2026-05-02T11:11:48Z</time></trkpt><trkpt lat="43.72664544536679" lon="7.084526226366117"><ele>388.0</ele><time>2026-05-02T11:11:49Z</time></trkpt><trkpt lat="43.72673279802348" lon="7.084506165408166"><ele>388.0</ele><time>2026-05-02T11:11:50Z</time></trkpt><trkpt lat="43.7268276091276" lon="7.084514751889004"><ele>388.0</ele><time>2026-05-02T11:11:51Z</time></trkpt><trkpt lat="43.7269269496988" lon="7.084533331376268"><ele>388.0</ele><time>2026-05-02T11:11:52Z</time></trkpt><trkpt lat="43.727022178614064" lon="7.084581156493888"><ele>388.0</ele><time>2026-05-02T11:11:53Z</time></trkpt><trkpt lat="43.72710711651943" lon="7.084662969286042"><ele>388.0</ele><time>2026-05-02T11:11:54Z</time></trkpt><trkpt lat="43.72718315201128" lon="7.084771441541388"><ele>388.4</ele><time>2026-05-02T11:11:55Z</time></trkpt><trkpt lat="43.72725754746912" lon="7.084881624958235"><ele>388.79999999999995</ele><time>2026-05-02T11:11:56Z</time></trkpt><trkpt lat="43.72733530760518" lon="7.084972999812927"><ele>389.2</ele><time>2026-05-02T11:11:57Z</time></trkpt><trkpt lat="43.72743125241395" lon="7.0850361254761225"><ele>389.6</ele><time>2026-05-02T11:11:58Z</time></trkpt><trkpt lat="43.72753528184521" lon="7.085082158938182"><ele>390.0</ele><time>2026-05-02T11:11:59Z</time></trkpt><trkpt lat="43.727639689287315" lon="7.085129593573211"><ele>392.2</ele><time>2026-05-02T11:12:00Z</time></trkpt><trkpt lat="43.727736670756755" lon="7.085160641113306"><ele>394.4</ele><time>2026-05-02T11:12:01Z</time></trkpt><trkpt lat="43.727835594108065" lon="7.085181423135521"><ele>396.6</ele><time>2026-05-02T11:12:02Z</time></trkpt><trkpt lat="43.727938234491916" lon="7.085205269219509"><ele>398.8</ele><time>2026-05-02T11:12:03Z</time></trkpt><trkpt lat="43.728047833289814" lon="7.085214984956487"><ele>401.0</ele><time>2026-05-02T11:12:04Z</time></trkpt><trkpt lat="43.728149416220134" lon="7.085225579693887"><ele>401.0</ele><time>2026-05-02T11:12:05Z</time></trkpt><trkpt lat="43.728245833546566" lon="7.085238482913446"><ele>401.0</ele><time>2026-05-02T11:12:06Z</time></trkpt><trkpt lat="43.72833489358355" lon="7.085257361663097"><ele>401.0</ele><time>2026-05-02T11:12:07Z</time></trkpt><trkpt lat="43.7284230455715" lon="7.085255093620418"><ele>401.0</ele><time>2026-05-02T11:12:07.999Z</time></trkpt><trkpt lat="43.72850586560889" lon="7.085254406975432"><ele>401.0</ele><time>2026-05-02T11:12:08.999Z</time></trkpt><trkpt lat="43.7285914972379" lon="7.0851706930241605"><ele>400.6</ele><time>2026-05-02T11:12:09.999Z</time></trkpt><trkpt lat="43.728682969957134" lon="7.0851273902518335"><ele>400.20000000000005</ele><time>2026-05-02T11:12:10.999Z</time></trkpt><trkpt lat="43.7287737755273" lon="7.0850715660006625"><ele>399.79999999999995</ele><time>2026-05-02T11:12:11.999Z</time></trkpt><trkpt lat="43.72886885547065" lon="7.085014716298415"><ele>399.4</ele><time>2026-05-02T11:12:12.999Z</time></trkpt><trkpt lat="43.72896885303675" lon="7.084958344563353"><ele>399.0</ele><time>2026-05-02T11:12:13.999Z</time></trkpt><trkpt lat="43.72906593218845" lon="7.084905506816818"><ele>403.2</ele><time>2026-05-02T11:12:14.999Z</time></trkpt><trkpt lat="43.72916718170701" lon="7.084865666078291"><ele>407.4</ele><time>2026-05-02T11:12:15.999Z</time></trkpt><trkpt lat="43.72926553380688" lon="7.084844905148389"><ele>411.6</ele><time>2026-05-02T11:12:16.999Z</time></trkpt><trkpt lat="43.72936461784113" lon="7.084824826094323"><ele>415.8</ele><time>2026-05-02T11:12:17.999Z</time></trkpt><trkpt lat="43.72945396062472" lon="7.084815263092835"><ele>420.0</ele><time>2026-05-02T11:12:18.999Z</time></trkpt><trkpt lat="43.72954160225067" lon="7.084765607924661"><ele>420.0</ele><time>2026-05-02T11:12:19.999Z</time></trkpt><trkpt lat="43.72961109906581" lon="7.0846760798167665"><ele>420.0</ele><time>2026-05-02T11:12:20.999Z</time></trkpt><trkpt lat="43.72967968096966" lon="7.084581661134076"><ele>420.0</ele><time>2026-05-02T11:12:21.999Z</time></trkpt><trkpt lat="43.729752632211756" lon="7.084504910365845"><ele>420.0</ele><time>2026-05-02T11:12:22.999Z</time></trkpt><trkpt lat="43.72983129958911" lon="7.08444245480215"><ele>420.0</ele><time>2026-05-02T11:12:23.999Z</time></trkpt><trkpt lat="43.72991524796447" lon="7.08440634137746"><ele>420.0</ele><time>2026-05-02T11:12:24.999Z</time></trkpt><trkpt lat="43.72998174283997" lon="7.084331945626414"><ele>420.0</ele><time>2026-05-02T11:12:25.999Z</time></trkpt><trkpt lat="43.7300386790241" lon="7.084242546914726"><ele>420.0</ele><time>2026-05-02T11:12:26.999Z</time></trkpt><trkpt lat="43.730075645947565" lon="7.084136623159693"><ele>420.0</ele><time>2026-05-02T11:12:27.999Z</time></trkpt><trkpt lat="43.73010362922981" lon="7.084026947305222"><ele>420.0</ele><time>2026-05-02T11:12:28.999Z</time></trkpt><trkpt lat="43.7301397908587" lon="7.083927080187887"><ele>420.0</ele><time>2026-05-02T11:12:29.999Z</time></trkpt><trkpt lat="43.73016164816209" lon="7.083826931063663"><ele>422.1666666666667</ele><time>2026-05-02T11:12:30.999Z</time></trkpt><trkpt lat="43.730163356041004" lon="7.083725105455538"><ele>424.33333333333337</ele><time>2026-05-02T11:12:31.999Z</time></trkpt><trkpt lat="43.73008267767576" lon="7.083659124470426"><ele>426.5</ele><time>2026-05-02T11:12:32.999Z</time></trkpt><trkpt lat="43.73003211014586" lon="7.083571081057469"><ele>428.6666666666667</ele><time>2026-05-02T11:12:33.999Z</time></trkpt><trkpt lat="43.73001058638496" lon="7.0834604597263215"><ele>430.83333333333337</ele><time>2026-05-02T11:12:34.999Z</time></trkpt><trkpt lat="43.72995514605372" lon="7.083374470188122"><ele>433.0</ele><time>2026-05-02T11:12:35.999Z</time></trkpt><trkpt lat="43.729895574373685" lon="7.083292492699262"><ele>435.33333333333337</ele><time>2026-05-02T11:12:36.999Z</time></trkpt><trkpt lat="43.7298244084483" lon="7.083226466507939"><ele>437.6666666666667</ele><time>2026-05-02T11:12:37.999Z</time></trkpt><trkpt lat="43.729747340181746" lon="7.083167013130769"><ele>440.0</ele><time>2026-05-02T11:12:38.999Z</time></trkpt><trkpt lat="43.72966318903762" lon="7.083122155171979"><ele>442.33333333333337</ele><time>2026-05-02T11:12:39.999Z</time></trkpt><trkpt lat="43.72957811324584" lon="7.083109957849829"><ele>444.6666666666667</ele><time>2026-05-02T11:12:40.999Z</time></trkpt><trkpt lat="43.72949525378832" lon="7.083142824706152"><ele>447.0</ele><time>2026-05-02T11:12:41.999Z</time></trkpt><trkpt lat="43.72940896818408" lon="7.083185205969647"><ele>445.20000000000005</ele><time>2026-05-02T11:12:42.999Z</time></trkpt><trkpt lat="43.729316269766585" lon="7.083198422291106"><ele>443.40000000000003</ele><time>2026-05-02T11:12:43.999Z</time></trkpt><trkpt lat="43.72922395826565" lon="7.0832247971777385"><ele>441.59999999999997</ele><time>2026-05-02T11:12:44.999Z</time></trkpt><trkpt lat="43.729134442438465" lon="7.083249482625691"><ele>439.79999999999995</ele><time>2026-05-02T11:12:45.999Z</time></trkpt><trkpt lat="43.729047317886746" lon="7.083218252727834"><ele>438.0</ele><time>2026-05-02T11:12:46.999Z</time></trkpt><trkpt lat="43.72898539995396" lon="7.083126166074539"><ele>438.0</ele><time>2026-05-02T11:12:47.999Z</time></trkpt><trkpt lat="43.728913467926134" lon="7.083045380933524"><ele>437.99999999999994</ele><time>2026-05-02T11:12:48.999Z</time></trkpt><trkpt lat="43.72883922049689" lon="7.08296047122084"><ele>437.99999999999994</ele><time>2026-05-02T11:12:49.999Z</time></trkpt><trkpt lat="43.728766798226125" lon="7.082875097603604"><ele>438.0</ele><time>2026-05-02T11:12:50.999Z</time></trkpt><trkpt lat="43.72869501202554" lon="7.082788447128257"><ele>438.0</ele><time>2026-05-02T11:12:51.999Z</time></trkpt><trkpt lat="43.72861669367945" lon="7.082702712529808"><ele>437.4</ele><time>2026-05-02T11:12:52.999Z</time></trkpt><trkpt lat="43.72853799115236" lon="7.082622923182315"><ele>436.79999999999995</ele><time>2026-05-02T11:12:53.999Z</time></trkpt><trkpt lat="43.72845502061737" lon="7.0825447142387885"><ele>436.2</ele><time>2026-05-02T11:12:54.999Z</time></trkpt><trkpt lat="43.72841460279035" lon="7.082420219533359"><ele>435.6</ele><time>2026-05-02T11:12:55.999Z</time></trkpt><trkpt lat="43.728364178865995" lon="7.082300659454557"><ele>435.0</ele><time>2026-05-02T11:12:56.999Z</time></trkpt><trkpt lat="43.7283149879448" lon="7.08218875282502"><ele>436.0</ele><time>2026-05-02T11:12:57.999Z</time></trkpt><trkpt lat="43.72826722476807" lon="7.082087145985585"><ele>437.0</ele><time>2026-05-02T11:12:58.999Z</time></trkpt><trkpt lat="43.72822039361205" lon="7.0820112974956135"><ele>438.0</ele><time>2026-05-02T11:12:59.999Z</time></trkpt><trkpt lat="43.728231640967145" lon="7.081922808124173"><ele>439.0</ele><time>2026-05-02T11:13:00.999Z</time></trkpt><trkpt lat="43.72827530737606" lon="7.0818493124967015"><ele>440.0</ele><time>2026-05-02T11:13:01.999Z</time></trkpt><trkpt lat="43.72831089198064" lon="7.081751268543255"><ele>441.0</ele><time>2026-05-02T11:13:02.999Z</time></trkpt><trkpt lat="43.72836196882307" lon="7.081661650778534"><ele>442.5</ele><time>2026-05-02T11:13:03.999Z</time></trkpt><trkpt lat="43.728409282534315" lon="7.081569589098548"><ele>444.0</ele><time>2026-05-02T11:13:04.999Z</time></trkpt><trkpt lat="43.728459633384205" lon="7.081481168552203"><ele>445.5</ele><time>2026-05-02T11:13:05.999Z</time></trkpt><trkpt lat="43.728513215575106" lon="7.081393744005278"><ele>447.0</ele><time>2026-05-02T11:13:06.999Z</time></trkpt><trkpt lat="43.72856904568349" lon="7.0813010858442915"><ele>448.5</ele><time>2026-05-02T11:13:07.999Z</time></trkpt><trkpt lat="43.728622156737266" lon="7.081204332478891"><ele>450.0</ele><time>2026-05-02T11:13:08.999Z</time></trkpt><trkpt lat="43.72867928231275" lon="7.08110873830908"><ele>453.1666666666667</ele><time>2026-05-02T11:13:09.999Z</time></trkpt><trkpt lat="43.728737924873215" lon="7.081019416563078"><ele>456.33333333333337</ele><time>2026-05-02T11:13:10.999Z</time></trkpt><trkpt lat="43.72880294281477" lon="7.08094070244636"><ele>459.5</ele><time>2026-05-02T11:13:11.999Z</time></trkpt><trkpt lat="43.72887184365988" lon="7.080866841217896"><ele>462.6666666666667</ele><time>2026-05-02T11:13:12.999Z</time></trkpt><trkpt lat="43.728939030883446" lon="7.080790237950188"><ele>465.83333333333337</ele><time>2026-05-02T11:13:13.999Z</time></trkpt><trkpt lat="43.72900606173701" lon="7.080713207182609"><ele>469.0</ele><time>2026-05-02T11:13:14.999Z</time></trkpt><trkpt lat="43.72906514152163" lon="7.080646033379113"><ele>471.50000000000006</ele><time>2026-05-02T11:13:15.999Z</time></trkpt><trkpt lat="43.72912178102038" lon="7.080584129077874"><ele>474.0</ele><time>2026-05-02T11:13:16.999Z</time></trkpt><trkpt lat="43.72917128456582" lon="7.080523359490674"><ele>476.5</ele><time>2026-05-02T11:13:17.999Z</time></trkpt><trkpt lat="43.72922366092886" lon="7.080422296118277"><ele>479.0</ele><time>2026-05-02T11:13:19.999Z</time></trkpt><trkpt lat="43.72916798565885" lon="7.080336768205895"><ele>481.50000000000006</ele><time>2026-05-02T11:13:21.999Z</time></trkpt><trkpt lat="43.729204396127564" lon="7.080414733277315"><ele>484.0</ele><time>2026-05-02T11:13:28.999Z</time></trkpt><trkpt lat="43.72928844947533" lon="7.080349105310641"><ele>484.0</ele><time>2026-05-02T11:13:29.999Z</time></trkpt><trkpt lat="43.72938331709489" lon="7.080428249716906"><ele>484.0</ele><time>2026-05-02T11:13:30.999Z</time></trkpt><trkpt lat="43.72948401421748" lon="7.080473710833418"><ele>484.0</ele><time>2026-05-02T11:13:32.999Z</time></trkpt><trkpt lat="43.72957713628192" lon="7.080543447507376"><ele>484.0</ele><time>2026-05-02T11:13:34.999Z</time></trkpt><trkpt lat="43.72953305675818" lon="7.080295147543898"><ele>484.00000000000006</ele><time>2026-05-02T11:13:40.999Z</time></trkpt><trkpt lat="43.72948482803886" lon="7.080220770751273"><ele>484.0</ele><time>2026-05-02T11:13:41.999Z</time></trkpt><trkpt lat="43.72943147508907" lon="7.080173266969324"><ele>484.0</ele><time>2026-05-02T11:13:42.999Z</time></trkpt><trkpt lat="43.72934548337326" lon="7.080076000264401"><ele>484.0</ele><time>2026-05-02T11:13:45Z</time></trkpt><trkpt lat="43.729322795908985" lon="7.079990435848686"><ele>484.00000000000006</ele><time>2026-05-02T11:13:47Z</time></trkpt><trkpt lat="43.729342082104836" lon="7.079896646683327"><ele>484.0</ele><time>2026-05-02T11:13:51Z</time></trkpt><trkpt lat="43.72931095880699" lon="7.079713295581422"><ele>486.79999999999995</ele><time>2026-05-02T11:13:53Z</time></trkpt><trkpt lat="43.72930132480907" lon="7.0796213093382105"><ele>489.59999999999997</ele><time>2026-05-02T11:13:54Z</time></trkpt><trkpt lat="43.72927392526045" lon="7.0795034066561815"><ele>492.4</ele><time>2026-05-02T11:13:56Z</time></trkpt><trkpt lat="43.72935243348553" lon="7.079430616648509"><ele>495.2</ele><time>2026-05-02T11:13:59Z</time></trkpt><trkpt lat="43.72944369554186" lon="7.079479554447415"><ele>498.0</ele><time>2026-05-02T11:14:01Z</time></trkpt><trkpt lat="43.729563968482246" lon="7.079558813511499"><ele>502.1666666666667</ele><time>2026-05-02T11:14:03Z</time></trkpt><trkpt lat="43.729628122328876" lon="7.079604787960249"><ele>506.33333333333337</ele><time>2026-05-02T11:14:04Z</time></trkpt><trkpt lat="43.72972636990119" lon="7.079686296395318"><ele>510.5</ele><time>2026-05-02T11:14:06Z</time></trkpt><trkpt lat="43.72980579003848" lon="7.079698685644821"><ele>514.6666666666667</ele><time>2026-05-02T11:14:08Z</time></trkpt><trkpt lat="43.72987795379091" lon="7.079688560101969"><ele>518.8333333333334</ele><time>2026-05-02T11:14:10Z</time></trkpt><trkpt lat="43.72997756695906" lon="7.07966594824231"><ele>523.0</ele><time>2026-05-02T11:14:12Z</time></trkpt><trkpt lat="43.73005902238888" lon="7.079655647798524"><ele>523.0</ele><time>2026-05-02T11:14:15Z</time></trkpt><trkpt lat="43.73011104973067" lon="7.079716737548284"><ele>523.0</ele><time>2026-05-02T11:14:41.999Z</time></trkpt><trkpt lat="43.73018260157179" lon="7.079692429459898"><ele>523.0</ele><time>2026-05-02T11:22:40Z</time></trkpt><trkpt lat="43.73024320859141" lon="7.079721202589752"><ele>523.0</ele><time>2026-05-02T11:22:48Z</time></trkpt><trkpt lat="43.73032335084359" lon="7.079743088303419"><ele>523.0</ele><time>2026-05-02T11:22:50Z</time></trkpt><trkpt lat="43.730404353736056" lon="7.079763338177529"><ele>523.0</ele><time>2026-05-02T11:22:52Z</time></trkpt><trkpt lat="43.73049568211392" lon="7.079781319840954"><ele>526.4</ele><time>2026-05-02T11:22:54Z</time></trkpt><trkpt lat="43.730551488870994" lon="7.079823755590025"><ele>529.8</ele><time>2026-05-02T11:22:56Z</time></trkpt><trkpt lat="43.730620777364024" lon="7.079858184454914"><ele>533.2</ele><time>2026-05-02T11:22:58Z</time></trkpt><trkpt lat="43.73069511661552" lon="7.079876598783867"><ele>536.6</ele><time>2026-05-02T11:23:00Z</time></trkpt><trkpt lat="43.730839314117986" lon="7.0798345643320815"><ele>540.0</ele><time>2026-05-02T11:23:05.999Z</time></trkpt><trkpt lat="43.73102334781311" lon="7.079850566719645"><ele>543.5</ele><time>2026-05-02T11:23:14.999Z</time></trkpt><trkpt lat="43.73109745218974" lon="7.0798616621702894"><ele>547.0</ele><time>2026-05-02T11:23:19.999Z</time></trkpt><trkpt lat="43.73117301027309" lon="7.079854274122085"><ele>550.5</ele><time>2026-05-02T11:23:22.999Z</time></trkpt><trkpt lat="43.731238828078446" lon="7.079834981144625"><ele>554.0</ele><time>2026-05-02T11:23:24.999Z</time></trkpt><trkpt lat="43.73130804909188" lon="7.0797925481597765"><ele>557.5</ele><time>2026-05-02T11:23:27.999Z</time></trkpt><trkpt lat="43.7314574280267" lon="7.079793288544588"><ele>561.0</ele><time>2026-05-02T11:23:32.999Z</time></trkpt><trkpt lat="43.73155157019563" lon="7.079787633119005"><ele>561.0</ele><time>2026-05-02T11:23:35.999Z</time></trkpt><trkpt lat="43.73161235717363" lon="7.079755643607488"><ele>561.0</ele><time>2026-05-02T11:23:37.999Z</time></trkpt><trkpt lat="43.7316959723363" lon="7.079713970636898"><ele>561.0</ele><time>2026-05-02T11:23:39.999Z</time></trkpt><trkpt lat="43.73177580391718" lon="7.079671390243797"><ele>561.0</ele><time>2026-05-02T11:23:41.999Z</time></trkpt><trkpt lat="43.731853313325125" lon="7.079609020551106"><ele>561.0</ele><time>2026-05-02T11:23:43.999Z</time></trkpt><trkpt lat="43.73193432737207" lon="7.079557434202138"><ele>561.0</ele><time>2026-05-02T11:23:45.999Z</time></trkpt><trkpt lat="43.73202761509598" lon="7.079494167409316"><ele>564.4</ele><time>2026-05-02T11:23:47.999Z</time></trkpt><trkpt lat="43.732121816031515" lon="7.079458411775309"><ele>567.8</ele><time>2026-05-02T11:23:49.999Z</time></trkpt><trkpt lat="43.73221494123744" lon="7.079476321474505"><ele>571.1999999999999</ele><time>2026-05-02T11:23:51.999Z</time></trkpt><trkpt lat="43.732322248813965" lon="7.079487343012202"><ele>574.6</ele><time>2026-05-02T11:23:53.999Z</time></trkpt><trkpt lat="43.73240806010295" lon="7.07946039559452"><ele>578.0</ele><time>2026-05-02T11:23:55.999Z</time></trkpt><trkpt lat="43.73250443817349" lon="7.079448142895735"><ele>578.0</ele><time>2026-05-02T11:23:58.999Z</time></trkpt><trkpt lat="43.732585492928166" lon="7.079470773498219"><ele>578.0</ele><time>2026-05-02T11:24:01.999Z</time></trkpt><trkpt lat="43.73264916596197" lon="7.07948820048361"><ele>578.0</ele><time>2026-05-02T11:24:05.999Z</time></trkpt><trkpt lat="43.73271576305211" lon="7.079550608365415"><ele>578.0</ele><time>2026-05-02T11:24:08.999Z</time></trkpt><trkpt lat="43.732778149054084" lon="7.07958902299703"><ele>578.0</ele><time>2026-05-02T11:24:10.999Z</time></trkpt><trkpt lat="43.73284832105375" lon="7.0796399020743275"><ele>578.0</ele><time>2026-05-02T11:24:14Z</time></trkpt><trkpt lat="43.73293432813043" lon="7.079667210626658"><ele>579.1666666666666</ele><time>2026-05-02T11:24:17Z</time></trkpt><trkpt lat="43.733008675261495" lon="7.079699742510634"><ele>580.3333333333333</ele><time>2026-05-02T11:24:45Z</time></trkpt><trkpt lat="43.73308081068266" lon="7.079741866490082"><ele>581.5</ele><time>2026-05-02T11:25:01Z</time></trkpt><trkpt lat="43.733168039372416" lon="7.079770454569583"><ele>582.6666666666666</ele><time>2026-05-02T11:25:04Z</time></trkpt><trkpt lat="43.73324027928504" lon="7.079815848518234"><ele>583.8333333333334</ele><time>2026-05-02T11:25:05.999Z</time></trkpt><trkpt lat="43.73334018519238" lon="7.0798388582671965"><ele>585.0</ele><time>2026-05-02T11:25:07.999Z</time></trkpt><trkpt lat="43.7334090707385" lon="7.079839014375515"><ele>585.0</ele><time>2026-05-02T11:25:09.999Z</time></trkpt><trkpt lat="43.73350832212444" lon="7.079788566384978"><ele>585.0</ele><time>2026-05-02T11:25:11.999Z</time></trkpt><trkpt lat="43.73357149713145" lon="7.0797345478296005"><ele>585.0</ele><time>2026-05-02T11:25:12.999Z</time></trkpt><trkpt lat="43.7336283261916" lon="7.079656633203959"><ele>585.0</ele><time>2026-05-02T11:25:13.999Z</time></trkpt><trkpt lat="43.7336873668493" lon="7.079529571967256"><ele>585.0</ele><time>2026-05-02T11:25:15.999Z</time></trkpt><trkpt lat="43.73375347635904" lon="7.079396340717558"><ele>583.8333333333334</ele><time>2026-05-02T11:25:17.999Z</time></trkpt><trkpt lat="43.73378728886811" lon="7.079319307596398"><ele>582.6666666666666</ele><time>2026-05-02T11:25:18.999Z</time></trkpt><trkpt lat="43.733849529286715" lon="7.0792284454361925"><ele>581.5</ele><time>2026-05-02T11:25:20.999Z</time></trkpt><trkpt lat="43.73387885580282" lon="7.079140401608333"><ele>580.3333333333333</ele><time>2026-05-02T11:25:22.999Z</time></trkpt><trkpt lat="43.73392170814209" lon="7.079061362689312"><ele>579.1666666666666</ele><time>2026-05-02T11:25:24.999Z</time></trkpt><trkpt lat="43.73394546052782" lon="7.078967113092748"><ele>578.0</ele><time>2026-05-02T11:25:27.999Z</time></trkpt><trkpt lat="43.7340050866119" lon="7.078884019288364"><ele>580.3333333333333</ele><time>2026-05-02T11:25:30.999Z</time></trkpt><trkpt lat="43.73407672268021" lon="7.078819711883716"><ele>582.6666666666666</ele><time>2026-05-02T11:25:33.999Z</time></trkpt><trkpt lat="43.73414452881392" lon="7.078757653114953"><ele>585.0</ele><time>2026-05-02T11:25:35.999Z</time></trkpt><trkpt lat="43.73420245531568" lon="7.078716990346881"><ele>587.3333333333334</ele><time>2026-05-02T11:25:37.999Z</time></trkpt><trkpt lat="43.73429455529817" lon="7.078654828638368"><ele>589.6666666666667</ele><time>2026-05-02T11:25:39.999Z</time></trkpt><trkpt lat="43.73436311219393" lon="7.078596316182698"><ele>592.0</ele><time>2026-05-02T11:25:41.999Z</time></trkpt><trkpt lat="43.73443365771582" lon="7.078545063971182"><ele>592.1666666666667</ele><time>2026-05-02T11:25:43.999Z</time></trkpt><trkpt lat="43.73451166154536" lon="7.078495923726117"><ele>592.3333333333334</ele><time>2026-05-02T11:25:48.999Z</time></trkpt><trkpt lat="43.73458612053219" lon="7.078483985305732"><ele>592.5</ele><time>2026-05-02T11:25:50.999Z</time></trkpt><trkpt lat="43.73465367500812" lon="7.0784234013762175"><ele>592.6666666666666</ele><time>2026-05-02T11:25:52.999Z</time></trkpt><trkpt lat="43.734728217397894" lon="7.078367580899147"><ele>592.8333333333333</ele><time>2026-05-02T11:25:56.999Z</time></trkpt><trkpt lat="43.734798706916415" lon="7.078387355134855"><ele>593.0</ele><time>2026-05-02T11:25:59.999Z</time></trkpt><trkpt lat="43.73487087676987" lon="7.078453148209404"><ele>593.0</ele><time>2026-05-02T11:26:02.999Z</time></trkpt><trkpt lat="43.73497356815817" lon="7.078543515784847"><ele>593.0</ele><time>2026-05-02T11:26:14.999Z</time></trkpt><trkpt lat="43.735023140922" lon="7.0786124899304275"><ele>593.0</ele><time>2026-05-02T11:26:17.999Z</time></trkpt><trkpt lat="43.73508789538746" lon="7.078645963017651"><ele>593.0</ele><time>2026-05-02T11:26:21Z</time></trkpt><trkpt lat="43.735144253736394" lon="7.078707849895464"><ele>593.0</ele><time>2026-05-02T11:26:28Z</time></trkpt><trkpt lat="43.73521631210594" lon="7.078749902591192"><ele>593.0</ele><time>2026-05-02T11:26:31Z</time></trkpt><trkpt lat="43.735289201962146" lon="7.078802769178233"><ele>594.8333333333333</ele><time>2026-05-02T11:26:34Z</time></trkpt><trkpt lat="43.73537527731316" lon="7.078866479160588"><ele>596.6666666666666</ele><time>2026-05-02T11:26:37Z</time></trkpt><trkpt lat="43.73544068731272" lon="7.078891438178256"><ele>598.5</ele><time>2026-05-02T11:26:39Z</time></trkpt><trkpt lat="43.73550522458686" lon="7.078928819523471"><ele>600.3333333333334</ele><time>2026-05-02T11:26:41Z</time></trkpt><trkpt lat="43.73555306848091" lon="7.078994003391895"><ele>602.1666666666667</ele><time>2026-05-02T11:26:44Z</time></trkpt><trkpt lat="43.73561380985492" lon="7.079079483789374"><ele>604.0</ele><time>2026-05-02T11:26:49Z</time></trkpt><trkpt lat="43.735668414582534" lon="7.079160937274074"><ele>604.0</ele><time>2026-05-02T11:26:52Z</time></trkpt><trkpt lat="43.735724204236405" lon="7.0792211999731185"><ele>604.0</ele><time>2026-05-02T11:26:55Z</time></trkpt><trkpt lat="43.735802650950305" lon="7.079247498255045"><ele>604.0</ele><time>2026-05-02T11:26:57Z</time></trkpt><trkpt lat="43.73587037294559" lon="7.079319238160622"><ele>604.0</ele><time>2026-05-02T11:26:59Z</time></trkpt><trkpt lat="43.73593129753146" lon="7.079377818617647"><ele>604.0</ele><time>2026-05-02T11:27:04.999Z</time></trkpt><trkpt lat="43.736000476653" lon="7.079394290552476"><ele>604.0</ele><time>2026-05-02T11:27:09.999Z</time></trkpt><trkpt lat="43.73607409745151" lon="7.079434862821323"><ele>604.3333333333334</ele><time>2026-05-02T11:27:12.999Z</time></trkpt><trkpt lat="43.73615218048576" lon="7.079470326612786"><ele>604.6666666666667</ele><time>2026-05-02T11:27:15.999Z</time></trkpt><trkpt lat="43.736207616043394" lon="7.0795390905061675"><ele>605.0</ele><time>2026-05-02T11:27:20.999Z</time></trkpt><trkpt lat="43.736259470893266" lon="7.0794684194811195"><ele>605.3333333333334</ele><time>2026-05-02T11:27:24.999Z</time></trkpt><trkpt lat="43.73631146588586" lon="7.079375370152227"><ele>605.6666666666666</ele><time>2026-05-02T11:27:27.999Z</time></trkpt><trkpt lat="43.73632979173899" lon="7.079277530774943"><ele>606.0</ele><time>2026-05-02T11:27:29.999Z</time></trkpt><trkpt lat="43.73636495461375" lon="7.079178785936649"><ele>606.0</ele><time>2026-05-02T11:27:32.999Z</time></trkpt><trkpt lat="43.7364155004027" lon="7.079121446079126"><ele>606.0</ele><time>2026-05-02T11:27:33.999Z</time></trkpt><trkpt lat="43.73647019479504" lon="7.079056803615444"><ele>606.0</ele><time>2026-05-02T11:27:34.999Z</time></trkpt><trkpt lat="43.7365654174075" lon="7.078963948523598"><ele>606.0</ele><time>2026-05-02T11:27:36.999Z</time></trkpt><trkpt lat="43.73663561731488" lon="7.0789502281886705"><ele>606.0</ele><time>2026-05-02T11:27:37.999Z</time></trkpt><trkpt lat="43.73675401800128" lon="7.078930726109871"><ele>606.0</ele><time>2026-05-02T11:27:39.999Z</time></trkpt><trkpt lat="43.736822590796464" lon="7.078905873612884"><ele>611.2</ele><time>2026-05-02T11:27:40.999Z</time></trkpt><trkpt lat="43.73692305864588" lon="7.078858611923839"><ele>616.4000000000001</ele><time>2026-05-02T11:27:42.999Z</time></trkpt><trkpt lat="43.73701922031432" lon="7.078825360748663"><ele>621.6</ele><time>2026-05-02T11:27:44.999Z</time></trkpt><trkpt lat="43.737098717699155" lon="7.078746140352891"><ele>626.8000000000001</ele><time>2026-05-02T11:27:46.999Z</time></trkpt><trkpt lat="43.737176616533645" lon="7.07865657041096"><ele>632.0</ele><time>2026-05-02T11:27:48.999Z</time></trkpt><trkpt lat="43.73722775465055" lon="7.0785838426509"><ele>632.0</ele><time>2026-05-02T11:27:50.999Z</time></trkpt><trkpt lat="43.737342098985394" lon="7.078585910889562"><ele>632.0</ele><time>2026-05-02T11:27:52.999Z</time></trkpt><trkpt lat="43.737446356941064" lon="7.078576147920365"><ele>632.0</ele><time>2026-05-02T11:27:54.999Z</time></trkpt><trkpt lat="43.73755281811299" lon="7.078593070920749"><ele>632.0</ele><time>2026-05-02T11:27:56.999Z</time></trkpt><trkpt lat="43.737623246714044" lon="7.0786370054074705"><ele>632.0</ele><time>2026-05-02T11:27:57.999Z</time></trkpt><trkpt lat="43.73772355280523" lon="7.078713492043697"><ele>633.1666666666666</ele><time>2026-05-02T11:27:59.999Z</time></trkpt><trkpt lat="43.73776417369472" lon="7.078793360659751"><ele>634.3333333333333</ele><time>2026-05-02T11:28:00.999Z</time></trkpt><trkpt lat="43.73784839950241" lon="7.078887915281553"><ele>635.5</ele><time>2026-05-02T11:28:02.999Z</time></trkpt><trkpt lat="43.73795592662769" lon="7.078939021486059"><ele>636.6666666666666</ele><time>2026-05-02T11:28:05.999Z</time></trkpt><trkpt lat="43.73796971501959" lon="7.078850706894371"><ele>637.8333333333334</ele><time>2026-05-02T11:28:17.999Z</time></trkpt><trkpt lat="43.737958906237495" lon="7.078757854508197"><ele>639.0</ele><time>2026-05-02T11:28:19.999Z</time></trkpt><trkpt lat="43.737964863336046" lon="7.078650273277885"><ele>639.0</ele><time>2026-05-02T11:28:21.999Z</time></trkpt><trkpt lat="43.7379959070152" lon="7.078545754243624"><ele>639.0</ele><time>2026-05-02T11:28:23.999Z</time></trkpt><trkpt lat="43.73803772283782" lon="7.078453500918041"><ele>639.0</ele><time>2026-05-02T11:28:27Z</time></trkpt><trkpt lat="43.73803723166999" lon="7.0783543745200435"><ele>639.0</ele><time>2026-05-02T11:28:29Z</time></trkpt><trkpt lat="43.738087898003734" lon="7.078280006949651"><ele>639.0</ele><time>2026-05-02T11:28:33Z</time></trkpt><trkpt lat="43.73806275730764" lon="7.0781750100278265"><ele>639.0</ele><time>2026-05-02T11:28:35Z</time></trkpt><trkpt lat="43.738095778482695" lon="7.078091353760696"><ele>641.8333333333334</ele><time>2026-05-02T11:28:37Z</time></trkpt><trkpt lat="43.73810432156703" lon="7.078004525859641"><ele>644.6666666666666</ele><time>2026-05-02T11:28:39Z</time></trkpt><trkpt lat="43.73814749212129" lon="7.0779342087898165"><ele>647.5</ele><time>2026-05-02T11:28:41Z</time></trkpt><trkpt lat="43.73811725442776" lon="7.077833972461662"><ele>650.3333333333333</ele><time>2026-05-02T11:28:43Z</time></trkpt><trkpt lat="43.73803726383462" lon="7.077750236011969"><ele>653.1666666666666</ele><time>2026-05-02T11:28:45Z</time></trkpt><trkpt lat="43.738025050797376" lon="7.077636402456455"><ele>656.0</ele><time>2026-05-02T11:28:47Z</time></trkpt><trkpt lat="43.738033844755385" lon="7.077536011949965"><ele>660.0</ele><time>2026-05-02T11:28:50Z</time></trkpt><trkpt lat="43.738000395145704" lon="7.077411318738713"><ele>664.0</ele><time>2026-05-02T11:28:53Z</time></trkpt><trkpt lat="43.73795913332048" lon="7.077303108035548"><ele>668.0</ele><time>2026-05-02T11:28:55Z</time></trkpt><trkpt lat="43.73792229457303" lon="7.077175211535487"><ele>672.0</ele><time>2026-05-02T11:28:57Z</time></trkpt><trkpt lat="43.737884277183426" lon="7.077063943737305"><ele>676.0</ele><time>2026-05-02T11:28:59Z</time></trkpt><trkpt lat="43.73782286639472" lon="7.076987447035419"><ele>676.0</ele><time>2026-05-02T11:29:01Z</time></trkpt><trkpt lat="43.73780630855019" lon="7.076887859738892"><ele>676.0</ele><time>2026-05-02T11:29:04Z</time></trkpt><trkpt lat="43.737826091710076" lon="7.076798833399845"><ele>676.0</ele><time>2026-05-02T11:29:08Z</time></trkpt><trkpt lat="43.73786939392826" lon="7.076730237233634"><ele>676.0</ele><time>2026-05-02T11:29:11Z</time></trkpt><trkpt lat="43.73791643649968" lon="7.076649058529367"><ele>676.0</ele><time>2026-05-02T11:29:13.999Z</time></trkpt><trkpt lat="43.73792151407806" lon="7.076548304200104"><ele>676.0</ele><time>2026-05-02T11:29:18.999Z</time></trkpt><trkpt lat="43.73791134014303" lon="7.076429016133945"><ele>676.0</ele><time>2026-05-02T11:29:21.999Z</time></trkpt><trkpt lat="43.73794873215002" lon="7.076316006935581"><ele>678.8333333333334</ele><time>2026-05-02T11:29:23.999Z</time></trkpt><trkpt lat="43.73793643446761" lon="7.076222991943997"><ele>681.6666666666667</ele><time>2026-05-02T11:29:26.999Z</time></trkpt><trkpt lat="43.73789503163281" lon="7.076125897380517"><ele>684.5</ele><time>2026-05-02T11:29:28.999Z</time></trkpt><trkpt lat="43.73783082321161" lon="7.076039864128565"><ele>687.3333333333334</ele><time>2026-05-02T11:29:30.999Z</time></trkpt><trkpt lat="43.73778102979324" lon="7.07597450489812"><ele>690.1666666666666</ele><time>2026-05-02T11:29:33.999Z</time></trkpt><trkpt lat="43.73773990520737" lon="7.075886178852164"><ele>693.0</ele><time>2026-05-02T11:29:35.999Z</time></trkpt><trkpt lat="43.73771725377248" lon="7.075784689706833"><ele>693.7142857142857</ele><time>2026-05-02T11:29:37.999Z</time></trkpt><trkpt lat="43.73772808355557" lon="7.075687983682156"><ele>694.4285714285714</ele><time>2026-05-02T11:29:41.999Z</time></trkpt><trkpt lat="43.73775767592205" lon="7.07560008321838"><ele>695.1428571428571</ele><time>2026-05-02T11:29:46.999Z</time></trkpt><trkpt lat="43.73773939559203" lon="7.075508245527973"><ele>695.8571428571429</ele><time>2026-05-02T11:29:59.999Z</time></trkpt><trkpt lat="43.73778158911757" lon="7.0755824876236595"><ele>696.5714285714286</ele><time>2026-05-02T11:30:40Z</time></trkpt><trkpt lat="43.73775104286371" lon="7.075679272600917"><ele>697.2857142857142</ele><time>2026-05-02T11:30:46Z</time></trkpt><trkpt lat="43.73775234052392" lon="7.075780606610544"><ele>698.0</ele><time>2026-05-02T11:30:55Z</time></trkpt><trkpt lat="43.737788148043784" lon="7.075885915070819"><ele>698.0</ele><time>2026-05-02T11:30:59Z</time></trkpt><trkpt lat="43.73784768289304" lon="7.075945354618668"><ele>698.0</ele><time>2026-05-02T11:31:01Z</time></trkpt><trkpt lat="43.737893368455374" lon="7.076018911352464"><ele>698.0</ele><time>2026-05-02T11:31:04Z</time></trkpt><trkpt lat="43.73798444043249" lon="7.076067470349842"><ele>698.0</ele><time>2026-05-02T11:31:27.999Z</time></trkpt><trkpt lat="43.7380610067355" lon="7.076048143242558"><ele>698.0</ele><time>2026-05-02T11:31:30.999Z</time></trkpt><trkpt lat="43.738136365165666" lon="7.076061019163742"><ele>698.0</ele><time>2026-05-02T11:31:35.999Z</time></trkpt><trkpt lat="43.738204859890665" lon="7.076073906709308"><ele>697.9999999999999</ele><time>2026-05-02T11:31:38.999Z</time></trkpt><trkpt lat="43.73824921547674" lon="7.07599618480592"><ele>698.0</ele><time>2026-05-02T11:31:50.999Z</time></trkpt><trkpt lat="43.738263144694535" lon="7.075906888351365"><ele>698.0</ele><time>2026-05-02T11:31:59.999Z</time></trkpt><trkpt lat="43.73833600011141" lon="7.075919494095343"><ele>698.0</ele><time>2026-05-02T11:32:06.999Z</time></trkpt><trkpt lat="43.73840353385325" lon="7.075939080791251"><ele>698.0</ele><time>2026-05-02T11:32:22.999Z</time></trkpt><trkpt lat="43.73845890438076" lon="7.075873913248352"><ele>697.9999999999999</ele><time>2026-05-02T11:32:40Z</time></trkpt><trkpt lat="43.738521065472696" lon="7.075849308502001"><ele>698.0</ele><time>2026-05-02T11:32:45Z</time></trkpt><trkpt lat="43.738588858623714" lon="7.075898297368637"><ele>699.3333333333333</ele><time>2026-05-02T11:33:48.999Z</time></trkpt><trkpt lat="43.738643599040756" lon="7.075959751238915"><ele>700.6666666666666</ele><time>2026-05-02T11:33:53.999Z</time></trkpt><trkpt lat="43.73870869451668" lon="7.075991194359725"><ele>702.0</ele><time>2026-05-02T11:35:18Z</time></trkpt><trkpt lat="43.73879504844183" lon="7.076003472515814"><ele>703.3333333333334</ele><time>2026-05-02T11:35:22Z</time></trkpt><trkpt lat="43.73887818970101" lon="7.075957991013003"><ele>704.6666666666667</ele><time>2026-05-02T11:35:27Z</time></trkpt><trkpt lat="43.73895109599526" lon="7.075878738008311"><ele>706.0</ele><time>2026-05-02T11:35:28.999Z</time></trkpt><trkpt lat="43.73901087650124" lon="7.075813936668919"><ele>709.7142857142857</ele><time>2026-05-02T11:35:31.999Z</time></trkpt><trkpt lat="43.73905329632824" lon="7.075735013807631"><ele>713.4285714285714</ele><time>2026-05-02T11:35:33.999Z</time></trkpt><trkpt lat="43.73911865956661" lon="7.0756806336455345"><ele>717.1428571428571</ele><time>2026-05-02T11:35:35.999Z</time></trkpt><trkpt lat="43.73919076534668" lon="7.0756458589570705"><ele>720.8571428571429</ele><time>2026-05-02T11:35:38.999Z</time></trkpt><trkpt lat="43.739251842901325" lon="7.0756243323680925"><ele>724.5714285714287</ele><time>2026-05-02T11:35:41.999Z</time></trkpt><trkpt lat="43.73931867718744" lon="7.07556278674644"><ele>728.2857142857143</ele><time>2026-05-02T11:35:44.999Z</time></trkpt><trkpt lat="43.739387740711926" lon="7.075584001173866"><ele>732.0</ele><time>2026-05-02T11:35:47.999Z</time></trkpt><trkpt lat="43.739451274534" lon="7.075615290695497"><ele>732.0</ele><time>2026-05-02T11:35:50.999Z</time></trkpt><trkpt lat="43.73951585079919" lon="7.075648020385768"><ele>732.0</ele><time>2026-05-02T11:36:11.999Z</time></trkpt><trkpt lat="43.73959207124306" lon="7.07561690592822"><ele>732.0</ele><time>2026-05-02T11:36:14.999Z</time></trkpt><trkpt lat="43.73964713370403" lon="7.075568683470211"><ele>732.0</ele><time>2026-05-02T11:36:17.999Z</time></trkpt><trkpt lat="43.739708151648934" lon="7.075503816719784"><ele>732.0</ele><time>2026-05-02T11:36:21.999Z</time></trkpt><trkpt lat="43.73977771519058" lon="7.075449169448216"><ele>732.0</ele><time>2026-05-02T11:36:26.999Z</time></trkpt><trkpt lat="43.73981126922515" lon="7.07537363348909"><ele>732.0</ele><time>2026-05-02T11:36:31.999Z</time></trkpt><trkpt lat="43.73987494812929" lon="7.075355775897095"><ele>732.0</ele><time>2026-05-02T11:36:40.999Z</time></trkpt><trkpt lat="43.739950787959266" lon="7.075333870426567"><ele>732.0</ele><time>2026-05-02T11:36:44.998Z</time></trkpt><trkpt lat="43.74001320485373" lon="7.075312672036868"><ele>732.0</ele><time>2026-05-02T11:36:50Z</time></trkpt><trkpt lat="43.74006654734324" lon="7.07526393117568"><ele>732.0</ele><time>2026-05-02T11:36:57Z</time></trkpt><trkpt lat="43.740131807951066" lon="7.075196284757786"><ele>732.0</ele><time>2026-05-02T11:44:22.999Z</time></trkpt><trkpt lat="43.74017146593601" lon="7.075103193816448"><ele>732.0</ele><time>2026-05-02T11:44:35.999Z</time></trkpt><trkpt lat="43.7402330919377" lon="7.075044003422135"><ele>732.0</ele><time>2026-05-02T11:44:47.999Z</time></trkpt><trkpt lat="43.740271553114965" lon="7.074960601460239"><ele>733.3333333333334</ele><time>2026-05-02T11:44:54.999Z</time></trkpt><trkpt lat="43.74030703749027" lon="7.074838015521139"><ele>734.6666666666666</ele><time>2026-05-02T11:44:58.999Z</time></trkpt><trkpt lat="43.74030986773925" lon="7.074733028368775"><ele>736.0</ele><time>2026-05-02T11:45:03.999Z</time></trkpt><trkpt lat="43.74032624615396" lon="7.074617045441875"><ele>737.3333333333333</ele><time>2026-05-02T11:45:07.998Z</time></trkpt><trkpt lat="43.74037926456317" lon="7.07445982971399"><ele>738.6666666666666</ele><time>2026-05-02T11:45:10.998Z</time></trkpt><trkpt lat="43.740421743676116" lon="7.074387731950224"><ele>740.0</ele><time>2026-05-02T11:45:13Z</time></trkpt><trkpt lat="43.74048193893041" lon="7.074313818886876"><ele>739.9999999999999</ele><time>2026-05-02T11:45:45Z</time></trkpt><trkpt lat="43.74049492846385" lon="7.074207303961148"><ele>740.0</ele><time>2026-05-02T11:45:49Z</time></trkpt><trkpt lat="43.74056837584833" lon="7.07416295649524"><ele>740.0</ele><time>2026-05-02T11:45:52Z</time></trkpt><trkpt lat="43.740630058049696" lon="7.074119440458006"><ele>740.0</ele><time>2026-05-02T11:45:55Z</time></trkpt><trkpt lat="43.740671123494664" lon="7.07404420893626"><ele>740.0</ele><time>2026-05-02T11:45:58.999Z</time></trkpt><trkpt lat="43.740638885393764" lon="7.073966320608854"><ele>739.9999999999999</ele><time>2026-05-02T11:46:01.999Z</time></trkpt><trkpt lat="43.74058929479824" lon="7.073894133870989"><ele>740.0</ele><time>2026-05-02T11:46:18.999Z</time></trkpt><trkpt lat="43.74055150124556" lon="7.073797099303136"><ele>743.1666666666666</ele><time>2026-05-02T11:46:21.999Z</time></trkpt><trkpt lat="43.74050161119302" lon="7.073731622635399"><ele>746.3333333333333</ele><time>2026-05-02T11:46:26.999Z</time></trkpt><trkpt lat="43.74044224788047" lon="7.073776362399745"><ele>749.5</ele><time>2026-05-02T11:47:03.999Z</time></trkpt><trkpt lat="43.74037281016215" lon="7.073791445058383"><ele>752.6666666666666</ele><time>2026-05-02T11:47:11.998Z</time></trkpt><trkpt lat="43.740297706192365" lon="7.073751108149165"><ele>755.8333333333334</ele><time>2026-05-02T11:47:17.998Z</time></trkpt><trkpt lat="43.7402288569005" lon="7.0737375642679385"><ele>759.0</ele><time>2026-05-02T11:47:20Z</time></trkpt><trkpt lat="43.740133561883994" lon="7.073704381186919"><ele>760.8333333333334</ele><time>2026-05-02T11:47:22Z</time></trkpt><trkpt lat="43.74005678143329" lon="7.07366756307365"><ele>762.6666666666667</ele><time>2026-05-02T11:47:24Z</time></trkpt><trkpt lat="43.74000760779639" lon="7.073558530989021"><ele>764.5</ele><time>2026-05-02T11:47:27Z</time></trkpt><trkpt lat="43.73993688211522" lon="7.073487913146903"><ele>766.3333333333334</ele><time>2026-05-02T11:47:29Z</time></trkpt><trkpt lat="43.73992254429616" lon="7.073396585713935"><ele>768.1666666666667</ele><time>2026-05-02T11:47:46Z</time></trkpt><trkpt lat="43.739924619970466" lon="7.073274460840215"><ele>770.0</ele><time>2026-05-02T11:47:49Z</time></trkpt><trkpt lat="43.73994279117068" lon="7.073160893635303"><ele>771.5000000000001</ele><time>2026-05-02T11:47:53Z</time></trkpt><trkpt lat="43.73994634329462" lon="7.073068374833543"><ele>773.0</ele><time>2026-05-02T11:48:14.999Z</time></trkpt><trkpt lat="43.73994682821846" lon="7.072968610925118"><ele>774.5</ele><time>2026-05-02T11:48:18.999Z</time></trkpt><trkpt lat="43.739910036238804" lon="7.07283876735516"><ele>776.0</ele><time>2026-05-02T11:48:21.999Z</time></trkpt><trkpt lat="43.739842025063886" lon="7.072737953732148"><ele>777.5000000000001</ele><time>2026-05-02T11:48:23.999Z</time></trkpt><trkpt lat="43.73979943097801" lon="7.0726076435554495"><ele>779.0</ele><time>2026-05-02T11:48:25.999Z</time></trkpt><trkpt lat="43.739749960854496" lon="7.072543611723396"><ele>779.0000000000001</ele><time>2026-05-02T11:48:29.999Z</time></trkpt><trkpt lat="43.73967528655694" lon="7.072497327915673"><ele>779.0</ele><time>2026-05-02T11:48:32.999Z</time></trkpt><trkpt lat="43.739598427254236" lon="7.072448555206761"><ele>779.0</ele><time>2026-05-02T11:48:34.999Z</time></trkpt><trkpt lat="43.739543154805006" lon="7.072370529848299"><ele>779.0</ele><time>2026-05-02T11:48:44.999Z</time></trkpt><trkpt lat="43.73948611324883" lon="7.0723128940326845"><ele>779.0000000000001</ele><time>2026-05-02T11:48:46.999Z</time></trkpt><trkpt lat="43.73941737247456" lon="7.072318653028398"><ele>779.0</ele><time>2026-05-02T11:48:49.999Z</time></trkpt><trkpt lat="43.73934035816286" lon="7.072326234186777"><ele>780.3333333333334</ele><time>2026-05-02T11:48:53.999Z</time></trkpt><trkpt lat="43.73927096646204" lon="7.072262033762308"><ele>781.6666666666667</ele><time>2026-05-02T11:48:56.999Z</time></trkpt><trkpt lat="43.7392212487089" lon="7.072179772291692"><ele>783.0</ele><time>2026-05-02T11:48:59.999Z</time></trkpt><trkpt lat="43.73918285280405" lon="7.072092698184111"><ele>784.3333333333333</ele><time>2026-05-02T11:49:04.999Z</time></trkpt><trkpt lat="43.73915789826652" lon="7.072006797177105"><ele>785.6666666666666</ele><time>2026-05-02T11:49:11.999Z</time></trkpt><trkpt lat="43.73909111879674" lon="7.071948866597219"><ele>787.0</ele><time>2026-05-02T11:49:15.999Z</time></trkpt><trkpt lat="43.73904519550698" lon="7.071858507096904"><ele>786.9999999999999</ele><time>2026-05-02T11:49:18.998Z</time></trkpt><trkpt lat="43.738966454410836" lon="7.0717622937468825"><ele>787.0</ele><time>2026-05-02T11:49:21.998Z</time></trkpt><trkpt lat="43.738924257227715" lon="7.071677305187652"><ele>787.0</ele><time>2026-05-02T11:49:25Z</time></trkpt><trkpt lat="43.73886211018353" lon="7.0715969028514785"><ele>787.0</ele><time>2026-05-02T11:49:28Z</time></trkpt><trkpt lat="43.738801338694564" lon="7.0715604038194115"><ele>786.9999999999999</ele><time>2026-05-02T11:49:31Z</time></trkpt><trkpt lat="43.73873263641241" lon="7.0715406516450665"><ele>787.0</ele><time>2026-05-02T11:49:36Z</time></trkpt><trkpt lat="43.73867724029898" lon="7.0716555945358985"><ele>786.9999999999999</ele><time>2026-05-02T11:49:39Z</time></trkpt><trkpt lat="43.73861167422509" lon="7.071721343330008"><ele>787.0</ele><time>2026-05-02T11:49:41Z</time></trkpt><trkpt lat="43.738529638132206" lon="7.071754370360583"><ele>787.0</ele><time>2026-05-02T11:49:43Z</time></trkpt><trkpt lat="43.73844735275367" lon="7.071738097428942"><ele>787.0</ele><time>2026-05-02T11:49:45Z</time></trkpt><trkpt lat="43.73835287565737" lon="7.071732016558157"><ele>786.9999999999999</ele><time>2026-05-02T11:49:47Z</time></trkpt><trkpt lat="43.738265415218684" lon="7.071750868921212"><ele>787.0</ele><time>2026-05-02T11:49:49Z</time></trkpt><trkpt lat="43.73822351807849" lon="7.071672887309888"><ele>788.8333333333333</ele><time>2026-05-02T11:49:57Z</time></trkpt><trkpt lat="43.738163713973066" lon="7.0716267690349035"><ele>790.6666666666666</ele><time>2026-05-02T11:49:59Z</time></trkpt><trkpt lat="43.738069457883604" lon="7.071573253580631"><ele>792.5</ele><time>2026-05-02T11:50:02Z</time></trkpt><trkpt lat="43.73800092145035" lon="7.071524815902748"><ele>794.3333333333333</ele><time>2026-05-02T11:50:04Z</time></trkpt><trkpt lat="43.73796183886576" lon="7.071404608706423"><ele>796.1666666666666</ele><time>2026-05-02T11:50:06Z</time></trkpt><trkpt lat="43.73791099604913" lon="7.071291015894662"><ele>798.0</ele><time>2026-05-02T11:50:08Z</time></trkpt><trkpt lat="43.737885507507734" lon="7.071175867041352"><ele>799.3333333333334</ele><time>2026-05-02T11:50:10Z</time></trkpt><trkpt lat="43.73777547072457" lon="7.071110764322962"><ele>800.6666666666667</ele><time>2026-05-02T11:50:36.999Z</time></trkpt><trkpt lat="43.737714728827186" lon="7.071083747856081"><ele>802.0</ele><time>2026-05-02T11:50:37.999Z</time></trkpt><trkpt lat="43.737671001907884" lon="7.07099883542429"><ele>803.3333333333334</ele><time>2026-05-02T11:50:39.999Z</time></trkpt><trkpt lat="43.737674217459826" lon="7.070897287705528"><ele>804.6666666666667</ele><time>2026-05-02T11:50:42.999Z</time></trkpt><trkpt lat="43.73760143209516" lon="7.070825586466754"><ele>806.0</ele><time>2026-05-02T11:50:45.999Z</time></trkpt><trkpt lat="43.73752768208897" lon="7.070791855723257"><ele>809.1666666666667</ele><time>2026-05-02T11:50:48.999Z</time></trkpt><trkpt lat="43.737431557829616" lon="7.070756002393008"><ele>812.3333333333334</ele><time>2026-05-02T11:50:51.999Z</time></trkpt><trkpt lat="43.73739262224707" lon="7.070682795546782"><ele>815.5</ele><time>2026-05-02T11:50:53.999Z</time></trkpt><trkpt lat="43.73736845747725" lon="7.070592514342939"><ele>818.6666666666667</ele><time>2026-05-02T11:50:55.999Z</time></trkpt><trkpt lat="43.737308054368576" lon="7.070500752345766"><ele>821.8333333333334</ele><time>2026-05-02T11:50:57.999Z</time></trkpt><trkpt lat="43.7372587862318" lon="7.07043405937758"><ele>825.0</ele><time>2026-05-02T11:50:59.999Z</time></trkpt><trkpt lat="43.73719287594105" lon="7.070386130602785"><ele>825.0</ele><time>2026-05-02T11:51:01.999Z</time></trkpt><trkpt lat="43.7371420146918" lon="7.070298959979065"><ele>825.0</ele><time>2026-05-02T11:51:04.999Z</time></trkpt><trkpt lat="43.73705917352697" lon="7.070236304384746"><ele>825.0</ele><time>2026-05-02T11:51:10.999Z</time></trkpt><trkpt lat="43.736989966759054" lon="7.070224375410465"><ele>825.0</ele><time>2026-05-02T11:51:18.999Z</time></trkpt><trkpt lat="43.73712267998077" lon="7.070251445782842"><ele>825.0</ele><time>2026-05-02T11:51:34Z</time></trkpt><trkpt lat="43.73718627584374" lon="7.070248832162556"><ele>825.0</ele><time>2026-05-02T11:51:35Z</time></trkpt><trkpt lat="43.73729124161787" lon="7.070226870949009"><ele>825.0</ele><time>2026-05-02T11:51:37Z</time></trkpt><trkpt lat="43.73743563130231" lon="7.070207309658039"><ele>825.0</ele><time>2026-05-02T11:51:39Z</time></trkpt><trkpt lat="43.737510254834355" lon="7.070178102391831"><ele>825.0</ele><time>2026-05-02T11:51:40Z</time></trkpt><trkpt lat="43.73762015318034" lon="7.070178633424766"><ele>825.0</ele><time>2026-05-02T11:51:42Z</time></trkpt><trkpt lat="43.737680826216994" lon="7.070234347739184"><ele>825.0</ele><time>2026-05-02T11:51:43Z</time></trkpt><trkpt lat="43.737749877872986" lon="7.070288780391527"><ele>824.8333333333334</ele><time>2026-05-02T11:51:44Z</time></trkpt><trkpt lat="43.737828927234794" lon="7.070324329008561"><ele>824.6666666666667</ele><time>2026-05-02T11:51:45Z</time></trkpt><trkpt lat="43.73790586347223" lon="7.07034818321987"><ele>824.5</ele><time>2026-05-02T11:51:46Z</time></trkpt><trkpt lat="43.73796747624469" lon="7.070374249565812"><ele>824.3333333333334</ele><time>2026-05-02T11:51:47Z</time></trkpt><trkpt lat="43.738060278694036" lon="7.070439668833156"><ele>824.1666666666667</ele><time>2026-05-02T11:51:49Z</time></trkpt><trkpt lat="43.73816382147001" lon="7.070471406294052"><ele>824.0</ele><time>2026-05-02T11:51:51Z</time></trkpt><trkpt lat="43.73826381659267" lon="7.070485135015097"><ele>824.0</ele><time>2026-05-02T11:51:53Z</time></trkpt><trkpt lat="43.73836983375578" lon="7.070495298686861"><ele>824.0</ele><time>2026-05-02T11:51:55Z</time></trkpt><trkpt lat="43.73848368167948" lon="7.070471830187552"><ele>824.0</ele><time>2026-05-02T11:51:57Z</time></trkpt><trkpt lat="43.73857202825646" lon="7.070471385495647"><ele>824.0</ele><time>2026-05-02T11:51:59Z</time></trkpt><trkpt lat="43.73867288850257" lon="7.070447405507878"><ele>824.0</ele><time>2026-05-02T11:52:01Z</time></trkpt><trkpt lat="43.738740468448555" lon="7.07047827670663"><ele>823.8333333333334</ele><time>2026-05-02T11:52:03Z</time></trkpt><trkpt lat="43.7387958742116" lon="7.070569313876428"><ele>823.6666666666667</ele><time>2026-05-02T11:52:05Z</time></trkpt><trkpt lat="43.73887088530775" lon="7.070602635130437"><ele>823.5</ele><time>2026-05-02T11:52:07Z</time></trkpt><trkpt lat="43.73894261468924" lon="7.070601488283827"><ele>823.3333333333333</ele><time>2026-05-02T11:52:09Z</time></trkpt><trkpt lat="43.739020656085685" lon="7.070610477687907"><ele>823.1666666666666</ele><time>2026-05-02T11:52:11Z</time></trkpt><trkpt lat="43.73907619522427" lon="7.070667758081128"><ele>823.0</ele><time>2026-05-02T11:52:13Z</time></trkpt><trkpt lat="43.73915994580678" lon="7.070663558804981"><ele>823.0</ele><time>2026-05-02T11:52:15Z</time></trkpt><trkpt lat="43.739224172111534" lon="7.070674244025578"><ele>823.0</ele><time>2026-05-02T11:52:16.999Z</time></trkpt><trkpt lat="43.739333103511484" lon="7.070669379359657"><ele>823.0</ele><time>2026-05-02T11:52:19.999Z</time></trkpt><trkpt lat="43.73944950114974" lon="7.070662646107767"><ele>823.0</ele><time>2026-05-02T11:52:21.999Z</time></trkpt><trkpt lat="43.7395486701013" lon="7.070713638092982"><ele>823.0</ele><time>2026-05-02T11:52:23.999Z</time></trkpt><trkpt lat="43.73962391710454" lon="7.070745644396176"><ele>821.9999999999999</ele><time>2026-05-02T11:52:24.999Z</time></trkpt><trkpt lat="43.739717561535095" lon="7.070777160426411"><ele>821.0</ele><time>2026-05-02T11:52:25.999Z</time></trkpt><trkpt lat="43.739825175115854" lon="7.0707780206908355"><ele>820.0</ele><time>2026-05-02T11:52:26.999Z</time></trkpt><trkpt lat="43.73990129673412" lon="7.0707648760465"><ele>819.0</ele><time>2026-05-02T11:52:27.999Z</time></trkpt><trkpt lat="43.73996997658099" lon="7.070735607540361"><ele>817.9999999999999</ele><time>2026-05-02T11:52:28.999Z</time></trkpt><trkpt lat="43.74002919921656" lon="7.070692279435563"><ele>817.0</ele><time>2026-05-02T11:52:29.999Z</time></trkpt><trkpt lat="43.74009664908745" lon="7.0706584144647975"><ele>816.9999999999999</ele><time>2026-05-02T11:52:30.999Z</time></trkpt><trkpt lat="43.74019912392345" lon="7.070597564950197"><ele>817.0</ele><time>2026-05-02T11:52:32.999Z</time></trkpt><trkpt lat="43.74029176310481" lon="7.070577722908631"><ele>817.0</ele><time>2026-05-02T11:52:35.999Z</time></trkpt><trkpt lat="43.74038212044191" lon="7.070569353974477"><ele>817.0</ele><time>2026-05-02T11:52:38.999Z</time></trkpt><trkpt lat="43.74044846237868" lon="7.070536284001851"><ele>816.9999999999999</ele><time>2026-05-02T11:52:43.999Z</time></trkpt><trkpt lat="43.74050725668267" lon="7.070492765330855"><ele>817.0</ele><time>2026-05-02T11:52:46.999Z</time></trkpt><trkpt lat="43.740563747728096" lon="7.070437277100633"><ele>814.7142857142857</ele><time>2026-05-02T12:01:41.999Z</time></trkpt><trkpt lat="43.74061597318322" lon="7.070375455043405"><ele>812.4285714285714</ele><time>2026-05-02T12:01:46.999Z</time></trkpt><trkpt lat="43.74065463692301" lon="7.070301965013098"><ele>810.1428571428571</ele><time>2026-05-02T12:01:48.999Z</time></trkpt><trkpt lat="43.74068809629292" lon="7.070220699563735"><ele>807.8571428571429</ele><time>2026-05-02T12:01:50.999Z</time></trkpt><trkpt lat="43.74073461793839" lon="7.070155659274748"><ele>805.5714285714286</ele><time>2026-05-02T12:01:52.999Z</time></trkpt><trkpt lat="43.74080783795553" lon="7.070068235240765"><ele>803.2857142857142</ele><time>2026-05-02T12:01:54.999Z</time></trkpt><trkpt lat="43.740877188199484" lon="7.070023754073492"><ele>801.0</ele><time>2026-05-02T12:01:55.999Z</time></trkpt><trkpt lat="43.74092706447634" lon="7.069967178046459"><ele>800.1666666666666</ele><time>2026-05-02T12:01:56.999Z</time></trkpt><trkpt lat="43.741033214062384" lon="7.06987197378551"><ele>799.3333333333333</ele><time>2026-05-02T12:01:58.999Z</time></trkpt><trkpt lat="43.74107902667711" lon="7.069810566357208"><ele>798.5</ele><time>2026-05-02T12:02:00Z</time></trkpt><trkpt lat="43.7411378841771" lon="7.069743990880954"><ele>797.6666666666666</ele><time>2026-05-02T12:02:01Z</time></trkpt><trkpt lat="43.7412019172668" lon="7.069674159093255"><ele>796.8333333333333</ele><time>2026-05-02T12:02:02Z</time></trkpt><trkpt lat="43.74125670484363" lon="7.069609250271721"><ele>796.0</ele><time>2026-05-02T12:02:03Z</time></trkpt><trkpt lat="43.74130551270809" lon="7.069535964534618"><ele>796.0</ele><time>2026-05-02T12:02:04Z</time></trkpt><trkpt lat="43.74135170671031" lon="7.069475128215961"><ele>796.0</ele><time>2026-05-02T12:02:05Z</time></trkpt><trkpt lat="43.74145100878249" lon="7.069397767147173"><ele>796.0</ele><time>2026-05-02T12:02:07Z</time></trkpt><trkpt lat="43.74154475233739" lon="7.069384695484317"><ele>796.0</ele><time>2026-05-02T12:02:09Z</time></trkpt><trkpt lat="43.74166185952367" lon="7.069346695008086"><ele>796.0</ele><time>2026-05-02T12:02:12Z</time></trkpt><trkpt lat="43.74172823650151" lon="7.069254755206194"><ele>796.0</ele><time>2026-05-02T12:02:14Z</time></trkpt><trkpt lat="43.74181585030365" lon="7.069130683261863"><ele>796.0</ele><time>2026-05-02T12:02:16Z</time></trkpt><trkpt lat="43.74186258397289" lon="7.069062784010878"><ele>796.0</ele><time>2026-05-02T12:02:17Z</time></trkpt><trkpt lat="43.74191841867107" lon="7.068988605333719"><ele>796.0</ele><time>2026-05-02T12:02:19Z</time></trkpt><trkpt lat="43.74197319837707" lon="7.068876063175141"><ele>796.0</ele><time>2026-05-02T12:02:25Z</time></trkpt><trkpt lat="43.74200422113345" lon="7.0687673907560935"><ele>794.4999999999999</ele><time>2026-05-02T12:02:27Z</time></trkpt><trkpt lat="43.74205647186557" lon="7.068660530961595"><ele>793.0</ele><time>2026-05-02T12:02:29Z</time></trkpt><trkpt lat="43.74211665869136" lon="7.068559116567164"><ele>791.5</ele><time>2026-05-02T12:02:35Z</time></trkpt><trkpt lat="43.74213649602899" lon="7.0684667597194535"><ele>790.0</ele><time>2026-05-02T12:02:38Z</time></trkpt><trkpt lat="43.74211329435998" lon="7.0683347718720055"><ele>788.4999999999999</ele><time>2026-05-02T12:02:42Z</time></trkpt><trkpt lat="43.742120264674604" lon="7.068230194460551"><ele>787.0</ele><time>2026-05-02T12:02:44Z</time></trkpt><trkpt lat="43.742171134764455" lon="7.068136210903871"><ele>786.9999999999999</ele><time>2026-05-02T12:02:45Z</time></trkpt><trkpt lat="43.74222274379638" lon="7.068053634873183"><ele>787.0</ele><time>2026-05-02T12:02:48Z</time></trkpt><trkpt lat="43.742265628218675" lon="7.067962419840367"><ele>787.0</ele><time>2026-05-02T12:02:52Z</time></trkpt><trkpt lat="43.742304614939066" lon="7.067881342143112"><ele>787.0</ele><time>2026-05-02T12:02:54.999Z</time></trkpt><trkpt lat="43.74232147647669" lon="7.067751711390536"><ele>786.9999999999999</ele><time>2026-05-02T12:02:56.999Z</time></trkpt><trkpt lat="43.7423364255475" lon="7.067642419372257"><ele>787.0</ele><time>2026-05-02T12:02:58.999Z</time></trkpt><trkpt lat="43.7423378006909" lon="7.067532582154845"><ele>786.9999999999999</ele><time>2026-05-02T12:03:00.999Z</time></trkpt><trkpt lat="43.74234258217382" lon="7.067444428102378"><ele>787.0</ele><time>2026-05-02T12:03:02.999Z</time></trkpt><trkpt lat="43.74234204800943" lon="7.0673255814510965"><ele>787.0</ele><time>2026-05-02T12:03:04.999Z</time></trkpt><trkpt lat="43.74232698984468" lon="7.067235716632335"><ele>787.0</ele><time>2026-05-02T12:03:05.999Z</time></trkpt><trkpt lat="43.74231055231597" lon="7.067141172765381"><ele>786.9999999999999</ele><time>2026-05-02T12:03:06.999Z</time></trkpt><trkpt lat="43.74229618202472" lon="7.067054593546557"><ele>787.0</ele><time>2026-05-02T12:03:07.999Z</time></trkpt><trkpt lat="43.742281236891664" lon="7.066904262285105"><ele>786.6666666666666</ele><time>2026-05-02T12:03:09.999Z</time></trkpt><trkpt lat="43.74225146669518" lon="7.066785522360202"><ele>786.3333333333333</ele><time>2026-05-02T12:03:12.999Z</time></trkpt><trkpt lat="43.74221391751053" lon="7.0667092071537265"><ele>786.0</ele><time>2026-05-02T12:03:14.999Z</time></trkpt><trkpt lat="43.74216541883392" lon="7.0666154865894555"><ele>785.6666666666667</ele><time>2026-05-02T12:03:16.999Z</time></trkpt><trkpt lat="43.74216693426687" lon="7.066468808821985"><ele>785.3333333333334</ele><time>2026-05-02T12:03:18.999Z</time></trkpt><trkpt lat="43.742174181212356" lon="7.066375119150132"><ele>785.0</ele><time>2026-05-02T12:03:19.999Z</time></trkpt><trkpt lat="43.74217546655635" lon="7.066263068018894"><ele>786.0</ele><time>2026-05-02T12:03:21.999Z</time></trkpt><trkpt lat="43.74216364947212" lon="7.066125735790942"><ele>787.0</ele><time>2026-05-02T12:03:23.999Z</time></trkpt><trkpt lat="43.74213480760027" lon="7.065995793333241"><ele>788.0</ele><time>2026-05-02T12:03:25.999Z</time></trkpt><trkpt lat="43.74216026126617" lon="7.065830269113677"><ele>789.0</ele><time>2026-05-02T12:03:27.999Z</time></trkpt><trkpt lat="43.74216382577018" lon="7.065743127057267"><ele>790.0</ele><time>2026-05-02T12:03:28.999Z</time></trkpt><trkpt lat="43.74217368258957" lon="7.0656137848993525"><ele>792.3333333333333</ele><time>2026-05-02T12:03:30.999Z</time></trkpt><trkpt lat="43.74217456173714" lon="7.0654697159909725"><ele>794.6666666666666</ele><time>2026-05-02T12:03:33.999Z</time></trkpt><trkpt lat="43.74217735730674" lon="7.065381586195781"><ele>797.0</ele><time>2026-05-02T12:03:35.999Z</time></trkpt><trkpt lat="43.74215179277814" lon="7.065284831743423"><ele>799.3333333333333</ele><time>2026-05-02T12:03:38.999Z</time></trkpt><trkpt lat="43.74214587380727" lon="7.065190570872266"><ele>801.6666666666666</ele><time>2026-05-02T12:03:41.999Z</time></trkpt><trkpt lat="43.74217735910067" lon="7.065073186257925"><ele>804.0</ele><time>2026-05-02T12:03:45.999Z</time></trkpt><trkpt lat="43.74215722596421" lon="7.064977317448741"><ele>806.5</ele><time>2026-05-02T12:03:48.999Z</time></trkpt><trkpt lat="43.74217138872718" lon="7.064865795803367"><ele>809.0</ele><time>2026-05-02T12:03:51.999Z</time></trkpt><trkpt lat="43.742164698478256" lon="7.064768393080592"><ele>811.5</ele><time>2026-05-02T12:03:55.999Z</time></trkpt><trkpt lat="43.742176803556546" lon="7.064677915368557"><ele>814.0</ele><time>2026-05-02T12:04:45Z</time></trkpt><trkpt lat="43.74215822494828" lon="7.064551384169937"><ele>816.5</ele><time>2026-05-02T12:04:47Z</time></trkpt><trkpt lat="43.74214699754352" lon="7.064403597193596"><ele>819.0</ele><time>2026-05-02T12:04:49Z</time></trkpt><trkpt lat="43.742112234302105" lon="7.064233946814009"><ele>822.1666666666666</ele><time>2026-05-02T12:04:51Z</time></trkpt><trkpt lat="43.742074648292544" lon="7.064090612048017"><ele>825.3333333333333</ele><time>2026-05-02T12:04:53Z</time></trkpt><trkpt lat="43.742055047066685" lon="7.063978190643467"><ele>828.5</ele><time>2026-05-02T12:04:55Z</time></trkpt><trkpt lat="43.7420271286509" lon="7.063879986910446"><ele>831.6666666666666</ele><time>2026-05-02T12:04:57Z</time></trkpt><trkpt lat="43.742012945963275" lon="7.063772592070502"><ele>834.8333333333333</ele><time>2026-05-02T12:04:59Z</time></trkpt><trkpt lat="43.7419830066339" lon="7.063664040788193"><ele>838.0</ele><time>2026-05-02T12:05:01Z</time></trkpt><trkpt lat="43.74193115885196" lon="7.063586503735731"><ele>837.9999999999999</ele><time>2026-05-02T12:05:02.999Z</time></trkpt><trkpt lat="43.74191661369362" lon="7.06349921896226"><ele>838.0</ele><time>2026-05-02T12:05:06.999Z</time></trkpt><trkpt lat="43.74191626981365" lon="7.063374937578277"><ele>838.0</ele><time>2026-05-02T12:05:12.999Z</time></trkpt><trkpt lat="43.74190670729843" lon="7.0632760696850845"><ele>838.0</ele><time>2026-05-02T12:05:15.999Z</time></trkpt><trkpt lat="43.74190864871379" lon="7.063172184330141"><ele>837.9999999999999</ele><time>2026-05-02T12:05:20.999Z</time></trkpt><trkpt lat="43.741923620183215" lon="7.063075381445273"><ele>838.0</ele><time>2026-05-02T12:05:22.999Z</time></trkpt><trkpt lat="43.74193071541948" lon="7.062910013359563"><ele>841.1666666666666</ele><time>2026-05-02T12:05:24.999Z</time></trkpt><trkpt lat="43.74193644107569" lon="7.062773357040849"><ele>844.3333333333333</ele><time>2026-05-02T12:05:26.999Z</time></trkpt><trkpt lat="43.74191109896185" lon="7.062693231275653"><ele>847.5</ele><time>2026-05-02T12:05:28.999Z</time></trkpt><trkpt lat="43.74190810836349" lon="7.062568280335202"><ele>850.6666666666667</ele><time>2026-05-02T12:05:30.999Z</time></trkpt><trkpt lat="43.74190903561736" lon="7.062478936751779"><ele>853.8333333333334</ele><time>2026-05-02T12:05:31.999Z</time></trkpt><trkpt lat="43.74189760239068" lon="7.062380948392251"><ele>857.0</ele><time>2026-05-02T12:05:32.999Z</time></trkpt><trkpt lat="43.74189348504112" lon="7.062207369131127"><ele>857.3333333333334</ele><time>2026-05-02T12:05:34.999Z</time></trkpt><trkpt lat="43.74186376207213" lon="7.062117224656429"><ele>857.6666666666667</ele><time>2026-05-02T12:05:35.999Z</time></trkpt><trkpt lat="43.74182432808838" lon="7.06201378503897"><ele>858.0</ele><time>2026-05-02T12:05:36.999Z</time></trkpt><trkpt lat="43.7418162798097" lon="7.0619053808233785"><ele>858.3333333333333</ele><time>2026-05-02T12:05:37.999Z</time></trkpt><trkpt lat="43.74181957165377" lon="7.0617986097673695"><ele>858.6666666666666</ele><time>2026-05-02T12:05:38.999Z</time></trkpt><trkpt lat="43.74181457351823" lon="7.061702628942775"><ele>859.0</ele><time>2026-05-02T12:05:39.999Z</time></trkpt><trkpt lat="43.74181212983548" lon="7.061594448570934"><ele>860.1666666666666</ele><time>2026-05-02T12:05:40.999Z</time></trkpt><trkpt lat="43.74181840165226" lon="7.061492821169107"><ele>861.3333333333333</ele><time>2026-05-02T12:05:41.999Z</time></trkpt><trkpt lat="43.74181357101764" lon="7.061388542905609"><ele>862.5</ele><time>2026-05-02T12:05:42.999Z</time></trkpt><trkpt lat="43.74181952121242" lon="7.061281211816676"><ele>863.6666666666667</ele><time>2026-05-02T12:05:43.999Z</time></trkpt><trkpt lat="43.74184297063604" lon="7.061185566801584"><ele>864.8333333333334</ele><time>2026-05-02T12:05:44.999Z</time></trkpt><trkpt lat="43.74185977765286" lon="7.061094125608998"><ele>866.0</ele><time>2026-05-02T12:05:45.999Z</time></trkpt><trkpt lat="43.74190253507675" lon="7.060952474815069"><ele>867.4285714285713</ele><time>2026-05-02T12:05:47.999Z</time></trkpt><trkpt lat="43.741944218555865" lon="7.060862971581538"><ele>868.8571428571429</ele><time>2026-05-02T12:05:49.999Z</time></trkpt><trkpt lat="43.74194454671253" lon="7.060774381563133"><ele>870.2857142857142</ele><time>2026-05-02T12:05:51.999Z</time></trkpt><trkpt lat="43.74195428778409" lon="7.060670989381532"><ele>871.7142857142857</ele><time>2026-05-02T12:05:54.999Z</time></trkpt><trkpt lat="43.741948779356285" lon="7.060566268878202"><ele>873.1428571428571</ele><time>2026-05-02T12:05:57.999Z</time></trkpt><trkpt lat="43.74194737221212" lon="7.060466858673489"><ele>874.5714285714286</ele><time>2026-05-02T12:06:01.999Z</time></trkpt><trkpt lat="43.74193854925575" lon="7.060372757117469"><ele>876.0</ele><time>2026-05-02T12:06:19Z</time></trkpt><trkpt lat="43.74194134306209" lon="7.060214944435468"><ele>877.0</ele><time>2026-05-02T12:06:23Z</time></trkpt><trkpt lat="43.741927014520755" lon="7.060091827046555"><ele>878.0</ele><time>2026-05-02T12:06:25Z</time></trkpt><trkpt lat="43.74191221687812" lon="7.060001751913874"><ele>879.0</ele><time>2026-05-02T12:06:27Z</time></trkpt><trkpt lat="43.741905905982236" lon="7.059906442623802"><ele>880.0</ele><time>2026-05-02T12:06:29Z</time></trkpt><trkpt lat="43.741898582591865" lon="7.059758584462655"><ele>881.0</ele><time>2026-05-02T12:06:31Z</time></trkpt><trkpt lat="43.74187897225118" lon="7.059643420281173"><ele>882.0</ele><time>2026-05-02T12:06:34Z</time></trkpt><trkpt lat="43.74188482879531" lon="7.059489317339457"><ele>882.6666666666666</ele><time>2026-05-02T12:06:36Z</time></trkpt><trkpt lat="43.74192571675065" lon="7.059367082358762"><ele>883.3333333333333</ele><time>2026-05-02T12:06:38Z</time></trkpt><trkpt lat="43.74196962136987" lon="7.059215670374922"><ele>884.0</ele><time>2026-05-02T12:06:40Z</time></trkpt><trkpt lat="43.741986999259005" lon="7.05912479253537"><ele>884.6666666666666</ele><time>2026-05-02T12:06:41Z</time></trkpt><trkpt lat="43.742000877816295" lon="7.0589964348974865"><ele>885.3333333333333</ele><time>2026-05-02T12:06:43Z</time></trkpt><trkpt lat="43.7420214693392" lon="7.058905242640312"><ele>886.0</ele><time>2026-05-02T12:06:46Z</time></trkpt><trkpt lat="43.74219957486013" lon="7.058981566324451"><ele>885.9999999999999</ele><time>2026-05-02T12:06:54Z</time></trkpt><trkpt lat="43.74223918868094" lon="7.059053271794052"><ele>886.0</ele><time>2026-05-02T12:06:58Z</time></trkpt><trkpt lat="43.7422806991119" lon="7.059149078038335"><ele>886.0</ele><time>2026-05-02T12:07:01Z</time></trkpt><trkpt lat="43.742327487446616" lon="7.059225052915875"><ele>886.0</ele><time>2026-05-02T12:07:05Z</time></trkpt><trkpt lat="43.7423565439418" lon="7.059308711398782"><ele>885.9999999999999</ele><time>2026-05-02T12:07:08.999Z</time></trkpt><trkpt lat="43.74236747651902" lon="7.059440383347963"><ele>886.0</ele><time>2026-05-02T12:08:12.999Z</time></trkpt><trkpt lat="43.74241799714246" lon="7.059531704447125"><ele>885.9999999999999</ele><time>2026-05-02T12:08:15.999Z</time></trkpt><trkpt lat="43.742459706996215" lon="7.059621592437514"><ele>886.0</ele><time>2026-05-02T12:08:20Z</time></trkpt><trkpt lat="43.742562788664365" lon="7.059660874413883"><ele>886.0</ele><time>2026-05-02T12:08:27Z</time></trkpt><trkpt lat="43.74258458185534" lon="7.059763814132028"><ele>886.0</ele><time>2026-05-02T12:08:47Z</time></trkpt><trkpt lat="43.74259928597364" lon="7.059854868203928"><ele>885.9999999999999</ele><time>2026-05-02T12:09:20.999Z</time></trkpt><trkpt lat="43.74262945121898" lon="7.059956960346704"><ele>886.0</ele><time>2026-05-02T12:09:23.999Z</time></trkpt><trkpt lat="43.74269097431344" lon="7.060035730974176"><ele>889.2857142857143</ele><time>2026-05-02T12:09:28.999Z</time></trkpt><trkpt lat="43.74273885727191" lon="7.060093463214583"><ele>892.5714285714287</ele><time>2026-05-02T12:09:33.999Z</time></trkpt><trkpt lat="43.742790353403116" lon="7.06015746567956"><ele>895.8571428571429</ele><time>2026-05-02T12:09:41.999Z</time></trkpt><trkpt lat="43.742855854258075" lon="7.060187294062571"><ele>899.1428571428571</ele><time>2026-05-02T12:09:47.999Z</time></trkpt><trkpt lat="43.742868347992705" lon="7.0602835484844375"><ele>902.4285714285714</ele><time>2026-05-02T12:09:50.999Z</time></trkpt><trkpt lat="43.742909459226304" lon="7.060211677231805"><ele>905.7142857142857</ele><time>2026-05-02T12:09:55.999Z</time></trkpt><trkpt lat="43.742959778213624" lon="7.060142519213117"><ele>909.0</ele><time>2026-05-02T12:10:01.999Z</time></trkpt><trkpt lat="43.74303595265495" lon="7.06011433956077"><ele>909.0</ele><time>2026-05-02T12:10:05.999Z</time></trkpt><trkpt lat="43.743122467710485" lon="7.0601498554883335"><ele>909.0</ele><time>2026-05-02T12:10:09.999Z</time></trkpt><trkpt lat="43.743186208207014" lon="7.060147973788429"><ele>909.0</ele><time>2026-05-02T12:10:12.999Z</time></trkpt><trkpt lat="43.74323102466417" lon="7.060215507568694"><ele>909.0</ele><time>2026-05-02T12:10:16.999Z</time></trkpt><trkpt lat="43.743251045380624" lon="7.060300059581953"><ele>909.0</ele><time>2026-05-02T12:10:19.999Z</time></trkpt><trkpt lat="43.7432598135432" lon="7.060415118569941"><ele>909.0</ele><time>2026-05-02T12:10:29Z</time></trkpt><trkpt lat="43.743299968468115" lon="7.0605089956901645"><ele>909.0</ele><time>2026-05-02T12:10:31Z</time></trkpt><trkpt lat="43.7433245062469" lon="7.060599006663309"><ele>909.0</ele><time>2026-05-02T12:10:36Z</time></trkpt><trkpt lat="43.74332392719058" lon="7.060689402911307"><ele>909.0</ele><time>2026-05-02T12:10:51Z</time></trkpt><trkpt lat="43.74333482590454" lon="7.060778406423158"><ele>909.0</ele><time>2026-05-02T12:10:56Z</time></trkpt><trkpt lat="43.7433212305262" lon="7.060885197759089"><ele>909.0</ele><time>2026-05-02T12:10:59Z</time></trkpt><trkpt lat="43.74332253325067" lon="7.060978468151491"><ele>909.0</ele><time>2026-05-02T12:11:01Z</time></trkpt><trkpt lat="43.743289742984935" lon="7.061111066686959"><ele>909.0</ele><time>2026-05-02T12:11:04Z</time></trkpt><trkpt lat="43.7432952035794" lon="7.06121252244453"><ele>909.3333333333334</ele><time>2026-05-02T12:11:06Z</time></trkpt><trkpt lat="43.74336480317204" lon="7.061256114514398"><ele>909.6666666666667</ele><time>2026-05-02T12:11:08Z</time></trkpt><trkpt lat="43.74337714844264" lon="7.061359186716612"><ele>910.0</ele><time>2026-05-02T12:11:11Z</time></trkpt><trkpt lat="43.743384137997666" lon="7.061491714839599"><ele>910.3333333333334</ele><time>2026-05-02T12:11:14Z</time></trkpt><trkpt lat="43.74340219380641" lon="7.061588915445446"><ele>910.6666666666667</ele><time>2026-05-02T12:11:17Z</time></trkpt><trkpt lat="43.74341725783357" lon="7.061718041929864"><ele>911.0</ele><time>2026-05-02T12:11:19Z</time></trkpt><trkpt lat="43.743487038994274" lon="7.061816292350536"><ele>911.0000000000001</ele><time>2026-05-02T12:11:21Z</time></trkpt><trkpt lat="43.74353921490373" lon="7.061898436842906"><ele>911.0</ele><time>2026-05-02T12:11:24Z</time></trkpt><trkpt lat="43.74357562081661" lon="7.06197869276327"><ele>911.0</ele><time>2026-05-02T12:11:27Z</time></trkpt><trkpt lat="43.743660221926596" lon="7.062035187445549"><ele>911.0</ele><time>2026-05-02T12:11:29Z</time></trkpt><trkpt lat="43.74373646949999" lon="7.062044684682953"><ele>911.0000000000001</ele><time>2026-05-02T12:11:30.999Z</time></trkpt><trkpt lat="43.74379691505543" lon="7.06199066575872"><ele>911.0</ele><time>2026-05-02T12:11:33.999Z</time></trkpt><trkpt lat="43.74384450405411" lon="7.061892326085274"><ele>911.0</ele><time>2026-05-02T12:11:47.999Z</time></trkpt><trkpt lat="43.74388689004451" lon="7.061761710388542"><ele>910.9999999999999</ele><time>2026-05-02T12:11:49.999Z</time></trkpt><trkpt lat="43.743929567632996" lon="7.061612620068007"><ele>910.9999999999999</ele><time>2026-05-02T12:11:51.999Z</time></trkpt><trkpt lat="43.743943376035006" lon="7.061524804699331"><ele>911.0</ele><time>2026-05-02T12:11:52.999Z</time></trkpt><trkpt lat="43.74397305774531" lon="7.0614124950941966"><ele>911.0</ele><time>2026-05-02T12:11:53.999Z</time></trkpt><trkpt lat="43.743992435561225" lon="7.061298810684959"><ele>911.2857142857143</ele><time>2026-05-02T12:11:54.999Z</time></trkpt><trkpt lat="43.7440006977097" lon="7.061193153310362"><ele>911.5714285714284</ele><time>2026-05-02T12:11:55.999Z</time></trkpt><trkpt lat="43.74400877672364" lon="7.061090070698842"><ele>911.8571428571428</ele><time>2026-05-02T12:11:56.999Z</time></trkpt><trkpt lat="43.74402564256428" lon="7.061001702676964"><ele>912.1428571428571</ele><time>2026-05-02T12:11:57.999Z</time></trkpt><trkpt lat="43.74404285088941" lon="7.060900162662825"><ele>912.4285714285713</ele><time>2026-05-02T12:11:58.999Z</time></trkpt><trkpt lat="43.744044493922146" lon="7.060795214217147"><ele>912.7142857142856</ele><time>2026-05-02T12:11:59.999Z</time></trkpt><trkpt lat="43.7440439865223" lon="7.06069096148467"><ele>912.9999999999999</ele><time>2026-05-02T12:12:00.999Z</time></trkpt><trkpt lat="43.744054343831706" lon="7.060584960613903"><ele>912.9999999999999</ele><time>2026-05-02T12:12:01.999Z</time></trkpt><trkpt lat="43.74407195165889" lon="7.06047184147628"><ele>913.0</ele><time>2026-05-02T12:12:02.999Z</time></trkpt><trkpt lat="43.7440995096995" lon="7.060374352458219"><ele>912.9999999999999</ele><time>2026-05-02T12:12:03.999Z</time></trkpt><trkpt lat="43.74411442961268" lon="7.060284749353539"><ele>912.9999999999999</ele><time>2026-05-02T12:12:04.999Z</time></trkpt><trkpt lat="43.74412186897058" lon="7.060191114462888"><ele>913.0</ele><time>2026-05-02T12:12:05.999Z</time></trkpt><trkpt lat="43.74412321926854" lon="7.060086240840859"><ele>912.9999999999999</ele><time>2026-05-02T12:12:06.999Z</time></trkpt><trkpt lat="43.74412145102679" lon="7.059987317268811"><ele>912.9999999999999</ele><time>2026-05-02T12:12:07.999Z</time></trkpt><trkpt lat="43.744104600257124" lon="7.059899546619335"><ele>913.4</ele><time>2026-05-02T12:12:08.999Z</time></trkpt><trkpt lat="43.74410426089765" lon="7.0597311174969635"><ele>913.8</ele><time>2026-05-02T12:12:10.999Z</time></trkpt><trkpt lat="43.74411284595426" lon="7.05956658492377"><ele>914.2</ele><time>2026-05-02T12:12:12.999Z</time></trkpt><trkpt lat="43.74413965317963" lon="7.059403098982012"><ele>914.6</ele><time>2026-05-02T12:12:14.999Z</time></trkpt><trkpt lat="43.744156891748815" lon="7.05931598372779"><ele>915.0</ele><time>2026-05-02T12:12:15.999Z</time></trkpt><trkpt lat="43.74414998504045" lon="7.0592250396684895"><ele>915.0</ele><time>2026-05-02T12:12:16.999Z</time></trkpt><trkpt lat="43.744148213417446" lon="7.0591296541442405"><ele>915.0</ele><time>2026-05-02T12:12:17.999Z</time></trkpt><trkpt lat="43.74416680361245" lon="7.058976923175768"><ele>915.0</ele><time>2026-05-02T12:12:19.999Z</time></trkpt><trkpt lat="43.744187527605256" lon="7.058849497572184"><ele>915.0</ele><time>2026-05-02T12:12:21.999Z</time></trkpt><trkpt lat="43.744214005844064" lon="7.058720912036993"><ele>915.0</ele><time>2026-05-02T12:12:23.999Z</time></trkpt><trkpt lat="43.74422871018083" lon="7.058628872881659"><ele>915.0</ele><time>2026-05-02T12:12:24.999Z</time></trkpt><trkpt lat="43.74427752387289" lon="7.058488954250753"><ele>916.4</ele><time>2026-05-02T12:12:26.999Z</time></trkpt><trkpt lat="43.744341858744036" lon="7.058392589449323"><ele>917.8</ele><time>2026-05-02T12:12:29Z</time></trkpt><trkpt lat="43.74444553848169" lon="7.05833015646125"><ele>919.2</ele><time>2026-05-02T12:12:31Z</time></trkpt><trkpt lat="43.74454525165845" lon="7.058312139157788"><ele>920.6</ele><time>2026-05-02T12:12:33Z</time></trkpt><trkpt lat="43.74461165701057" lon="7.058350739546525"><ele>922.0</ele><time>2026-05-02T12:12:34Z</time></trkpt><trkpt lat="43.74466548550335" lon="7.0584166054546325"><ele>922.8</ele><time>2026-05-02T12:12:35Z</time></trkpt><trkpt lat="43.744758897828774" lon="7.058507423642772"><ele>923.6</ele><time>2026-05-02T12:12:37Z</time></trkpt><trkpt lat="43.74484798764323" lon="7.058571256045664"><ele>924.3999999999999</ele><time>2026-05-02T12:12:39Z</time></trkpt><trkpt lat="43.744942385649594" lon="7.058592068187424"><ele>925.1999999999999</ele><time>2026-05-02T12:12:41Z</time></trkpt><trkpt lat="43.745031201772456" lon="7.058609658472981"><ele>926.0</ele><time>2026-05-02T12:12:43Z</time></trkpt><trkpt lat="43.74513800431047" lon="7.058620479983078"><ele>927.1999999999999</ele><time>2026-05-02T12:12:45Z</time></trkpt><trkpt lat="43.74521753203444" lon="7.0586380030018026"><ele>928.3999999999999</ele><time>2026-05-02T12:12:47Z</time></trkpt><trkpt lat="43.745296308370705" lon="7.05863641333894"><ele>929.6</ele><time>2026-05-02T12:12:49Z</time></trkpt><trkpt lat="43.74541396067339" lon="7.058548722258048"><ele>930.8</ele><time>2026-05-02T12:12:55Z</time></trkpt><trkpt lat="43.745462228794054" lon="7.058478621984888"><ele>932.0</ele><time>2026-05-02T12:12:56Z</time></trkpt><trkpt lat="43.745517456781144" lon="7.0583732296099955"><ele>933.5000000000001</ele><time>2026-05-02T12:12:58Z</time></trkpt><trkpt lat="43.74554637008619" lon="7.058279396454802"><ele>935.0</ele><time>2026-05-02T12:13:00Z</time></trkpt><trkpt lat="43.745613736220214" lon="7.058189277001086"><ele>936.5</ele><time>2026-05-02T12:13:02Z</time></trkpt><trkpt lat="43.74572072477265" lon="7.058104748503172"><ele>938.0</ele><time>2026-05-02T12:13:04Z</time></trkpt><trkpt lat="43.74580418776285" lon="7.058072993156518"><ele>939.5000000000001</ele><time>2026-05-02T12:13:05Z</time></trkpt><trkpt lat="43.74587382792523" lon="7.058059611649343"><ele>941.0</ele><time>2026-05-02T12:13:06Z</time></trkpt><trkpt lat="43.74596569939165" lon="7.0581685165820485"><ele>941.0000000000001</ele><time>2026-05-02T12:13:08Z</time></trkpt><trkpt lat="43.746016644142315" lon="7.058253717864091"><ele>941.0</ele><time>2026-05-02T12:13:09Z</time></trkpt><trkpt lat="43.74608776934306" lon="7.058307892002831"><ele>941.0</ele><time>2026-05-02T12:13:10Z</time></trkpt><trkpt lat="43.746151745361935" lon="7.058350164547106"><ele>941.0</ele><time>2026-05-02T12:13:11Z</time></trkpt><trkpt lat="43.74623785847392" lon="7.058424425257904"><ele>941.0000000000001</ele><time>2026-05-02T12:13:13Z</time></trkpt><trkpt lat="43.74630600601395" lon="7.0584218789611946"><ele>941.0</ele><time>2026-05-02T12:13:14Z</time></trkpt><trkpt lat="43.74638879304994" lon="7.058386160638484"><ele>940.0000000000001</ele><time>2026-05-02T12:13:15Z</time></trkpt><trkpt lat="43.74646385439111" lon="7.05835397159566"><ele>939.0</ele><time>2026-05-02T12:13:16Z</time></trkpt><trkpt lat="43.74653650393112" lon="7.058368679215185"><ele>938.0</ele><time>2026-05-02T12:13:17Z</time></trkpt><trkpt lat="43.74662406788783" lon="7.058487465527148"><ele>937.0</ele><time>2026-05-02T12:13:19Z</time></trkpt><trkpt lat="43.74667921487077" lon="7.058535302446557"><ele>936.0000000000001</ele><time>2026-05-02T12:13:20Z</time></trkpt><trkpt lat="43.74673674708131" lon="7.05857725565482"><ele>935.0</ele><time>2026-05-02T12:13:21Z</time></trkpt><trkpt lat="43.74679897856796" lon="7.058613459850915"><ele>935.0000000000001</ele><time>2026-05-02T12:13:22Z</time></trkpt><trkpt lat="43.746865471699" lon="7.0586290037571455"><ele>935.0</ele><time>2026-05-02T12:13:23Z</time></trkpt><trkpt lat="43.74693166145093" lon="7.058614003089804"><ele>935.0</ele><time>2026-05-02T12:13:24Z</time></trkpt><trkpt lat="43.74702609697986" lon="7.058699303047664"><ele>935.0</ele><time>2026-05-02T12:13:26Z</time></trkpt><trkpt lat="43.747069422882575" lon="7.058793497223348"><ele>935.0000000000001</ele><time>2026-05-02T12:13:27Z</time></trkpt><trkpt lat="43.747110490809575" lon="7.058860913759886"><ele>935.0</ele><time>2026-05-02T12:13:28Z</time></trkpt><trkpt lat="43.74717153978501" lon="7.058885591152978"><ele>934.5000000000001</ele><time>2026-05-02T12:13:29Z</time></trkpt><trkpt lat="43.747243875341454" lon="7.0589277663691705"><ele>934.0</ele><time>2026-05-02T12:13:30Z</time></trkpt><trkpt lat="43.74731845476898" lon="7.058968850047415"><ele>933.5</ele><time>2026-05-02T12:13:31Z</time></trkpt><trkpt lat="43.74739900761826" lon="7.0590621384379375"><ele>933.0</ele><time>2026-05-02T12:13:33Z</time></trkpt><trkpt lat="43.747480505109344" lon="7.05916700922449"><ele>932.5000000000001</ele><time>2026-05-02T12:13:34.999Z</time></trkpt><trkpt lat="43.747541940943215" lon="7.059204757288111"><ele>932.0</ele><time>2026-05-02T12:13:35.999Z</time></trkpt><trkpt lat="43.7476486070992" lon="7.059163873536285"><ele>933.5000000000001</ele><time>2026-05-02T12:13:37.999Z</time></trkpt><trkpt lat="43.74767567237185" lon="7.059068092423037"><ele>935.0</ele><time>2026-05-02T12:13:39.999Z</time></trkpt><trkpt lat="43.74775095958899" lon="7.059017480082242"><ele>936.5</ele><time>2026-05-02T12:13:43.999Z</time></trkpt><trkpt lat="43.7478254524969" lon="7.058940006517494"><ele>938.0</ele><time>2026-05-02T12:13:55.999Z</time></trkpt><trkpt lat="43.747906101524975" lon="7.058813107128136"><ele>939.5000000000001</ele><time>2026-05-02T12:14:09.999Z</time></trkpt><trkpt lat="43.747941298164825" lon="7.0587405314798515"><ele>941.0</ele><time>2026-05-02T12:14:10.999Z</time></trkpt><trkpt lat="43.747993021601246" lon="7.058617486563522"><ele>942.0</ele><time>2026-05-02T12:14:12.999Z</time></trkpt><trkpt lat="43.748030263323244" lon="7.058537168665735"><ele>942.9999999999999</ele><time>2026-05-02T12:14:14.999Z</time></trkpt><trkpt lat="43.74808854687715" lon="7.058456396500985"><ele>943.9999999999999</ele><time>2026-05-02T12:14:16.999Z</time></trkpt><trkpt lat="43.74817289010427" lon="7.058371696378183"><ele>945.0</ele><time>2026-05-02T12:14:18.999Z</time></trkpt><trkpt lat="43.748235633505104" lon="7.058345405089404"><ele>946.0</ele><time>2026-05-02T12:14:19.999Z</time></trkpt><trkpt lat="43.74836813088609" lon="7.058334366119322"><ele>945.9999999999999</ele><time>2026-05-02T12:14:21.999Z</time></trkpt><trkpt lat="43.74843399787447" lon="7.0582987273688556"><ele>946.0</ele><time>2026-05-02T12:14:22.999Z</time></trkpt><trkpt lat="43.74850557928695" lon="7.05826324323346"><ele>946.0</ele><time>2026-05-02T12:14:23.999Z</time></trkpt><trkpt lat="43.74862719131003" lon="7.058278945998715"><ele>946.0</ele><time>2026-05-02T12:14:25.999Z</time></trkpt><trkpt lat="43.74869466764507" lon="7.058300580226417"><ele>945.9999999999999</ele><time>2026-05-02T12:14:26.999Z</time></trkpt><trkpt lat="43.748775043469806" lon="7.058319805776947"><ele>946.0</ele><time>2026-05-02T12:14:27.999Z</time></trkpt><trkpt lat="43.748845189156974" lon="7.05833918061718"><ele>948.1999999999999</ele><time>2026-05-02T12:14:28.999Z</time></trkpt><trkpt lat="43.74895097399706" lon="7.0583508978201435"><ele>950.3999999999999</ele><time>2026-05-02T12:14:30.999Z</time></trkpt><trkpt lat="43.74905324318992" lon="7.058289159427999"><ele>952.6</ele><time>2026-05-02T12:14:32.999Z</time></trkpt><trkpt lat="43.749149804877966" lon="7.058234907581997"><ele>954.8</ele><time>2026-05-02T12:14:35Z</time></trkpt><trkpt lat="43.74922368828425" lon="7.0581627273746985"><ele>957.0</ele><time>2026-05-02T12:14:37Z</time></trkpt><trkpt lat="43.74931008007003" lon="7.058024197877528"><ele>958.0</ele><time>2026-05-02T12:14:39Z</time></trkpt><trkpt lat="43.7493390620828" lon="7.057934418570517"><ele>959.0</ele><time>2026-05-02T12:14:40Z</time></trkpt><trkpt lat="43.74940011963251" lon="7.0578371730313165"><ele>960.0</ele><time>2026-05-02T12:14:42Z</time></trkpt><trkpt lat="43.74943305991643" lon="7.057762370312666"><ele>961.0</ele><time>2026-05-02T12:14:44Z</time></trkpt><trkpt lat="43.749536610277005" lon="7.057568982198025"><ele>962.0</ele><time>2026-05-02T12:15:03Z</time></trkpt><trkpt lat="43.7495926651773" lon="7.057458252225768"><ele>963.6</ele><time>2026-05-02T12:15:04Z</time></trkpt><trkpt lat="43.74963956555243" lon="7.057329179556258"><ele>965.2</ele><time>2026-05-02T12:15:05Z</time></trkpt><trkpt lat="43.749712965540645" lon="7.057222431666645"><ele>966.8</ele><time>2026-05-02T12:15:06Z</time></trkpt><trkpt lat="43.749767120482005" lon="7.057120096610146"><ele>968.4</ele><time>2026-05-02T12:15:07Z</time></trkpt><trkpt lat="43.74982567946003" lon="7.057014196995556"><ele>970.0</ele><time>2026-05-02T12:15:08Z</time></trkpt><trkpt lat="43.74988555823579" lon="7.05691171866329"><ele>969.9999999999999</ele><time>2026-05-02T12:15:09Z</time></trkpt><trkpt lat="43.74993712628419" lon="7.056837767361408"><ele>970.0</ele><time>2026-05-02T12:15:10Z</time></trkpt><trkpt lat="43.75000554723476" lon="7.056769430858542"><ele>970.0</ele><time>2026-05-02T12:15:12Z</time></trkpt><trkpt lat="43.750086097356686" lon="7.05681308902203"><ele>970.0</ele><time>2026-05-02T12:15:13Z</time></trkpt><trkpt lat="43.75016025134588" lon="7.056795972690578"><ele>969.9999999999999</ele><time>2026-05-02T12:15:14Z</time></trkpt><trkpt lat="43.75022785251088" lon="7.056724097817735"><ele>970.0</ele><time>2026-05-02T12:15:15Z</time></trkpt><trkpt lat="43.75029292543784" lon="7.056654978473469"><ele>970.1428571428573</ele><time>2026-05-02T12:15:16Z</time></trkpt><trkpt lat="43.75035467721473" lon="7.056584339259221"><ele>970.2857142857143</ele><time>2026-05-02T12:15:17Z</time></trkpt><trkpt lat="43.75040156833459" lon="7.056503186434662"><ele>970.4285714285716</ele><time>2026-05-02T12:15:18Z</time></trkpt><trkpt lat="43.75043498464188" lon="7.056407914035283"><ele>970.5714285714287</ele><time>2026-05-02T12:15:19Z</time></trkpt><trkpt lat="43.75047075234578" lon="7.056321714491193"><ele>970.7142857142858</ele><time>2026-05-02T12:15:20Z</time></trkpt><trkpt lat="43.750507396533976" lon="7.056241254897918"><ele>970.8571428571429</ele><time>2026-05-02T12:15:21Z</time></trkpt><trkpt lat="43.750570207995466" lon="7.056181595408645"><ele>971.0</ele><time>2026-05-02T12:15:22Z</time></trkpt><trkpt lat="43.75065845218774" lon="7.056103988275601"><ele>971.0</ele><time>2026-05-02T12:15:23Z</time></trkpt><trkpt lat="43.75076405617767" lon="7.055996903436683"><ele>971.0</ele><time>2026-05-02T12:15:24Z</time></trkpt><trkpt lat="43.750862021961915" lon="7.055896705991439"><ele>971.0</ele><time>2026-05-02T12:15:25Z</time></trkpt><trkpt lat="43.750950624484034" lon="7.0558086694058035"><ele>971.0</ele><time>2026-05-02T12:15:26Z</time></trkpt><trkpt lat="43.75103451163309" lon="7.05573312594993"><ele>970.1666666666667</ele><time>2026-05-02T12:15:27Z</time></trkpt><trkpt lat="43.75111850163383" lon="7.055669929247673"><ele>969.3333333333334</ele><time>2026-05-02T12:15:28Z</time></trkpt><trkpt lat="43.75120419892346" lon="7.055613609137433"><ele>968.5</ele><time>2026-05-02T12:15:29Z</time></trkpt><trkpt lat="43.75127612149063" lon="7.055554093333235"><ele>967.6666666666667</ele><time>2026-05-02T12:15:30Z</time></trkpt><trkpt lat="43.75136168524825" lon="7.0555173404806935"><ele>966.8333333333334</ele><time>2026-05-02T12:15:31Z</time></trkpt><trkpt lat="43.751433189338144" lon="7.0554668332773485"><ele>966.0</ele><time>2026-05-02T12:15:32Z</time></trkpt><trkpt lat="43.751489648004295" lon="7.055394611760491"><ele>966.0</ele><time>2026-05-02T12:15:33Z</time></trkpt><trkpt lat="43.75154056783163" lon="7.0553016304684135"><ele>965.9999999999999</ele><time>2026-05-02T12:15:34Z</time></trkpt><trkpt lat="43.75159452883089" lon="7.055182792536551"><ele>965.9999999999999</ele><time>2026-05-02T12:15:35Z</time></trkpt><trkpt lat="43.75167390340968" lon="7.055106031770916"><ele>966.0</ele><time>2026-05-02T12:15:36Z</time></trkpt><trkpt lat="43.75175358703856" lon="7.05501777061797"><ele>966.0</ele><time>2026-05-02T12:15:37Z</time></trkpt><trkpt lat="43.7518472028929" lon="7.054916695947607"><ele>966.25</ele><time>2026-05-02T12:15:38Z</time></trkpt><trkpt lat="43.7519286741515" lon="7.054833088088126"><ele>966.5</ele><time>2026-05-02T12:15:39Z</time></trkpt><trkpt lat="43.75203150439118" lon="7.054732769724803"><ele>966.75</ele><time>2026-05-02T12:15:40Z</time></trkpt><trkpt lat="43.75215156859703" lon="7.054638115324699"><ele>967.0</ele><time>2026-05-02T12:15:41Z</time></trkpt><trkpt lat="43.75225134069628" lon="7.054562074728127"><ele>967.0</ele><time>2026-05-02T12:15:42Z</time></trkpt><trkpt lat="43.752330094289924" lon="7.054483312116249"><ele>967.0</ele><time>2026-05-02T12:15:43Z</time></trkpt><trkpt lat="43.752386825825184" lon="7.054389697936865"><ele>967.0</ele><time>2026-05-02T12:15:44Z</time></trkpt><trkpt lat="43.75246600538186" lon="7.0543204517748395"><ele>967.0</ele><time>2026-05-02T12:15:44.999Z</time></trkpt><trkpt lat="43.752533137127806" lon="7.054221658505983"><ele>967.0</ele><time>2026-05-02T12:15:45.999Z</time></trkpt><trkpt lat="43.75260649302337" lon="7.054150629162969"><ele>967.1666666666666</ele><time>2026-05-02T12:15:46.999Z</time></trkpt><trkpt lat="43.75264574067212" lon="7.054061601855051"><ele>967.3333333333333</ele><time>2026-05-02T12:15:47.999Z</time></trkpt><trkpt lat="43.752686731731465" lon="7.053987468580699"><ele>967.5</ele><time>2026-05-02T12:15:48.999Z</time></trkpt><trkpt lat="43.75270237279956" lon="7.0538909443094155"><ele>967.6666666666667</ele><time>2026-05-02T12:15:49.999Z</time></trkpt><trkpt lat="43.75273743581236" lon="7.053780595466667"><ele>967.8333333333334</ele><time>2026-05-02T12:15:50.999Z</time></trkpt><trkpt lat="43.75279304394919" lon="7.0536709461464495"><ele>968.0</ele><time>2026-05-02T12:15:51.999Z</time></trkpt><trkpt lat="43.752811756950884" lon="7.053563793513953"><ele>968.0000000000001</ele><time>2026-05-02T12:15:52.999Z</time></trkpt><trkpt lat="43.752874486875314" lon="7.05342790892936"><ele>968.0</ele><time>2026-05-02T12:15:54.999Z</time></trkpt><trkpt lat="43.75288918425139" lon="7.053330686720708"><ele>968.0</ele><time>2026-05-02T12:15:55.999Z</time></trkpt><trkpt lat="43.75290432609284" lon="7.053221031570333"><ele>968.0</ele><time>2026-05-02T12:15:56.999Z</time></trkpt><trkpt lat="43.75291817640798" lon="7.053113720400447"><ele>968.0000000000001</ele><time>2026-05-02T12:15:57.999Z</time></trkpt><trkpt lat="43.752945919989955" lon="7.053030508334606"><ele>968.0</ele><time>2026-05-02T12:15:58.999Z</time></trkpt><trkpt lat="43.753006658646775" lon="7.0529842325661605"><ele>968.5999999999999</ele><time>2026-05-02T12:15:59.999Z</time></trkpt><trkpt lat="43.75306336002457" lon="7.052895924753305"><ele>969.1999999999999</ele><time>2026-05-02T12:16:00.999Z</time></trkpt><trkpt lat="43.75313585752053" lon="7.052784852438786"><ele>969.8</ele><time>2026-05-02T12:16:01.999Z</time></trkpt><trkpt lat="43.75321280040206" lon="7.052667462914217"><ele>970.4</ele><time>2026-05-02T12:16:02.999Z</time></trkpt><trkpt lat="43.7532953664193" lon="7.052543653364792"><ele>971.0</ele><time>2026-05-02T12:16:03.999Z</time></trkpt><trkpt lat="43.753381268453474" lon="7.052416619075368"><ele>971.0</ele><time>2026-05-02T12:16:04.999Z</time></trkpt><trkpt lat="43.753473016121355" lon="7.052280938818336"><ele>971.0</ele><time>2026-05-02T12:16:05.999Z</time></trkpt><trkpt lat="43.7535560998572" lon="7.052153318260359"><ele>971.0</ele><time>2026-05-02T12:16:06.999Z</time></trkpt><trkpt lat="43.753625493055296" lon="7.052037679916985"><ele>971.0</ele><time>2026-05-02T12:16:07.999Z</time></trkpt><trkpt lat="43.75368435064827" lon="7.051932862572055"><ele>971.1666666666667</ele><time>2026-05-02T12:16:08.999Z</time></trkpt><trkpt lat="43.75373724986606" lon="7.051833031971661"><ele>971.3333333333334</ele><time>2026-05-02T12:16:09.999Z</time></trkpt><trkpt lat="43.75377668567767" lon="7.051753911017749"><ele>971.5</ele><time>2026-05-02T12:16:10.999Z</time></trkpt><trkpt lat="43.753821600955746" lon="7.0516637965851405"><ele>971.6666666666667</ele><time>2026-05-02T12:16:11.999Z</time></trkpt><trkpt lat="43.75387140385999" lon="7.051575293602413"><ele>971.8333333333334</ele><time>2026-05-02T12:16:12.999Z</time></trkpt><trkpt lat="43.75392587828105" lon="7.0515020319177735"><ele>972.0</ele><time>2026-05-02T12:16:13.999Z</time></trkpt><trkpt lat="43.75398920169192" lon="7.051446450440592"><ele>972.1666666666666</ele><time>2026-05-02T12:16:14.999Z</time></trkpt><trkpt lat="43.75403757489752" lon="7.051377300930126"><ele>972.3333333333333</ele><time>2026-05-02T12:16:15.999Z</time></trkpt><trkpt lat="43.7541008699975" lon="7.051366525149648"><ele>972.5</ele><time>2026-05-02T12:16:16.999Z</time></trkpt><trkpt lat="43.75423240226351" lon="7.051326472729459"><ele>972.6666666666666</ele><time>2026-05-02T12:16:18.999Z</time></trkpt><trkpt lat="43.754288400552156" lon="7.0512701934213595"><ele>972.8333333333333</ele><time>2026-05-02T12:16:19.999Z</time></trkpt><trkpt lat="43.754341637667125" lon="7.051200400171661"><ele>973.0</ele><time>2026-05-02T12:16:20.999Z</time></trkpt><trkpt lat="43.7543841674977" lon="7.051122869319946"><ele>972.8</ele><time>2026-05-02T12:16:21.999Z</time></trkpt><trkpt lat="43.75442905722333" lon="7.051027842130474"><ele>972.5999999999999</ele><time>2026-05-02T12:16:22.999Z</time></trkpt><trkpt lat="43.754469737351414" lon="7.0509311896314735"><ele>972.4000000000001</ele><time>2026-05-02T12:16:23.999Z</time></trkpt><trkpt lat="43.75450441615618" lon="7.050754911733647"><ele>972.2</ele><time>2026-05-02T12:16:25.999Z</time></trkpt><trkpt lat="43.75453424845792" lon="7.050642119379544"><ele>972.0</ele><time>2026-05-02T12:16:26.999Z</time></trkpt><trkpt lat="43.75454970706531" lon="7.050506369523318"><ele>972.0</ele><time>2026-05-02T12:16:27.999Z</time></trkpt><trkpt lat="43.75456858013998" lon="7.050352781769941"><ele>972.0</ele><time>2026-05-02T12:16:28.999Z</time></trkpt><trkpt lat="43.754590892146105" lon="7.05019026090903"><ele>972.0</ele><time>2026-05-02T12:16:29.999Z</time></trkpt><trkpt lat="43.754611081118256" lon="7.050049979186414"><ele>972.0</ele><time>2026-05-02T12:16:30.999Z</time></trkpt><trkpt lat="43.75462594161516" lon="7.049941004254863"><ele>972.0</ele><time>2026-05-02T12:16:31.999Z</time></trkpt><trkpt lat="43.75464686328921" lon="7.049792938551811"><ele>971.6666666666666</ele><time>2026-05-02T12:16:33.999Z</time></trkpt><trkpt lat="43.75470723339554" lon="7.049748148276846"><ele>971.3333333333333</ele><time>2026-05-02T12:16:34.999Z</time></trkpt><trkpt lat="43.75475892762216" lon="7.049697103324021"><ele>971.0</ele><time>2026-05-02T12:16:35.999Z</time></trkpt><trkpt lat="43.75484773892709" lon="7.049619422523513"><ele>970.6666666666666</ele><time>2026-05-02T12:16:37.999Z</time></trkpt><trkpt lat="43.75493823452107" lon="7.049515401538599"><ele>970.3333333333333</ele><time>2026-05-02T12:16:39.999Z</time></trkpt><trkpt lat="43.754962391202476" lon="7.0494251508141135"><ele>970.0</ele><time>2026-05-02T12:16:41Z</time></trkpt><trkpt lat="43.754986377794815" lon="7.049331533847683"><ele>970.0</ele><time>2026-05-02T12:16:42Z</time></trkpt><trkpt lat="43.755000336814845" lon="7.049229885438459"><ele>970.0</ele><time>2026-05-02T12:16:43Z</time></trkpt><trkpt lat="43.75502384179216" lon="7.049120746541302"><ele>970.0</ele><time>2026-05-02T12:16:44Z</time></trkpt><trkpt lat="43.75502711241463" lon="7.048988998923959"><ele>970.0</ele><time>2026-05-02T12:16:45Z</time></trkpt><trkpt lat="43.75503123000551" lon="7.048843879676018"><ele>970.0</ele><time>2026-05-02T12:16:46Z</time></trkpt><trkpt lat="43.75504487364746" lon="7.048714314450933"><ele>969.25</ele><time>2026-05-02T12:16:47Z</time></trkpt><trkpt lat="43.755076052540645" lon="7.048563448691005"><ele>968.5</ele><time>2026-05-02T12:16:48Z</time></trkpt><trkpt lat="43.75519565241112" lon="7.048455927945839"><ele>967.75</ele><time>2026-05-02T12:16:49Z</time></trkpt><trkpt lat="43.75525052742653" lon="7.048289643155019"><ele>967.0</ele><time>2026-05-02T12:16:50Z</time></trkpt><trkpt lat="43.755294795584604" lon="7.048138449303312"><ele>966.0</ele><time>2026-05-02T12:16:51Z</time></trkpt><trkpt lat="43.75534450419429" lon="7.04799059664202"><ele>965.0</ele><time>2026-05-02T12:16:52Z</time></trkpt><trkpt lat="43.75539485357036" lon="7.047847252283076"><ele>964.0</ele><time>2026-05-02T12:16:53Z</time></trkpt><trkpt lat="43.755454474835105" lon="7.047716985814204"><ele>963.0</ele><time>2026-05-02T12:16:54Z</time></trkpt><trkpt lat="43.75553233292864" lon="7.047591509709836"><ele>963.0</ele><time>2026-05-02T12:16:55Z</time></trkpt><trkpt lat="43.75558811881009" lon="7.047468983152263"><ele>963.0</ele><time>2026-05-02T12:16:56Z</time></trkpt><trkpt lat="43.755645888120576" lon="7.047394298439199"><ele>963.0</ele><time>2026-05-02T12:16:57Z</time></trkpt><trkpt lat="43.75569676376607" lon="7.047339494110527"><ele>963.0</ele><time>2026-05-02T12:16:58Z</time></trkpt><trkpt lat="43.75574657160898" lon="7.047256347345582"><ele>963.0</ele><time>2026-05-02T12:17:00Z</time></trkpt><trkpt lat="43.75581981847906" lon="7.047180609846072"><ele>963.0</ele><time>2026-05-02T12:17:03Z</time></trkpt><trkpt lat="43.75589336303082" lon="7.04704006701429"><ele>963.5</ele><time>2026-05-02T12:17:05Z</time></trkpt><trkpt lat="43.75595370870191" lon="7.046967229957217"><ele>964.0</ele><time>2026-05-02T12:17:07Z</time></trkpt><trkpt lat="43.75601728706161" lon="7.0469949975559265"><ele>964.5</ele><time>2026-05-02T12:17:10Z</time></trkpt><trkpt lat="43.756006423074226" lon="7.047088720494838"><ele>965.0</ele><time>2026-05-02T12:17:15Z</time></trkpt><trkpt lat="43.755969476488055" lon="7.047179175677667"><ele>965.5</ele><time>2026-05-02T12:17:18Z</time></trkpt><trkpt lat="43.755921916500895" lon="7.047258479748484"><ele>966.0</ele><time>2026-05-02T12:17:21Z</time></trkpt><trkpt lat="43.75590634913534" lon="7.047375073822566"><ele>965.4</ele><time>2026-05-02T12:17:25Z</time></trkpt><trkpt lat="43.7558814259941" lon="7.047485221596607"><ele>964.8</ele><time>2026-05-02T12:17:27Z</time></trkpt><trkpt lat="43.7558207539722" lon="7.047540352536125"><ele>964.1999999999999</ele><time>2026-05-02T12:17:29Z</time></trkpt><trkpt lat="43.755769928352976" lon="7.047625427493653"><ele>963.5999999999999</ele><time>2026-05-02T12:17:31Z</time></trkpt><trkpt lat="43.75566524131119" lon="7.047710442184359"><ele>963.0</ele><time>2026-05-02T12:17:33Z</time></trkpt><trkpt lat="43.75548301602586" lon="7.047603415433599"><ele>963.0</ele><time>2026-05-02T12:17:34Z</time></trkpt><trkpt lat="43.75543410742697" lon="7.047676551677747"><ele>963.0</ele><time>2026-05-02T12:17:35Z</time></trkpt><trkpt lat="43.755384488414926" lon="7.047776649927946"><ele>963.0</ele><time>2026-05-02T12:17:36Z</time></trkpt><trkpt lat="43.75534252956681" lon="7.047888921965013"><ele>963.0</ele><time>2026-05-02T12:17:38Z</time></trkpt><trkpt lat="43.75530858148086" lon="7.047988125788436"><ele>963.0</ele><time>2026-05-02T12:17:40Z</time></trkpt><trkpt lat="43.75525224264421" lon="7.048153101998254"><ele>963.0</ele><time>2026-05-02T12:17:42Z</time></trkpt><trkpt lat="43.75522774407849" lon="7.0482427891257196"><ele>963.0</ele><time>2026-05-02T12:17:43Z</time></trkpt><trkpt lat="43.755203506630686" lon="7.0483315204311765"><ele>963.0</ele><time>2026-05-02T12:17:44Z</time></trkpt><trkpt lat="43.75564747838011" lon="7.048639009001364"><ele>962.0</ele><time>2026-05-02T12:17:44.999Z</time></trkpt><trkpt lat="43.755625978733455" lon="7.048749928391248"><ele>961.0</ele><time>2026-05-02T12:17:46.999Z</time></trkpt><trkpt lat="43.75565099133116" lon="7.048853961083694"><ele>960.0</ele><time>2026-05-02T12:17:49.999Z</time></trkpt><trkpt lat="43.75568601924069" lon="7.048928769415033"><ele>959.0</ele><time>2026-05-02T12:17:51.999Z</time></trkpt><trkpt lat="43.7557614622649" lon="7.049005563523755"><ele>958.0</ele><time>2026-05-02T12:17:53.999Z</time></trkpt><trkpt lat="43.75584235124453" lon="7.049085070196747"><ele>957.0</ele><time>2026-05-02T12:17:55.999Z</time></trkpt><trkpt lat="43.755885865982975" lon="7.049149584611371"><ele>956.75</ele><time>2026-05-02T12:17:57.999Z</time></trkpt><trkpt lat="43.75592891990787" lon="7.049214194998734"><ele>956.5</ele><time>2026-05-02T12:18:04.999Z</time></trkpt><trkpt lat="43.75615138857649" lon="7.049349055836311"><ele>956.25</ele><time>2026-05-02T12:18:13.999Z</time></trkpt><trkpt lat="43.75624417031814" lon="7.049395698865559"><ele>956.0</ele><time>2026-05-02T12:18:15.999Z</time></trkpt><trkpt lat="43.756291837663966" lon="7.04945743906379"><ele>952.75</ele><time>2026-05-02T12:18:17.999Z</time></trkpt><trkpt lat="43.756366365834054" lon="7.049644452378078"><ele>949.5</ele><time>2026-05-02T12:18:19.999Z</time></trkpt><trkpt lat="43.7564245684143" lon="7.0497191841859665"><ele>946.25</ele><time>2026-05-02T12:18:20.999Z</time></trkpt><trkpt lat="43.75652702430676" lon="7.0498012186985815"><ele>943.0</ele><time>2026-05-02T12:18:21.999Z</time></trkpt><trkpt lat="43.75657506318936" lon="7.050013759402951"><ele>943.0</ele><time>2026-05-02T12:18:23.999Z</time></trkpt><trkpt lat="43.75657544271715" lon="7.050147191581252"><ele>943.0</ele><time>2026-05-02T12:18:24.999Z</time></trkpt><trkpt lat="43.7565737767123" lon="7.050295695538716"><ele>943.0</ele><time>2026-05-02T12:18:25.999Z</time></trkpt><trkpt lat="43.75656431052598" lon="7.05042954127504"><ele>943.0</ele><time>2026-05-02T12:18:26.999Z</time></trkpt><trkpt lat="43.75655667564631" lon="7.050569412054836"><ele>943.0</ele><time>2026-05-02T12:18:28.999Z</time></trkpt><trkpt lat="43.756633024177006" lon="7.050701036641509"><ele>943.0</ele><time>2026-05-02T12:18:30.999Z</time></trkpt><trkpt lat="43.756699488178086" lon="7.050753817923662"><ele>943.0</ele><time>2026-05-02T12:18:31.999Z</time></trkpt><trkpt lat="43.7567702530881" lon="7.050853850700854"><ele>943.0</ele><time>2026-05-02T12:18:32.999Z</time></trkpt><trkpt lat="43.75680797086294" lon="7.0509982854649005"><ele>943.0</ele><time>2026-05-02T12:18:33.999Z</time></trkpt><trkpt lat="43.75686813998429" lon="7.051174041460334"><ele>943.0</ele><time>2026-05-02T12:18:34.999Z</time></trkpt><trkpt lat="43.75691266296411" lon="7.05133745311118"><ele>943.0</ele><time>2026-05-02T12:18:35.999Z</time></trkpt><trkpt lat="43.756954972774764" lon="7.0514665906151714"><ele>943.0</ele><time>2026-05-02T12:18:36.999Z</time></trkpt><trkpt lat="43.7570163788284" lon="7.051577732317523"><ele>943.0</ele><time>2026-05-02T12:18:37.999Z</time></trkpt><trkpt lat="43.75707518664028" lon="7.051677306384688"><ele>943.0</ele><time>2026-05-02T12:18:38.999Z</time></trkpt><trkpt lat="43.75713187724803" lon="7.051741663606159"><ele>943.0</ele><time>2026-05-02T12:18:39.999Z</time></trkpt><trkpt lat="43.75723155679608" lon="7.051752707061621"><ele>943.4</ele><time>2026-05-02T12:18:41.999Z</time></trkpt><trkpt lat="43.75736349732505" lon="7.051785244958373"><ele>943.8</ele><time>2026-05-02T12:18:43.999Z</time></trkpt><trkpt lat="43.75746113194058" lon="7.051840945290283"><ele>944.2</ele><time>2026-05-02T12:18:44.999Z</time></trkpt><trkpt lat="43.757563564915046" lon="7.051856470014024"><ele>944.6</ele><time>2026-05-02T12:18:45.999Z</time></trkpt><trkpt lat="43.757648647590244" lon="7.051876372959577"><ele>945.0</ele><time>2026-05-02T12:18:47Z</time></trkpt><trkpt lat="43.75772586683172" lon="7.051973763892279"><ele>945.0</ele><time>2026-05-02T12:18:49Z</time></trkpt><trkpt lat="43.75775873001445" lon="7.052054780068592"><ele>945.0</ele><time>2026-05-02T12:19:38Z</time></trkpt><trkpt lat="43.757799901681146" lon="7.05212342122555"><ele>945.0</ele><time>2026-05-02T12:19:40Z</time></trkpt><trkpt lat="43.75789424517939" lon="7.052228994539224"><ele>945.0</ele><time>2026-05-02T12:19:42Z</time></trkpt><trkpt lat="43.757972456633205" lon="7.0523290996854335"><ele>945.0</ele><time>2026-05-02T12:19:43Z</time></trkpt><trkpt lat="43.758064243156745" lon="7.052427429215915"><ele>945.0</ele><time>2026-05-02T12:19:44Z</time></trkpt><trkpt lat="43.758153662732646" lon="7.052494810690361"><ele>945.0</ele><time>2026-05-02T12:19:45Z</time></trkpt><trkpt lat="43.75821793610589" lon="7.05252262589631"><ele>945.0</ele><time>2026-05-02T12:19:46Z</time></trkpt><trkpt lat="43.758338479928064" lon="7.05252737252306"><ele>945.0</ele><time>2026-05-02T12:19:48Z</time></trkpt><trkpt lat="43.758401170450654" lon="7.0524265563659245"><ele>945.0</ele><time>2026-05-02T12:19:49Z</time></trkpt><trkpt lat="43.75846062672926" lon="7.052347165745117"><ele>946.1666666666666</ele><time>2026-05-02T12:19:50Z</time></trkpt><trkpt lat="43.758548656016295" lon="7.052295633656443"><ele>947.3333333333333</ele><time>2026-05-02T12:19:51Z</time></trkpt><trkpt lat="43.758625222335496" lon="7.052249355547554"><ele>948.5</ele><time>2026-05-02T12:19:52Z</time></trkpt><trkpt lat="43.75872567642968" lon="7.052284304014665"><ele>949.6666666666666</ele><time>2026-05-02T12:19:54Z</time></trkpt><trkpt lat="43.75877222183044" lon="7.052360454480753"><ele>950.8333333333333</ele><time>2026-05-02T12:19:55Z</time></trkpt><trkpt lat="43.75876913094785" lon="7.052461960933305"><ele>952.0</ele><time>2026-05-02T12:19:56Z</time></trkpt><trkpt lat="43.75875984820813" lon="7.052571292202813"><ele>952.0</ele><time>2026-05-02T12:19:57Z</time></trkpt><trkpt lat="43.758779103820785" lon="7.0526897981305945"><ele>952.0</ele><time>2026-05-02T12:19:57.999Z</time></trkpt><trkpt lat="43.75881102236263" lon="7.052803354463509"><ele>952.0</ele><time>2026-05-02T12:19:58.999Z</time></trkpt><trkpt lat="43.758865886616164" lon="7.052891193427528"><ele>952.0</ele><time>2026-05-02T12:19:59.999Z</time></trkpt><trkpt lat="43.75891435558318" lon="7.052954446290649"><ele>952.0</ele><time>2026-05-02T12:20:00.999Z</time></trkpt><trkpt lat="43.75904738770421" lon="7.05281099979646"><ele>951.9999999999999</ele><time>2026-05-02T12:20:03.999Z</time></trkpt><trkpt lat="43.759124090811575" lon="7.052746360423433"><ele>952.0</ele><time>2026-05-02T12:20:05.999Z</time></trkpt><trkpt lat="43.75921610485055" lon="7.052792157206038"><ele>952.0</ele><time>2026-05-02T12:20:07.999Z</time></trkpt><trkpt lat="43.75929760850584" lon="7.052796456462923"><ele>952.0</ele><time>2026-05-02T12:20:08.999Z</time></trkpt><trkpt lat="43.759363943284974" lon="7.052819895321017"><ele>951.9999999999999</ele><time>2026-05-02T12:20:09.999Z</time></trkpt><trkpt lat="43.75943896546294" lon="7.0529297059052185"><ele>952.0</ele><time>2026-05-02T12:20:11.999Z</time></trkpt><trkpt lat="43.7594702753459" lon="7.0530136941749895"><ele>953.0</ele><time>2026-05-02T12:20:12.999Z</time></trkpt><trkpt lat="43.75951472645938" lon="7.053144022813859"><ele>954.0</ele><time>2026-05-02T12:20:13.999Z</time></trkpt><trkpt lat="43.7595592036333" lon="7.05324756427312"><ele>955.0</ele><time>2026-05-02T12:20:14.999Z</time></trkpt><trkpt lat="43.75961576462744" lon="7.053337470326195"><ele>956.0</ele><time>2026-05-02T12:20:15.999Z</time></trkpt><trkpt lat="43.759690285521444" lon="7.053427369572231"><ele>957.0</ele><time>2026-05-02T12:20:16.999Z</time></trkpt><trkpt lat="43.759765709776055" lon="7.053539210327112"><ele>957.0</ele><time>2026-05-02T12:20:17.999Z</time></trkpt><trkpt lat="43.759854303736184" lon="7.05368036797367"><ele>957.0</ele><time>2026-05-02T12:20:18.999Z</time></trkpt><trkpt lat="43.75993353195191" lon="7.053806130687707"><ele>957.0</ele><time>2026-05-02T12:20:19.999Z</time></trkpt><trkpt lat="43.76002452925327" lon="7.0539097898719305"><ele>957.0</ele><time>2026-05-02T12:20:20.999Z</time></trkpt><trkpt lat="43.760100314560134" lon="7.053997815143722"><ele>957.0</ele><time>2026-05-02T12:20:21.999Z</time></trkpt><trkpt lat="43.76018455110453" lon="7.054062561964386"><ele>957.0</ele><time>2026-05-02T12:20:22.999Z</time></trkpt><trkpt lat="43.76026040526463" lon="7.054113065286759"><ele>957.0</ele><time>2026-05-02T12:20:23.999Z</time></trkpt><trkpt lat="43.76034065999298" lon="7.0541285055317635"><ele>957.0</ele><time>2026-05-02T12:20:24.999Z</time></trkpt><trkpt lat="43.76044097709477" lon="7.054034845787839"><ele>957.0</ele><time>2026-05-02T12:20:26.999Z</time></trkpt><trkpt lat="43.760535675739575" lon="7.053942023791373"><ele>957.6</ele><time>2026-05-02T12:20:28.999Z</time></trkpt><trkpt lat="43.76068767810745" lon="7.053961418597243"><ele>958.2</ele><time>2026-05-02T12:20:30.999Z</time></trkpt><trkpt lat="43.76078482182425" lon="7.05396736444258"><ele>958.8</ele><time>2026-05-02T12:20:31.999Z</time></trkpt><trkpt lat="43.760862522672916" lon="7.053961799864384"><ele>959.4</ele><time>2026-05-02T12:20:32.999Z</time></trkpt><trkpt lat="43.760970498298065" lon="7.053938864143732"><ele>960.0</ele><time>2026-05-02T12:20:33.999Z</time></trkpt><trkpt lat="43.761086145277304" lon="7.053955003738226"><ele>960.3333333333333</ele><time>2026-05-02T12:20:34.999Z</time></trkpt><trkpt lat="43.76123304881525" lon="7.05400807313494"><ele>960.6666666666666</ele><time>2026-05-02T12:20:35.999Z</time></trkpt><trkpt lat="43.7613816202243" lon="7.054060495667743"><ele>961.0</ele><time>2026-05-02T12:20:36.999Z</time></trkpt><trkpt lat="43.76154626413094" lon="7.054106067797903"><ele>961.25</ele><time>2026-05-02T12:20:37.999Z</time></trkpt><trkpt lat="43.761707916954585" lon="7.0541503781057395"><ele>961.5</ele><time>2026-05-02T12:20:38.999Z</time></trkpt><trkpt lat="43.761834336756394" lon="7.054206313224807"><ele>961.75</ele><time>2026-05-02T12:20:39.999Z</time></trkpt><trkpt lat="43.76194379237028" lon="7.054311823077067"><ele>962.0</ele><time>2026-05-02T12:20:41.999Z</time></trkpt><trkpt lat="43.76192231621384" lon="7.054432482666007"><ele>962.0000000000001</ele><time>2026-05-02T12:20:43.999Z</time></trkpt><trkpt lat="43.76189393003225" lon="7.054527690901341"><ele>962.0</ele><time>2026-05-02T12:20:45.999Z</time></trkpt><trkpt lat="43.761816797159206" lon="7.054624518304368"><ele>962.0</ele><time>2026-05-02T12:20:47.999Z</time></trkpt><trkpt lat="43.76173868004715" lon="7.0546484197889"><ele>962.0</ele><time>2026-05-02T12:20:49.999Z</time></trkpt><trkpt lat="43.761640824875656" lon="7.054686539563518"><ele>962.0000000000001</ele><time>2026-05-02T12:20:51.999Z</time></trkpt><trkpt lat="43.761554981710084" lon="7.054695945657363"><ele>962.0</ele><time>2026-05-02T12:20:53Z</time></trkpt><trkpt lat="43.76144908103375" lon="7.054721977308012"><ele>961.2</ele><time>2026-05-02T12:20:54Z</time></trkpt><trkpt lat="43.76135801905029" lon="7.054765894170703"><ele>960.4000000000001</ele><time>2026-05-02T12:20:55Z</time></trkpt><trkpt lat="43.76127352435039" lon="7.0548704772889215"><ele>959.5999999999999</ele><time>2026-05-02T12:20:56Z</time></trkpt><trkpt lat="43.76120089457369" lon="7.054976587232178"><ele>958.8</ele><time>2026-05-02T12:20:57Z</time></trkpt><trkpt lat="43.76113877546811" lon="7.055028832689758"><ele>958.0</ele><time>2026-05-02T12:20:58Z</time></trkpt><trkpt lat="43.76105330508993" lon="7.055014085799023"><ele>957.3333333333333</ele><time>2026-05-02T12:20:59Z</time></trkpt><trkpt lat="43.760957554159226" lon="7.055004405141004"><ele>956.6666666666666</ele><time>2026-05-02T12:21:00Z</time></trkpt><trkpt lat="43.760883687422904" lon="7.055046560503999"><ele>956.0</ele><time>2026-05-02T12:21:01Z</time></trkpt><trkpt lat="43.760828163481484" lon="7.055106455982826"><ele>955.3333333333333</ele><time>2026-05-02T12:21:02Z</time></trkpt><trkpt lat="43.76078527293039" lon="7.055190864767272"><ele>954.6666666666666</ele><time>2026-05-02T12:21:03Z</time></trkpt><trkpt lat="43.76073030880601" lon="7.055307370865915"><ele>954.0</ele><time>2026-05-02T12:21:04Z</time></trkpt><trkpt lat="43.76067122901726" lon="7.05540309644766"><ele>954.0</ele><time>2026-05-02T12:21:05Z</time></trkpt><trkpt lat="43.76062101792329" lon="7.055473367751551"><ele>954.0</ele><time>2026-05-02T12:21:06Z</time></trkpt><trkpt lat="43.76054495458547" lon="7.05550754206595"><ele>954.0</ele><time>2026-05-02T12:21:07Z</time></trkpt><trkpt lat="43.760465599187214" lon="7.0555314515547"><ele>954.0</ele><time>2026-05-02T12:21:08Z</time></trkpt><trkpt lat="43.760380776897094" lon="7.055522329482207"><ele>954.0</ele><time>2026-05-02T12:21:09Z</time></trkpt><trkpt lat="43.76025721139302" lon="7.055462831104934"><ele>954.0</ele><time>2026-05-02T12:21:10Z</time></trkpt><trkpt lat="43.76014874559469" lon="7.055429857216034"><ele>953.4000000000001</ele><time>2026-05-02T12:21:11Z</time></trkpt><trkpt lat="43.760048164548174" lon="7.055389539083202"><ele>952.8000000000001</ele><time>2026-05-02T12:21:12Z</time></trkpt><trkpt lat="43.75995262446004" lon="7.055335424963591"><ele>952.1999999999999</ele><time>2026-05-02T12:21:13Z</time></trkpt><trkpt lat="43.75986288787397" lon="7.055303951166645"><ele>951.5999999999999</ele><time>2026-05-02T12:21:14Z</time></trkpt><trkpt lat="43.75980028116557" lon="7.055252548289887"><ele>951.0</ele><time>2026-05-02T12:21:15Z</time></trkpt><trkpt lat="43.75966108054404" lon="7.055317620374741"><ele>951.0</ele><time>2026-05-02T12:21:17Z</time></trkpt><trkpt lat="43.75958209573387" lon="7.055383098349116"><ele>951.0</ele><time>2026-05-02T12:21:18Z</time></trkpt><trkpt lat="43.759501690930314" lon="7.0554396819474805"><ele>951.0</ele><time>2026-05-02T12:21:19Z</time></trkpt><trkpt lat="43.75945073072626" lon="7.0555010554669"><ele>951.0</ele><time>2026-05-02T12:21:20Z</time></trkpt><trkpt lat="43.75947165895503" lon="7.055593628689562"><ele>951.0</ele><time>2026-05-02T12:21:22Z</time></trkpt><trkpt lat="43.75953484271061" lon="7.055628818810278"><ele>951.0</ele><time>2026-05-02T12:21:23Z</time></trkpt><trkpt lat="43.759608661887526" lon="7.055658748687076"><ele>951.0</ele><time>2026-05-02T12:21:24Z</time></trkpt><trkpt lat="43.7596701272779" lon="7.055695210167099"><ele>950.9999999999999</ele><time>2026-05-02T12:21:25Z</time></trkpt><trkpt lat="43.75971050232148" lon="7.055769927516142"><ele>950.9999999999999</ele><time>2026-05-02T12:21:26Z</time></trkpt><trkpt lat="43.759671420684654" lon="7.055884279680034"><ele>951.0</ele><time>2026-05-02T12:21:28Z</time></trkpt><trkpt lat="43.75966349758011" lon="7.056046666671324"><ele>951.0</ele><time>2026-05-02T12:21:29Z</time></trkpt><trkpt lat="43.75962570571278" lon="7.056259164734519"><ele>949.5999999999999</ele><time>2026-05-02T12:21:30Z</time></trkpt><trkpt lat="43.7595869076249" lon="7.056452432655456"><ele>948.1999999999999</ele><time>2026-05-02T12:21:31Z</time></trkpt><trkpt lat="43.75957017101301" lon="7.056584753439916"><ele>946.8000000000001</ele><time>2026-05-02T12:21:32Z</time></trkpt><trkpt lat="43.7596001758185" lon="7.056672550976711"><ele>945.4000000000001</ele><time>2026-05-02T12:21:34Z</time></trkpt><trkpt lat="43.759665678619015" lon="7.056707965810588"><ele>944.0</ele><time>2026-05-02T12:22:28.999Z</time></trkpt><trkpt lat="43.75973001247725" lon="7.056798942156788"><ele>942.6666666666667</ele><time>2026-05-02T12:22:32.999Z</time></trkpt><trkpt lat="43.7597627288957" lon="7.056913337985134"><ele>941.3333333333334</ele><time>2026-05-02T12:22:34.999Z</time></trkpt><trkpt lat="43.7597897118087" lon="7.056995532488499"><ele>940.0</ele><time>2026-05-02T12:22:35.999Z</time></trkpt><trkpt lat="43.75981515228055" lon="7.057077331676951"><ele>938.6666666666667</ele><time>2026-05-02T12:22:36.999Z</time></trkpt><trkpt lat="43.75983486672947" lon="7.057171979834157"><ele>937.3333333333334</ele><time>2026-05-02T12:22:37.999Z</time></trkpt><trkpt lat="43.75986004354076" lon="7.057307107877665"><ele>936.0</ele><time>2026-05-02T12:22:38.999Z</time></trkpt><trkpt lat="43.759885094086215" lon="7.0574724167994605"><ele>935.0</ele><time>2026-05-02T12:22:39.999Z</time></trkpt><trkpt lat="43.759921920084274" lon="7.057658449249317"><ele>934.0</ele><time>2026-05-02T12:22:40.999Z</time></trkpt><trkpt lat="43.75995609317705" lon="7.057861797169447"><ele>933.0</ele><time>2026-05-02T12:22:41.999Z</time></trkpt><trkpt lat="43.75999643779134" lon="7.058058322505984"><ele>932.0</ele><time>2026-05-02T12:22:42.999Z</time></trkpt><trkpt lat="43.76003088767089" lon="7.058247675088538"><ele>931.6</ele><time>2026-05-02T12:22:43.999Z</time></trkpt><trkpt lat="43.7600630820545" lon="7.058429128282428"><ele>931.2</ele><time>2026-05-02T12:22:44.999Z</time></trkpt><trkpt lat="43.76009670660873" lon="7.05858318905163"><ele>930.8</ele><time>2026-05-02T12:22:45.999Z</time></trkpt><trkpt lat="43.760109855301984" lon="7.058720370285261"><ele>930.4</ele><time>2026-05-02T12:22:46.999Z</time></trkpt><trkpt lat="43.760112134127354" lon="7.058836502486806"><ele>930.0</ele><time>2026-05-02T12:22:47.999Z</time></trkpt><trkpt lat="43.76007984378844" lon="7.058927125611632"><ele>930.0</ele><time>2026-05-02T12:22:48.999Z</time></trkpt><trkpt lat="43.75999902848892" lon="7.059019313810408"><ele>930.0</ele><time>2026-05-02T12:22:49.999Z</time></trkpt><trkpt lat="43.759897526012224" lon="7.059116141771653"><ele>930.0</ele><time>2026-05-02T12:22:50.999Z</time></trkpt><trkpt lat="43.75983622317103" lon="7.059217302102023"><ele>930.0</ele><time>2026-05-02T12:22:51.999Z</time></trkpt><trkpt lat="43.75980388962372" lon="7.0593564209095305"><ele>930.0</ele><time>2026-05-02T12:22:52.999Z</time></trkpt><trkpt lat="43.75975542282866" lon="7.059490955543953"><ele>929.5</ele><time>2026-05-02T12:22:53.999Z</time></trkpt><trkpt lat="43.759679298590335" lon="7.059598955321989"><ele>929.0</ele><time>2026-05-02T12:22:54.999Z</time></trkpt><trkpt lat="43.7596010303392" lon="7.059669300440822"><ele>928.5</ele><time>2026-05-02T12:22:55.999Z</time></trkpt><trkpt lat="43.75955846397074" lon="7.059742636227984"><ele>928.0</ele><time>2026-05-02T12:22:56.999Z</time></trkpt><trkpt lat="43.75955196698527" lon="7.05984370270608"><ele>927.5</ele><time>2026-05-02T12:22:57.999Z</time></trkpt><trkpt lat="43.75955439462009" lon="7.05996522422139"><ele>927.0</ele><time>2026-05-02T12:22:59Z</time></trkpt><trkpt lat="43.75954938833362" lon="7.060108899281145"><ele>926.75</ele><time>2026-05-02T12:23:00Z</time></trkpt><trkpt lat="43.75952720173428" lon="7.060286669260282"><ele>926.5</ele><time>2026-05-02T12:23:01Z</time></trkpt><trkpt lat="43.759520231777884" lon="7.0604791772346625"><ele>926.25</ele><time>2026-05-02T12:23:02Z</time></trkpt><trkpt lat="43.75952818318146" lon="7.0606643860530625"><ele>926.0</ele><time>2026-05-02T12:23:03Z</time></trkpt><trkpt lat="43.75953628911679" lon="7.060801799229466"><ele>926.0000000000001</ele><time>2026-05-02T12:23:04Z</time></trkpt><trkpt lat="43.759553951956" lon="7.060918400724674"><ele>926.0</ele><time>2026-05-02T12:23:05Z</time></trkpt><trkpt lat="43.759574209396796" lon="7.06103084890888"><ele>926.0</ele><time>2026-05-02T12:23:06Z</time></trkpt><trkpt lat="43.759572272175596" lon="7.0611293065991845"><ele>926.0</ele><time>2026-05-02T12:23:07Z</time></trkpt><trkpt lat="43.75950418767599" lon="7.061235570281376"><ele>926.0000000000001</ele><time>2026-05-02T12:23:09Z</time></trkpt><trkpt lat="43.759448008446945" lon="7.061300546275198"><ele>926.0</ele><time>2026-05-02T12:23:11Z</time></trkpt><trkpt lat="43.759357552735665" lon="7.061271501979539"><ele>924.25</ele><time>2026-05-02T12:23:14Z</time></trkpt><trkpt lat="43.75922830817157" lon="7.061345818987014"><ele>922.5</ele><time>2026-05-02T12:23:16Z</time></trkpt><trkpt lat="43.75912580966171" lon="7.061399641524703"><ele>920.75</ele><time>2026-05-02T12:23:17Z</time></trkpt><trkpt lat="43.759016853489975" lon="7.061430588413398"><ele>919.0</ele><time>2026-05-02T12:23:18Z</time></trkpt><trkpt lat="43.75890180946892" lon="7.061464229444845"><ele>919.0</ele><time>2026-05-02T12:23:19Z</time></trkpt><trkpt lat="43.7587796042289" lon="7.061520246388875"><ele>919.0</ele><time>2026-05-02T12:23:20Z</time></trkpt><trkpt lat="43.75864786914495" lon="7.061600769470427"><ele>919.0</ele><time>2026-05-02T12:23:21Z</time></trkpt><trkpt lat="43.75853436162225" lon="7.061685836358601"><ele>919.0</ele><time>2026-05-02T12:23:22Z</time></trkpt><trkpt lat="43.75843982444491" lon="7.061740840015927"><ele>918.6</ele><time>2026-05-02T12:23:23Z</time></trkpt><trkpt lat="43.75836360144708" lon="7.061785617902356"><ele>918.2</ele><time>2026-05-02T12:23:24Z</time></trkpt><trkpt lat="43.75827237796596" lon="7.061759489318868"><ele>917.8000000000001</ele><time>2026-05-02T12:23:26Z</time></trkpt><trkpt lat="43.758222451148356" lon="7.06166157376425"><ele>917.4000000000001</ele><time>2026-05-02T12:23:27Z</time></trkpt><trkpt lat="43.75813633885573" lon="7.061585299629544"><ele>917.0</ele><time>2026-05-02T12:23:28Z</time></trkpt><trkpt lat="43.75801863772428" lon="7.0615249953378125"><ele>917.0</ele><time>2026-05-02T12:23:29Z</time></trkpt><trkpt lat="43.75789220124064" lon="7.061469954664514"><ele>917.0</ele><time>2026-05-02T12:23:30Z</time></trkpt><trkpt lat="43.75775404950606" lon="7.0614434051023425"><ele>917.0</ele><time>2026-05-02T12:23:31Z</time></trkpt><trkpt lat="43.757628855211465" lon="7.061413973645556"><ele>917.0</ele><time>2026-05-02T12:23:32Z</time></trkpt><trkpt lat="43.75752310372733" lon="7.06140526110108"><ele>916.3333333333334</ele><time>2026-05-02T12:23:33Z</time></trkpt><trkpt lat="43.757442693555596" lon="7.061408442707363"><ele>915.6666666666667</ele><time>2026-05-02T12:23:34Z</time></trkpt><trkpt lat="43.75734985674687" lon="7.061409334851831"><ele>915.0</ele><time>2026-05-02T12:23:36Z</time></trkpt><trkpt lat="43.75727566660662" lon="7.061386603987915"><ele>914.3333333333333</ele><time>2026-05-02T12:23:38Z</time></trkpt><trkpt lat="43.75720995044135" lon="7.061343687654437"><ele>913.6666666666666</ele><time>2026-05-02T12:23:39Z</time></trkpt><trkpt lat="43.75713333672681" lon="7.061315637324516"><ele>913.0</ele><time>2026-05-02T12:23:40Z</time></trkpt><trkpt lat="43.75707754629078" lon="7.061273345254411"><ele>913.0</ele><time>2026-05-02T12:23:41Z</time></trkpt><trkpt lat="43.75697273833532" lon="7.0612600763862625"><ele>913.0</ele><time>2026-05-02T12:23:43Z</time></trkpt><trkpt lat="43.75690201773433" lon="7.061119632163347"><ele>913.0</ele><time>2026-05-02T12:23:46Z</time></trkpt><trkpt lat="43.75685013627869" lon="7.061027598324608"><ele>913.0</ele><time>2026-05-02T12:23:47Z</time></trkpt><trkpt lat="43.75680293635289" lon="7.060963597609589"><ele>913.0</ele><time>2026-05-02T12:23:48Z</time></trkpt><trkpt lat="43.756797670388174" lon="7.0608597796506585"><ele>913.1666666666666</ele><time>2026-05-02T12:23:50Z</time></trkpt><trkpt lat="43.756769404249965" lon="7.060756938632907"><ele>913.3333333333333</ele><time>2026-05-02T12:23:52Z</time></trkpt><trkpt lat="43.756697716221815" lon="7.060645301822256"><ele>913.5</ele><time>2026-05-02T12:23:54Z</time></trkpt><trkpt lat="43.75665669239586" lon="7.060559534547775"><ele>913.6666666666667</ele><time>2026-05-02T12:23:56Z</time></trkpt><trkpt lat="43.75663061530039" lon="7.0604744992114785"><ele>913.8333333333334</ele><time>2026-05-02T12:23:58Z</time></trkpt><trkpt lat="43.75660776607334" lon="7.060336288972425"><ele>914.0</ele><time>2026-05-02T12:24:00Z</time></trkpt><trkpt lat="43.756504951925095" lon="7.060299087713851"><ele>914.0000000000001</ele><time>2026-05-02T12:24:02Z</time></trkpt><trkpt lat="43.75649687530159" lon="7.060198347146872"><ele>914.0</ele><time>2026-05-02T12:24:06Z</time></trkpt><trkpt lat="43.75644591205865" lon="7.060105128321019"><ele>914.0</ele><time>2026-05-02T12:24:08.999Z</time></trkpt><trkpt lat="43.756363262788035" lon="7.060109458382061"><ele>914.0</ele><time>2026-05-02T12:24:10.999Z</time></trkpt><trkpt lat="43.7562863488299" lon="7.060035407377763"><ele>914.0000000000001</ele><time>2026-05-02T12:24:12.999Z</time></trkpt><trkpt lat="43.7562313171665" lon="7.0599585829092275"><ele>914.0</ele><time>2026-05-02T12:24:14.999Z</time></trkpt><trkpt lat="43.75618181965928" lon="7.0598980162899085"><ele>914.4000000000001</ele><time>2026-05-02T12:24:16.999Z</time></trkpt><trkpt lat="43.75616803327522" lon="7.059739197751628"><ele>914.8000000000001</ele><time>2026-05-02T12:24:19.999Z</time></trkpt><trkpt lat="43.756139485580064" lon="7.059610377859989"><ele>915.1999999999999</ele><time>2026-05-02T12:24:20.999Z</time></trkpt><trkpt lat="43.756097709714645" lon="7.059454578994324"><ele>915.5999999999999</ele><time>2026-05-02T12:24:21.999Z</time></trkpt><trkpt lat="43.75605592213802" lon="7.059333639273998"><ele>916.0</ele><time>2026-05-02T12:24:22.999Z</time></trkpt><trkpt lat="43.7560324836128" lon="7.059240688576323"><ele>916.4</ele><time>2026-05-02T12:24:23.999Z</time></trkpt><trkpt lat="43.7560500632186" lon="7.05914130879924"><ele>916.8</ele><time>2026-05-02T12:24:24.999Z</time></trkpt><trkpt lat="43.75609832972601" lon="7.0590280969610015"><ele>917.1999999999999</ele><time>2026-05-02T12:24:25.999Z</time></trkpt><trkpt lat="43.75617387496065" lon="7.0589014437743485"><ele>917.5999999999999</ele><time>2026-05-02T12:24:26.999Z</time></trkpt><trkpt lat="43.7562422870535" lon="7.05878189990367"><ele>918.0</ele><time>2026-05-02T12:24:27.999Z</time></trkpt><trkpt lat="43.75629568174502" lon="7.058621546247563"><ele>918.2</ele><time>2026-05-02T12:24:28.999Z</time></trkpt><trkpt lat="43.7563373747511" lon="7.058453295468307"><ele>918.4</ele><time>2026-05-02T12:24:29.999Z</time></trkpt><trkpt lat="43.756353433840175" lon="7.058322505256928"><ele>918.6000000000001</ele><time>2026-05-02T12:24:30.999Z</time></trkpt><trkpt lat="43.75635268036417" lon="7.058225721046875"><ele>918.8000000000001</ele><time>2026-05-02T12:24:31.999Z</time></trkpt><trkpt lat="43.756263710890494" lon="7.058142628607563"><ele>919.0</ele><time>2026-05-02T12:24:33.999Z</time></trkpt><trkpt lat="43.75619466257904" lon="7.058057122365968"><ele>919.8333333333333</ele><time>2026-05-02T12:24:35.999Z</time></trkpt><trkpt lat="43.75616613897542" lon="7.057943175268634"><ele>920.6666666666666</ele><time>2026-05-02T12:24:36.999Z</time></trkpt><trkpt lat="43.75611143606878" lon="7.057831159694568"><ele>921.5</ele><time>2026-05-02T12:24:37.999Z</time></trkpt><trkpt lat="43.75604635299044" lon="7.057741654481804"><ele>922.3333333333333</ele><time>2026-05-02T12:24:38.999Z</time></trkpt><trkpt lat="43.75600122024056" lon="7.057663935599801"><ele>923.1666666666666</ele><time>2026-05-02T12:24:39.999Z</time></trkpt><trkpt lat="43.75592860041853" lon="7.05758037834075"><ele>924.0</ele><time>2026-05-02T12:24:41.999Z</time></trkpt><trkpt lat="43.75586974833939" lon="7.057632490276492"><ele>924.8333333333334</ele><time>2026-05-02T12:24:43.999Z</time></trkpt><trkpt lat="43.755830131728054" lon="7.05770439358457"><ele>925.6666666666667</ele><time>2026-05-02T12:24:51.999Z</time></trkpt><trkpt lat="43.75577534432664" lon="7.057763466240241"><ele>926.5</ele><time>2026-05-02T12:24:52.999Z</time></trkpt><trkpt lat="43.75570417746222" lon="7.057806978835063"><ele>927.3333333333334</ele><time>2026-05-02T12:24:53.999Z</time></trkpt><trkpt lat="43.75562792802867" lon="7.057829589719442"><ele>928.1666666666667</ele><time>2026-05-02T12:24:54.999Z</time></trkpt><trkpt lat="43.75553131940667" lon="7.057819830356369"><ele>929.0</ele><time>2026-05-02T12:24:55.999Z</time></trkpt><trkpt lat="43.755424981736326" lon="7.0577820652022805"><ele>929.0</ele><time>2026-05-02T12:24:56.999Z</time></trkpt><trkpt lat="43.7553343165498" lon="7.057740138851302"><ele>929.0000000000001</ele><time>2026-05-02T12:24:57.999Z</time></trkpt><trkpt lat="43.75527585678258" lon="7.057851443320474"><ele>929.0000000000001</ele><time>2026-05-02T12:25:00.999Z</time></trkpt><trkpt lat="43.75522382191889" lon="7.0579064141853936"><ele>929.0</ele><time>2026-05-02T12:25:01.999Z</time></trkpt><trkpt lat="43.75512344848526" lon="7.057963016909474"><ele>929.0</ele><time>2026-05-02T12:25:03.999Z</time></trkpt><trkpt lat="43.75504161472737" lon="7.057957584505486"><ele>930.5000000000001</ele><time>2026-05-02T12:25:05Z</time></trkpt><trkpt lat="43.75495226830336" lon="7.057929853796031"><ele>932.0</ele><time>2026-05-02T12:25:06Z</time></trkpt><trkpt lat="43.75484118597184" lon="7.057951680606691"><ele>933.5</ele><time>2026-05-02T12:25:08Z</time></trkpt><trkpt lat="43.7547888580975" lon="7.058014726883897"><ele>935.0</ele><time>2026-05-02T12:25:09Z</time></trkpt><trkpt lat="43.754724615430476" lon="7.058056085963739"><ele>936.5000000000001</ele><time>2026-05-02T12:25:10Z</time></trkpt><trkpt lat="43.75463961544321" lon="7.058051979976876"><ele>938.0</ele><time>2026-05-02T12:25:12Z</time></trkpt><trkpt lat="43.754591613754066" lon="7.057914443482121"><ele>938.0000000000001</ele><time>2026-05-02T12:25:14Z</time></trkpt><trkpt lat="43.75454933079156" lon="7.057829554999411"><ele>938.0</ele><time>2026-05-02T12:25:15Z</time></trkpt><trkpt lat="43.754498253811256" lon="7.057719719049215"><ele>938.0</ele><time>2026-05-02T12:25:16Z</time></trkpt><trkpt lat="43.754460287359684" lon="7.057617473116223"><ele>938.0</ele><time>2026-05-02T12:25:17Z</time></trkpt><trkpt lat="43.754420722365616" lon="7.057534675755644"><ele>938.0000000000001</ele><time>2026-05-02T12:25:18Z</time></trkpt><trkpt lat="43.75434315827105" lon="7.0574479076272105"><ele>938.0</ele><time>2026-05-02T12:25:19Z</time></trkpt><trkpt lat="43.75430228010557" lon="7.057367672075582"><ele>938.6666666666667</ele><time>2026-05-02T12:25:20Z</time></trkpt><trkpt lat="43.75425236311933" lon="7.057260991490564"><ele>939.3333333333334</ele><time>2026-05-02T12:25:21Z</time></trkpt><trkpt lat="43.75419715883737" lon="7.057171832618829"><ele>940.0</ele><time>2026-05-02T12:25:22Z</time></trkpt><trkpt lat="43.75415132530372" lon="7.057085091590123"><ele>940.6666666666667</ele><time>2026-05-02T12:25:23Z</time></trkpt><trkpt lat="43.75415575831723" lon="7.056969858967038"><ele>941.3333333333334</ele><time>2026-05-02T12:25:24Z</time></trkpt><trkpt lat="43.75417717229631" lon="7.056854672117297"><ele>942.0</ele><time>2026-05-02T12:25:25Z</time></trkpt><trkpt lat="43.75422124172554" lon="7.0567204606170275"><ele>942.0</ele><time>2026-05-02T12:25:26Z</time></trkpt><trkpt lat="43.75428459431076" lon="7.056590920302061"><ele>942.0</ele><time>2026-05-02T12:25:27Z</time></trkpt><trkpt lat="43.754384951125026" lon="7.056465758242412"><ele>942.0</ele><time>2026-05-02T12:25:28Z</time></trkpt><trkpt lat="43.75446443225154" lon="7.056337983410209"><ele>942.0</ele><time>2026-05-02T12:25:29Z</time></trkpt><trkpt lat="43.754532093153095" lon="7.05616946751755"><ele>941.5</ele><time>2026-05-02T12:25:30Z</time></trkpt><trkpt lat="43.754610577837944" lon="7.056004722557801"><ele>941.0</ele><time>2026-05-02T12:25:31Z</time></trkpt><trkpt lat="43.754691688154814" lon="7.055886931576606"><ele>940.5</ele><time>2026-05-02T12:25:32Z</time></trkpt><trkpt lat="43.75477550751177" lon="7.0557867069626266"><ele>940.0</ele><time>2026-05-02T12:25:33Z</time></trkpt><trkpt lat="43.754838885324325" lon="7.055676398146212"><ele>939.4999999999999</ele><time>2026-05-02T12:25:34Z</time></trkpt><trkpt lat="43.75489112639235" lon="7.055587865800926"><ele>939.0</ele><time>2026-05-02T12:25:35Z</time></trkpt><trkpt lat="43.75490711583865" lon="7.0554320408977125"><ele>938.5</ele><time>2026-05-02T12:25:37Z</time></trkpt><trkpt lat="43.75487536227697" lon="7.055336960828882"><ele>938.0</ele><time>2026-05-02T12:25:38Z</time></trkpt><trkpt lat="43.75485192151045" lon="7.05524181227232"><ele>937.4999999999999</ele><time>2026-05-02T12:25:39Z</time></trkpt><trkpt lat="43.754853575797284" lon="7.055107111071633"><ele>937.0</ele><time>2026-05-02T12:25:41Z</time></trkpt><trkpt lat="43.75491082614254" lon="7.054959899545003"><ele>937.2</ele><time>2026-05-02T12:25:43Z</time></trkpt><trkpt lat="43.75489928270848" lon="7.054873247212177"><ele>937.4000000000001</ele><time>2026-05-02T12:25:44Z</time></trkpt><trkpt lat="43.754880296053784" lon="7.054766748074903"><ele>937.5999999999999</ele><time>2026-05-02T12:25:46Z</time></trkpt><trkpt lat="43.75498261132894" lon="7.054627661691924"><ele>937.8</ele><time>2026-05-02T12:25:48Z</time></trkpt><trkpt lat="43.75507966776552" lon="7.054544856978036"><ele>938.0</ele><time>2026-05-02T12:25:50Z</time></trkpt><trkpt lat="43.755200257696124" lon="7.054525087166737"><ele>938.2</ele><time>2026-05-02T12:25:51Z</time></trkpt><trkpt lat="43.755316581410554" lon="7.054494431029991"><ele>938.4</ele><time>2026-05-02T12:25:52Z</time></trkpt><trkpt lat="43.755413297329596" lon="7.054498466770812"><ele>938.6000000000001</ele><time>2026-05-02T12:25:53Z</time></trkpt><trkpt lat="43.75550099010958" lon="7.0545359081715775"><ele>938.8000000000001</ele><time>2026-05-02T12:25:54Z</time></trkpt><trkpt lat="43.75556783469846" lon="7.054564786746973"><ele>939.0</ele><time>2026-05-02T12:25:55Z</time></trkpt><trkpt lat="43.75564890284296" lon="7.054516133727504"><ele>939.0</ele><time>2026-05-02T12:25:56Z</time></trkpt><trkpt lat="43.75571642120433" lon="7.054406970811923"><ele>939.0000000000001</ele><time>2026-05-02T12:25:57Z</time></trkpt><trkpt lat="43.75580810493324" lon="7.054324673232305"><ele>939.0000000000001</ele><time>2026-05-02T12:25:58Z</time></trkpt><trkpt lat="43.75590771496834" lon="7.054291602139789"><ele>939.0</ele><time>2026-05-02T12:25:59Z</time></trkpt><trkpt lat="43.75600163922726" lon="7.054254343796568"><ele>939.0</ele><time>2026-05-02T12:26:00Z</time></trkpt><trkpt lat="43.75611238192293" lon="7.054240579546439"><ele>938.6</ele><time>2026-05-02T12:26:02Z</time></trkpt><trkpt lat="43.756259916408204" lon="7.054242256941445"><ele>938.2</ele><time>2026-05-02T12:26:04Z</time></trkpt><trkpt lat="43.75637236064026" lon="7.054242077859087"><ele>937.8000000000001</ele><time>2026-05-02T12:26:05Z</time></trkpt><trkpt lat="43.75647853487924" lon="7.054274790463142"><ele>937.4000000000001</ele><time>2026-05-02T12:26:06Z</time></trkpt><trkpt lat="43.756545337850184" lon="7.054316182156637"><ele>937.0</ele><time>2026-05-02T12:26:07Z</time></trkpt><trkpt lat="43.75661873923596" lon="7.0542759764570855"><ele>937.0</ele><time>2026-05-02T12:26:08.999Z</time></trkpt><trkpt lat="43.756602222770475" lon="7.054176458267732"><ele>937.0</ele><time>2026-05-02T12:26:10.999Z</time></trkpt><trkpt lat="43.756642938058455" lon="7.054052619008045"><ele>937.0</ele><time>2026-05-02T12:26:12.999Z</time></trkpt><trkpt lat="43.756770695642814" lon="7.053978748572255"><ele>937.0</ele><time>2026-05-02T12:26:14.999Z</time></trkpt><trkpt lat="43.75683906360554" lon="7.05392342503248"><ele>937.0</ele><time>2026-05-02T12:26:16.999Z</time></trkpt><trkpt lat="43.75679486140008" lon="7.053826423595511"><ele>937.1666666666666</ele><time>2026-05-02T12:26:49.999Z</time></trkpt><trkpt lat="43.756795363089026" lon="7.053725258367952"><ele>937.3333333333333</ele><time>2026-05-02T12:26:51.999Z</time></trkpt><trkpt lat="43.75675861678504" lon="7.0536363218292735"><ele>937.5</ele><time>2026-05-02T12:27:03.999Z</time></trkpt><trkpt lat="43.756692170024294" lon="7.0535399668963485"><ele>937.6666666666667</ele><time>2026-05-02T12:27:05.999Z</time></trkpt><trkpt lat="43.7566421272685" lon="7.053450320859949"><ele>937.8333333333334</ele><time>2026-05-02T12:27:07.999Z</time></trkpt><trkpt lat="43.75667974689449" lon="7.053564505849167"><ele>938.0</ele><time>2026-05-02T12:27:13Z</time></trkpt><trkpt lat="43.75665153100505" lon="7.053656227257012"><ele>938.0</ele><time>2026-05-02T12:27:15Z</time></trkpt><trkpt lat="43.75658549852701" lon="7.053688005602309"><ele>938.0</ele><time>2026-05-02T12:27:18Z</time></trkpt></trkseg><trkseg><trkpt lat="43.75662933150712" lon="7.053692621485937"><ele>938.0</ele><time>2026-05-02T13:03:03.999Z</time></trkpt><trkpt lat="43.75669358430193" lon="7.053627172173501"><ele>938.0</ele><time>2026-05-02T13:03:05.999Z</time></trkpt><trkpt lat="43.7567339067386" lon="7.053552359213121"><ele>938.0</ele><time>2026-05-02T13:03:07.999Z</time></trkpt><trkpt lat="43.7568175401412" lon="7.053657867707628"><ele>938.0</ele><time>2026-05-02T13:03:13.999Z</time></trkpt><trkpt lat="43.75685678007294" lon="7.053742623218486"><ele>938.0</ele><time>2026-05-02T13:03:14.999Z</time></trkpt><trkpt lat="43.75693934759321" lon="7.053592594370856"><ele>937.3333333333334</ele><time>2026-05-02T13:03:15.999Z</time></trkpt><trkpt lat="43.75699226624416" lon="7.0535416346352475"><ele>936.6666666666667</ele><time>2026-05-02T13:03:16.999Z</time></trkpt><trkpt lat="43.75703694353915" lon="7.053469508088958"><ele>936.0</ele><time>2026-05-02T13:03:17.999Z</time></trkpt><trkpt lat="43.75710480894177" lon="7.053327349578563"><ele>935.3333333333333</ele><time>2026-05-02T13:03:19.999Z</time></trkpt><trkpt lat="43.75715172114691" lon="7.053256195348724"><ele>934.6666666666666</ele><time>2026-05-02T13:03:20.999Z</time></trkpt><trkpt lat="43.757201030382994" lon="7.053192414415472"><ele>934.0</ele><time>2026-05-02T13:03:21.999Z</time></trkpt><trkpt lat="43.7572474476686" lon="7.053115450238717"><ele>934.0</ele><time>2026-05-02T13:03:22.999Z</time></trkpt><trkpt lat="43.7572957009956" lon="7.053027708999163"><ele>934.0000000000001</ele><time>2026-05-02T13:03:23.999Z</time></trkpt><trkpt lat="43.75736074534173" lon="7.052924806478696"><ele>934.0000000000001</ele><time>2026-05-02T13:03:24.999Z</time></trkpt><trkpt lat="43.757427880032424" lon="7.052822531521679"><ele>934.0</ele><time>2026-05-02T13:03:25.999Z</time></trkpt><trkpt lat="43.75750383032882" lon="7.052762107381766"><ele>934.0</ele><time>2026-05-02T13:03:26.999Z</time></trkpt><trkpt lat="43.757584537714955" lon="7.052704764991176"><ele>934.0</ele><time>2026-05-02T13:03:27.999Z</time></trkpt><trkpt lat="43.75767440561736" lon="7.052618000197354"><ele>934.0000000000001</ele><time>2026-05-02T13:03:28.999Z</time></trkpt><trkpt lat="43.75774546847387" lon="7.052510622693583"><ele>934.0000000000001</ele><time>2026-05-02T13:03:29.999Z</time></trkpt><trkpt lat="43.75779053940893" lon="7.052383108183077"><ele>934.0</ele><time>2026-05-02T13:03:30.999Z</time></trkpt><trkpt lat="43.75781200719879" lon="7.052284709525937"><ele>934.0</ele><time>2026-05-02T13:03:31.999Z</time></trkpt><trkpt lat="43.757892922388656" lon="7.052241984261639"><ele>935.6666666666666</ele><time>2026-05-02T13:03:33.998Z</time></trkpt><trkpt lat="43.75794909156001" lon="7.052330885001991"><ele>937.3333333333333</ele><time>2026-05-02T13:04:27Z</time></trkpt><trkpt lat="43.75800308733579" lon="7.052376692017786"><ele>939.0</ele><time>2026-05-02T13:04:28Z</time></trkpt><trkpt lat="43.7580725464831" lon="7.052441736396769"><ele>940.6666666666667</ele><time>2026-05-02T13:04:29Z</time></trkpt><trkpt lat="43.7581515260608" lon="7.0525105645817305"><ele>942.3333333333334</ele><time>2026-05-02T13:04:30Z</time></trkpt><trkpt lat="43.75823706287331" lon="7.052543203838004"><ele>944.0</ele><time>2026-05-02T13:04:31Z</time></trkpt><trkpt lat="43.758310869868644" lon="7.052524693329617"><ele>944.2</ele><time>2026-05-02T13:04:32Z</time></trkpt><trkpt lat="43.75837127406826" lon="7.052444441564577"><ele>944.4000000000001</ele><time>2026-05-02T13:04:33Z</time></trkpt><trkpt lat="43.75842870250681" lon="7.052350159533529"><ele>944.6</ele><time>2026-05-02T13:04:34Z</time></trkpt><trkpt lat="43.75852171542406" lon="7.052272085525208"><ele>944.8</ele><time>2026-05-02T13:04:35Z</time></trkpt><trkpt lat="43.75860684271044" lon="7.052232259237337"><ele>945.0</ele><time>2026-05-02T13:04:35.999Z</time></trkpt><trkpt lat="43.75870024910772" lon="7.052320257856924"><ele>946.1666666666666</ele><time>2026-05-02T13:04:37.999Z</time></trkpt><trkpt lat="43.758723438949254" lon="7.052425446089235"><ele>947.3333333333333</ele><time>2026-05-02T13:04:38.999Z</time></trkpt><trkpt lat="43.75872320578557" lon="7.052543601842052"><ele>948.5</ele><time>2026-05-02T13:04:39.999Z</time></trkpt><trkpt lat="43.758702623056685" lon="7.0526586746714255"><ele>949.6666666666666</ele><time>2026-05-02T13:04:40.999Z</time></trkpt><trkpt lat="43.75873248393673" lon="7.052786713030061"><ele>950.8333333333333</ele><time>2026-05-02T13:04:41.999Z</time></trkpt><trkpt lat="43.758780356482475" lon="7.0528592844317695"><ele>952.0</ele><time>2026-05-02T13:04:42.999Z</time></trkpt><trkpt lat="43.75888958161748" lon="7.052901476690179"><ele>951.9999999999999</ele><time>2026-05-02T13:04:44.999Z</time></trkpt><trkpt lat="43.75895059708949" lon="7.052867774917922"><ele>952.0</ele><time>2026-05-02T13:04:45.999Z</time></trkpt><trkpt lat="43.75900956193866" lon="7.052831951471539"><ele>952.0</ele><time>2026-05-02T13:04:46.999Z</time></trkpt><trkpt lat="43.75908524056502" lon="7.05274731239101"><ele>952.0</ele><time>2026-05-02T13:04:47.999Z</time></trkpt><trkpt lat="43.75914993631656" lon="7.052733462958649"><ele>951.9999999999999</ele><time>2026-05-02T13:04:48.999Z</time></trkpt><trkpt lat="43.759306501380145" lon="7.052733107095949"><ele>952.0</ele><time>2026-05-02T13:04:50.999Z</time></trkpt><trkpt lat="43.75941407340706" lon="7.052746947267347"><ele>953.0</ele><time>2026-05-02T13:04:51.999Z</time></trkpt><trkpt lat="43.759473904902954" lon="7.052801326924263"><ele>954.0</ele><time>2026-05-02T13:04:52.999Z</time></trkpt><trkpt lat="43.75948408720943" lon="7.05293562161816"><ele>955.0</ele><time>2026-05-02T13:04:53.999Z</time></trkpt><trkpt lat="43.7594713388045" lon="7.053097218123491"><ele>956.0</ele><time>2026-05-02T13:04:54.999Z</time></trkpt><trkpt lat="43.75948054217493" lon="7.05324564313537"><ele>957.0</ele><time>2026-05-02T13:04:55.999Z</time></trkpt><trkpt lat="43.759521491190334" lon="7.053369478794084"><ele>957.0</ele><time>2026-05-02T13:04:56.999Z</time></trkpt><trkpt lat="43.75955526903153" lon="7.0535172396440275"><ele>957.0</ele><time>2026-05-02T13:04:57.999Z</time></trkpt><trkpt lat="43.75960950444215" lon="7.053656791372411"><ele>957.0</ele><time>2026-05-02T13:04:58.999Z</time></trkpt><trkpt lat="43.759646016137665" lon="7.053764954529772"><ele>957.0</ele><time>2026-05-02T13:04:59.999Z</time></trkpt><trkpt lat="43.759744527640436" lon="7.053834154673884"><ele>957.0</ele><time>2026-05-02T13:05:00.999Z</time></trkpt><trkpt lat="43.75983063642025" lon="7.053947884132361"><ele>957.0</ele><time>2026-05-02T13:05:01.999Z</time></trkpt><trkpt lat="43.75992121948171" lon="7.05406139490223"><ele>957.0</ele><time>2026-05-02T13:05:02.999Z</time></trkpt><trkpt lat="43.75998967236556" lon="7.054131717397398"><ele>957.0</ele><time>2026-05-02T13:05:03.999Z</time></trkpt><trkpt lat="43.76006821910138" lon="7.054192079726484"><ele>957.0</ele><time>2026-05-02T13:05:04.999Z</time></trkpt><trkpt lat="43.76017143315655" lon="7.054205826348606"><ele>957.0</ele><time>2026-05-02T13:05:05.999Z</time></trkpt><trkpt lat="43.76027374797152" lon="7.0542189983559735"><ele>957.0</ele><time>2026-05-02T13:05:06.999Z</time></trkpt><trkpt lat="43.76034264269667" lon="7.054212597454256"><ele>957.0</ele><time>2026-05-02T13:05:07.999Z</time></trkpt><trkpt lat="43.76040054289269" lon="7.05413312898021"><ele>957.0</ele><time>2026-05-02T13:05:08.999Z</time></trkpt><trkpt lat="43.76044889821175" lon="7.0540294960317755"><ele>957.0</ele><time>2026-05-02T13:05:09.999Z</time></trkpt><trkpt lat="43.7605425992149" lon="7.054046760547709"><ele>957.0</ele><time>2026-05-02T13:05:12.999Z</time></trkpt><trkpt lat="43.76070959712625" lon="7.054020786686359"><ele>957.75</ele><time>2026-05-02T13:05:13.999Z</time></trkpt><trkpt lat="43.76083978572068" lon="7.054027073592614"><ele>958.5</ele><time>2026-05-02T13:05:14.999Z</time></trkpt><trkpt lat="43.760968925618826" lon="7.05399249125382"><ele>959.25</ele><time>2026-05-02T13:05:15.999Z</time></trkpt><trkpt lat="43.76109273162564" lon="7.053972735662705"><ele>960.0</ele><time>2026-05-02T13:05:16.999Z</time></trkpt><trkpt lat="43.7612349650003" lon="7.054034818730439"><ele>960.25</ele><time>2026-05-02T13:05:17.999Z</time></trkpt><trkpt lat="43.76136409998611" lon="7.054067542156856"><ele>960.5</ele><time>2026-05-02T13:05:18.999Z</time></trkpt><trkpt lat="43.76150902878443" lon="7.054112716358006"><ele>960.75</ele><time>2026-05-02T13:05:19.999Z</time></trkpt><trkpt lat="43.76165915859959" lon="7.054157776815222"><ele>961.0</ele><time>2026-05-02T13:05:20.999Z</time></trkpt><trkpt lat="43.761796703838215" lon="7.054212387049567"><ele>961.1666666666666</ele><time>2026-05-02T13:05:21.999Z</time></trkpt><trkpt lat="43.76189206423929" lon="7.054269831473007"><ele>961.3333333333333</ele><time>2026-05-02T13:05:22.999Z</time></trkpt><trkpt lat="43.761952602177416" lon="7.054333024593002"><ele>961.5</ele><time>2026-05-02T13:05:23.999Z</time></trkpt><trkpt lat="43.76197409822106" lon="7.054431265930408"><ele>961.6666666666667</ele><time>2026-05-02T13:05:24.999Z</time></trkpt><trkpt lat="43.76195123962035" lon="7.0545135548661815"><ele>961.8333333333334</ele><time>2026-05-02T13:05:25.999Z</time></trkpt><trkpt lat="43.761894538245194" lon="7.054580253634257"><ele>962.0</ele><time>2026-05-02T13:05:26.999Z</time></trkpt><trkpt lat="43.76183638764735" lon="7.054659713746956"><ele>961.2</ele><time>2026-05-02T13:05:27.999Z</time></trkpt><trkpt lat="43.76174957680818" lon="7.054708388347817"><ele>960.4000000000001</ele><time>2026-05-02T13:05:28.999Z</time></trkpt><trkpt lat="43.76163811858114" lon="7.054728535148818"><ele>959.5999999999999</ele><time>2026-05-02T13:05:29.999Z</time></trkpt><trkpt lat="43.76153053440546" lon="7.054764548898321"><ele>958.8</ele><time>2026-05-02T13:05:30.999Z</time></trkpt><trkpt lat="43.76143102495453" lon="7.054762855948376"><ele>958.0</ele><time>2026-05-02T13:05:31.999Z</time></trkpt><trkpt lat="43.761362418318086" lon="7.054804432862973"><ele>958.0</ele><time>2026-05-02T13:05:32.999Z</time></trkpt><trkpt lat="43.76126600130229" lon="7.054906853086449"><ele>958.0</ele><time>2026-05-02T13:05:33.999Z</time></trkpt><trkpt lat="43.761187732133315" lon="7.054995199994214"><ele>958.0</ele><time>2026-05-02T13:05:34.999Z</time></trkpt><trkpt lat="43.76113149299716" lon="7.05505427885528"><ele>958.0</ele><time>2026-05-02T13:05:35.999Z</time></trkpt><trkpt lat="43.76103745122543" lon="7.055044854915027"><ele>958.0</ele><time>2026-05-02T13:05:36.999Z</time></trkpt><trkpt lat="43.760929917302555" lon="7.0550437869317175"><ele>957.3333333333333</ele><time>2026-05-02T13:05:37.999Z</time></trkpt><trkpt lat="43.76084679413786" lon="7.055078526822576"><ele>956.6666666666666</ele><time>2026-05-02T13:05:38.999Z</time></trkpt><trkpt lat="43.76078983374593" lon="7.055145641114119"><ele>956.0</ele><time>2026-05-02T13:05:39.999Z</time></trkpt><trkpt lat="43.76074778155652" lon="7.055256855195204"><ele>955.3333333333333</ele><time>2026-05-02T13:05:40.998Z</time></trkpt><trkpt lat="43.7606938324559" lon="7.05535765212859"><ele>954.6666666666666</ele><time>2026-05-02T13:05:41.998Z</time></trkpt><trkpt lat="43.76064541697476" lon="7.055447348156579"><ele>954.0</ele><time>2026-05-02T13:05:42.998Z</time></trkpt><trkpt lat="43.76052870096881" lon="7.055531872443513"><ele>954.0</ele><time>2026-05-02T13:05:44.998Z</time></trkpt><trkpt lat="43.7604430320698" lon="7.055558357333834"><ele>954.0000000000001</ele><time>2026-05-02T13:05:45.998Z</time></trkpt><trkpt lat="43.76035472922924" lon="7.055559612809252"><ele>954.0000000000001</ele><time>2026-05-02T13:05:46.998Z</time></trkpt><trkpt lat="43.760244431484345" lon="7.0555044047532265"><ele>954.0</ele><time>2026-05-02T13:05:47.998Z</time></trkpt><trkpt lat="43.760143886920005" lon="7.055406570786115"><ele>954.0</ele><time>2026-05-02T13:05:48.998Z</time></trkpt><trkpt lat="43.76002861526336" lon="7.055432152490099"><ele>953.5</ele><time>2026-05-02T13:05:49.998Z</time></trkpt><trkpt lat="43.75994940170776" lon="7.0553608023261685"><ele>953.0</ele><time>2026-05-02T13:05:50.998Z</time></trkpt><trkpt lat="43.75988585942455" lon="7.05531002136393"><ele>952.5</ele><time>2026-05-02T13:05:51.998Z</time></trkpt><trkpt lat="43.75980559975943" lon="7.055273928640472"><ele>952.0</ele><time>2026-05-02T13:05:52.998Z</time></trkpt><trkpt lat="43.759744361476606" lon="7.055253202575613"><ele>951.5</ele><time>2026-05-02T13:05:53.998Z</time></trkpt><trkpt lat="43.75967262458148" lon="7.055284445548755"><ele>951.0</ele><time>2026-05-02T13:05:54.998Z</time></trkpt><trkpt lat="43.7595860565583" lon="7.055349144768304"><ele>951.0</ele><time>2026-05-02T13:05:55.998Z</time></trkpt><trkpt lat="43.7595061542138" lon="7.055400451096427"><ele>951.0</ele><time>2026-05-02T13:05:56.998Z</time></trkpt><trkpt lat="43.759448816380015" lon="7.055452563438794"><ele>951.0</ele><time>2026-05-02T13:05:57.998Z</time></trkpt><trkpt lat="43.75944651474941" lon="7.055566125510814"><ele>951.0</ele><time>2026-05-02T13:05:59.998Z</time></trkpt><trkpt lat="43.75956493382686" lon="7.055600282808923"><ele>951.0</ele><time>2026-05-02T13:06:01.998Z</time></trkpt><trkpt lat="43.75963214668231" lon="7.055622525715531"><ele>951.0</ele><time>2026-05-02T13:06:02.998Z</time></trkpt><trkpt lat="43.75969845413384" lon="7.05562779013632"><ele>951.0</ele><time>2026-05-02T13:06:03.998Z</time></trkpt><trkpt lat="43.7597432130907" lon="7.055696540911493"><ele>951.0</ele><time>2026-05-02T13:06:04.998Z</time></trkpt><trkpt lat="43.75970296142464" lon="7.0558259522057645"><ele>951.0</ele><time>2026-05-02T13:06:06.998Z</time></trkpt><trkpt lat="43.759695490046504" lon="7.0559394247713705"><ele>951.0</ele><time>2026-05-02T13:06:07.998Z</time></trkpt><trkpt lat="43.759674456550364" lon="7.056076400032549"><ele>951.0</ele><time>2026-05-02T13:06:08.998Z</time></trkpt><trkpt lat="43.759651812852866" lon="7.056190163926032"><ele>951.0</ele><time>2026-05-02T13:06:09.998Z</time></trkpt><trkpt lat="43.7596294587386" lon="7.056295524711786"><ele>949.8333333333334</ele><time>2026-05-02T13:06:10.998Z</time></trkpt><trkpt lat="43.759608252243446" lon="7.05639964397309"><ele>948.6666666666667</ele><time>2026-05-02T13:06:11.998Z</time></trkpt><trkpt lat="43.759590569169156" lon="7.0564973919607645"><ele>947.5</ele><time>2026-05-02T13:06:13Z</time></trkpt><trkpt lat="43.75958023282561" lon="7.056585967876833"><ele>946.3333333333334</ele><time>2026-05-02T13:06:14Z</time></trkpt><trkpt lat="43.75962583912055" lon="7.056680587181098"><ele>945.1666666666667</ele><time>2026-05-02T13:06:40Z</time></trkpt><trkpt lat="43.759712830315245" lon="7.056776159091151"><ele>944.0</ele><time>2026-05-02T13:06:41.999Z</time></trkpt><trkpt lat="43.75975530839666" lon="7.056862256499049"><ele>942.4000000000001</ele><time>2026-05-02T13:06:42.999Z</time></trkpt><trkpt lat="43.75978360455691" lon="7.056976239832736"><ele>940.8000000000001</ele><time>2026-05-02T13:06:43.999Z</time></trkpt><trkpt lat="43.75982637221006" lon="7.057080047848911"><ele>939.1999999999999</ele><time>2026-05-02T13:06:44.999Z</time></trkpt><trkpt lat="43.75986524610146" lon="7.057238914437179"><ele>937.5999999999999</ele><time>2026-05-02T13:06:45.999Z</time></trkpt><trkpt lat="43.75988417114323" lon="7.057409648251561"><ele>936.0</ele><time>2026-05-02T13:06:46.999Z</time></trkpt><trkpt lat="43.759902810119115" lon="7.057595133021915"><ele>935.0</ele><time>2026-05-02T13:06:47.999Z</time></trkpt><trkpt lat="43.75993687850373" lon="7.057775286977039"><ele>934.0</ele><time>2026-05-02T13:06:48.999Z</time></trkpt><trkpt lat="43.75998047977837" lon="7.057954469092716"><ele>933.0</ele><time>2026-05-02T13:06:49.999Z</time></trkpt><trkpt lat="43.760013873843114" lon="7.05813725092766"><ele>932.0</ele><time>2026-05-02T13:06:50.999Z</time></trkpt><trkpt lat="43.76004636058585" lon="7.0583065529066635"><ele>931.6</ele><time>2026-05-02T13:06:51.999Z</time></trkpt><trkpt lat="43.76007315839906" lon="7.0584859524886285"><ele>931.2</ele><time>2026-05-02T13:06:52.999Z</time></trkpt><trkpt lat="43.760097768111535" lon="7.05862770708509"><ele>930.8</ele><time>2026-05-02T13:06:53.999Z</time></trkpt><trkpt lat="43.76010839389613" lon="7.058753274785543"><ele>930.4</ele><time>2026-05-02T13:06:54.999Z</time></trkpt><trkpt lat="43.760108704199915" lon="7.058862030435271"><ele>930.0</ele><time>2026-05-02T13:06:55.999Z</time></trkpt><trkpt lat="43.76001144635354" lon="7.058993330908186"><ele>930.0</ele><time>2026-05-02T13:06:57.999Z</time></trkpt><trkpt lat="43.75992805528181" lon="7.059030266425392"><ele>930.0</ele><time>2026-05-02T13:06:58.999Z</time></trkpt><trkpt lat="43.759875657889985" lon="7.0590975978793535"><ele>930.0</ele><time>2026-05-02T13:06:59.999Z</time></trkpt><trkpt lat="43.75984266888952" lon="7.05922680215462"><ele>930.0</ele><time>2026-05-02T13:07:00.999Z</time></trkpt><trkpt lat="43.759807966395606" lon="7.05937127739811"><ele>930.0</ele><time>2026-05-02T13:07:01.999Z</time></trkpt><trkpt lat="43.7597554748318" lon="7.059499078431829"><ele>929.4</ele><time>2026-05-02T13:07:02.999Z</time></trkpt><trkpt lat="43.75968221406796" lon="7.059597621789749"><ele>928.8</ele><time>2026-05-02T13:07:03.999Z</time></trkpt><trkpt lat="43.759600163957934" lon="7.059671533624095"><ele>928.2</ele><time>2026-05-02T13:07:04.999Z</time></trkpt><trkpt lat="43.75955015643932" lon="7.059829573940885"><ele>927.6</ele><time>2026-05-02T13:07:06.999Z</time></trkpt><trkpt lat="43.759549954157265" lon="7.05993922101593"><ele>927.0</ele><time>2026-05-02T13:07:07.999Z</time></trkpt><trkpt lat="43.75954433216013" lon="7.060084056776899"><ele>926.75</ele><time>2026-05-02T13:07:08.999Z</time></trkpt><trkpt lat="43.75953117931066" lon="7.060263076588928"><ele>926.5</ele><time>2026-05-02T13:07:09.999Z</time></trkpt><trkpt lat="43.75952217425789" lon="7.060437046457866"><ele>926.25</ele><time>2026-05-02T13:07:10.999Z</time></trkpt><trkpt lat="43.75952912485704" lon="7.060585931264917"><ele>926.0</ele><time>2026-05-02T13:07:11.999Z</time></trkpt><trkpt lat="43.759536374528174" lon="7.060720419863561"><ele>926.0000000000001</ele><time>2026-05-02T13:07:12.999Z</time></trkpt><trkpt lat="43.75954562144398" lon="7.060837917450834"><ele>926.0</ele><time>2026-05-02T13:07:13.999Z</time></trkpt><trkpt lat="43.75956096132013" lon="7.0609444054425925"><ele>926.0</ele><time>2026-05-02T13:07:14.999Z</time></trkpt><trkpt lat="43.75958820356267" lon="7.061039047576671"><ele>926.0</ele><time>2026-05-02T13:07:15.999Z</time></trkpt><trkpt lat="43.75956020223893" lon="7.061128180290685"><ele>926.0000000000001</ele><time>2026-05-02T13:07:17.999Z</time></trkpt><trkpt lat="43.759497350758565" lon="7.061210075376869"><ele>926.0</ele><time>2026-05-02T13:07:19.999Z</time></trkpt><trkpt lat="43.759431919920594" lon="7.061284907393439"><ele>924.25</ele><time>2026-05-02T13:07:21.999Z</time></trkpt><trkpt lat="43.759281242152746" lon="7.061284213931622"><ele>922.5</ele><time>2026-05-02T13:07:23.999Z</time></trkpt><trkpt lat="43.75918744350905" lon="7.061342839050717"><ele>920.75</ele><time>2026-05-02T13:07:24.999Z</time></trkpt><trkpt lat="43.75908475904774" lon="7.061398934140637"><ele>919.0</ele><time>2026-05-02T13:07:25.999Z</time></trkpt><trkpt lat="43.758976997225275" lon="7.0614249424086735"><ele>919.0</ele><time>2026-05-02T13:07:26.999Z</time></trkpt><trkpt lat="43.75886857817553" lon="7.061460492109965"><ele>919.0</ele><time>2026-05-02T13:07:27.999Z</time></trkpt><trkpt lat="43.75875115975935" lon="7.061529547739934"><ele>919.0</ele><time>2026-05-02T13:07:28.999Z</time></trkpt><trkpt lat="43.75862546996599" lon="7.061601804062183"><ele>919.0</ele><time>2026-05-02T13:07:29.999Z</time></trkpt><trkpt lat="43.75852552019488" lon="7.061682974133954"><ele>918.6</ele><time>2026-05-02T13:07:30.999Z</time></trkpt><trkpt lat="43.7584419151731" lon="7.061732719102999"><ele>918.2</ele><time>2026-05-02T13:07:31.999Z</time></trkpt><trkpt lat="43.75837093942739" lon="7.061767564967924"><ele>917.8000000000001</ele><time>2026-05-02T13:07:32.999Z</time></trkpt><trkpt lat="43.75827469554761" lon="7.061715497056869"><ele>917.4000000000001</ele><time>2026-05-02T13:07:34.999Z</time></trkpt><trkpt lat="43.75821587520366" lon="7.061627802376433"><ele>917.0</ele><time>2026-05-02T13:07:35.999Z</time></trkpt><trkpt lat="43.758133641961535" lon="7.061552308664208"><ele>917.0</ele><time>2026-05-02T13:07:36.999Z</time></trkpt><trkpt lat="43.75802013729998" lon="7.06149992543451"><ele>917.0</ele><time>2026-05-02T13:07:37.999Z</time></trkpt><trkpt lat="43.75789784101113" lon="7.0614594602566925"><ele>917.0</ele><time>2026-05-02T13:07:38.999Z</time></trkpt><trkpt lat="43.75778637647329" lon="7.0614265688520375"><ele>917.0</ele><time>2026-05-02T13:07:39.999Z</time></trkpt><trkpt lat="43.757712184334586" lon="7.061400810256577"><ele>917.0</ele><time>2026-05-02T13:07:40.999Z</time></trkpt><trkpt lat="43.75765944718392" lon="7.06130314269146"><ele>916.3333333333334</ele><time>2026-05-02T13:07:42.999Z</time></trkpt><trkpt lat="43.75760888253568" lon="7.061237918575354"><ele>915.6666666666667</ele><time>2026-05-02T13:07:49.998Z</time></trkpt><trkpt lat="43.75751126536952" lon="7.061225281603765"><ele>915.0</ele><time>2026-05-02T13:07:51.998Z</time></trkpt><trkpt lat="43.75744310569125" lon="7.061194114595406"><ele>914.3333333333333</ele><time>2026-05-02T13:07:52.998Z</time></trkpt><trkpt lat="43.75735776171316" lon="7.061214655520744"><ele>913.6666666666666</ele><time>2026-05-02T13:07:54.998Z</time></trkpt><trkpt lat="43.7573059509755" lon="7.061142672164641"><ele>913.0</ele><time>2026-05-02T13:07:57.998Z</time></trkpt><trkpt lat="43.75725476503774" lon="7.061074387987501"><ele>913.0</ele><time>2026-05-02T13:07:59.998Z</time></trkpt><trkpt lat="43.757193679863576" lon="7.0610362360635035"><ele>913.0</ele><time>2026-05-02T13:08:00.998Z</time></trkpt><trkpt lat="43.757112942032755" lon="7.060962037614202"><ele>913.0</ele><time>2026-05-02T13:08:01.998Z</time></trkpt><trkpt lat="43.75700978592547" lon="7.0608873772171705"><ele>913.0</ele><time>2026-05-02T13:08:02.998Z</time></trkpt><trkpt lat="43.75691438612195" lon="7.060830446947465"><ele>913.0</ele><time>2026-05-02T13:08:03.998Z</time></trkpt><trkpt lat="43.75683609189815" lon="7.060753196296193"><ele>913.2</ele><time>2026-05-02T13:08:04.998Z</time></trkpt><trkpt lat="43.75677225826434" lon="7.06066704360544"><ele>913.4</ele><time>2026-05-02T13:08:05.998Z</time></trkpt><trkpt lat="43.75671061852178" lon="7.060600751174205"><ele>913.6000000000001</ele><time>2026-05-02T13:08:06.998Z</time></trkpt><trkpt lat="43.75663188818612" lon="7.060533101631693"><ele>913.8000000000001</ele><time>2026-05-02T13:08:08.998Z</time></trkpt><trkpt lat="43.75663530778366" lon="7.0603855470876145"><ele>914.0</ele><time>2026-05-02T13:08:10.998Z</time></trkpt><trkpt lat="43.75656861330723" lon="7.060298238916279"><ele>914.0000000000001</ele><time>2026-05-02T13:08:12.998Z</time></trkpt><trkpt lat="43.75649274660802" lon="7.060293712733814"><ele>914.0</ele><time>2026-05-02T13:08:14.998Z</time></trkpt><trkpt lat="43.75648313986338" lon="7.0601855434509355"><ele>914.0</ele><time>2026-05-02T13:08:18Z</time></trkpt><trkpt lat="43.75643080231737" lon="7.0601167551067725"><ele>914.0</ele><time>2026-05-02T13:08:20Z</time></trkpt><trkpt lat="43.75633041383334" lon="7.060065433978731"><ele>914.0000000000001</ele><time>2026-05-02T13:08:22Z</time></trkpt><trkpt lat="43.7562875804943" lon="7.0599786873699815"><ele>914.0</ele><time>2026-05-02T13:08:24Z</time></trkpt><trkpt lat="43.75620953410793" lon="7.059929849156988"><ele>914.6666666666667</ele><time>2026-05-02T13:08:26Z</time></trkpt><trkpt lat="43.756198200992806" lon="7.05982528245235"><ele>915.3333333333334</ele><time>2026-05-02T13:08:29Z</time></trkpt><trkpt lat="43.7561860767809" lon="7.059736842620205"><ele>916.0</ele><time>2026-05-02T13:08:30Z</time></trkpt><trkpt lat="43.75616599194467" lon="7.059617060042498"><ele>916.6666666666667</ele><time>2026-05-02T13:08:31Z</time></trkpt><trkpt lat="43.75611977113375" lon="7.059480237007165"><ele>917.3333333333334</ele><time>2026-05-02T13:08:32Z</time></trkpt><trkpt lat="43.75607359226366" lon="7.059349904777958"><ele>918.0</ele><time>2026-05-02T13:08:33Z</time></trkpt><trkpt lat="43.75604488575172" lon="7.059256525856919"><ele>918.0</ele><time>2026-05-02T13:08:34Z</time></trkpt><trkpt lat="43.75604963340205" lon="7.059166478231982"><ele>918.0</ele><time>2026-05-02T13:08:35Z</time></trkpt><trkpt lat="43.75609545892699" lon="7.059067045811828"><ele>918.0</ele><time>2026-05-02T13:08:36Z</time></trkpt><trkpt lat="43.7561568691921" lon="7.058949149797495"><ele>918.0</ele><time>2026-05-02T13:08:37Z</time></trkpt><trkpt lat="43.756223080818536" lon="7.058821745639426"><ele>918.0</ele><time>2026-05-02T13:08:38Z</time></trkpt><trkpt lat="43.75629178111923" lon="7.058660650048861"><ele>918.1666666666666</ele><time>2026-05-02T13:08:39Z</time></trkpt><trkpt lat="43.75633963990957" lon="7.058501606812511"><ele>918.3333333333333</ele><time>2026-05-02T13:08:40Z</time></trkpt><trkpt lat="43.75636143431757" lon="7.058381427831916"><ele>918.5</ele><time>2026-05-02T13:08:41Z</time></trkpt><trkpt lat="43.75635851072355" lon="7.058290963720723"><ele>918.6666666666666</ele><time>2026-05-02T13:08:42Z</time></trkpt><trkpt lat="43.75635332214429" lon="7.058199107867382"><ele>918.8333333333333</ele><time>2026-05-02T13:08:44Z</time></trkpt><trkpt lat="43.75626659532661" lon="7.0581327243703065"><ele>919.0</ele><time>2026-05-02T13:08:56.999Z</time></trkpt><trkpt lat="43.75619247824897" lon="7.05803458852565"><ele>919.8333333333333</ele><time>2026-05-02T13:08:58.999Z</time></trkpt><trkpt lat="43.7561541963073" lon="7.057943623744883"><ele>920.6666666666666</ele><time>2026-05-02T13:08:59.999Z</time></trkpt><trkpt lat="43.75609288387459" lon="7.057853340224061"><ele>921.5</ele><time>2026-05-02T13:09:00.999Z</time></trkpt><trkpt lat="43.75602500866349" lon="7.057738852677769"><ele>922.3333333333333</ele><time>2026-05-02T13:09:01.999Z</time></trkpt><trkpt lat="43.75596675479104" lon="7.057657833539184"><ele>923.1666666666666</ele><time>2026-05-02T13:09:02.999Z</time></trkpt><trkpt lat="43.75593376467237" lon="7.05757153889969"><ele>924.0</ele><time>2026-05-02T13:09:03.999Z</time></trkpt><trkpt lat="43.755840435984304" lon="7.057649769000147"><ele>924.8333333333334</ele><time>2026-05-02T13:09:05.999Z</time></trkpt><trkpt lat="43.75580068215409" lon="7.057739474660702"><ele>925.6666666666667</ele><time>2026-05-02T13:09:06.999Z</time></trkpt><trkpt lat="43.75573427060177" lon="7.057800144055071"><ele>926.5</ele><time>2026-05-02T13:09:07.999Z</time></trkpt><trkpt lat="43.7556556132523" lon="7.057825243590013"><ele>927.3333333333334</ele><time>2026-05-02T13:09:08.999Z</time></trkpt><trkpt lat="43.7555682267467" lon="7.057826016154438"><ele>928.1666666666667</ele><time>2026-05-02T13:09:09.999Z</time></trkpt><trkpt lat="43.755472797075385" lon="7.057797344869304"><ele>929.0</ele><time>2026-05-02T13:09:10.999Z</time></trkpt><trkpt lat="43.75537400065115" lon="7.0577508524087325"><ele>929.0</ele><time>2026-05-02T13:09:11.999Z</time></trkpt><trkpt lat="43.75529747366273" lon="7.057753878691261"><ele>929.0000000000001</ele><time>2026-05-02T13:09:12.999Z</time></trkpt><trkpt lat="43.75526012869818" lon="7.057855667957144"><ele>929.0000000000001</ele><time>2026-05-02T13:09:14.999Z</time></trkpt><trkpt lat="43.75516815101645" lon="7.057938506359369"><ele>929.0</ele><time>2026-05-02T13:09:16.999Z</time></trkpt><trkpt lat="43.75505227691389" lon="7.0579778029150715"><ele>929.0</ele><time>2026-05-02T13:09:18.999Z</time></trkpt><trkpt lat="43.754971526585955" lon="7.057949809292284"><ele>930.5000000000001</ele><time>2026-05-02T13:09:19.999Z</time></trkpt><trkpt lat="43.75489751027552" lon="7.05791143809335"><ele>932.0</ele><time>2026-05-02T13:09:20.999Z</time></trkpt><trkpt lat="43.75480575970447" lon="7.0580028485680435"><ele>933.5</ele><time>2026-05-02T13:09:22.999Z</time></trkpt><trkpt lat="43.75475758484102" lon="7.0580598376811325"><ele>935.0</ele><time>2026-05-02T13:09:23.999Z</time></trkpt><trkpt lat="43.75469046590769" lon="7.058095304290054"><ele>936.5000000000001</ele><time>2026-05-02T13:09:24.999Z</time></trkpt><trkpt lat="43.75459834270981" lon="7.0580497139803064"><ele>938.0</ele><time>2026-05-02T13:09:26.999Z</time></trkpt><trkpt lat="43.75457174346724" lon="7.0579145227252775"><ele>938.0</ele><time>2026-05-02T13:09:28.999Z</time></trkpt><trkpt lat="43.75453698886961" lon="7.057829604704716"><ele>938.0</ele><time>2026-05-02T13:09:29.999Z</time></trkpt><trkpt lat="43.75450652073031" lon="7.057750181874077"><ele>938.0</ele><time>2026-05-02T13:09:30.999Z</time></trkpt><trkpt lat="43.75448367356742" lon="7.0576592838106835"><ele>938.0</ele><time>2026-05-02T13:09:31.999Z</time></trkpt><trkpt lat="43.75443185503148" lon="7.057574813602966"><ele>938.0</ele><time>2026-05-02T13:09:32.999Z</time></trkpt><trkpt lat="43.75437631525556" lon="7.057488477480723"><ele>938.0</ele><time>2026-05-02T13:09:33.999Z</time></trkpt><trkpt lat="43.75433615517239" lon="7.0574116174268005"><ele>938.0</ele><time>2026-05-02T13:09:34.999Z</time></trkpt><trkpt lat="43.75429034123753" lon="7.0573318982689415"><ele>938.6666666666667</ele><time>2026-05-02T13:09:35.999Z</time></trkpt><trkpt lat="43.754232343404446" lon="7.057251847779735"><ele>939.3333333333334</ele><time>2026-05-02T13:09:36.999Z</time></trkpt><trkpt lat="43.75417216396915" lon="7.057177115751866"><ele>940.0</ele><time>2026-05-02T13:09:37.999Z</time></trkpt><trkpt lat="43.75414853557434" lon="7.057082236394327"><ele>940.6666666666667</ele><time>2026-05-02T13:09:38.999Z</time></trkpt><trkpt lat="43.75415495005249" lon="7.056992522239458"><ele>941.3333333333334</ele><time>2026-05-02T13:09:39.999Z</time></trkpt><trkpt lat="43.75420515779132" lon="7.056849953321903"><ele>942.0</ele><time>2026-05-02T13:09:41.999Z</time></trkpt><trkpt lat="43.75423491575835" lon="7.056754083133616"><ele>942.0</ele><time>2026-05-02T13:09:43.999Z</time></trkpt><trkpt lat="43.754303313376205" lon="7.0566532627155185"><ele>942.0</ele><time>2026-05-02T13:09:45.999Z</time></trkpt><trkpt lat="43.754366962335915" lon="7.056556477058215"><ele>942.0</ele><time>2026-05-02T13:09:46.999Z</time></trkpt><trkpt lat="43.7544433863116" lon="7.056429957502901"><ele>942.0</ele><time>2026-05-02T13:09:47.999Z</time></trkpt><trkpt lat="43.75450729659816" lon="7.056297811995502"><ele>942.0</ele><time>2026-05-02T13:09:48.999Z</time></trkpt><trkpt lat="43.75457616589463" lon="7.056116506945467"><ele>941.5</ele><time>2026-05-02T13:09:49.998Z</time></trkpt><trkpt lat="43.75466381001275" lon="7.055965784395256"><ele>941.0</ele><time>2026-05-02T13:09:50.998Z</time></trkpt><trkpt lat="43.754753808977874" lon="7.055836541411042"><ele>940.5</ele><time>2026-05-02T13:09:51.998Z</time></trkpt><trkpt lat="43.754837331994736" lon="7.055710931645485"><ele>940.0</ele><time>2026-05-02T13:09:52.998Z</time></trkpt><trkpt lat="43.75489431675328" lon="7.0555939535460395"><ele>939.6666666666666</ele><time>2026-05-02T13:09:53.998Z</time></trkpt><trkpt lat="43.75493354079146" lon="7.055509118534204"><ele>939.3333333333333</ele><time>2026-05-02T13:09:54.998Z</time></trkpt><trkpt lat="43.754909445048376" lon="7.055365411989092"><ele>939.0</ele><time>2026-05-02T13:09:56.998Z</time></trkpt><trkpt lat="43.754871613650174" lon="7.055278821149769"><ele>938.6666666666667</ele><time>2026-05-02T13:09:57.998Z</time></trkpt><trkpt lat="43.75485809765162" lon="7.055186787074027"><ele>938.3333333333334</ele><time>2026-05-02T13:09:58.998Z</time></trkpt><trkpt lat="43.75493280198933" lon="7.055043243812915"><ele>938.0</ele><time>2026-05-02T13:10:00.998Z</time></trkpt><trkpt lat="43.754946645116505" lon="7.05495131453424"><ele>938.0000000000001</ele><time>2026-05-02T13:10:01.998Z</time></trkpt><trkpt lat="43.75492049316321" lon="7.0548561627341915"><ele>938.0</ele><time>2026-05-02T13:10:02.998Z</time></trkpt><trkpt lat="43.754950398352015" lon="7.054738049205582"><ele>938.0</ele><time>2026-05-02T13:10:04.998Z</time></trkpt><trkpt lat="43.75499786172717" lon="7.054651396246499"><ele>938.0</ele><time>2026-05-02T13:10:05.998Z</time></trkpt><trkpt lat="43.7550687057324" lon="7.054573895510832"><ele>938.0000000000001</ele><time>2026-05-02T13:10:06.998Z</time></trkpt><trkpt lat="43.755127440420715" lon="7.054534128527022"><ele>938.0</ele><time>2026-05-02T13:10:07.998Z</time></trkpt><trkpt lat="43.75522623867276" lon="7.054513766253026"><ele>938.2</ele><time>2026-05-02T13:10:08.998Z</time></trkpt><trkpt lat="43.755342807455165" lon="7.054501919929442"><ele>938.4</ele><time>2026-05-02T13:10:09.998Z</time></trkpt><trkpt lat="43.75544145285653" lon="7.054511527433472"><ele>938.6000000000001</ele><time>2026-05-02T13:10:10.998Z</time></trkpt><trkpt lat="43.75552450630833" lon="7.054519229740973"><ele>938.8000000000001</ele><time>2026-05-02T13:10:11.998Z</time></trkpt><trkpt lat="43.75560136519997" lon="7.05456061013822"><ele>939.0</ele><time>2026-05-02T13:10:12.998Z</time></trkpt><trkpt lat="43.75573272927098" lon="7.054450492698419"><ele>939.0</ele><time>2026-05-02T13:10:14.998Z</time></trkpt><trkpt lat="43.75580802705654" lon="7.054365897366123"><ele>939.0000000000001</ele><time>2026-05-02T13:10:15.998Z</time></trkpt><trkpt lat="43.75591232086091" lon="7.054326022802558"><ele>939.0000000000001</ele><time>2026-05-02T13:10:16.998Z</time></trkpt><trkpt lat="43.7559994668876" lon="7.054286046191099"><ele>939.0</ele><time>2026-05-02T13:10:17.998Z</time></trkpt><trkpt lat="43.75606930156955" lon="7.054240714079807"><ele>939.0</ele><time>2026-05-02T13:10:18.998Z</time></trkpt><trkpt lat="43.75618611299821" lon="7.054286719354126"><ele>938.6666666666666</ele><time>2026-05-02T13:10:20.998Z</time></trkpt><trkpt lat="43.75627184679574" lon="7.054290904899252"><ele>938.3333333333333</ele><time>2026-05-02T13:10:21.998Z</time></trkpt><trkpt lat="43.75637494875866" lon="7.054300780289683"><ele>938.0</ele><time>2026-05-02T13:10:22.998Z</time></trkpt><trkpt lat="43.75647099960839" lon="7.054307897138391"><ele>937.6666666666666</ele><time>2026-05-02T13:10:24Z</time></trkpt><trkpt lat="43.756549447560424" lon="7.054344439004104"><ele>937.3333333333333</ele><time>2026-05-02T13:10:25Z</time></trkpt><trkpt lat="43.75662539486007" lon="7.054319399468582"><ele>937.0</ele><time>2026-05-02T13:10:27Z</time></trkpt><trkpt lat="43.75662094581888" lon="7.054226118162356"><ele>937.1666666666666</ele><time>2026-05-02T13:10:29Z</time></trkpt><trkpt lat="43.75665031918993" lon="7.054089446768664"><ele>937.3333333333333</ele><time>2026-05-02T13:10:31Z</time></trkpt><trkpt lat="43.75671034535837" lon="7.054041808455499"><ele>937.5</ele><time>2026-05-02T13:10:32Z</time></trkpt><trkpt lat="43.75681988008639" lon="7.053961048598118"><ele>937.6666666666667</ele><time>2026-05-02T13:10:34Z</time></trkpt><trkpt lat="43.756792123312984" lon="7.053879307951115"><ele>937.8333333333334</ele><time>2026-05-02T13:10:46Z</time></trkpt><trkpt lat="43.756785571788036" lon="7.0537607461487655"><ele>938.0</ele><time>2026-05-02T13:10:49Z</time></trkpt><trkpt lat="43.75688604607519" lon="7.0536112694028885"><ele>937.2</ele><time>2026-05-02T13:10:50.999Z</time></trkpt><trkpt lat="43.756955007094575" lon="7.053529507159228"><ele>936.4</ele><time>2026-05-02T13:10:51.999Z</time></trkpt><trkpt lat="43.75702866817707" lon="7.053430679057864"><ele>935.6000000000001</ele><time>2026-05-02T13:10:52.999Z</time></trkpt><trkpt lat="43.75710063517853" lon="7.053318145214239"><ele>934.8000000000001</ele><time>2026-05-02T13:10:53.999Z</time></trkpt><trkpt lat="43.75716814797294" lon="7.053205454862372"><ele>934.0</ele><time>2026-05-02T13:10:54.999Z</time></trkpt><trkpt lat="43.7572397315875" lon="7.053090737555028"><ele>934.0</ele><time>2026-05-02T13:10:55.999Z</time></trkpt><trkpt lat="43.757318568176316" lon="7.052966967019082"><ele>934.0</ele><time>2026-05-02T13:10:56.999Z</time></trkpt><trkpt lat="43.75739933390417" lon="7.052841684014567"><ele>934.0</ele><time>2026-05-02T13:10:57.999Z</time></trkpt><trkpt lat="43.75749569668823" lon="7.052749192821235"><ele>934.0</ele><time>2026-05-02T13:10:58.999Z</time></trkpt><trkpt lat="43.75760065142049" lon="7.0526892096760205"><ele>934.0</ele><time>2026-05-02T13:10:59.999Z</time></trkpt><trkpt lat="43.75768563952587" lon="7.052606353867581"><ele>934.0000000000001</ele><time>2026-05-02T13:11:00.999Z</time></trkpt><trkpt lat="43.75773366111618" lon="7.052487985507325"><ele>934.0000000000001</ele><time>2026-05-02T13:11:01.999Z</time></trkpt><trkpt lat="43.757760322556784" lon="7.0523504566005215"><ele>934.0</ele><time>2026-05-02T13:11:02.999Z</time></trkpt><trkpt lat="43.75775919602227" lon="7.05220743919315"><ele>934.0</ele><time>2026-05-02T13:11:03.999Z</time></trkpt><trkpt lat="43.757738150094355" lon="7.052078917071821"><ele>934.8000000000001</ele><time>2026-05-02T13:11:04.999Z</time></trkpt><trkpt lat="43.75770294100769" lon="7.051955370540076"><ele>935.6000000000001</ele><time>2026-05-02T13:11:05.999Z</time></trkpt><trkpt lat="43.757674949475465" lon="7.051835170426864"><ele>936.4</ele><time>2026-05-02T13:11:06.999Z</time></trkpt><trkpt lat="43.757667185461855" lon="7.051710249819294"><ele>937.2</ele><time>2026-05-02T13:11:07.999Z</time></trkpt><trkpt lat="43.75768020508347" lon="7.051581093178626"><ele>938.0</ele><time>2026-05-02T13:11:08.999Z</time></trkpt><trkpt lat="43.757694244467054" lon="7.051460193398105"><ele>939.5999999999999</ele><time>2026-05-02T13:11:09.999Z</time></trkpt><trkpt lat="43.757708347231265" lon="7.051337153606048"><ele>941.1999999999999</ele><time>2026-05-02T13:11:10.999Z</time></trkpt><trkpt lat="43.7577687225791" lon="7.051224361780922"><ele>942.8</ele><time>2026-05-02T13:11:11.999Z</time></trkpt><trkpt lat="43.75781760538143" lon="7.0511398011034645"><ele>944.4</ele><time>2026-05-02T13:11:12.999Z</time></trkpt><trkpt lat="43.757846833799555" lon="7.050992318613241"><ele>946.0</ele><time>2026-05-02T13:11:14.999Z</time></trkpt><trkpt lat="43.757957035817554" lon="7.05093662904231"><ele>945.9999999999999</ele><time>2026-05-02T13:11:16.999Z</time></trkpt><trkpt lat="43.75800472363511" lon="7.050839593620854"><ele>946.0</ele><time>2026-05-02T13:11:17.999Z</time></trkpt><trkpt lat="43.75806759668489" lon="7.050743366149963"><ele>946.0</ele><time>2026-05-02T13:11:18.999Z</time></trkpt><trkpt lat="43.75812550780999" lon="7.050671264835777"><ele>946.0</ele><time>2026-05-02T13:11:19.999Z</time></trkpt><trkpt lat="43.75809439371497" lon="7.05055436410424"><ele>945.9999999999999</ele><time>2026-05-02T13:11:21.999Z</time></trkpt><trkpt lat="43.75801962061851" lon="7.0505146746432805"><ele>946.0</ele><time>2026-05-02T13:11:22.999Z</time></trkpt><trkpt lat="43.75792211032038" lon="7.050478563309042"><ele>946.4</ele><time>2026-05-02T13:11:23.999Z</time></trkpt><trkpt lat="43.7578356953668" lon="7.050443466152893"><ele>946.8</ele><time>2026-05-02T13:11:24.999Z</time></trkpt><trkpt lat="43.75772573167254" lon="7.050365317218961"><ele>947.1999999999999</ele><time>2026-05-02T13:11:26.999Z</time></trkpt><trkpt lat="43.757620620734436" lon="7.05036964570493"><ele>947.5999999999999</ele><time>2026-05-02T13:11:28.999Z</time></trkpt><trkpt lat="43.75758080772891" lon="7.050222594845492"><ele>948.0</ele><time>2026-05-02T13:11:30.999Z</time></trkpt><trkpt lat="43.757587075088" lon="7.050131407860534"><ele>948.2</ele><time>2026-05-02T13:11:31.999Z</time></trkpt><trkpt lat="43.757673421822" lon="7.050008237833706"><ele>948.4</ele><time>2026-05-02T13:11:33.999Z</time></trkpt><trkpt lat="43.75770811516395" lon="7.049931899151282"><ele>948.6000000000001</ele><time>2026-05-02T13:11:34.999Z</time></trkpt><trkpt lat="43.75774621516074" lon="7.049799221887596"><ele>948.8000000000001</ele><time>2026-05-02T13:11:35.999Z</time></trkpt><trkpt lat="43.75773740173953" lon="7.04968288521126"><ele>949.0</ele><time>2026-05-02T13:11:36.999Z</time></trkpt><trkpt lat="43.757688200997464" lon="7.049556384787818"><ele>948.6</ele><time>2026-05-02T13:11:37.999Z</time></trkpt><trkpt lat="43.75762594872323" lon="7.049461421349824"><ele>948.2</ele><time>2026-05-02T13:11:38.999Z</time></trkpt><trkpt lat="43.757537676989415" lon="7.049356370641714"><ele>947.8000000000001</ele><time>2026-05-02T13:11:39.999Z</time></trkpt><trkpt lat="43.75747092541525" lon="7.0492652382972505"><ele>947.4000000000001</ele><time>2026-05-02T13:11:40.999Z</time></trkpt><trkpt lat="43.757424554185164" lon="7.049171435152932"><ele>947.0</ele><time>2026-05-02T13:11:41.999Z</time></trkpt><trkpt lat="43.75742346998396" lon="7.049071853251489"><ele>947.0000000000001</ele><time>2026-05-02T13:11:42.999Z</time></trkpt><trkpt lat="43.75738065626614" lon="7.0490026988974295"><ele>947.0</ele><time>2026-05-02T13:11:43.999Z</time></trkpt><trkpt lat="43.75733837388686" lon="7.048915923054532"><ele>947.0</ele><time>2026-05-02T13:11:44.999Z</time></trkpt><trkpt lat="43.75724881264861" lon="7.048907194013427"><ele>947.0</ele><time>2026-05-02T13:11:46.999Z</time></trkpt><trkpt lat="43.75714465024146" lon="7.048896843891673"><ele>947.0000000000001</ele><time>2026-05-02T13:11:47.999Z</time></trkpt><trkpt lat="43.7570380519694" lon="7.048847672332901"><ele>947.0</ele><time>2026-05-02T13:11:48.999Z</time></trkpt><trkpt lat="43.75693342805383" lon="7.0488138713313555"><ele>947.4000000000001</ele><time>2026-05-02T13:11:49.999Z</time></trkpt><trkpt lat="43.75681242792525" lon="7.048807577459095"><ele>947.8000000000001</ele><time>2026-05-02T13:11:50.999Z</time></trkpt><trkpt lat="43.75670127452441" lon="7.04882785014774"><ele>948.2</ele><time>2026-05-02T13:11:51.999Z</time></trkpt><trkpt lat="43.75660215467199" lon="7.04883344423275"><ele>948.6</ele><time>2026-05-02T13:11:52.998Z</time></trkpt><trkpt lat="43.75652951036203" lon="7.048819325525659"><ele>949.0</ele><time>2026-05-02T13:11:53.998Z</time></trkpt><trkpt lat="43.756471277902946" lon="7.048782289089005"><ele>949.0</ele><time>2026-05-02T13:11:54.998Z</time></trkpt><trkpt lat="43.756360097317476" lon="7.048741519925576"><ele>949.0000000000001</ele><time>2026-05-02T13:11:56.998Z</time></trkpt><trkpt lat="43.756289939989095" lon="7.048728147644656"><ele>949.0000000000001</ele><time>2026-05-02T13:11:57.998Z</time></trkpt><trkpt lat="43.75620718489801" lon="7.048696477508931"><ele>949.0</ele><time>2026-05-02T13:11:59.998Z</time></trkpt><trkpt lat="43.75611588997623" lon="7.048593338566136"><ele>949.0</ele><time>2026-05-02T13:12:01.998Z</time></trkpt><trkpt lat="43.75607102797879" lon="7.048529491217051"><ele>950.3333333333333</ele><time>2026-05-02T13:12:02.998Z</time></trkpt><trkpt lat="43.75602298125295" lon="7.048456083104667"><ele>951.6666666666666</ele><time>2026-05-02T13:12:03.998Z</time></trkpt><trkpt lat="43.75594913449805" lon="7.048342674774601"><ele>953.0</ele><time>2026-05-02T13:12:05.998Z</time></trkpt><trkpt lat="43.75588273988713" lon="7.048215441376291"><ele>954.3333333333333</ele><time>2026-05-02T13:12:07.998Z</time></trkpt><trkpt lat="43.75581688679957" lon="7.048141519623811"><ele>955.6666666666666</ele><time>2026-05-02T13:12:09.998Z</time></trkpt><trkpt lat="43.75577972843233" lon="7.048216348953651"><ele>957.0</ele><time>2026-05-02T13:12:11.998Z</time></trkpt><trkpt lat="43.755762041906046" lon="7.048316246996727"><ele>957.0</ele><time>2026-05-02T13:12:13.998Z</time></trkpt><trkpt lat="43.75569274675453" lon="7.048336374416891"><ele>957.0</ele><time>2026-05-02T13:12:15.998Z</time></trkpt><trkpt lat="43.7556322243287" lon="7.04823494924554"><ele>957.0</ele><time>2026-05-02T13:12:18.998Z</time></trkpt><trkpt lat="43.75562335305148" lon="7.048052372292052"><ele>957.0</ele><time>2026-05-02T13:12:20.998Z</time></trkpt><trkpt lat="43.75561100868635" lon="7.047901203980694"><ele>957.0</ele><time>2026-05-02T13:12:22.998Z</time></trkpt><trkpt lat="43.75562600559604" lon="7.047810846339429"><ele>958.0</ele><time>2026-05-02T13:12:23.998Z</time></trkpt><trkpt lat="43.7556509620197" lon="7.0477275059848115"><ele>959.0</ele><time>2026-05-02T13:12:24.998Z</time></trkpt><trkpt lat="43.755711644760545" lon="7.047658125466082"><ele>960.0</ele><time>2026-05-02T13:12:26.998Z</time></trkpt><trkpt lat="43.75578262071075" lon="7.047580705781709"><ele>961.0</ele><time>2026-05-02T13:12:28.998Z</time></trkpt><trkpt lat="43.755833648208366" lon="7.047511754210138"><ele>962.0</ele><time>2026-05-02T13:12:31Z</time></trkpt><trkpt lat="43.75588469647079" lon="7.047428301694739"><ele>963.0</ele><time>2026-05-02T13:12:33Z</time></trkpt><trkpt lat="43.75589582069502" lon="7.047336551818008"><ele>963.5999999999999</ele><time>2026-05-02T13:12:34Z</time></trkpt><trkpt lat="43.75592717322071" lon="7.047190370029564"><ele>964.1999999999999</ele><time>2026-05-02T13:12:36Z</time></trkpt><trkpt lat="43.75600380335353" lon="7.047083771184496"><ele>964.8</ele><time>2026-05-02T13:12:38Z</time></trkpt><trkpt lat="43.756066334411216" lon="7.047023866152878"><ele>965.4</ele><time>2026-05-02T13:12:40Z</time></trkpt><trkpt lat="43.756126798457906" lon="7.046934210308031"><ele>966.0</ele><time>2026-05-02T13:12:42Z</time></trkpt><trkpt lat="43.75618307690386" lon="7.046780320375155"><ele>966.1666666666666</ele><time>2026-05-02T13:12:44Z</time></trkpt><trkpt lat="43.75621387800916" lon="7.046689817263478"><ele>966.3333333333333</ele><time>2026-05-02T13:12:45Z</time></trkpt><trkpt lat="43.75626443398163" lon="7.046637184393453"><ele>966.5</ele><time>2026-05-02T13:12:46Z</time></trkpt><trkpt lat="43.75633455988954" lon="7.046578029061343"><ele>966.6666666666666</ele><time>2026-05-02T13:12:48Z</time></trkpt><trkpt lat="43.756393908321606" lon="7.046501807664428"><ele>966.8333333333333</ele><time>2026-05-02T13:13:14.999Z</time></trkpt><trkpt lat="43.756478953234925" lon="7.046420088117302"><ele>967.0</ele><time>2026-05-02T13:13:16.999Z</time></trkpt><trkpt lat="43.75655240263869" lon="7.046326571024952"><ele>967.3333333333333</ele><time>2026-05-02T13:13:18.999Z</time></trkpt><trkpt lat="43.75663316501946" lon="7.04624754158995"><ele>967.6666666666666</ele><time>2026-05-02T13:13:20.999Z</time></trkpt><trkpt lat="43.756708452182345" lon="7.046158852333842"><ele>968.0</ele><time>2026-05-02T13:13:22.999Z</time></trkpt><trkpt lat="43.756782536748474" lon="7.046092769040942"><ele>968.3333333333333</ele><time>2026-05-02T13:13:24.999Z</time></trkpt><trkpt lat="43.7568528311153" lon="7.046025772543405"><ele>968.6666666666666</ele><time>2026-05-02T13:13:27.999Z</time></trkpt><trkpt lat="43.756914828727254" lon="7.045981720613167"><ele>969.0</ele><time>2026-05-02T13:13:29.999Z</time></trkpt><trkpt lat="43.7569610476169" lon="7.0458688003637"><ele>969.4285714285713</ele><time>2026-05-02T13:13:31.999Z</time></trkpt><trkpt lat="43.756972281888885" lon="7.04576145220116"><ele>969.8571428571429</ele><time>2026-05-02T13:13:33.999Z</time></trkpt><trkpt lat="43.75703041466424" lon="7.045684425866488"><ele>970.2857142857142</ele><time>2026-05-02T13:13:35.999Z</time></trkpt><trkpt lat="43.757086626729226" lon="7.045633997160545"><ele>970.7142857142857</ele><time>2026-05-02T13:13:37.999Z</time></trkpt><trkpt lat="43.75711505481027" lon="7.045539895692038"><ele>971.1428571428571</ele><time>2026-05-02T13:13:40.999Z</time></trkpt><trkpt lat="43.75704873082495" lon="7.045540573366549"><ele>971.5714285714286</ele><time>2026-05-02T13:13:42.999Z</time></trkpt><trkpt lat="43.756981745312395" lon="7.045589378272308"><ele>972.0</ele><time>2026-05-02T13:13:44.999Z</time></trkpt><trkpt lat="43.75691569707774" lon="7.045561860836172"><ele>972.0</ele><time>2026-05-02T13:13:46.999Z</time></trkpt><trkpt lat="43.75686042462532" lon="7.045509908147127"><ele>972.0</ele><time>2026-05-02T13:13:48.999Z</time></trkpt><trkpt lat="43.75678453233865" lon="7.045477647387056"><ele>972.0</ele><time>2026-05-02T13:13:50.999Z</time></trkpt><trkpt lat="43.75672795522779" lon="7.045428443357378"><ele>972.0</ele><time>2026-05-02T13:13:51.999Z</time></trkpt><trkpt lat="43.75668874474661" lon="7.045355385271548"><ele>972.0</ele><time>2026-05-02T13:13:52.999Z</time></trkpt><trkpt lat="43.756689859244084" lon="7.0452634680343955"><ele>972.0</ele><time>2026-05-02T13:13:54.999Z</time></trkpt><trkpt lat="43.756665683537186" lon="7.045169322040471"><ele>972.0</ele><time>2026-05-02T13:13:56.999Z</time></trkpt><trkpt lat="43.7566262300143" lon="7.04506344221824"><ele>972.0</ele><time>2026-05-02T13:13:57.999Z</time></trkpt><trkpt lat="43.75660832551883" lon="7.044974515924056"><ele>972.0</ele><time>2026-05-02T13:13:58.998Z</time></trkpt><trkpt lat="43.75662474830976" lon="7.044882723408486"><ele>972.0</ele><time>2026-05-02T13:14:02.998Z</time></trkpt><trkpt lat="43.75669809336932" lon="7.044837575459395"><ele>972.0</ele><time>2026-05-02T13:14:04.998Z</time></trkpt><trkpt lat="43.75674430443055" lon="7.044700829345532"><ele>972.0</ele><time>2026-05-02T13:14:06.998Z</time></trkpt><trkpt lat="43.75679095679775" lon="7.044628611444378"><ele>972.0</ele><time>2026-05-02T13:14:07.998Z</time></trkpt><trkpt lat="43.75684033187465" lon="7.044503363958139"><ele>972.1666666666666</ele><time>2026-05-02T13:14:09.998Z</time></trkpt><trkpt lat="43.756906375241776" lon="7.044431630906022"><ele>972.3333333333333</ele><time>2026-05-02T13:14:11.998Z</time></trkpt><trkpt lat="43.7569782473573" lon="7.044387082736703"><ele>972.5</ele><time>2026-05-02T13:14:13.998Z</time></trkpt><trkpt lat="43.75705950201517" lon="7.04430556656001"><ele>972.6666666666666</ele><time>2026-05-02T13:14:16.998Z</time></trkpt><trkpt lat="43.75712525041671" lon="7.044300838788536"><ele>972.8333333333333</ele><time>2026-05-02T13:14:19.998Z</time></trkpt><trkpt lat="43.75720248663118" lon="7.044310301214871"><ele>973.0</ele><time>2026-05-02T13:14:27.998Z</time></trkpt><trkpt lat="43.7572817124484" lon="7.044246651232262"><ele>973.0</ele><time>2026-05-02T13:14:29.998Z</time></trkpt><trkpt lat="43.75733042912013" lon="7.044153187428378"><ele>973.0</ele><time>2026-05-02T13:14:30.998Z</time></trkpt><trkpt lat="43.75740721828104" lon="7.04405358730997"><ele>973.0</ele><time>2026-05-02T13:14:31.998Z</time></trkpt><trkpt lat="43.75747027433265" lon="7.043974649492156"><ele>973.0</ele><time>2026-05-02T13:14:32.998Z</time></trkpt><trkpt lat="43.75752441192202" lon="7.043866283533034"><ele>973.0</ele><time>2026-05-02T13:14:33.998Z</time></trkpt><trkpt lat="43.757552912281724" lon="7.043745559556595"><ele>972.5999999999999</ele><time>2026-05-02T13:14:34.998Z</time></trkpt><trkpt lat="43.75757652950128" lon="7.043620240076496"><ele>972.1999999999999</ele><time>2026-05-02T13:14:36Z</time></trkpt><trkpt lat="43.7576080695281" lon="7.043491451249089"><ele>971.8</ele><time>2026-05-02T13:14:37Z</time></trkpt><trkpt lat="43.75765387922546" lon="7.043373746621878"><ele>971.4</ele><time>2026-05-02T13:14:38Z</time></trkpt><trkpt lat="43.757680802270215" lon="7.04323948856611"><ele>971.0</ele><time>2026-05-02T13:14:39Z</time></trkpt><trkpt lat="43.75769902921836" lon="7.043082351011696"><ele>970.8333333333334</ele><time>2026-05-02T13:14:40Z</time></trkpt><trkpt lat="43.75772368510658" lon="7.0429549587889015"><ele>970.6666666666667</ele><time>2026-05-02T13:14:41Z</time></trkpt><trkpt lat="43.757741117389635" lon="7.042857830992153"><ele>970.5</ele><time>2026-05-02T13:14:42Z</time></trkpt><trkpt lat="43.757737510763356" lon="7.042767391971648"><ele>970.3333333333333</ele><time>2026-05-02T13:14:43Z</time></trkpt><trkpt lat="43.75777401859121" lon="7.042631752536434"><ele>970.1666666666666</ele><time>2026-05-02T13:14:45Z</time></trkpt><trkpt lat="43.757823943097634" lon="7.042562970869616"><ele>970.0</ele><time>2026-05-02T13:14:46Z</time></trkpt><trkpt lat="43.757905109299834" lon="7.042487723705056"><ele>969.8</ele><time>2026-05-02T13:14:47Z</time></trkpt><trkpt lat="43.75799770579806" lon="7.042386919391145"><ele>969.6</ele><time>2026-05-02T13:14:48Z</time></trkpt><trkpt lat="43.75807224082509" lon="7.0422546816222695"><ele>969.4000000000001</ele><time>2026-05-02T13:14:49Z</time></trkpt><trkpt lat="43.75814193395161" lon="7.042142516086096"><ele>969.2</ele><time>2026-05-02T13:14:50Z</time></trkpt><trkpt lat="43.75821728212001" lon="7.042044447192209"><ele>969.0</ele><time>2026-05-02T13:14:51Z</time></trkpt><trkpt lat="43.75829546149522" lon="7.041951282184528"><ele>969.0</ele><time>2026-05-02T13:14:52Z</time></trkpt><trkpt lat="43.75837485024421" lon="7.041866715916683"><ele>969.0000000000001</ele><time>2026-05-02T13:14:53Z</time></trkpt><trkpt lat="43.758462421286694" lon="7.041805746356057"><ele>969.0000000000001</ele><time>2026-05-02T13:14:54Z</time></trkpt><trkpt lat="43.75855691238172" lon="7.041762718608817"><ele>969.0</ele><time>2026-05-02T13:14:55Z</time></trkpt><trkpt lat="43.75864797884293" lon="7.041717796627364"><ele>969.0</ele><time>2026-05-02T13:14:56Z</time></trkpt><trkpt lat="43.75872778515895" lon="7.041685062735626"><ele>968.8333333333334</ele><time>2026-05-02T13:14:57Z</time></trkpt><trkpt lat="43.75880546844173" lon="7.041693006827917"><ele>968.6666666666667</ele><time>2026-05-02T13:14:58Z</time></trkpt><trkpt lat="43.75891384971997" lon="7.041696767793475"><ele>968.5</ele><time>2026-05-02T13:15:00Z</time></trkpt><trkpt lat="43.75897628271758" lon="7.0416232577988875"><ele>968.3333333333334</ele><time>2026-05-02T13:15:02.999Z</time></trkpt><trkpt lat="43.75902943196506" lon="7.04156362761248"><ele>968.1666666666667</ele><time>2026-05-02T13:15:06.999Z</time></trkpt><trkpt lat="43.759095313714155" lon="7.041508207459083"><ele>968.0</ele><time>2026-05-02T13:15:10.999Z</time></trkpt><trkpt lat="43.759161421346946" lon="7.041422978236439"><ele>967.2</ele><time>2026-05-02T13:15:13.999Z</time></trkpt><trkpt lat="43.759220104291074" lon="7.0413696739074725"><ele>966.4</ele><time>2026-05-02T13:15:15.999Z</time></trkpt><trkpt lat="43.75921999894218" lon="7.041234192762147"><ele>965.6000000000001</ele><time>2026-05-02T13:15:17.999Z</time></trkpt><trkpt lat="43.759151129722966" lon="7.041149477423575"><ele>964.8000000000001</ele><time>2026-05-02T13:15:19.999Z</time></trkpt><trkpt lat="43.759062216289145" lon="7.041046060975199"><ele>964.0</ele><time>2026-05-02T13:15:21.999Z</time></trkpt><trkpt lat="43.75900532089378" lon="7.04095773255233"><ele>963.9999999999999</ele><time>2026-05-02T13:15:22.999Z</time></trkpt><trkpt lat="43.75895106836122" lon="7.040884724638584"><ele>964.0</ele><time>2026-05-02T13:15:23.999Z</time></trkpt><trkpt lat="43.75889100655328" lon="7.0408451378304155"><ele>964.0</ele><time>2026-05-02T13:15:24.999Z</time></trkpt><trkpt lat="43.75883122408841" lon="7.040817736882997"><ele>964.0</ele><time>2026-05-02T13:15:25.999Z</time></trkpt><trkpt lat="43.75873288233184" lon="7.040780181404824"><ele>963.9999999999999</ele><time>2026-05-02T13:15:27.999Z</time></trkpt><trkpt lat="43.758658741689125" lon="7.040738285159871"><ele>964.0</ele><time>2026-05-02T13:15:29.999Z</time></trkpt><trkpt lat="43.758614957280436" lon="7.04067082052676"><ele>963.9999999999999</ele><time>2026-05-02T13:15:31.999Z</time></trkpt><trkpt lat="43.75856899225297" lon="7.040574213700534"><ele>964.0</ele><time>2026-05-02T13:15:34.999Z</time></trkpt><trkpt lat="43.75855272303461" lon="7.040466495028981"><ele>964.0</ele><time>2026-05-02T13:15:38.999Z</time></trkpt><trkpt lat="43.75854511331691" lon="7.040356933386973"><ele>964.0</ele><time>2026-05-02T13:15:42.999Z</time></trkpt><trkpt lat="43.75851712624805" lon="7.040262452179808"><ele>963.9999999999999</ele><time>2026-05-02T13:15:57.999Z</time></trkpt><trkpt lat="43.75849592506885" lon="7.040165957682132"><ele>964.0</ele><time>2026-05-02T13:16:00.999Z</time></trkpt><trkpt lat="43.7584549592599" lon="7.040070469295629"><ele>963.6666666666666</ele><time>2026-05-02T13:16:02.999Z</time></trkpt><trkpt lat="43.75839314857361" lon="7.040031859931426"><ele>963.3333333333333</ele><time>2026-05-02T13:16:04.999Z</time></trkpt><trkpt lat="43.75834530483701" lon="7.039922368007695"><ele>963.0</ele><time>2026-05-02T13:16:07.998Z</time></trkpt><trkpt lat="43.75832302761258" lon="7.039784623686624"><ele>962.6666666666667</ele><time>2026-05-02T13:16:09.998Z</time></trkpt><trkpt lat="43.75831023070881" lon="7.03963959974326"><ele>962.3333333333334</ele><time>2026-05-02T13:16:11.998Z</time></trkpt><trkpt lat="43.75832856642766" lon="7.039554017807766"><ele>962.0</ele><time>2026-05-02T13:16:12.998Z</time></trkpt><trkpt lat="43.75834176309587" lon="7.039460434744413"><ele>962.0000000000001</ele><time>2026-05-02T13:16:13.998Z</time></trkpt><trkpt lat="43.75832943109017" lon="7.039346506247329"><ele>962.0</ele><time>2026-05-02T13:16:14.998Z</time></trkpt><trkpt lat="43.75829257713995" lon="7.039265355002437"><ele>962.0</ele><time>2026-05-02T13:16:15.998Z</time></trkpt><trkpt lat="43.75823567660209" lon="7.03919459645626"><ele>962.0</ele><time>2026-05-02T13:16:16.998Z</time></trkpt><trkpt lat="43.75820205077102" lon="7.039070942296603"><ele>962.0000000000001</ele><time>2026-05-02T13:16:17.998Z</time></trkpt><trkpt lat="43.75818786736585" lon="7.038944385618447"><ele>962.0</ele><time>2026-05-02T13:16:18.998Z</time></trkpt><trkpt lat="43.758178704048696" lon="7.038840206042415"><ele>962.0000000000001</ele><time>2026-05-02T13:16:19.998Z</time></trkpt><trkpt lat="43.75815572805757" lon="7.038750131377128"><ele>962.0</ele><time>2026-05-02T13:16:20.998Z</time></trkpt><trkpt lat="43.75809360855717" lon="7.038670690639131"><ele>962.0</ele><time>2026-05-02T13:16:21.998Z</time></trkpt><trkpt lat="43.758020972558036" lon="7.038577031829204"><ele>962.0</ele><time>2026-05-02T13:16:22.998Z</time></trkpt><trkpt lat="43.757988718534165" lon="7.038496450147457"><ele>962.0000000000001</ele><time>2026-05-02T13:16:23.998Z</time></trkpt><trkpt lat="43.758013864071465" lon="7.038377684353564"><ele>962.0</ele><time>2026-05-02T13:16:24.998Z</time></trkpt><trkpt lat="43.75807250580613" lon="7.038271803618255"><ele>961.3333333333334</ele><time>2026-05-02T13:16:25.998Z</time></trkpt><trkpt lat="43.75815047253208" lon="7.038234053962987"><ele>960.6666666666667</ele><time>2026-05-02T13:16:27.998Z</time></trkpt><trkpt lat="43.758212967272215" lon="7.038214105120744"><ele>960.0</ele><time>2026-05-02T13:16:28.998Z</time></trkpt><trkpt lat="43.7582938773302" lon="7.038189196907441"><ele>959.3333333333333</ele><time>2026-05-02T13:16:29.998Z</time></trkpt><trkpt lat="43.75837108240603" lon="7.038170603139383"><ele>958.6666666666666</ele><time>2026-05-02T13:16:30.998Z</time></trkpt><trkpt lat="43.7584700643606" lon="7.038089326839663"><ele>958.0</ele><time>2026-05-02T13:16:32.998Z</time></trkpt><trkpt lat="43.75851906963944" lon="7.037994209676344"><ele>957.9999999999999</ele><time>2026-05-02T13:16:33.998Z</time></trkpt><trkpt lat="43.758565612057446" lon="7.03791314269759"><ele>958.0</ele><time>2026-05-02T13:16:34.998Z</time></trkpt><trkpt lat="43.75861162576541" lon="7.037852178556082"><ele>958.0</ele><time>2026-05-02T13:16:35.998Z</time></trkpt><trkpt lat="43.75861919738633" lon="7.037691437205485"><ele>958.0</ele><time>2026-05-02T13:16:37.998Z</time></trkpt><trkpt lat="43.758576873649105" lon="7.037614918834521"><ele>957.9999999999999</ele><time>2026-05-02T13:16:38.998Z</time></trkpt><trkpt lat="43.7585279503261" lon="7.037510240165323"><ele>958.0</ele><time>2026-05-02T13:16:39.998Z</time></trkpt><trkpt lat="43.75850268065896" lon="7.037403433913876"><ele>956.4999999999999</ele><time>2026-05-02T13:16:41Z</time></trkpt><trkpt lat="43.758483357496736" lon="7.037314243704969"><ele>955.0</ele><time>2026-05-02T13:16:42Z</time></trkpt><trkpt lat="43.75843669972732" lon="7.03723237170148"><ele>953.5</ele><time>2026-05-02T13:16:43Z</time></trkpt><trkpt lat="43.75835534867936" lon="7.037172372298625"><ele>952.0</ele><time>2026-05-02T13:16:44Z</time></trkpt><trkpt lat="43.75826396509642" lon="7.037112889173779"><ele>950.4999999999999</ele><time>2026-05-02T13:16:45Z</time></trkpt><trkpt lat="43.758188460014225" lon="7.0370474521248845"><ele>949.0</ele><time>2026-05-02T13:16:46Z</time></trkpt><trkpt lat="43.758133384344" lon="7.036989905674884"><ele>949.0</ele><time>2026-05-02T13:16:47Z</time></trkpt><trkpt lat="43.758104832160925" lon="7.036891867119343"><ele>949.0000000000001</ele><time>2026-05-02T13:16:48Z</time></trkpt><trkpt lat="43.75808671847585" lon="7.036747225633368"><ele>949.0000000000001</ele><time>2026-05-02T13:16:49Z</time></trkpt><trkpt lat="43.758067632745345" lon="7.036618277276708"><ele>949.0</ele><time>2026-05-02T13:16:50Z</time></trkpt><trkpt lat="43.75806464141051" lon="7.0364835345996335"><ele>949.0</ele><time>2026-05-02T13:16:51Z</time></trkpt><trkpt lat="43.75808258308898" lon="7.036358431731578"><ele>948.4999999999999</ele><time>2026-05-02T13:16:52Z</time></trkpt><trkpt lat="43.758097229903946" lon="7.0362498513759135"><ele>948.0</ele><time>2026-05-02T13:16:53Z</time></trkpt><trkpt lat="43.75808213679904" lon="7.036128104875394"><ele>947.5</ele><time>2026-05-02T13:16:54Z</time></trkpt><trkpt lat="43.75804611999441" lon="7.035999016700392"><ele>947.0</ele><time>2026-05-02T13:16:55Z</time></trkpt><trkpt lat="43.75802717353522" lon="7.035886613805404"><ele>946.4999999999999</ele><time>2026-05-02T13:16:56Z</time></trkpt><trkpt lat="43.758034993486426" lon="7.035794549977686"><ele>946.0</ele><time>2026-05-02T13:16:57Z</time></trkpt><trkpt lat="43.75804823444882" lon="7.035700106003276"><ele>945.0</ele><time>2026-05-02T13:16:59Z</time></trkpt><trkpt lat="43.75805308854493" lon="7.035522663095813"><ele>943.9999999999999</ele><time>2026-05-02T13:17:04Z</time></trkpt><trkpt lat="43.75804578578225" lon="7.035374327746864"><ele>942.9999999999999</ele><time>2026-05-02T13:17:05Z</time></trkpt><trkpt lat="43.7580231937523" lon="7.035229479834268"><ele>942.0</ele><time>2026-05-02T13:17:06Z</time></trkpt><trkpt lat="43.758004718691126" lon="7.035117485145902"><ele>941.0</ele><time>2026-05-02T13:17:07Z</time></trkpt><trkpt lat="43.757973040282806" lon="7.035020561168755"><ele>940.5999999999999</ele><time>2026-05-02T13:17:08Z</time></trkpt><trkpt lat="43.75792105597194" lon="7.034918697923861"><ele>940.1999999999999</ele><time>2026-05-02T13:17:08.999Z</time></trkpt><trkpt lat="43.75785072310268" lon="7.034794062124335"><ele>939.8000000000001</ele><time>2026-05-02T13:17:09.999Z</time></trkpt><trkpt lat="43.75778296571746" lon="7.034669762531188"><ele>939.4000000000001</ele><time>2026-05-02T13:17:10.999Z</time></trkpt><trkpt lat="43.757730633192985" lon="7.034541783183944"><ele>939.0</ele><time>2026-05-02T13:17:11.999Z</time></trkpt><trkpt lat="43.75766462145154" lon="7.034459089621664"><ele>939.4000000000001</ele><time>2026-05-02T13:17:12.999Z</time></trkpt><trkpt lat="43.757622364609254" lon="7.034391302895864"><ele>939.8000000000001</ele><time>2026-05-02T13:17:13.999Z</time></trkpt><trkpt lat="43.7576059730406" lon="7.0342566780281315"><ele>940.1999999999999</ele><time>2026-05-02T13:17:14.999Z</time></trkpt><trkpt lat="43.757566545205414" lon="7.034124281945859"><ele>940.5999999999999</ele><time>2026-05-02T13:17:15.999Z</time></trkpt><trkpt lat="43.75751256497645" lon="7.034012019477799"><ele>941.0</ele><time>2026-05-02T13:17:16.999Z</time></trkpt><trkpt lat="43.75744063164766" lon="7.0339057587208"><ele>941.0</ele><time>2026-05-02T13:17:17.999Z</time></trkpt><trkpt lat="43.75736345204306" lon="7.033784642348745"><ele>940.9999999999999</ele><time>2026-05-02T13:17:18.999Z</time></trkpt><trkpt lat="43.75729480625746" lon="7.033706667992979"><ele>940.9999999999999</ele><time>2026-05-02T13:17:19.999Z</time></trkpt><trkpt lat="43.75724737295153" lon="7.033625460656981"><ele>941.0</ele><time>2026-05-02T13:17:20.999Z</time></trkpt><trkpt lat="43.75723505589981" lon="7.033506913396348"><ele>941.0</ele><time>2026-05-02T13:17:21.999Z</time></trkpt><trkpt lat="43.75724001566013" lon="7.033365153988242"><ele>941.4</ele><time>2026-05-02T13:17:22.999Z</time></trkpt><trkpt lat="43.75721781047359" lon="7.0332435471695565"><ele>941.8</ele><time>2026-05-02T13:17:23.999Z</time></trkpt><trkpt lat="43.75716388202024" lon="7.033143809335891"><ele>942.1999999999999</ele><time>2026-05-02T13:17:24.999Z</time></trkpt><trkpt lat="43.75708359577731" lon="7.03307824535727"><ele>942.5999999999999</ele><time>2026-05-02T13:17:25.999Z</time></trkpt><trkpt lat="43.75701371981533" lon="7.032966846883528"><ele>943.0</ele><time>2026-05-02T13:17:26.999Z</time></trkpt><trkpt lat="43.756921950211016" lon="7.032889063778088"><ele>943.0</ele><time>2026-05-02T13:17:27.999Z</time></trkpt><trkpt lat="43.7568897270639" lon="7.032760772392289"><ele>943.0</ele><time>2026-05-02T13:17:28.999Z</time></trkpt><trkpt lat="43.756865675415504" lon="7.032621881614854"><ele>943.0</ele><time>2026-05-02T13:17:29.999Z</time></trkpt><trkpt lat="43.756822472686665" lon="7.0325290888915"><ele>943.0</ele><time>2026-05-02T13:17:30.999Z</time></trkpt><trkpt lat="43.756743671448426" lon="7.03244241309028"><ele>943.0</ele><time>2026-05-02T13:17:31.999Z</time></trkpt><trkpt lat="43.75666549707229" lon="7.0323437735970655"><ele>943.2</ele><time>2026-05-02T13:17:32.999Z</time></trkpt><trkpt lat="43.7566083925256" lon="7.032227545440692"><ele>943.4</ele><time>2026-05-02T13:17:33.999Z</time></trkpt><trkpt lat="43.7565527138641" lon="7.032120039255377"><ele>943.6000000000001</ele><time>2026-05-02T13:17:34.999Z</time></trkpt><trkpt lat="43.756484078178445" lon="7.032027427286174"><ele>943.8000000000001</ele><time>2026-05-02T13:17:35.999Z</time></trkpt><trkpt lat="43.75644777528113" lon="7.031931798684041"><ele>944.0</ele><time>2026-05-02T13:17:36.999Z</time></trkpt><trkpt lat="43.75644957995742" lon="7.031812800917212"><ele>944.0</ele><time>2026-05-02T13:17:37.999Z</time></trkpt><trkpt lat="43.75643775272843" lon="7.031685523336335"><ele>944.0000000000001</ele><time>2026-05-02T13:17:38.999Z</time></trkpt><trkpt lat="43.756405638211454" lon="7.031561031752495"><ele>944.0000000000001</ele><time>2026-05-02T13:17:39.999Z</time></trkpt><trkpt lat="43.75638748229679" lon="7.03141164568308"><ele>944.0</ele><time>2026-05-02T13:17:40.999Z</time></trkpt><trkpt lat="43.75637630981572" lon="7.031275929757982"><ele>944.0</ele><time>2026-05-02T13:17:41.999Z</time></trkpt><trkpt lat="43.75635734814539" lon="7.031156220772607"><ele>943.8000000000001</ele><time>2026-05-02T13:17:42.999Z</time></trkpt><trkpt lat="43.75637121279995" lon="7.031014615620074"><ele>943.6000000000001</ele><time>2026-05-02T13:17:43.999Z</time></trkpt><trkpt lat="43.75640204997615" lon="7.030850765623746"><ele>943.4</ele><time>2026-05-02T13:17:44.999Z</time></trkpt><trkpt lat="43.75639295606954" lon="7.0307087787383455"><ele>943.2</ele><time>2026-05-02T13:17:45.999Z</time></trkpt><trkpt lat="43.75637405316354" lon="7.0305674132141815"><ele>943.0</ele><time>2026-05-02T13:17:46.999Z</time></trkpt><trkpt lat="43.75632046653388" lon="7.030441191051847"><ele>943.0</ele><time>2026-05-02T13:17:47.999Z</time></trkpt><trkpt lat="43.75624044027389" lon="7.030330525089421"><ele>943.0</ele><time>2026-05-02T13:17:48.999Z</time></trkpt><trkpt lat="43.75617058406042" lon="7.0302154169263265"><ele>943.0</ele><time>2026-05-02T13:17:49.999Z</time></trkpt><trkpt lat="43.75611087335504" lon="7.030092819700751"><ele>943.0</ele><time>2026-05-02T13:17:50.999Z</time></trkpt><trkpt lat="43.75603517595492" lon="7.029990337353942"><ele>943.0</ele><time>2026-05-02T13:17:51.999Z</time></trkpt><trkpt lat="43.75595086996598" lon="7.029901538824451"><ele>943.1666666666666</ele><time>2026-05-02T13:17:52.999Z</time></trkpt><trkpt lat="43.75589531187485" lon="7.029828907455172"><ele>943.3333333333333</ele><time>2026-05-02T13:17:53.999Z</time></trkpt><trkpt lat="43.75587155632905" lon="7.029740170626955"><ele>943.5</ele><time>2026-05-02T13:17:54.999Z</time></trkpt><trkpt lat="43.75592564311038" lon="7.029609152027897"><ele>943.6666666666667</ele><time>2026-05-02T13:17:56.999Z</time></trkpt><trkpt lat="43.75598945618603" lon="7.029542132076401"><ele>943.8333333333334</ele><time>2026-05-02T13:17:57.999Z</time></trkpt><trkpt lat="43.75604408416564" lon="7.029469022619743"><ele>944.0</ele><time>2026-05-02T13:17:58.999Z</time></trkpt><trkpt lat="43.75609929474117" lon="7.0294231625326615"><ele>943.6666666666667</ele><time>2026-05-02T13:17:59.999Z</time></trkpt><trkpt lat="43.75618319932376" lon="7.029406852948566"><ele>943.3333333333334</ele><time>2026-05-02T13:18:00.999Z</time></trkpt><trkpt lat="43.75626650462523" lon="7.029393113449031"><ele>943.0</ele><time>2026-05-02T13:18:01.999Z</time></trkpt><trkpt lat="43.75634021789976" lon="7.029370566120318"><ele>942.6666666666667</ele><time>2026-05-02T13:18:02.999Z</time></trkpt><trkpt lat="43.75640067478029" lon="7.029285242972935"><ele>942.3333333333334</ele><time>2026-05-02T13:18:03.999Z</time></trkpt><trkpt lat="43.756458668334396" lon="7.0291980484837575"><ele>942.0</ele><time>2026-05-02T13:18:04.999Z</time></trkpt><trkpt lat="43.75656474430722" lon="7.029127324004954"><ele>941.5</ele><time>2026-05-02T13:18:06.999Z</time></trkpt><trkpt lat="43.75662816956367" lon="7.029130158433398"><ele>941.0</ele><time>2026-05-02T13:18:07.999Z</time></trkpt><trkpt lat="43.75675069839167" lon="7.029126281013737"><ele>940.5</ele><time>2026-05-02T13:18:09.999Z</time></trkpt><trkpt lat="43.75682394551919" lon="7.029101064474973"><ele>940.0</ele><time>2026-05-02T13:18:10.999Z</time></trkpt><trkpt lat="43.756892653706416" lon="7.029059847488996"><ele>939.5</ele><time>2026-05-02T13:18:11.999Z</time></trkpt><trkpt lat="43.75695881867513" lon="7.029026133678608"><ele>939.0</ele><time>2026-05-02T13:18:12.998Z</time></trkpt><trkpt lat="43.75702562289614" lon="7.029009036680098"><ele>939.0</ele><time>2026-05-02T13:18:13.998Z</time></trkpt><trkpt lat="43.757112148821896" lon="7.028959046256464"><ele>939.0000000000001</ele><time>2026-05-02T13:18:15.998Z</time></trkpt><trkpt lat="43.757135048242404" lon="7.0288739840075065"><ele>939.0000000000001</ele><time>2026-05-02T13:18:17.998Z</time></trkpt><trkpt lat="43.75712294215748" lon="7.028686860429047"><ele>939.0</ele><time>2026-05-02T13:18:19.998Z</time></trkpt><trkpt lat="43.757119211112894" lon="7.028541082113486"><ele>939.0</ele><time>2026-05-02T13:18:20.998Z</time></trkpt><trkpt lat="43.75714018690964" lon="7.028383810733683"><ele>939.0</ele><time>2026-05-02T13:18:21.998Z</time></trkpt><trkpt lat="43.757161169888455" lon="7.028219726650571"><ele>939.0</ele><time>2026-05-02T13:18:22.998Z</time></trkpt><trkpt lat="43.75717322842822" lon="7.028039301830811"><ele>939.0</ele><time>2026-05-02T13:18:23.998Z</time></trkpt><trkpt lat="43.757162107633675" lon="7.027876083734436"><ele>939.0</ele><time>2026-05-02T13:18:24.998Z</time></trkpt><trkpt lat="43.757155017070225" lon="7.027735573292913"><ele>939.0</ele><time>2026-05-02T13:18:25.998Z</time></trkpt><trkpt lat="43.75717737910377" lon="7.027619095836406"><ele>939.0</ele><time>2026-05-02T13:18:26.998Z</time></trkpt><trkpt lat="43.7572159139996" lon="7.027522604202499"><ele>939.0</ele><time>2026-05-02T13:18:27.998Z</time></trkpt><trkpt lat="43.75727729998119" lon="7.027437111174064"><ele>939.0</ele><time>2026-05-02T13:18:28.998Z</time></trkpt><trkpt lat="43.75733011854518" lon="7.027357183269427"><ele>939.0</ele><time>2026-05-02T13:18:29.998Z</time></trkpt><trkpt lat="43.7573961652712" lon="7.027284288409407"><ele>939.0</ele><time>2026-05-02T13:18:30.998Z</time></trkpt><trkpt lat="43.75747385737572" lon="7.0272450775242"><ele>939.2</ele><time>2026-05-02T13:18:31.998Z</time></trkpt><trkpt lat="43.75755578945088" lon="7.027237656031864"><ele>939.4000000000001</ele><time>2026-05-02T13:18:32.998Z</time></trkpt><trkpt lat="43.75763023871222" lon="7.027241495273251"><ele>939.6</ele><time>2026-05-02T13:18:33.998Z</time></trkpt><trkpt lat="43.75764669682764" lon="7.027125876863528"><ele>939.8</ele><time>2026-05-02T13:18:34.998Z</time></trkpt><trkpt lat="43.75757048954447" lon="7.026933577747055"><ele>940.0</ele><time>2026-05-02T13:18:36.998Z</time></trkpt><trkpt lat="43.7575094412615" lon="7.02683868313129"><ele>940.0</ele><time>2026-05-02T13:18:37.998Z</time></trkpt><trkpt lat="43.75746411787619" lon="7.026741961369736"><ele>940.0</ele><time>2026-05-02T13:18:38.998Z</time></trkpt><trkpt lat="43.75745852198406" lon="7.026619560714651"><ele>940.0</ele><time>2026-05-02T13:18:39.998Z</time></trkpt><trkpt lat="43.75743776897973" lon="7.026494807909281"><ele>940.0</ele><time>2026-05-02T13:18:40.998Z</time></trkpt><trkpt lat="43.75737561399873" lon="7.02639704066907"><ele>940.0</ele><time>2026-05-02T13:18:41.998Z</time></trkpt><trkpt lat="43.75729907602027" lon="7.026317834648328"><ele>939.5</ele><time>2026-05-02T13:18:42.998Z</time></trkpt><trkpt lat="43.757194022548326" lon="7.026218165659496"><ele>939.0</ele><time>2026-05-02T13:18:43.998Z</time></trkpt><trkpt lat="43.75708474710393" lon="7.0260973347930396"><ele>938.5</ele><time>2026-05-02T13:18:44.998Z</time></trkpt><trkpt lat="43.75699317555689" lon="7.025963876297613"><ele>938.0</ele><time>2026-05-02T13:18:45.998Z</time></trkpt><trkpt lat="43.75690070087852" lon="7.0258543666336895"><ele>938.0</ele><time>2026-05-02T13:18:47Z</time></trkpt><trkpt lat="43.756809904161145" lon="7.025787028536869"><ele>938.0</ele><time>2026-05-02T13:18:48Z</time></trkpt><trkpt lat="43.75671108827683" lon="7.025703325762903"><ele>938.0</ele><time>2026-05-02T13:18:49Z</time></trkpt><trkpt lat="43.756609208078316" lon="7.025599609691098"><ele>938.0</ele><time>2026-05-02T13:18:50Z</time></trkpt><trkpt lat="43.75651294112963" lon="7.025499736400747"><ele>938.0</ele><time>2026-05-02T13:18:51Z</time></trkpt><trkpt lat="43.75642070126453" lon="7.025452855495128"><ele>938.0</ele><time>2026-05-02T13:18:52Z</time></trkpt><trkpt lat="43.75632101930887" lon="7.025378744213759"><ele>938.0</ele><time>2026-05-02T13:18:53Z</time></trkpt><trkpt lat="43.756213831704756" lon="7.025305264526234"><ele>938.0</ele><time>2026-05-02T13:18:54Z</time></trkpt><trkpt lat="43.75611218936872" lon="7.025217124918124"><ele>938.75</ele><time>2026-05-02T13:18:55Z</time></trkpt><trkpt lat="43.756007902731014" lon="7.025110286399999"><ele>939.5</ele><time>2026-05-02T13:18:56Z</time></trkpt><trkpt lat="43.7558972313644" lon="7.025000230954964"><ele>940.25</ele><time>2026-05-02T13:18:57Z</time></trkpt><trkpt lat="43.75578489125719" lon="7.024939909413164"><ele>941.0</ele><time>2026-05-02T13:18:58Z</time></trkpt><trkpt lat="43.75569542425947" lon="7.024870857483335"><ele>941.0000000000001</ele><time>2026-05-02T13:18:59Z</time></trkpt><trkpt lat="43.75560832846429" lon="7.024817449342291"><ele>941.0</ele><time>2026-05-02T13:19:00Z</time></trkpt><trkpt lat="43.75554074538608" lon="7.024780728654955"><ele>941.0</ele><time>2026-05-02T13:19:01Z</time></trkpt><trkpt lat="43.75545898558417" lon="7.024792137023661"><ele>941.0</ele><time>2026-05-02T13:19:06Z</time></trkpt><trkpt lat="43.75537402571801" lon="7.024808559464863"><ele>941.0000000000001</ele><time>2026-05-02T13:19:09Z</time></trkpt><trkpt lat="43.75528902180872" lon="7.024741079640544"><ele>941.0</ele><time>2026-05-02T13:19:11Z</time></trkpt><trkpt lat="43.75523461747497" lon="7.024658837877226"><ele>941.8</ele><time>2026-05-02T13:19:12Z</time></trkpt><trkpt lat="43.755146568017416" lon="7.024593738428317"><ele>942.5999999999999</ele><time>2026-05-02T13:19:13Z</time></trkpt><trkpt lat="43.75506192464143" lon="7.0245643147188535"><ele>943.4</ele><time>2026-05-02T13:19:14Z</time></trkpt><trkpt lat="43.75498243085747" lon="7.02455255546295"><ele>944.2</ele><time>2026-05-02T13:19:15Z</time></trkpt><trkpt lat="43.754884278336256" lon="7.024533561879743"><ele>945.0</ele><time>2026-05-02T13:19:15.999Z</time></trkpt><trkpt lat="43.75480971119643" lon="7.024472851836961"><ele>945.0</ele><time>2026-05-02T13:19:16.999Z</time></trkpt><trkpt lat="43.75476494272209" lon="7.024410861280077"><ele>945.0</ele><time>2026-05-02T13:19:17.999Z</time></trkpt><trkpt lat="43.75472631188058" lon="7.024312993147221"><ele>945.0</ele><time>2026-05-02T13:19:18.999Z</time></trkpt><trkpt lat="43.75465670920145" lon="7.0242485806090835"><ele>945.0</ele><time>2026-05-02T13:19:19.999Z</time></trkpt><trkpt lat="43.754554723067514" lon="7.02420900173445"><ele>945.0</ele><time>2026-05-02T13:19:20.999Z</time></trkpt><trkpt lat="43.75446177160396" lon="7.024142956488157"><ele>945.0</ele><time>2026-05-02T13:19:21.999Z</time></trkpt><trkpt lat="43.7543820401428" lon="7.024031030892834"><ele>944.6</ele><time>2026-05-02T13:19:22.999Z</time></trkpt><trkpt lat="43.75430386140651" lon="7.023940713809523"><ele>944.2</ele><time>2026-05-02T13:19:23.999Z</time></trkpt><trkpt lat="43.754246634917756" lon="7.023846104404252"><ele>943.8</ele><time>2026-05-02T13:19:24.999Z</time></trkpt><trkpt lat="43.75420815055756" lon="7.023731459742402"><ele>943.4</ele><time>2026-05-02T13:19:25.999Z</time></trkpt><trkpt lat="43.75415865370538" lon="7.023617244707193"><ele>943.0</ele><time>2026-05-02T13:19:26.999Z</time></trkpt><trkpt lat="43.754099649213714" lon="7.023522969038805"><ele>942.9999999999999</ele><time>2026-05-02T13:19:27.999Z</time></trkpt><trkpt lat="43.754057995726185" lon="7.023414727105799"><ele>943.0</ele><time>2026-05-02T13:19:28.999Z</time></trkpt><trkpt lat="43.75402519096261" lon="7.023295816497228"><ele>943.0</ele><time>2026-05-02T13:19:29.999Z</time></trkpt><trkpt lat="43.753993998763825" lon="7.023178378471693"><ele>943.0</ele><time>2026-05-02T13:19:30.999Z</time></trkpt><trkpt lat="43.75393554755381" lon="7.023105237383626"><ele>942.9999999999999</ele><time>2026-05-02T13:19:31.999Z</time></trkpt><trkpt lat="43.75385082097689" lon="7.023036066912029"><ele>943.0</ele><time>2026-05-02T13:19:32.999Z</time></trkpt><trkpt lat="43.753798184972794" lon="7.022963893606031"><ele>942.8</ele><time>2026-05-02T13:19:33.999Z</time></trkpt><trkpt lat="43.75375795467527" lon="7.022845670622279"><ele>942.5999999999999</ele><time>2026-05-02T13:19:34.999Z</time></trkpt><trkpt lat="43.75372517384679" lon="7.0226871919854545"><ele>942.4000000000001</ele><time>2026-05-02T13:19:35.999Z</time></trkpt><trkpt lat="43.75369446883013" lon="7.022535043986218"><ele>942.2</ele><time>2026-05-02T13:19:36.999Z</time></trkpt><trkpt lat="43.753656746057054" lon="7.022427890847677"><ele>942.0</ele><time>2026-05-02T13:19:37.999Z</time></trkpt><trkpt lat="43.75365316722859" lon="7.022310740102025"><ele>942.0</ele><time>2026-05-02T13:19:38.999Z</time></trkpt><trkpt lat="43.75368065504158" lon="7.022204747672809"><ele>942.0</ele><time>2026-05-02T13:19:39.999Z</time></trkpt><trkpt lat="43.75371573456729" lon="7.022101477635763"><ele>942.0</ele><time>2026-05-02T13:19:40.999Z</time></trkpt><trkpt lat="43.75372216122027" lon="7.021982541274324"><ele>942.0</ele><time>2026-05-02T13:19:41.999Z</time></trkpt><trkpt lat="43.753714479997036" lon="7.0218537111604205"><ele>942.0</ele><time>2026-05-02T13:19:42.999Z</time></trkpt><trkpt lat="43.75369761692489" lon="7.02172721312027"><ele>942.0</ele><time>2026-05-02T13:19:43.999Z</time></trkpt><trkpt lat="43.753694140660905" lon="7.021602496833299"><ele>942.0</ele><time>2026-05-02T13:19:44.999Z</time></trkpt><trkpt lat="43.75366584245716" lon="7.021477069691816"><ele>942.0</ele><time>2026-05-02T13:19:46.999Z</time></trkpt><trkpt lat="43.753568158167475" lon="7.021367958370269"><ele>942.0</ele><time>2026-05-02T13:19:48.999Z</time></trkpt><trkpt lat="43.753538887724176" lon="7.0212755762046735"><ele>942.0</ele><time>2026-05-02T13:19:49.999Z</time></trkpt><trkpt lat="43.753521026118634" lon="7.021148067857067"><ele>942.0</ele><time>2026-05-02T13:19:50.999Z</time></trkpt><trkpt lat="43.753505953823996" lon="7.020989593656794"><ele>942.5</ele><time>2026-05-02T13:19:51.999Z</time></trkpt><trkpt lat="43.75348206957023" lon="7.020805698800929"><ele>943.0</ele><time>2026-05-02T13:19:52.999Z</time></trkpt><trkpt lat="43.753467145806134" lon="7.020611330372288"><ele>943.5</ele><time>2026-05-02T13:19:53.999Z</time></trkpt><trkpt lat="43.75344545442453" lon="7.020406934829321"><ele>944.0</ele><time>2026-05-02T13:19:54.999Z</time></trkpt><trkpt lat="43.7534265106603" lon="7.020195930853722"><ele>944.25</ele><time>2026-05-02T13:19:55.999Z</time></trkpt><trkpt lat="43.753413227757505" lon="7.019980915140091"><ele>944.5</ele><time>2026-05-02T13:19:56.999Z</time></trkpt><trkpt lat="43.7533937133246" lon="7.019789194646534"><ele>944.75</ele><time>2026-05-02T13:19:57.999Z</time></trkpt><trkpt lat="43.75337993587548" lon="7.0196256747058"><ele>945.0</ele><time>2026-05-02T13:19:58.999Z</time></trkpt><trkpt lat="43.753370312957024" lon="7.019486830325096"><ele>945.0</ele><time>2026-05-02T13:19:59.999Z</time></trkpt><trkpt lat="43.753364562874886" lon="7.019375541950781"><ele>945.0</ele><time>2026-05-02T13:20:00.999Z</time></trkpt><trkpt lat="43.75336105633459" lon="7.019272192274008"><ele>945.0</ele><time>2026-05-02T13:20:01.999Z</time></trkpt><trkpt lat="43.75336146650269" lon="7.0191385759633524"><ele>945.0</ele><time>2026-05-02T13:20:03.999Z</time></trkpt><trkpt lat="43.75339258604273" lon="7.019052820685341"><ele>945.0</ele><time>2026-05-02T13:20:05.999Z</time></trkpt><trkpt lat="43.75343980789549" lon="7.018975093467338"><ele>945.0</ele><time>2026-05-02T13:20:08.999Z</time></trkpt><trkpt lat="43.753487138291824" lon="7.018907436527914"><ele>945.0</ele><time>2026-05-02T13:20:12.999Z</time></trkpt><trkpt lat="43.75350871397132" lon="7.018814859337146"><ele>945.0</ele><time>2026-05-02T13:20:16.999Z</time></trkpt><trkpt lat="43.753508483980404" lon="7.018726104544549"><ele>945.0</ele><time>2026-05-02T13:20:19.998Z</time></trkpt><trkpt lat="43.75350883520184" lon="7.018619404753353"><ele>945.0</ele><time>2026-05-02T13:20:21.998Z</time></trkpt><trkpt lat="43.75352048292336" lon="7.018470631243268"><ele>945.0</ele><time>2026-05-02T13:20:23.998Z</time></trkpt><trkpt lat="43.75356285825223" lon="7.018399857288736"><ele>945.0</ele><time>2026-05-02T13:20:25.998Z</time></trkpt><trkpt lat="43.75362815643239" lon="7.01836114525418"><ele>944.8</ele><time>2026-05-02T13:20:29.998Z</time></trkpt><trkpt lat="43.75374487586014" lon="7.018329996822496"><ele>944.6</ele><time>2026-05-02T13:21:13Z</time></trkpt><trkpt lat="43.75383022651423" lon="7.018277122492928"><ele>944.4000000000001</ele><time>2026-05-02T13:21:14Z</time></trkpt><trkpt lat="43.753916652946295" lon="7.018206509175821"><ele>944.2</ele><time>2026-05-02T13:21:15Z</time></trkpt><trkpt lat="43.75398948928288" lon="7.018162070033092"><ele>944.0</ele><time>2026-05-02T13:21:16Z</time></trkpt><trkpt lat="43.7540758647742" lon="7.018135184915625"><ele>943.8000000000001</ele><time>2026-05-02T13:21:17Z</time></trkpt><trkpt lat="43.754171393966004" lon="7.018144546002153"><ele>943.6000000000001</ele><time>2026-05-02T13:21:18Z</time></trkpt><trkpt lat="43.754260891452105" lon="7.018144944613433"><ele>943.4</ele><time>2026-05-02T13:21:19Z</time></trkpt><trkpt lat="43.75436532383932" lon="7.018117544448057"><ele>943.2</ele><time>2026-05-02T13:21:20Z</time></trkpt><trkpt lat="43.754464534481635" lon="7.018083178920985"><ele>943.0</ele><time>2026-05-02T13:21:20.999Z</time></trkpt><trkpt lat="43.754547768784825" lon="7.018058750534512"><ele>943.0</ele><time>2026-05-02T13:21:21.999Z</time></trkpt><trkpt lat="43.75463374229719" lon="7.018066708198864"><ele>943.0</ele><time>2026-05-02T13:21:22.999Z</time></trkpt><trkpt lat="43.75471538856444" lon="7.01808886943842"><ele>943.0</ele><time>2026-05-02T13:21:23.999Z</time></trkpt><trkpt lat="43.75482599156332" lon="7.018124836263919"><ele>943.0</ele><time>2026-05-02T13:21:24.999Z</time></trkpt><trkpt lat="43.75495181095868" lon="7.018151883116669"><ele>943.0</ele><time>2026-05-02T13:21:25.999Z</time></trkpt><trkpt lat="43.75507714005402" lon="7.018181307201636"><ele>943.0</ele><time>2026-05-02T13:21:26.999Z</time></trkpt><trkpt lat="43.755188454956915" lon="7.018215695973609"><ele>943.0</ele><time>2026-05-02T13:21:27.999Z</time></trkpt><trkpt lat="43.755304320354014" lon="7.018235124936067"><ele>943.0</ele><time>2026-05-02T13:21:28.999Z</time></trkpt><trkpt lat="43.755424392832346" lon="7.018259099991016"><ele>943.0</ele><time>2026-05-02T13:21:29.999Z</time></trkpt><trkpt lat="43.75553919964323" lon="7.0182832601508"><ele>943.25</ele><time>2026-05-02T13:21:30.999Z</time></trkpt><trkpt lat="43.75564945107403" lon="7.018302991886488"><ele>943.5</ele><time>2026-05-02T13:21:31.999Z</time></trkpt><trkpt lat="43.75576467611169" lon="7.018331581903528"><ele>943.75</ele><time>2026-05-02T13:21:32.999Z</time></trkpt><trkpt lat="43.75588312773519" lon="7.018360318109583"><ele>944.0</ele><time>2026-05-02T13:21:33.999Z</time></trkpt><trkpt lat="43.75600422670376" lon="7.0183625094907685"><ele>944.1666666666667</ele><time>2026-05-02T13:21:34.999Z</time></trkpt><trkpt lat="43.756100894910794" lon="7.018369701191614"><ele>944.3333333333334</ele><time>2026-05-02T13:21:35.999Z</time></trkpt><trkpt lat="43.75618074741132" lon="7.018388768680962"><ele>944.5</ele><time>2026-05-02T13:21:36.999Z</time></trkpt><trkpt lat="43.75627011526783" lon="7.018418198166987"><ele>944.6666666666667</ele><time>2026-05-02T13:21:37.999Z</time></trkpt><trkpt lat="43.75634540511259" lon="7.018460297383039"><ele>944.8333333333334</ele><time>2026-05-02T13:21:38.999Z</time></trkpt><trkpt lat="43.75641938934035" lon="7.018478809307023"><ele>945.0</ele><time>2026-05-02T13:21:39.999Z</time></trkpt><trkpt lat="43.75650453512518" lon="7.018492002963263"><ele>945.0</ele><time>2026-05-02T13:21:40.999Z</time></trkpt><trkpt lat="43.756594932116506" lon="7.018527734174675"><ele>945.0</ele><time>2026-05-02T13:21:41.999Z</time></trkpt><trkpt lat="43.75669935257914" lon="7.018564979070547"><ele>945.0</ele><time>2026-05-02T13:21:42.999Z</time></trkpt><trkpt lat="43.75680790490651" lon="7.018608871568311"><ele>945.0</ele><time>2026-05-02T13:21:43.999Z</time></trkpt><trkpt lat="43.75693010414381" lon="7.018646664281039"><ele>945.0</ele><time>2026-05-02T13:21:44.999Z</time></trkpt><trkpt lat="43.757062698641874" lon="7.0186833787593335"><ele>946.5</ele><time>2026-05-02T13:21:45.999Z</time></trkpt><trkpt lat="43.75720150143754" lon="7.018741454858093"><ele>948.0</ele><time>2026-05-02T13:21:46.999Z</time></trkpt><trkpt lat="43.757344326410795" lon="7.018789916344768"><ele>949.5</ele><time>2026-05-02T13:21:47.999Z</time></trkpt><trkpt lat="43.75747646671126" lon="7.018837850487817"><ele>951.0</ele><time>2026-05-02T13:21:48.999Z</time></trkpt><trkpt lat="43.75758876971743" lon="7.018890829535233"><ele>951.0</ele><time>2026-05-02T13:21:49.999Z</time></trkpt><trkpt lat="43.75769248560922" lon="7.018934461234782"><ele>951.0</ele><time>2026-05-02T13:21:50.999Z</time></trkpt><trkpt lat="43.757787758748876" lon="7.018978445267448"><ele>951.0</ele><time>2026-05-02T13:21:51.999Z</time></trkpt><trkpt lat="43.757871331704955" lon="7.019012989537626"><ele>951.0</ele><time>2026-05-02T13:21:52.999Z</time></trkpt><trkpt lat="43.757944746730416" lon="7.019045408342154"><ele>951.0</ele><time>2026-05-02T13:21:53.999Z</time></trkpt><trkpt lat="43.75800978214805" lon="7.0190516018579086"><ele>951.0</ele><time>2026-05-02T13:21:54.999Z</time></trkpt><trkpt lat="43.75807425030435" lon="7.019045295906357"><ele>951.8</ele><time>2026-05-02T13:21:55.999Z</time></trkpt><trkpt lat="43.75818071404113" lon="7.019075331752784"><ele>952.5999999999999</ele><time>2026-05-02T13:21:57.999Z</time></trkpt><trkpt lat="43.7582550689198" lon="7.019107998512214"><ele>953.4</ele><time>2026-05-02T13:21:58.999Z</time></trkpt><trkpt lat="43.75835263542735" lon="7.019147647859293"><ele>954.2</ele><time>2026-05-02T13:21:59.999Z</time></trkpt><trkpt lat="43.7584590535183" lon="7.0192095449785326"><ele>955.0</ele><time>2026-05-02T13:22:00.999Z</time></trkpt><trkpt lat="43.758570379357764" lon="7.019264768492928"><ele>956.5</ele><time>2026-05-02T13:22:01.999Z</time></trkpt><trkpt lat="43.75869157739119" lon="7.019288276967228"><ele>958.0</ele><time>2026-05-02T13:22:02.999Z</time></trkpt><trkpt lat="43.75882196490856" lon="7.0193139866074805"><ele>959.5</ele><time>2026-05-02T13:22:03.999Z</time></trkpt><trkpt lat="43.75895250126068" lon="7.0193426479664565"><ele>961.0</ele><time>2026-05-02T13:22:04.999Z</time></trkpt><trkpt lat="43.759066405224225" lon="7.019375209667398"><ele>961.0</ele><time>2026-05-02T13:22:05.999Z</time></trkpt><trkpt lat="43.75914701972815" lon="7.019405921121573"><ele>960.9999999999999</ele><time>2026-05-02T13:22:06.999Z</time></trkpt><trkpt lat="43.759264432754044" lon="7.01934181357094"><ele>960.9999999999999</ele><time>2026-05-02T13:22:08.999Z</time></trkpt><trkpt lat="43.75934410557631" lon="7.019311130944333"><ele>961.0</ele><time>2026-05-02T13:22:09.999Z</time></trkpt><trkpt lat="43.75944309871239" lon="7.019338216363125"><ele>961.0</ele><time>2026-05-02T13:22:10.999Z</time></trkpt><trkpt lat="43.75952474396794" lon="7.019398665593409"><ele>960.8</ele><time>2026-05-02T13:22:11.999Z</time></trkpt><trkpt lat="43.75960800523865" lon="7.019463967691117"><ele>960.5999999999999</ele><time>2026-05-02T13:22:12.999Z</time></trkpt><trkpt lat="43.7596626779508" lon="7.019547835974285"><ele>960.4</ele><time>2026-05-02T13:22:13.999Z</time></trkpt><trkpt lat="43.759716080686225" lon="7.01964213900937"><ele>960.2</ele><time>2026-05-02T13:22:14.999Z</time></trkpt><trkpt lat="43.759788252730786" lon="7.019696527979827"><ele>960.0</ele><time>2026-05-02T13:22:15.999Z</time></trkpt><trkpt lat="43.759887532372275" lon="7.019749701180464"><ele>960.0</ele><time>2026-05-02T13:22:16.999Z</time></trkpt><trkpt lat="43.75999493043074" lon="7.019772761650926"><ele>960.0</ele><time>2026-05-02T13:22:17.999Z</time></trkpt><trkpt lat="43.76009428654772" lon="7.019774654108537"><ele>960.0</ele><time>2026-05-02T13:22:18.999Z</time></trkpt><trkpt lat="43.7601788713412" lon="7.019772150148801"><ele>960.0</ele><time>2026-05-02T13:22:19.999Z</time></trkpt><trkpt lat="43.760254606008665" lon="7.019776083622714"><ele>960.0</ele><time>2026-05-02T13:22:20.999Z</time></trkpt><trkpt lat="43.76032040689507" lon="7.01970990782714"><ele>960.0</ele><time>2026-05-02T13:22:22.998Z</time></trkpt><trkpt lat="43.760312390884515" lon="7.019619272673457"><ele>960.0</ele><time>2026-05-02T13:22:25.998Z</time></trkpt><trkpt lat="43.76022341661824" lon="7.019612884397297"><ele>960.0</ele><time>2026-05-02T13:22:27.998Z</time></trkpt><trkpt lat="43.76024744902883" lon="7.019724435059077"><ele>960.0</ele><time>2026-05-02T13:22:29.998Z</time></trkpt><trkpt lat="43.76030179763829" lon="7.019668293599088"><ele>960.0</ele><time>2026-05-02T13:22:39.998Z</time></trkpt><trkpt lat="43.76026681419696" lon="7.019571047192917"><ele>960.0</ele><time>2026-05-02T13:22:41.998Z</time></trkpt><trkpt lat="43.760186760990656" lon="7.019574390331774"><ele>960.0</ele><time>2026-05-02T13:22:42.998Z</time></trkpt><trkpt lat="43.76010350556022" lon="7.019597701934508"><ele>960.0</ele><time>2026-05-02T13:22:43.998Z</time></trkpt><trkpt lat="43.76000751198462" lon="7.019619366434996"><ele>960.0</ele><time>2026-05-02T13:22:44.998Z</time></trkpt><trkpt lat="43.759899428596974" lon="7.019664861854405"><ele>960.0</ele><time>2026-05-02T13:22:45.998Z</time></trkpt><trkpt lat="43.75980296783282" lon="7.019683029369896"><ele>960.0</ele><time>2026-05-02T13:22:46.998Z</time></trkpt><trkpt lat="43.759714054648306" lon="7.019669420398389"><ele>960.0</ele><time>2026-05-02T13:22:47.998Z</time></trkpt><trkpt lat="43.75964089692736" lon="7.019605905625997"><ele>960.0</ele><time>2026-05-02T13:22:48.998Z</time></trkpt><trkpt lat="43.75959228980655" lon="7.019509380336112"><ele>960.0</ele><time>2026-05-02T13:22:49.998Z</time></trkpt><trkpt lat="43.75953914391463" lon="7.019416240565185"><ele>960.0</ele><time>2026-05-02T13:22:50.998Z</time></trkpt><trkpt lat="43.759448198907904" lon="7.019341462290461"><ele>960.0</ele><time>2026-05-02T13:22:51.998Z</time></trkpt><trkpt lat="43.7593460159549" lon="7.019314927467228"><ele>960.2</ele><time>2026-05-02T13:22:52.998Z</time></trkpt><trkpt lat="43.75924378368466" lon="7.0193255611420105"><ele>960.4</ele><time>2026-05-02T13:22:53.998Z</time></trkpt><trkpt lat="43.75914195731565" lon="7.019333922998797"><ele>960.5999999999999</ele><time>2026-05-02T13:22:54.998Z</time></trkpt><trkpt lat="43.759038053528464" lon="7.019360824484904"><ele>960.8</ele><time>2026-05-02T13:22:55.998Z</time></trkpt><trkpt lat="43.75893487214313" lon="7.019343429045035"><ele>961.0</ele><time>2026-05-02T13:22:56.998Z</time></trkpt><trkpt lat="43.758814662844976" lon="7.019297907843184"><ele>961.0</ele><time>2026-05-02T13:22:58Z</time></trkpt><trkpt lat="43.758684978569875" lon="7.019262118283786"><ele>961.0</ele><time>2026-05-02T13:22:59Z</time></trkpt><trkpt lat="43.75854359591219" lon="7.019191263328819"><ele>961.0</ele><time>2026-05-02T13:23:00Z</time></trkpt><trkpt lat="43.7584052493349" lon="7.01912981553143"><ele>961.0</ele><time>2026-05-02T13:23:01Z</time></trkpt><trkpt lat="43.75828539326488" lon="7.019078065586342"><ele>960.1666666666666</ele><time>2026-05-02T13:23:02Z</time></trkpt><trkpt lat="43.75817132934903" lon="7.019019385163912"><ele>959.3333333333333</ele><time>2026-05-02T13:23:03Z</time></trkpt><trkpt lat="43.75808967959487" lon="7.018952356756397"><ele>958.5</ele><time>2026-05-02T13:23:04Z</time></trkpt><trkpt lat="43.75803537969535" lon="7.018881700818562"><ele>957.6666666666667</ele><time>2026-05-02T13:23:05Z</time></trkpt><trkpt lat="43.75802039924449" lon="7.018791062417598"><ele>956.8333333333334</ele><time>2026-05-02T13:23:06Z</time></trkpt><trkpt lat="43.75802842173355" lon="7.018694071700512"><ele>956.0</ele><time>2026-05-02T13:23:07Z</time></trkpt><trkpt lat="43.75806082925811" lon="7.018568016515431"><ele>956.0</ele><time>2026-05-02T13:23:08Z</time></trkpt><trkpt lat="43.75807196151857" lon="7.018439391149991"><ele>956.0</ele><time>2026-05-02T13:23:09Z</time></trkpt><trkpt lat="43.75806675670843" lon="7.0182655155769975"><ele>956.0</ele><time>2026-05-02T13:23:10Z</time></trkpt><trkpt lat="43.758050386460816" lon="7.018100024378247"><ele>956.0</ele><time>2026-05-02T13:23:11Z</time></trkpt><trkpt lat="43.758040351191404" lon="7.017928995837367"><ele>956.1999999999999</ele><time>2026-05-02T13:23:12Z</time></trkpt><trkpt lat="43.7580445192754" lon="7.017776335286792"><ele>956.3999999999999</ele><time>2026-05-02T13:23:13Z</time></trkpt><trkpt lat="43.75804520753527" lon="7.017637447102258"><ele>956.6</ele><time>2026-05-02T13:23:14Z</time></trkpt><trkpt lat="43.75804142074799" lon="7.017502335795682"><ele>956.8</ele><time>2026-05-02T13:23:15Z</time></trkpt><trkpt lat="43.758058107146546" lon="7.017370713894935"><ele>957.0</ele><time>2026-05-02T13:23:16Z</time></trkpt><trkpt lat="43.75810626084348" lon="7.017269030491667"><ele>957.5</ele><time>2026-05-02T13:23:17Z</time></trkpt><trkpt lat="43.75815038913008" lon="7.017188000542438"><ele>958.0</ele><time>2026-05-02T13:23:18Z</time></trkpt><trkpt lat="43.75815921702654" lon="7.017071481888525"><ele>958.5</ele><time>2026-05-02T13:23:19Z</time></trkpt><trkpt lat="43.758149470156226" lon="7.016953591251466"><ele>959.0</ele><time>2026-05-02T13:23:20Z</time></trkpt><trkpt lat="43.758129086977355" lon="7.016833619316954"><ele>959.5</ele><time>2026-05-02T13:23:21Z</time></trkpt><trkpt lat="43.758097226051845" lon="7.0167038590062285"><ele>960.0</ele><time>2026-05-02T13:23:22Z</time></trkpt><trkpt lat="43.75804580590769" lon="7.016580662118363"><ele>960.0</ele><time>2026-05-02T13:23:23Z</time></trkpt><trkpt lat="43.75798656492869" lon="7.016487180083974"><ele>960.0</ele><time>2026-05-02T13:23:24Z</time></trkpt><trkpt lat="43.757941522913804" lon="7.016409771193295"><ele>960.0</ele><time>2026-05-02T13:23:25Z</time></trkpt><trkpt lat="43.757956637512564" lon="7.016196267873399"><ele>960.0</ele><time>2026-05-02T13:23:26.999Z</time></trkpt><trkpt lat="43.75794214784505" lon="7.01606346612461"><ele>960.0</ele><time>2026-05-02T13:23:27.999Z</time></trkpt><trkpt lat="43.757940591758235" lon="7.015960434754584"><ele>960.0</ele><time>2026-05-02T13:23:28.999Z</time></trkpt><trkpt lat="43.757996233276984" lon="7.015889392695981"><ele>960.0</ele><time>2026-05-02T13:23:29.999Z</time></trkpt><trkpt lat="43.75807990733154" lon="7.015797532633717"><ele>960.0</ele><time>2026-05-02T13:23:30.999Z</time></trkpt><trkpt lat="43.75816916262063" lon="7.015697266286094"><ele>960.0</ele><time>2026-05-02T13:23:31.999Z</time></trkpt><trkpt lat="43.758260925701045" lon="7.015591708061125"><ele>960.0</ele><time>2026-05-02T13:23:32.999Z</time></trkpt><trkpt lat="43.75833927717752" lon="7.015513645283531"><ele>958.0</ele><time>2026-05-02T13:23:33.999Z</time></trkpt><trkpt lat="43.758412835821645" lon="7.01545027370264"><ele>956.0</ele><time>2026-05-02T13:23:34.999Z</time></trkpt><trkpt lat="43.75850353254507" lon="7.015397486449539"><ele>954.0</ele><time>2026-05-02T13:23:35.999Z</time></trkpt><trkpt lat="43.75858576206942" lon="7.015348571698942"><ele>952.0</ele><time>2026-05-02T13:23:36.999Z</time></trkpt><trkpt lat="43.75866277994926" lon="7.015299518514712"><ele>950.0</ele><time>2026-05-02T13:23:37.999Z</time></trkpt><trkpt lat="43.75873840983107" lon="7.0152592644937375"><ele>948.0</ele><time>2026-05-02T13:23:38.999Z</time></trkpt><trkpt lat="43.758817439163174" lon="7.015213389167408"><ele>948.0</ele><time>2026-05-02T13:23:39.999Z</time></trkpt><trkpt lat="43.75889779826025" lon="7.015180333593438"><ele>948.0</ele><time>2026-05-02T13:23:40.999Z</time></trkpt><trkpt lat="43.75897954864655" lon="7.015144296505402"><ele>948.0</ele><time>2026-05-02T13:23:41.999Z</time></trkpt><trkpt lat="43.759066974955495" lon="7.015111488721452"><ele>948.0</ele><time>2026-05-02T13:23:42.999Z</time></trkpt><trkpt lat="43.75914628010579" lon="7.015077586505268"><ele>948.0</ele><time>2026-05-02T13:23:43.999Z</time></trkpt><trkpt lat="43.75923521155628" lon="7.015051175127961"><ele>948.0</ele><time>2026-05-02T13:23:44.999Z</time></trkpt><trkpt lat="43.75933658181219" lon="7.015027032554793"><ele>949.5999999999999</ele><time>2026-05-02T13:23:45.999Z</time></trkpt><trkpt lat="43.75945068678507" lon="7.0150013811286716"><ele>951.1999999999999</ele><time>2026-05-02T13:23:46.999Z</time></trkpt><trkpt lat="43.75956273541695" lon="7.014970539486263"><ele>952.8</ele><time>2026-05-02T13:23:47.999Z</time></trkpt><trkpt lat="43.759664093877916" lon="7.014952129485001"><ele>954.4</ele><time>2026-05-02T13:23:48.999Z</time></trkpt><trkpt lat="43.75976058968588" lon="7.014915762886096"><ele>956.0</ele><time>2026-05-02T13:23:49.999Z</time></trkpt><trkpt lat="43.7598552913148" lon="7.014880208839039"><ele>952.8333333333334</ele><time>2026-05-02T13:23:50.999Z</time></trkpt><trkpt lat="43.75994745555917" lon="7.014830904219427"><ele>949.6666666666667</ele><time>2026-05-02T13:23:51.999Z</time></trkpt><trkpt lat="43.76003454867991" lon="7.014780632635914"><ele>946.5</ele><time>2026-05-02T13:23:52.999Z</time></trkpt><trkpt lat="43.76011933775596" lon="7.014736871531994"><ele>943.3333333333333</ele><time>2026-05-02T13:23:53.999Z</time></trkpt><trkpt lat="43.76019724149358" lon="7.014690974126551"><ele>940.1666666666666</ele><time>2026-05-02T13:23:54.999Z</time></trkpt><trkpt lat="43.76027068955424" lon="7.014655469620775"><ele>937.0</ele><time>2026-05-02T13:23:55.999Z</time></trkpt><trkpt lat="43.76034177644598" lon="7.014597616781919"><ele>936.9999999999999</ele><time>2026-05-02T13:23:56.999Z</time></trkpt><trkpt lat="43.760426964909726" lon="7.014572747777705"><ele>937.0</ele><time>2026-05-02T13:23:57.999Z</time></trkpt><trkpt lat="43.760521903186934" lon="7.014578471230067"><ele>937.0</ele><time>2026-05-02T13:23:58.999Z</time></trkpt><trkpt lat="43.76061233444188" lon="7.0146067002544275"><ele>937.0</ele><time>2026-05-02T13:23:59.999Z</time></trkpt><trkpt lat="43.760696808640745" lon="7.014601637111059"><ele>936.9999999999999</ele><time>2026-05-02T13:24:00.999Z</time></trkpt><trkpt lat="43.76077349404142" lon="7.014551998596167"><ele>937.0</ele><time>2026-05-02T13:24:01.999Z</time></trkpt><trkpt lat="43.76086908073271" lon="7.01452203266593"><ele>937.0</ele><time>2026-05-02T13:24:02.999Z</time></trkpt><trkpt lat="43.760974869541414" lon="7.014541552073325"><ele>937.0</ele><time>2026-05-02T13:24:03.999Z</time></trkpt><trkpt lat="43.76108391976182" lon="7.014546581469468"><ele>937.0</ele><time>2026-05-02T13:24:04.999Z</time></trkpt><trkpt lat="43.761189949267674" lon="7.014525519917007"><ele>937.0</ele><time>2026-05-02T13:24:05.999Z</time></trkpt><trkpt lat="43.761273779906" lon="7.014493137272671"><ele>937.0</ele><time>2026-05-02T13:24:06.999Z</time></trkpt><trkpt lat="43.761412969205246" lon="7.0145221246999485"><ele>938.0</ele><time>2026-05-02T13:24:08.999Z</time></trkpt><trkpt lat="43.76149069649726" lon="7.014561429173215"><ele>939.0</ele><time>2026-05-02T13:24:09.999Z</time></trkpt><trkpt lat="43.76155414740436" lon="7.014563241556636"><ele>940.0</ele><time>2026-05-02T13:24:10.999Z</time></trkpt><trkpt lat="43.76159389140476" lon="7.014482739004444"><ele>941.0</ele><time>2026-05-02T13:24:12.999Z</time></trkpt><trkpt lat="43.76158451741719" lon="7.014367291035591"><ele>942.0</ele><time>2026-05-02T13:24:13.999Z</time></trkpt><trkpt lat="43.76159154003144" lon="7.014269089463104"><ele>943.0</ele><time>2026-05-02T13:24:14.999Z</time></trkpt><trkpt lat="43.76161569341359" lon="7.01418657697097"><ele>944.0</ele><time>2026-05-02T13:24:15.999Z</time></trkpt><trkpt lat="43.76165421072096" lon="7.014074484273362"><ele>944.0</ele><time>2026-05-02T13:24:17.999Z</time></trkpt><trkpt lat="43.76173463556931" lon="7.013995612517381"><ele>944.0000000000001</ele><time>2026-05-02T13:24:19.999Z</time></trkpt><trkpt lat="43.76183334602678" lon="7.013927975538437"><ele>944.0000000000001</ele><time>2026-05-02T13:24:21.999Z</time></trkpt><trkpt lat="43.76188916007948" lon="7.013828305865303"><ele>944.0</ele><time>2026-05-02T13:24:23.999Z</time></trkpt><trkpt lat="43.76200809391933" lon="7.013800926394742"><ele>944.0</ele><time>2026-05-02T13:24:25.999Z</time></trkpt><trkpt lat="43.76207800877962" lon="7.013779536498371"><ele>944.8333333333334</ele><time>2026-05-02T13:24:26.999Z</time></trkpt><trkpt lat="43.76212246800772" lon="7.013714070080351"><ele>945.6666666666667</ele><time>2026-05-02T13:24:27.999Z</time></trkpt><trkpt lat="43.762140895827564" lon="7.013625625481509"><ele>946.5</ele><time>2026-05-02T13:24:28.999Z</time></trkpt><trkpt lat="43.76211460247056" lon="7.0135198040492766"><ele>947.3333333333333</ele><time>2026-05-02T13:24:29.998Z</time></trkpt><trkpt lat="43.76207980806162" lon="7.013432473405832"><ele>948.1666666666666</ele><time>2026-05-02T13:24:30.998Z</time></trkpt><trkpt lat="43.762088997466066" lon="7.013280012277906"><ele>949.0</ele><time>2026-05-02T13:24:32.998Z</time></trkpt><trkpt lat="43.76218396112298" lon="7.013156536031759"><ele>949.0</ele><time>2026-05-02T13:24:34.998Z</time></trkpt><trkpt lat="43.762271084545446" lon="7.0131187016358245"><ele>949.0000000000001</ele><time>2026-05-02T13:24:35.998Z</time></trkpt><trkpt lat="43.76236182321271" lon="7.013083669467376"><ele>949.0000000000001</ele><time>2026-05-02T13:24:36.998Z</time></trkpt><trkpt lat="43.76245783850352" lon="7.013063698143593"><ele>949.0</ele><time>2026-05-02T13:24:37.998Z</time></trkpt><trkpt lat="43.76254463621779" lon="7.013049997112375"><ele>949.0</ele><time>2026-05-02T13:24:38.998Z</time></trkpt><trkpt lat="43.76262416529778" lon="7.013014821567057"><ele>948.9999999999999</ele><time>2026-05-02T13:24:39.998Z</time></trkpt><trkpt lat="43.76266518717263" lon="7.012938337370411"><ele>949.0</ele><time>2026-05-02T13:24:40.998Z</time></trkpt><trkpt lat="43.76267154370085" lon="7.01284762069745"><ele>949.0</ele><time>2026-05-02T13:24:41.998Z</time></trkpt><trkpt lat="43.7626948425385" lon="7.012730029354441"><ele>949.0</ele><time>2026-05-02T13:24:43.998Z</time></trkpt><trkpt lat="43.762740037197304" lon="7.012652069196692"><ele>948.9999999999999</ele><time>2026-05-02T13:24:44.998Z</time></trkpt><trkpt lat="43.76279298522342" lon="7.012571626467245"><ele>949.0</ele><time>2026-05-02T13:24:45.998Z</time></trkpt><trkpt lat="43.762842461017264" lon="7.01248359944512"><ele>949.8000000000001</ele><time>2026-05-02T13:24:46.998Z</time></trkpt><trkpt lat="43.76289253040005" lon="7.012398716066154"><ele>950.6000000000001</ele><time>2026-05-02T13:24:47.998Z</time></trkpt><trkpt lat="43.76294823255681" lon="7.012346649204181"><ele>951.4</ele><time>2026-05-02T13:24:48.998Z</time></trkpt><trkpt lat="43.763012030353345" lon="7.012319671384449"><ele>952.2</ele><time>2026-05-02T13:24:49.998Z</time></trkpt><trkpt lat="43.76306394501932" lon="7.012138267139252"><ele>953.0</ele><time>2026-05-02T13:24:51.998Z</time></trkpt><trkpt lat="43.76306809981605" lon="7.011981425524994"><ele>953.0</ele><time>2026-05-02T13:24:52.998Z</time></trkpt><trkpt lat="43.76308803413816" lon="7.011843676382832"><ele>953.0</ele><time>2026-05-02T13:24:53.998Z</time></trkpt><trkpt lat="43.763089184430555" lon="7.011737196195675"><ele>953.0</ele><time>2026-05-02T13:24:54.998Z</time></trkpt><trkpt lat="43.76307914530366" lon="7.011594815912539"><ele>953.0</ele><time>2026-05-02T13:24:56.998Z</time></trkpt><trkpt lat="43.7630635712679" lon="7.011435835542803"><ele>953.0</ele><time>2026-05-02T13:24:58.998Z</time></trkpt><trkpt lat="43.76308451798302" lon="7.011288066964798"><ele>953.0</ele><time>2026-05-02T13:25:00.998Z</time></trkpt><trkpt lat="43.76317906180509" lon="7.011205147850443"><ele>953.0</ele><time>2026-05-02T13:25:03Z</time></trkpt><trkpt lat="43.763309706137655" lon="7.011176493066448"><ele>953.0</ele><time>2026-05-02T13:25:05Z</time></trkpt><trkpt lat="43.763394282577764" lon="7.011176193801667"><ele>953.0</ele><time>2026-05-02T13:25:06Z</time></trkpt><trkpt lat="43.76346967064957" lon="7.011183321567531"><ele>953.0</ele><time>2026-05-02T13:25:07Z</time></trkpt><trkpt lat="43.763544371467965" lon="7.01117543396116"><ele>955.1666666666667</ele><time>2026-05-02T13:25:08Z</time></trkpt><trkpt lat="43.76362154721448" lon="7.011143833526742"><ele>957.3333333333334</ele><time>2026-05-02T13:25:09Z</time></trkpt><trkpt lat="43.763693342648914" lon="7.011127894036984"><ele>959.5</ele><time>2026-05-02T13:25:10Z</time></trkpt><trkpt lat="43.76379951332144" lon="7.011173284102492"><ele>961.6666666666667</ele><time>2026-05-02T13:25:12Z</time></trkpt><trkpt lat="43.76382603585409" lon="7.0112607004102285"><ele>963.8333333333334</ele><time>2026-05-02T13:25:13Z</time></trkpt><trkpt lat="43.76386106093821" lon="7.011350764216762"><ele>966.0</ele><time>2026-05-02T13:25:14Z</time></trkpt><trkpt lat="43.76392736512142" lon="7.011410451689338"><ele>966.0</ele><time>2026-05-02T13:25:15Z</time></trkpt><trkpt lat="43.76399163505094" lon="7.011465710096664"><ele>966.0</ele><time>2026-05-02T13:25:16Z</time></trkpt><trkpt lat="43.76405531370483" lon="7.011501753360433"><ele>966.0</ele><time>2026-05-02T13:25:17Z</time></trkpt><trkpt lat="43.76411977717787" lon="7.011555474221466"><ele>966.0</ele><time>2026-05-02T13:25:18Z</time></trkpt><trkpt lat="43.76418760008589" lon="7.011680995020394"><ele>966.0</ele><time>2026-05-02T13:25:20Z</time></trkpt><trkpt lat="43.76424160920961" lon="7.011748249894067"><ele>966.0</ele><time>2026-05-02T13:25:21Z</time></trkpt><trkpt lat="43.76433147832993" lon="7.011812064647785"><ele>966.0</ele><time>2026-05-02T13:25:22Z</time></trkpt><trkpt lat="43.76442026445236" lon="7.011891391472233"><ele>966.0</ele><time>2026-05-02T13:25:23Z</time></trkpt><trkpt lat="43.76452660194566" lon="7.011957460067179"><ele>966.0</ele><time>2026-05-02T13:25:24Z</time></trkpt><trkpt lat="43.76465290429129" lon="7.01202882055235"><ele>966.0</ele><time>2026-05-02T13:25:25Z</time></trkpt><trkpt lat="43.76477593582416" lon="7.0121016115354315"><ele>966.0</ele><time>2026-05-02T13:25:26Z</time></trkpt><trkpt lat="43.76489296585303" lon="7.012167661671451"><ele>966.0</ele><time>2026-05-02T13:25:27Z</time></trkpt><trkpt lat="43.76499311157199" lon="7.0122169685188735"><ele>966.0</ele><time>2026-05-02T13:25:28Z</time></trkpt><trkpt lat="43.765085311963205" lon="7.012277127669507"><ele>966.0</ele><time>2026-05-02T13:25:29Z</time></trkpt><trkpt lat="43.765177749142524" lon="7.012390725312435"><ele>967.25</ele><time>2026-05-02T13:25:30Z</time></trkpt><trkpt lat="43.76529230561337" lon="7.012501620239869"><ele>968.5</ele><time>2026-05-02T13:25:30.999Z</time></trkpt><trkpt lat="43.76539542806444" lon="7.012587231768283"><ele>969.75</ele><time>2026-05-02T13:25:31.999Z</time></trkpt><trkpt lat="43.76548018450566" lon="7.012676126733658"><ele>971.0</ele><time>2026-05-02T13:25:32.999Z</time></trkpt><trkpt lat="43.7655507318407" lon="7.012744519898841"><ele>971.0000000000001</ele><time>2026-05-02T13:25:33.999Z</time></trkpt><trkpt lat="43.765611692342794" lon="7.012794001844823"><ele>971.0</ele><time>2026-05-02T13:25:34.999Z</time></trkpt><trkpt lat="43.76567956288149" lon="7.012810981150814"><ele>971.0</ele><time>2026-05-02T13:25:35.999Z</time></trkpt><trkpt lat="43.76576150657004" lon="7.012830598763174"><ele>971.0</ele><time>2026-05-02T13:25:36.999Z</time></trkpt><trkpt lat="43.76583336829705" lon="7.012894687639176"><ele>971.0000000000001</ele><time>2026-05-02T13:25:38.999Z</time></trkpt><trkpt lat="43.76584362402323" lon="7.01300278376664"><ele>971.0</ele><time>2026-05-02T13:25:39.999Z</time></trkpt><trkpt lat="43.765875260176934" lon="7.013088342519256"><ele>971.0000000000001</ele><time>2026-05-02T13:25:40.999Z</time></trkpt><trkpt lat="43.76593349126408" lon="7.013179995609725"><ele>971.0</ele><time>2026-05-02T13:25:41.999Z</time></trkpt><trkpt lat="43.76599944709706" lon="7.013264164759824"><ele>971.0</ele><time>2026-05-02T13:25:42.999Z</time></trkpt><trkpt lat="43.76606813528853" lon="7.013323735272465"><ele>971.0</ele><time>2026-05-02T13:25:43.999Z</time></trkpt><trkpt lat="43.76614744384438" lon="7.0133536813669135"><ele>971.0000000000001</ele><time>2026-05-02T13:25:44.999Z</time></trkpt><trkpt lat="43.766233041251205" lon="7.013395990509526"><ele>971.0</ele><time>2026-05-02T13:25:45.999Z</time></trkpt><trkpt lat="43.76632434868943" lon="7.013529494371013"><ele>972.6666666666667</ele><time>2026-05-02T13:25:47.999Z</time></trkpt><trkpt lat="43.7663389357235" lon="7.0136459684263945"><ele>974.3333333333334</ele><time>2026-05-02T13:25:48.999Z</time></trkpt><trkpt lat="43.76633537173389" lon="7.0138045957050394"><ele>976.0</ele><time>2026-05-02T13:25:49.999Z</time></trkpt><trkpt lat="43.766344084316536" lon="7.013922730423898"><ele>977.6666666666667</ele><time>2026-05-02T13:25:50.999Z</time></trkpt><trkpt lat="43.76639238470563" lon="7.013986795428942"><ele>979.3333333333334</ele><time>2026-05-02T13:25:51.999Z</time></trkpt><trkpt lat="43.76646511323354" lon="7.014041893010204"><ele>981.0</ele><time>2026-05-02T13:25:52.999Z</time></trkpt><trkpt lat="43.76655760404888" lon="7.014093452367894"><ele>981.0</ele><time>2026-05-02T13:25:53.999Z</time></trkpt><trkpt lat="43.76665460714681" lon="7.014180431435141"><ele>980.9999999999999</ele><time>2026-05-02T13:25:54.999Z</time></trkpt><trkpt lat="43.766742911123956" lon="7.014260908689016"><ele>980.9999999999999</ele><time>2026-05-02T13:25:55.999Z</time></trkpt><trkpt lat="43.76682454642234" lon="7.01431998530187"><ele>981.0</ele><time>2026-05-02T13:25:56.999Z</time></trkpt><trkpt lat="43.766895976807135" lon="7.01436417540114"><ele>981.0</ele><time>2026-05-02T13:25:57.999Z</time></trkpt><trkpt lat="43.76696110847488" lon="7.014388527051796"><ele>981.0</ele><time>2026-05-02T13:25:58.999Z</time></trkpt><trkpt lat="43.767041880583186" lon="7.014376484961022"><ele>980.9999999999999</ele><time>2026-05-02T13:25:59.999Z</time></trkpt><trkpt lat="43.76711234563375" lon="7.014384537743913"><ele>980.9999999999999</ele><time>2026-05-02T13:26:00.999Z</time></trkpt><trkpt lat="43.767187655833695" lon="7.014444736454465"><ele>981.0</ele><time>2026-05-02T13:26:01.999Z</time></trkpt><trkpt lat="43.76729306606341" lon="7.014497662498301"><ele>981.0</ele><time>2026-05-02T13:26:02.999Z</time></trkpt><trkpt lat="43.76739922124495" lon="7.0145856543958685"><ele>981.0</ele><time>2026-05-02T13:26:03.999Z</time></trkpt><trkpt lat="43.76749297522171" lon="7.014645474576232"><ele>980.9999999999999</ele><time>2026-05-02T13:26:04.999Z</time></trkpt><trkpt lat="43.76758764323619" lon="7.014670337646942"><ele>980.9999999999999</ele><time>2026-05-02T13:26:05.999Z</time></trkpt><trkpt lat="43.76769739424787" lon="7.0146714118085"><ele>981.0</ele><time>2026-05-02T13:26:06.999Z</time></trkpt><trkpt lat="43.767794851733136" lon="7.014680562756551"><ele>981.0</ele><time>2026-05-02T13:26:07.999Z</time></trkpt><trkpt lat="43.767860425528674" lon="7.01472793436077"><ele>981.4</ele><time>2026-05-02T13:26:08.999Z</time></trkpt><trkpt lat="43.76788928560872" lon="7.014824905371502"><ele>981.8</ele><time>2026-05-02T13:26:09.999Z</time></trkpt><trkpt lat="43.7678941306156" lon="7.014941244290496"><ele>982.1999999999999</ele><time>2026-05-02T13:26:10.999Z</time></trkpt><trkpt lat="43.76785954353853" lon="7.015065884487024"><ele>982.5999999999999</ele><time>2026-05-02T13:26:11.999Z</time></trkpt><trkpt lat="43.76779039634647" lon="7.015214659742886"><ele>983.0</ele><time>2026-05-02T13:26:12.999Z</time></trkpt><trkpt lat="43.767723635599665" lon="7.015372700328264"><ele>981.8</ele><time>2026-05-02T13:26:13.999Z</time></trkpt><trkpt lat="43.7676723620511" lon="7.015531719721992"><ele>980.5999999999999</ele><time>2026-05-02T13:26:14.999Z</time></trkpt><trkpt lat="43.767653658937775" lon="7.015634920605437"><ele>979.4000000000001</ele><time>2026-05-02T13:26:16.999Z</time></trkpt><trkpt lat="43.76773100295697" lon="7.015722927498056"><ele>978.2</ele><time>2026-05-02T13:26:18.999Z</time></trkpt><trkpt lat="43.767798508118425" lon="7.01578390901416"><ele>977.0</ele><time>2026-05-02T13:26:19.999Z</time></trkpt><trkpt lat="43.76787671360215" lon="7.015863333921411"><ele>976.6666666666667</ele><time>2026-05-02T13:26:20.999Z</time></trkpt><trkpt lat="43.767953574790816" lon="7.015943452484899"><ele>976.3333333333334</ele><time>2026-05-02T13:26:21.999Z</time></trkpt><trkpt lat="43.768029839520814" lon="7.016015975098826"><ele>976.0</ele><time>2026-05-02T13:26:22.999Z</time></trkpt><trkpt lat="43.76810195045637" lon="7.0160602650686865"><ele>975.6666666666667</ele><time>2026-05-02T13:26:23.999Z</time></trkpt><trkpt lat="43.76819673360542" lon="7.016096110015722"><ele>975.3333333333334</ele><time>2026-05-02T13:26:24.999Z</time></trkpt><trkpt lat="43.76827770883854" lon="7.016123323518368"><ele>975.0</ele><time>2026-05-02T13:26:25.999Z</time></trkpt><trkpt lat="43.768345335674496" lon="7.016187293957344"><ele>975.0</ele><time>2026-05-02T13:26:26.999Z</time></trkpt><trkpt lat="43.768400240040606" lon="7.016267571915187"><ele>975.0</ele><time>2026-05-02T13:26:27.999Z</time></trkpt><trkpt lat="43.7684673970142" lon="7.016383841818917"><ele>975.0</ele><time>2026-05-02T13:26:28.999Z</time></trkpt><trkpt lat="43.76850273091197" lon="7.016495042592191"><ele>975.0</ele><time>2026-05-02T13:26:29.999Z</time></trkpt><trkpt lat="43.768540434648294" lon="7.016578648407366"><ele>975.0</ele><time>2026-05-02T13:26:30.999Z</time></trkpt><trkpt lat="43.768598093736436" lon="7.016624164985067"><ele>975.0</ele><time>2026-05-02T13:26:31.999Z</time></trkpt><trkpt lat="43.768675696667565" lon="7.016651546602401"><ele>976.8333333333334</ele><time>2026-05-02T13:26:32.999Z</time></trkpt><trkpt lat="43.768749309855316" lon="7.016695968407553"><ele>978.6666666666667</ele><time>2026-05-02T13:26:33.998Z</time></trkpt><trkpt lat="43.768792449901696" lon="7.016773704505776"><ele>980.5</ele><time>2026-05-02T13:26:34.998Z</time></trkpt><trkpt lat="43.76883596596147" lon="7.016871741269724"><ele>982.3333333333334</ele><time>2026-05-02T13:26:35.998Z</time></trkpt><trkpt lat="43.768910279380265" lon="7.016931110938603"><ele>984.1666666666667</ele><time>2026-05-02T13:26:36.998Z</time></trkpt><trkpt lat="43.76901465290492" lon="7.016991580127672"><ele>986.0</ele><time>2026-05-02T13:26:37.998Z</time></trkpt><trkpt lat="43.769108581837614" lon="7.017085306679163"><ele>986.0</ele><time>2026-05-02T13:26:38.998Z</time></trkpt><trkpt lat="43.769196637689596" lon="7.01716799698188"><ele>985.9999999999999</ele><time>2026-05-02T13:26:39.998Z</time></trkpt><trkpt lat="43.76928087385647" lon="7.017233875317908"><ele>985.9999999999999</ele><time>2026-05-02T13:26:40.998Z</time></trkpt><trkpt lat="43.76936526805873" lon="7.017263933627521"><ele>986.0</ele><time>2026-05-02T13:26:41.998Z</time></trkpt><trkpt lat="43.76944345543051" lon="7.017273951462124"><ele>986.0</ele><time>2026-05-02T13:26:42.998Z</time></trkpt><trkpt lat="43.76953238502697" lon="7.017310080079433"><ele>987.4</ele><time>2026-05-02T13:26:43.998Z</time></trkpt><trkpt lat="43.769625364375166" lon="7.017299780335632"><ele>988.8</ele><time>2026-05-02T13:26:44.998Z</time></trkpt><trkpt lat="43.76972781132661" lon="7.017331561493081"><ele>990.1999999999999</ele><time>2026-05-02T13:26:45.998Z</time></trkpt><trkpt lat="43.76982321285607" lon="7.01740250444741"><ele>991.5999999999999</ele><time>2026-05-02T13:26:46.998Z</time></trkpt><trkpt lat="43.76990256710044" lon="7.017486977045288"><ele>993.0</ele><time>2026-05-02T13:26:47.998Z</time></trkpt><trkpt lat="43.76997985909541" lon="7.017551080936912"><ele>993.0</ele><time>2026-05-02T13:26:48.998Z</time></trkpt><trkpt lat="43.770037213886994" lon="7.017609933231431"><ele>993.0</ele><time>2026-05-02T13:26:49.998Z</time></trkpt><trkpt lat="43.77007406265492" lon="7.017707651577223"><ele>993.0</ele><time>2026-05-02T13:26:51.998Z</time></trkpt><trkpt lat="43.770021153310566" lon="7.01783024821152"><ele>993.0</ele><time>2026-05-02T13:26:53.998Z</time></trkpt><trkpt lat="43.769958445139885" lon="7.017944689680078"><ele>993.0</ele><time>2026-05-02T13:26:54.998Z</time></trkpt><trkpt lat="43.76989851860655" lon="7.018057452399833"><ele>993.0</ele><time>2026-05-02T13:26:55.998Z</time></trkpt><trkpt lat="43.769851466277274" lon="7.018154511442099"><ele>993.0</ele><time>2026-05-02T13:26:56.998Z</time></trkpt><trkpt lat="43.76979361302655" lon="7.018258071063286"><ele>993.0</ele><time>2026-05-02T13:26:57.998Z</time></trkpt><trkpt lat="43.769764321908774" lon="7.018370759333734"><ele>993.0</ele><time>2026-05-02T13:26:58.998Z</time></trkpt><trkpt lat="43.76977170088475" lon="7.018458316908292"><ele>993.0</ele><time>2026-05-02T13:26:59.998Z</time></trkpt><trkpt lat="43.76980159683993" lon="7.01853662843894"><ele>993.0</ele><time>2026-05-02T13:27:00.998Z</time></trkpt><trkpt lat="43.76983134499255" lon="7.018655745735183"><ele>991.75</ele><time>2026-05-02T13:27:02.998Z</time></trkpt><trkpt lat="43.769706856655226" lon="7.018780457175654"><ele>990.5</ele><time>2026-05-02T13:27:04.998Z</time></trkpt><trkpt lat="43.76961154027209" lon="7.01885673431416"><ele>989.25</ele><time>2026-05-02T13:27:05.998Z</time></trkpt><trkpt lat="43.76953861755746" lon="7.018965788467507"><ele>988.0</ele><time>2026-05-02T13:27:06.998Z</time></trkpt><trkpt lat="43.76946811244549" lon="7.019058317351815"><ele>988.0</ele><time>2026-05-02T13:27:08Z</time></trkpt><trkpt lat="43.76943073550882" lon="7.019138071908775"><ele>988.0</ele><time>2026-05-02T13:27:09Z</time></trkpt><trkpt lat="43.769389114961" lon="7.019340862471157"><ele>988.0</ele><time>2026-05-02T13:27:11Z</time></trkpt><trkpt lat="43.76941188875177" lon="7.019471496490117"><ele>988.0</ele><time>2026-05-02T13:27:12Z</time></trkpt><trkpt lat="43.76937019902025" lon="7.0195640903671706"><ele>988.0</ele><time>2026-05-02T13:27:13Z</time></trkpt><trkpt lat="43.76930710847417" lon="7.019621085551382"><ele>987.3333333333333</ele><time>2026-05-02T13:27:14Z</time></trkpt><trkpt lat="43.76922051484853" lon="7.0196485174436285"><ele>986.6666666666666</ele><time>2026-05-02T13:27:15Z</time></trkpt><trkpt lat="43.76911558773266" lon="7.019613108435969"><ele>986.0</ele><time>2026-05-02T13:27:16Z</time></trkpt><trkpt lat="43.76902572819459" lon="7.019595722432477"><ele>985.3333333333333</ele><time>2026-05-02T13:27:17Z</time></trkpt><trkpt lat="43.76894785726212" lon="7.019612138218556"><ele>984.6666666666666</ele><time>2026-05-02T13:27:18Z</time></trkpt><trkpt lat="43.76887399274679" lon="7.019647954384609"><ele>984.0</ele><time>2026-05-02T13:27:19Z</time></trkpt><trkpt lat="43.768792285103075" lon="7.0197170648943334"><ele>984.0</ele><time>2026-05-02T13:27:20Z</time></trkpt><trkpt lat="43.76870827987893" lon="7.019801477818192"><ele>984.0000000000001</ele><time>2026-05-02T13:27:21Z</time></trkpt><trkpt lat="43.76864637538171" lon="7.019890089747984"><ele>984.0000000000001</ele><time>2026-05-02T13:27:22Z</time></trkpt><trkpt lat="43.76859315380317" lon="7.020018190921817"><ele>984.0</ele><time>2026-05-02T13:27:23Z</time></trkpt><trkpt lat="43.768534496795034" lon="7.020182281540516"><ele>984.0</ele><time>2026-05-02T13:27:24Z</time></trkpt><trkpt lat="43.768461884853316" lon="7.020313134918581"><ele>984.3333333333334</ele><time>2026-05-02T13:27:25Z</time></trkpt><trkpt lat="43.76838182743827" lon="7.020416135427079"><ele>984.6666666666667</ele><time>2026-05-02T13:27:26Z</time></trkpt><trkpt lat="43.76831392824508" lon="7.020492777682475"><ele>985.0</ele><time>2026-05-02T13:27:27Z</time></trkpt><trkpt lat="43.768262877712516" lon="7.020562812135566"><ele>985.3333333333334</ele><time>2026-05-02T13:27:28Z</time></trkpt><trkpt lat="43.768223940635934" lon="7.020640305306914"><ele>985.6666666666667</ele><time>2026-05-02T13:27:29Z</time></trkpt><trkpt lat="43.76821434487278" lon="7.020755654033786"><ele>986.0</ele><time>2026-05-02T13:27:30Z</time></trkpt><trkpt lat="43.768206297827916" lon="7.020879802028208"><ele>987.4</ele><time>2026-05-02T13:27:31Z</time></trkpt><trkpt lat="43.76820797603139" lon="7.021013944345299"><ele>988.8</ele><time>2026-05-02T13:27:32Z</time></trkpt><trkpt lat="43.768226079673035" lon="7.0211641126913085"><ele>990.1999999999999</ele><time>2026-05-02T13:27:33Z</time></trkpt><trkpt lat="43.76825081933525" lon="7.021313126048552"><ele>991.5999999999999</ele><time>2026-05-02T13:27:34Z</time></trkpt><trkpt lat="43.76827133520555" lon="7.021453078813457"><ele>993.0</ele><time>2026-05-02T13:27:35Z</time></trkpt><trkpt lat="43.76828870079719" lon="7.021575487563802"><ele>993.5714285714286</ele><time>2026-05-02T13:27:36Z</time></trkpt><trkpt lat="43.768283708030374" lon="7.021662430020571"><ele>994.1428571428571</ele><time>2026-05-02T13:27:36.999Z</time></trkpt><trkpt lat="43.76825123940919" lon="7.0217573114092176"><ele>994.7142857142857</ele><time>2026-05-02T13:27:37.999Z</time></trkpt><trkpt lat="43.76821617650161" lon="7.021851518963318"><ele>995.2857142857142</ele><time>2026-05-02T13:27:38.999Z</time></trkpt><trkpt lat="43.76820325704577" lon="7.021950283488644"><ele>995.8571428571429</ele><time>2026-05-02T13:27:39.999Z</time></trkpt><trkpt lat="43.76819906796214" lon="7.02206045139402"><ele>996.4285714285713</ele><time>2026-05-02T13:27:40.999Z</time></trkpt><trkpt lat="43.768183471579086" lon="7.02217057450363"><ele>996.9999999999999</ele><time>2026-05-02T13:27:41.999Z</time></trkpt><trkpt lat="43.76815999061419" lon="7.022292460946572"><ele>996.9999999999999</ele><time>2026-05-02T13:27:42.999Z</time></trkpt><trkpt lat="43.76815636767598" lon="7.022415252510794"><ele>997.0</ele><time>2026-05-02T13:27:43.999Z</time></trkpt><trkpt lat="43.76816172460542" lon="7.022527166760828"><ele>997.0</ele><time>2026-05-02T13:27:44.999Z</time></trkpt><trkpt lat="43.768183022995764" lon="7.022635674734128"><ele>997.0</ele><time>2026-05-02T13:27:45.999Z</time></trkpt><trkpt lat="43.76822386493715" lon="7.022741188486565"><ele>996.9999999999999</ele><time>2026-05-02T13:27:46.999Z</time></trkpt><trkpt lat="43.768273218678694" lon="7.022846324966161"><ele>997.0</ele><time>2026-05-02T13:27:47.999Z</time></trkpt><trkpt lat="43.76832453436187" lon="7.022949520600184"><ele>997.8333333333333</ele><time>2026-05-02T13:27:48.999Z</time></trkpt><trkpt lat="43.768357595026536" lon="7.023094444762964"><ele>998.6666666666666</ele><time>2026-05-02T13:27:50.999Z</time></trkpt><trkpt lat="43.76836821883292" lon="7.023270513330594"><ele>999.5</ele><time>2026-05-02T13:27:52.999Z</time></trkpt><trkpt lat="43.76835233772304" lon="7.023360019868716"><ele>1000.3333333333333</ele><time>2026-05-02T13:27:53.999Z</time></trkpt><trkpt lat="43.76831387140428" lon="7.023438482014505"><ele>1001.1666666666666</ele><time>2026-05-02T13:27:54.999Z</time></trkpt><trkpt lat="43.768253001131036" lon="7.023486941880943"><ele>1002.0</ele><time>2026-05-02T13:27:55.999Z</time></trkpt><trkpt lat="43.768164629131064" lon="7.023487769817313"><ele>1004.2</ele><time>2026-05-02T13:27:56.999Z</time></trkpt><trkpt lat="43.768064449374286" lon="7.023459146159215"><ele>1006.4000000000001</ele><time>2026-05-02T13:27:57.999Z</time></trkpt><trkpt lat="43.76795582994813" lon="7.023439396793077"><ele>1008.5999999999999</ele><time>2026-05-02T13:27:58.999Z</time></trkpt><trkpt lat="43.767856674340344" lon="7.0234593197461885"><ele>1010.8</ele><time>2026-05-02T13:27:59.999Z</time></trkpt><trkpt lat="43.76777066920355" lon="7.023495110845906"><ele>1013.0</ele><time>2026-05-02T13:28:00.999Z</time></trkpt><trkpt lat="43.767705146620585" lon="7.023547767505666"><ele>1013.0000000000001</ele><time>2026-05-02T13:28:01.999Z</time></trkpt><trkpt lat="43.76766008581461" lon="7.023627101076658"><ele>1013.0</ele><time>2026-05-02T13:28:02.999Z</time></trkpt><trkpt lat="43.76764815007423" lon="7.023722922330648"><ele>1013.0</ele><time>2026-05-02T13:28:03.999Z</time></trkpt><trkpt lat="43.767670372261726" lon="7.023807371719039"><ele>1013.0</ele><time>2026-05-02T13:28:04.999Z</time></trkpt><trkpt lat="43.767709943340776" lon="7.023879143631006"><ele>1013.0000000000001</ele><time>2026-05-02T13:28:05.999Z</time></trkpt><trkpt lat="43.76775865147817" lon="7.023985836590971"><ele>1013.0</ele><time>2026-05-02T13:28:06.999Z</time></trkpt><trkpt lat="43.76781436651038" lon="7.024108871347235"><ele>1013.25</ele><time>2026-05-02T13:28:07.999Z</time></trkpt><trkpt lat="43.76786859565339" lon="7.024240217327654"><ele>1013.5</ele><time>2026-05-02T13:28:08.999Z</time></trkpt><trkpt lat="43.767946668098155" lon="7.02437079371224"><ele>1013.75</ele><time>2026-05-02T13:28:09.999Z</time></trkpt><trkpt lat="43.768036734777986" lon="7.024500693934603"><ele>1014.0</ele><time>2026-05-02T13:28:10.999Z</time></trkpt><trkpt lat="43.76813394537488" lon="7.024640799524871"><ele>1014.0</ele><time>2026-05-02T13:28:11.999Z</time></trkpt><trkpt lat="43.76822938735104" lon="7.024782973946174"><ele>1014.0</ele><time>2026-05-02T13:28:12.999Z</time></trkpt><trkpt lat="43.768325718584954" lon="7.024907916295498"><ele>1014.0</ele><time>2026-05-02T13:28:13.999Z</time></trkpt><trkpt lat="43.76843230782189" lon="7.025040867270856"><ele>1014.0</ele><time>2026-05-02T13:28:14.999Z</time></trkpt><trkpt lat="43.768538091634355" lon="7.025169780666061"><ele>1014.0</ele><time>2026-05-02T13:28:15.999Z</time></trkpt><trkpt lat="43.768639964092934" lon="7.025297583835427"><ele>1014.0</ele><time>2026-05-02T13:28:16.999Z</time></trkpt><trkpt lat="43.76873449928552" lon="7.0254071394366955"><ele>1014.0</ele><time>2026-05-02T13:28:17.999Z</time></trkpt><trkpt lat="43.768803759791545" lon="7.025517521404062"><ele>1014.0</ele><time>2026-05-02T13:28:18.999Z</time></trkpt><trkpt lat="43.768870512821046" lon="7.025631680156165"><ele>1014.0</ele><time>2026-05-02T13:28:19.999Z</time></trkpt><trkpt lat="43.76893680158182" lon="7.025755577719913"><ele>1014.0</ele><time>2026-05-02T13:28:20.999Z</time></trkpt><trkpt lat="43.768996978109094" lon="7.025853354297283"><ele>1014.0</ele><time>2026-05-02T13:28:21.999Z</time></trkpt><trkpt lat="43.768929740058724" lon="7.025895262339253"><ele>1014.0</ele><time>2026-05-02T13:28:36.999Z</time></trkpt><trkpt lat="43.76893136680481" lon="7.025992031066973"><ele>1014.0</ele><time>2026-05-02T13:28:45.998Z</time></trkpt><trkpt lat="43.76896605659678" lon="7.026069620144108"><ele>1014.0</ele><time>2026-05-02T13:28:47.998Z</time></trkpt><trkpt lat="43.76899163637626" lon="7.02617620692867"><ele>1015.0</ele><time>2026-05-02T13:28:50.998Z</time></trkpt><trkpt lat="43.76898399238471" lon="7.026310222354313"><ele>1016.0000000000001</ele><time>2026-05-02T13:28:56.998Z</time></trkpt><trkpt lat="43.76893017562573" lon="7.026393227312907"><ele>1017.0000000000001</ele><time>2026-05-02T13:28:57.998Z</time></trkpt><trkpt lat="43.76886602792904" lon="7.02649776436471"><ele>1018.0</ele><time>2026-05-02T13:28:58.998Z</time></trkpt><trkpt lat="43.7688111555833" lon="7.026621246809853"><ele>1019.0</ele><time>2026-05-02T13:28:59.998Z</time></trkpt><trkpt lat="43.76877023546128" lon="7.0267470323765355"><ele>1019.1666666666667</ele><time>2026-05-02T13:29:00.998Z</time></trkpt><trkpt lat="43.76872180086852" lon="7.026839860895517"><ele>1019.3333333333334</ele><time>2026-05-02T13:29:01.998Z</time></trkpt><trkpt lat="43.768667087667566" lon="7.026945160599429"><ele>1019.5</ele><time>2026-05-02T13:29:03.998Z</time></trkpt><trkpt lat="43.768593120822516" lon="7.026923141696687"><ele>1019.6666666666667</ele><time>2026-05-02T13:29:06.998Z</time></trkpt><trkpt lat="43.76853845103001" lon="7.026862697570779"><ele>1019.8333333333334</ele><time>2026-05-02T13:29:09.998Z</time></trkpt><trkpt lat="43.76846303684388" lon="7.026907684012132"><ele>1020.0</ele><time>2026-05-02T13:29:14Z</time></trkpt><trkpt lat="43.768386833206456" lon="7.026873665688172"><ele>1020.0</ele><time>2026-05-02T13:29:17Z</time></trkpt><trkpt lat="43.76831760724274" lon="7.026838744311866"><ele>1020.0</ele><time>2026-05-02T13:29:19Z</time></trkpt><trkpt lat="43.7682516824349" lon="7.026798884108016"><ele>1020.0</ele><time>2026-05-02T13:29:21Z</time></trkpt><trkpt lat="43.76813459491203" lon="7.026744799473644"><ele>1020.0</ele><time>2026-05-02T13:29:23Z</time></trkpt><trkpt lat="43.768042279359506" lon="7.026698015185245"><ele>1020.0</ele><time>2026-05-02T13:29:24Z</time></trkpt><trkpt lat="43.76794759733544" lon="7.026619738646797"><ele>1020.0</ele><time>2026-05-02T13:29:25Z</time></trkpt><trkpt lat="43.76786155202959" lon="7.026544876431696"><ele>1020.0</ele><time>2026-05-02T13:29:26Z</time></trkpt><trkpt lat="43.76778535845248" lon="7.026482329454179"><ele>1020.0</ele><time>2026-05-02T13:29:27Z</time></trkpt><trkpt lat="43.7677132001445" lon="7.026427280086716"><ele>1020.0</ele><time>2026-05-02T13:29:28Z</time></trkpt><trkpt lat="43.76764974441875" lon="7.026387106040083"><ele>1020.0</ele><time>2026-05-02T13:29:29Z</time></trkpt><trkpt lat="43.76758569998596" lon="7.026317677298883"><ele>1020.0</ele><time>2026-05-02T13:29:30Z</time></trkpt><trkpt lat="43.767508655768324" lon="7.026279903488399"><ele>1019.6</ele><time>2026-05-02T13:29:31Z</time></trkpt><trkpt lat="43.767416872508" lon="7.026227613826807"><ele>1019.2</ele><time>2026-05-02T13:29:32Z</time></trkpt><trkpt lat="43.76732602827223" lon="7.026157340802173"><ele>1018.8</ele><time>2026-05-02T13:29:33Z</time></trkpt><trkpt lat="43.76722750807715" lon="7.026081786008141"><ele>1018.4</ele><time>2026-05-02T13:29:34Z</time></trkpt><trkpt lat="43.76712151724603" lon="7.026000269840523"><ele>1018.0</ele><time>2026-05-02T13:29:35Z</time></trkpt><trkpt lat="43.76701378854738" lon="7.025923493496503"><ele>1018.0</ele><time>2026-05-02T13:29:36Z</time></trkpt><trkpt lat="43.76692085836298" lon="7.0258470813321505"><ele>1018.0</ele><time>2026-05-02T13:29:37Z</time></trkpt><trkpt lat="43.766833526503206" lon="7.02578003617365"><ele>1018.0</ele><time>2026-05-02T13:29:38Z</time></trkpt><trkpt lat="43.76675121800459" lon="7.025721118226101"><ele>1018.0</ele><time>2026-05-02T13:29:39Z</time></trkpt><trkpt lat="43.76667619275707" lon="7.025679468480263"><ele>1018.0</ele><time>2026-05-02T13:29:40Z</time></trkpt><trkpt lat="43.76660676024158" lon="7.025627324273478"><ele>1018.1666666666666</ele><time>2026-05-02T13:29:41Z</time></trkpt><trkpt lat="43.766541911956104" lon="7.025572206508488"><ele>1018.3333333333333</ele><time>2026-05-02T13:29:41.999Z</time></trkpt><trkpt lat="43.7664813344069" lon="7.025522581450456"><ele>1018.5</ele><time>2026-05-02T13:29:42.999Z</time></trkpt><trkpt lat="43.76641547878048" lon="7.0254882373360505"><ele>1018.6666666666667</ele><time>2026-05-02T13:29:43.999Z</time></trkpt><trkpt lat="43.76635464246389" lon="7.025445083882105"><ele>1018.8333333333334</ele><time>2026-05-02T13:29:44.999Z</time></trkpt><trkpt lat="43.76624989348792" lon="7.025359330261095"><ele>1019.0</ele><time>2026-05-02T13:29:46.999Z</time></trkpt><trkpt lat="43.766160407909005" lon="7.025284583380933"><ele>1019.0</ele><time>2026-05-02T13:29:48.999Z</time></trkpt><trkpt lat="43.76607072308459" lon="7.0252240236286925"><ele>1019.0000000000001</ele><time>2026-05-02T13:29:50.999Z</time></trkpt><trkpt lat="43.765978164358415" lon="7.025147135758698"><ele>1019.0000000000001</ele><time>2026-05-02T13:29:52.999Z</time></trkpt><trkpt lat="43.76587012018634" lon="7.025067687156354"><ele>1019.0</ele><time>2026-05-02T13:29:54.999Z</time></trkpt><trkpt lat="43.7657615586896" lon="7.024999977878851"><ele>1019.0</ele><time>2026-05-02T13:29:56.999Z</time></trkpt><trkpt lat="43.765686729511124" lon="7.024938172547652"><ele>1019.6</ele><time>2026-05-02T13:29:57.999Z</time></trkpt><trkpt lat="43.76560861519215" lon="7.024871603292148"><ele>1020.2</ele><time>2026-05-02T13:29:58.999Z</time></trkpt><trkpt lat="43.765525212397755" lon="7.0247798926366425"><ele>1020.8000000000001</ele><time>2026-05-02T13:29:59.999Z</time></trkpt><trkpt lat="43.76545050171009" lon="7.024726447431107"><ele>1021.4000000000001</ele><time>2026-05-02T13:30:00.999Z</time></trkpt><trkpt lat="43.76535890636744" lon="7.024709965461465"><ele>1022.0</ele><time>2026-05-02T13:30:01.999Z</time></trkpt><trkpt lat="43.7652600307921" lon="7.024707928394205"><ele>1021.0</ele><time>2026-05-02T13:30:02.999Z</time></trkpt><trkpt lat="43.765142789631746" lon="7.024722688161352"><ele>1020.0</ele><time>2026-05-02T13:30:03.999Z</time></trkpt><trkpt lat="43.76501307007675" lon="7.024739100903677"><ele>1019.0</ele><time>2026-05-02T13:30:04.999Z</time></trkpt><trkpt lat="43.764882308721255" lon="7.0247338641970805"><ele>1018.0</ele><time>2026-05-02T13:30:05.999Z</time></trkpt><trkpt lat="43.76477798452066" lon="7.024728183822753"><ele>1018.0</ele><time>2026-05-02T13:30:06.999Z</time></trkpt><trkpt lat="43.764676205916324" lon="7.024695737850268"><ele>1018.0</ele><time>2026-05-02T13:30:07.999Z</time></trkpt><trkpt lat="43.76458749423579" lon="7.024659888397466"><ele>1018.0</ele><time>2026-05-02T13:30:08.999Z</time></trkpt><trkpt lat="43.76449181151594" lon="7.024617706588105"><ele>1018.0</ele><time>2026-05-02T13:30:09.999Z</time></trkpt><trkpt lat="43.76438796151752" lon="7.024596586463338"><ele>1018.0</ele><time>2026-05-02T13:30:10.999Z</time></trkpt><trkpt lat="43.764290359093614" lon="7.024558100085701"><ele>1016.4999999999999</ele><time>2026-05-02T13:30:11.999Z</time></trkpt><trkpt lat="43.764196134072726" lon="7.024511740810252"><ele>1015.0</ele><time>2026-05-02T13:30:12.999Z</time></trkpt><trkpt lat="43.76411405277802" lon="7.024448477433398"><ele>1013.5</ele><time>2026-05-02T13:30:13.999Z</time></trkpt><trkpt lat="43.76404205529172" lon="7.024377004876446"><ele>1012.0</ele><time>2026-05-02T13:30:14.999Z</time></trkpt><trkpt lat="43.76397152186436" lon="7.024303268086878"><ele>1010.4999999999999</ele><time>2026-05-02T13:30:15.999Z</time></trkpt><trkpt lat="43.76390170983693" lon="7.024255720216808"><ele>1009.0</ele><time>2026-05-02T13:30:16.999Z</time></trkpt><trkpt lat="43.763814443304014" lon="7.024188093890101"><ele>1009.8000000000001</ele><time>2026-05-02T13:30:17.999Z</time></trkpt><trkpt lat="43.763706846881355" lon="7.024107401725468"><ele>1010.6000000000001</ele><time>2026-05-02T13:30:18.999Z</time></trkpt><trkpt lat="43.76360346830442" lon="7.0240270701301855"><ele>1011.4</ele><time>2026-05-02T13:30:19.999Z</time></trkpt><trkpt lat="43.7635056243418" lon="7.0239656749947725"><ele>1012.2</ele><time>2026-05-02T13:30:20.999Z</time></trkpt><trkpt lat="43.763428197347366" lon="7.023903516524459"><ele>1013.0</ele><time>2026-05-02T13:30:21.999Z</time></trkpt><trkpt lat="43.763357063577274" lon="7.023851672969873"><ele>1011.1666666666667</ele><time>2026-05-02T13:30:22.999Z</time></trkpt><trkpt lat="43.76329211545013" lon="7.023795629265738"><ele>1009.3333333333334</ele><time>2026-05-02T13:30:23.999Z</time></trkpt><trkpt lat="43.76322803624659" lon="7.023732726510207"><ele>1007.5</ele><time>2026-05-02T13:30:24.999Z</time></trkpt><trkpt lat="43.763167775531144" lon="7.02367038195039"><ele>1005.6666666666667</ele><time>2026-05-02T13:30:25.999Z</time></trkpt><trkpt lat="43.76311260220348" lon="7.023615371944021"><ele>1003.8333333333334</ele><time>2026-05-02T13:30:26.999Z</time></trkpt><trkpt lat="43.76306677641007" lon="7.0235317089415785"><ele>1002.0</ele><time>2026-05-02T13:30:27.999Z</time></trkpt><trkpt lat="43.76303115742551" lon="7.023436907283649"><ele>1002.0</ele><time>2026-05-02T13:30:28.999Z</time></trkpt><trkpt lat="43.7630012311868" lon="7.02335350904147"><ele>1002.0</ele><time>2026-05-02T13:30:29.999Z</time></trkpt><trkpt lat="43.76297377736149" lon="7.023252284284085"><ele>1002.0</ele><time>2026-05-02T13:30:31.999Z</time></trkpt><trkpt lat="43.7629263186045" lon="7.023102569402546"><ele>1002.0</ele><time>2026-05-02T13:30:42.999Z</time></trkpt><trkpt lat="43.76288814434733" lon="7.0230178136506"><ele>1002.0</ele><time>2026-05-02T13:30:43.999Z</time></trkpt><trkpt lat="43.76285780865195" lon="7.022932927894218"><ele>1002.0</ele><time>2026-05-02T13:30:44.998Z</time></trkpt><trkpt lat="43.762808762300665" lon="7.022812441989589"><ele>1001.8</ele><time>2026-05-02T13:30:46.998Z</time></trkpt><trkpt lat="43.76274463864709" lon="7.022702773011621"><ele>1001.6</ele><time>2026-05-02T13:30:48.998Z</time></trkpt><trkpt lat="43.76269327093173" lon="7.022575856136571"><ele>1001.3999999999999</ele><time>2026-05-02T13:30:50.998Z</time></trkpt><trkpt lat="43.76264216797575" lon="7.022454327987115"><ele>1001.1999999999999</ele><time>2026-05-02T13:30:52.998Z</time></trkpt><trkpt lat="43.76258438456419" lon="7.022316655356604"><ele>1001.0</ele><time>2026-05-02T13:30:54.998Z</time></trkpt><trkpt lat="43.76255853796044" lon="7.022228056603374"><ele>999.1999999999999</ele><time>2026-05-02T13:30:55.998Z</time></trkpt><trkpt lat="43.76250384344712" lon="7.022077468241404"><ele>997.3999999999999</ele><time>2026-05-02T13:30:57.998Z</time></trkpt><trkpt lat="43.7624577532858" lon="7.021949340756578"><ele>995.6</ele><time>2026-05-02T13:30:59.998Z</time></trkpt><trkpt lat="43.76241721459197" lon="7.0218456066349795"><ele>993.8</ele><time>2026-05-02T13:31:01.998Z</time></trkpt><trkpt lat="43.7624106983225" lon="7.021724337858217"><ele>992.0</ele><time>2026-05-02T13:31:04.998Z</time></trkpt><trkpt lat="43.762449059227905" lon="7.021545878410038"><ele>992.0000000000001</ele><time>2026-05-02T13:31:06.998Z</time></trkpt><trkpt lat="43.762465813991945" lon="7.021417827571064"><ele>992.0</ele><time>2026-05-02T13:31:08.998Z</time></trkpt><trkpt lat="43.76239205431135" lon="7.0214102552240485"><ele>992.0</ele><time>2026-05-02T13:31:10.998Z</time></trkpt><trkpt lat="43.76230495520662" lon="7.021417828172294"><ele>992.0</ele><time>2026-05-02T13:31:13.998Z</time></trkpt><trkpt lat="43.76224239964665" lon="7.021400421385393"><ele>992.0000000000001</ele><time>2026-05-02T13:31:15.998Z</time></trkpt><trkpt lat="43.762175121232445" lon="7.021377278498635"><ele>992.0</ele><time>2026-05-02T13:31:23Z</time></trkpt><trkpt lat="43.76211637659018" lon="7.021343028229133"><ele>992.0000000000001</ele><time>2026-05-02T13:31:26Z</time></trkpt><trkpt lat="43.76202810034169" lon="7.021318167782853"><ele>992.0</ele><time>2026-05-02T13:31:28Z</time></trkpt><trkpt lat="43.7619694739048" lon="7.02138786041688"><ele>992.0</ele><time>2026-05-02T13:31:31Z</time></trkpt><trkpt lat="43.761912150033965" lon="7.021456379177626"><ele>992.0</ele><time>2026-05-02T13:31:34Z</time></trkpt><trkpt lat="43.76184177580531" lon="7.021484549022238"><ele>992.0000000000001</ele><time>2026-05-02T13:31:41Z</time></trkpt><trkpt lat="43.76176379458411" lon="7.021532140773823"><ele>992.0</ele><time>2026-05-02T13:31:48Z</time></trkpt><trkpt lat="43.76169413572631" lon="7.0214294545022256"><ele>989.6</ele><time>2026-05-02T13:31:50.999Z</time></trkpt><trkpt lat="43.76163067732105" lon="7.021416738538653"><ele>987.2</ele><time>2026-05-02T13:31:53.999Z</time></trkpt><trkpt lat="43.76156249311355" lon="7.021458042266888"><ele>984.8</ele><time>2026-05-02T13:31:56.999Z</time></trkpt><trkpt lat="43.76150254616736" lon="7.021408239112445"><ele>982.4</ele><time>2026-05-02T13:32:02.999Z</time></trkpt><trkpt lat="43.761453406821964" lon="7.021257603601546"><ele>980.0</ele><time>2026-05-02T13:32:05.999Z</time></trkpt><trkpt lat="43.76143543674793" lon="7.021064802968428"><ele>980.0</ele><time>2026-05-02T13:32:08.999Z</time></trkpt><trkpt lat="43.761399910826526" lon="7.020972520868546"><ele>980.0</ele><time>2026-05-02T13:32:09.999Z</time></trkpt><trkpt lat="43.76132118766722" lon="7.020886926681401"><ele>980.0</ele><time>2026-05-02T13:32:11.999Z</time></trkpt><trkpt lat="43.76122004643539" lon="7.020852877726726"><ele>980.0</ele><time>2026-05-02T13:32:13.999Z</time></trkpt><trkpt lat="43.7611283571049" lon="7.020814699956349"><ele>980.0</ele><time>2026-05-02T13:32:15.999Z</time></trkpt><trkpt lat="43.76106234928659" lon="7.0207497759002955"><ele>977.6666666666667</ele><time>2026-05-02T13:32:17.999Z</time></trkpt><trkpt lat="43.76101093025171" lon="7.020625222163047"><ele>975.3333333333334</ele><time>2026-05-02T13:32:19.999Z</time></trkpt><trkpt lat="43.760989040291626" lon="7.02050819627742"><ele>973.0</ele><time>2026-05-02T13:32:21.999Z</time></trkpt><trkpt lat="43.76095327295857" lon="7.020393013704942"><ele>970.6666666666667</ele><time>2026-05-02T13:32:23.999Z</time></trkpt><trkpt lat="43.76089421563903" lon="7.020291989843307"><ele>968.3333333333334</ele><time>2026-05-02T13:32:25.999Z</time></trkpt><trkpt lat="43.760838320459634" lon="7.02023307276124"><ele>966.0</ele><time>2026-05-02T13:32:27.999Z</time></trkpt><trkpt lat="43.760760324857024" lon="7.020250139429955"><ele>966.0</ele><time>2026-05-02T13:32:29.999Z</time></trkpt><trkpt lat="43.760700557276095" lon="7.0202195355159835"><ele>966.0</ele><time>2026-05-02T13:32:31.999Z</time></trkpt><trkpt lat="43.76064472995857" lon="7.0201262798036055"><ele>966.0</ele><time>2026-05-02T13:32:34.999Z</time></trkpt><trkpt lat="43.76067341047811" lon="7.020027669962871"><ele>966.0</ele><time>2026-05-02T13:32:37.999Z</time></trkpt><trkpt lat="43.760610802669405" lon="7.019939368115402"><ele>966.0</ele><time>2026-05-02T13:32:41.999Z</time></trkpt><trkpt lat="43.76051888702491" lon="7.019895906289112"><ele>966.0</ele><time>2026-05-02T13:32:43.999Z</time></trkpt><trkpt lat="43.76038718703237" lon="7.01989123437841"><ele>966.6666666666666</ele><time>2026-05-02T13:32:45.999Z</time></trkpt><trkpt lat="43.760327102426466" lon="7.019924395562617"><ele>967.3333333333333</ele><time>2026-05-02T13:32:46.999Z</time></trkpt><trkpt lat="43.76026986572918" lon="7.019859471435714"><ele>968.0</ele><time>2026-05-02T13:32:48.999Z</time></trkpt><trkpt lat="43.760296372747966" lon="7.019730740666036"><ele>968.6666666666666</ele><time>2026-05-02T13:32:50.999Z</time></trkpt><trkpt lat="43.76022744922192" lon="7.019618709327724"><ele>969.3333333333333</ele><time>2026-05-02T13:32:52.999Z</time></trkpt><trkpt lat="43.76013904738378" lon="7.019597914249768"><ele>970.0</ele><time>2026-05-02T13:32:53.999Z</time></trkpt><trkpt lat="43.7600347213565" lon="7.019628865975215"><ele>968.0</ele><time>2026-05-02T13:32:54.998Z</time></trkpt><trkpt lat="43.75992659090273" lon="7.019681244878981"><ele>966.0</ele><time>2026-05-02T13:32:55.998Z</time></trkpt><trkpt lat="43.75981693801544" lon="7.019701103875698"><ele>964.0</ele><time>2026-05-02T13:32:56.998Z</time></trkpt><trkpt lat="43.75972178851396" lon="7.01966994696291"><ele>962.0</ele><time>2026-05-02T13:32:57.998Z</time></trkpt><trkpt lat="43.759647635929944" lon="7.019591839058789"><ele>960.0</ele><time>2026-05-02T13:32:58.998Z</time></trkpt><trkpt lat="43.75959009189661" lon="7.019498156962182"><ele>960.0</ele><time>2026-05-02T13:32:59.998Z</time></trkpt><trkpt lat="43.75954222601778" lon="7.019414311397857"><ele>960.0</ele><time>2026-05-02T13:33:00.998Z</time></trkpt><trkpt lat="43.7594556305175" lon="7.019338890812308"><ele>960.0</ele><time>2026-05-02T13:33:01.998Z</time></trkpt><trkpt lat="43.75934870508735" lon="7.019307779926054"><ele>960.0</ele><time>2026-05-02T13:33:02.998Z</time></trkpt><trkpt lat="43.75925097050537" lon="7.019320239512047"><ele>960.0</ele><time>2026-05-02T13:33:03.998Z</time></trkpt><trkpt lat="43.75915684772123" lon="7.019338387389068"><ele>960.25</ele><time>2026-05-02T13:33:04.998Z</time></trkpt><trkpt lat="43.75905781414219" lon="7.019346626437004"><ele>960.5</ele><time>2026-05-02T13:33:05.998Z</time></trkpt><trkpt lat="43.75895681823915" lon="7.019335735683478"><ele>960.75</ele><time>2026-05-02T13:33:06.998Z</time></trkpt><trkpt lat="43.758844930274" lon="7.019287843287525"><ele>961.0</ele><time>2026-05-02T13:33:07.998Z</time></trkpt><trkpt lat="43.75871454601008" lon="7.019242574342601"><ele>961.0</ele><time>2026-05-02T13:33:08.998Z</time></trkpt><trkpt lat="43.758581115273955" lon="7.019203268321639"><ele>961.0</ele><time>2026-05-02T13:33:09.998Z</time></trkpt><trkpt lat="43.758466079069535" lon="7.019171877989997"><ele>961.0</ele><time>2026-05-02T13:33:10.998Z</time></trkpt><trkpt lat="43.75836479030633" lon="7.019134670637612"><ele>961.0</ele><time>2026-05-02T13:33:11.998Z</time></trkpt><trkpt lat="43.758270501824875" lon="7.0190756294261165"><ele>960.1666666666666</ele><time>2026-05-02T13:33:12.998Z</time></trkpt><trkpt lat="43.758188763864624" lon="7.019014934651844"><ele>959.3333333333333</ele><time>2026-05-02T13:33:13.998Z</time></trkpt><trkpt lat="43.7581121445461" lon="7.0190051127249475"><ele>958.5</ele><time>2026-05-02T13:33:14.998Z</time></trkpt><trkpt lat="43.758044977718505" lon="7.019012503517073"><ele>957.6666666666667</ele><time>2026-05-02T13:33:15.998Z</time></trkpt><trkpt lat="43.75793939196212" lon="7.019030127481116"><ele>956.8333333333334</ele><time>2026-05-02T13:33:17.998Z</time></trkpt><trkpt lat="43.75786638705499" lon="7.019024875450811"><ele>956.0</ele><time>2026-05-02T13:33:18.998Z</time></trkpt><trkpt lat="43.75779261839662" lon="7.018987721441853"><ele>954.75</ele><time>2026-05-02T13:33:19.998Z</time></trkpt><trkpt lat="43.75769334830176" lon="7.0189350400939015"><ele>953.5</ele><time>2026-05-02T13:33:20.998Z</time></trkpt><trkpt lat="43.757576645322736" lon="7.018882755845605"><ele>952.25</ele><time>2026-05-02T13:33:21.998Z</time></trkpt><trkpt lat="43.757445501825345" lon="7.018832110199925"><ele>951.0</ele><time>2026-05-02T13:33:22.998Z</time></trkpt><trkpt lat="43.75730707056749" lon="7.01877522353253"><ele>951.0</ele><time>2026-05-02T13:33:23.998Z</time></trkpt><trkpt lat="43.75715939109183" lon="7.018723118414652"><ele>951.0</ele><time>2026-05-02T13:33:25Z</time></trkpt><trkpt lat="43.75701796100982" lon="7.018667033220474"><ele>951.0</ele><time>2026-05-02T13:33:26Z</time></trkpt><trkpt lat="43.756893351079285" lon="7.018626180620911"><ele>951.0</ele><time>2026-05-02T13:33:27Z</time></trkpt><trkpt lat="43.75677406181197" lon="7.018585350957065"><ele>949.8</ele><time>2026-05-02T13:33:28Z</time></trkpt><trkpt lat="43.756661969163154" lon="7.018545444212924"><ele>948.5999999999999</ele><time>2026-05-02T13:33:29Z</time></trkpt><trkpt lat="43.756557453378974" lon="7.018515950761913"><ele>947.4</ele><time>2026-05-02T13:33:30Z</time></trkpt><trkpt lat="43.75645810904962" lon="7.018490589901941"><ele>946.2</ele><time>2026-05-02T13:33:31Z</time></trkpt><trkpt lat="43.756361511332685" lon="7.018462607919984"><ele>945.0</ele><time>2026-05-02T13:33:32Z</time></trkpt><trkpt lat="43.75627656359527" lon="7.018419178479493"><ele>945.0</ele><time>2026-05-02T13:33:33Z</time></trkpt><trkpt lat="43.756194229173296" lon="7.018389164553312"><ele>945.0</ele><time>2026-05-02T13:33:34Z</time></trkpt><trkpt lat="43.756108711935795" lon="7.018361606908283"><ele>945.0</ele><time>2026-05-02T13:33:35Z</time></trkpt><trkpt lat="43.75602810183496" lon="7.018347411836233"><ele>945.0</ele><time>2026-05-02T13:33:36Z</time></trkpt><trkpt lat="43.75595216888041" lon="7.018338788766038"><ele>945.0</ele><time>2026-05-02T13:33:37Z</time></trkpt><trkpt lat="43.7558735821031" lon="7.018334939193717"><ele>945.0</ele><time>2026-05-02T13:33:38Z</time></trkpt><trkpt lat="43.755779815052485" lon="7.018324482468995"><ele>945.25</ele><time>2026-05-02T13:33:39Z</time></trkpt><trkpt lat="43.75566116364086" lon="7.018298267160502"><ele>945.5</ele><time>2026-05-02T13:33:40Z</time></trkpt><trkpt lat="43.75553183950365" lon="7.018273468493434"><ele>945.75</ele><time>2026-05-02T13:33:41Z</time></trkpt><trkpt lat="43.75541724757241" lon="7.0182531456874875"><ele>946.0</ele><time>2026-05-02T13:33:42Z</time></trkpt><trkpt lat="43.755319801864765" lon="7.018239319455062"><ele>946.0</ele><time>2026-05-02T13:33:43Z</time></trkpt><trkpt lat="43.75521960926129" lon="7.018213819296025"><ele>946.0</ele><time>2026-05-02T13:33:44Z</time></trkpt><trkpt lat="43.75510377141608" lon="7.018187954386265"><ele>946.0</ele><time>2026-05-02T13:33:45Z</time></trkpt><trkpt lat="43.75497793044194" lon="7.018150461322646"><ele>946.0</ele><time>2026-05-02T13:33:46Z</time></trkpt><trkpt lat="43.75484511545592" lon="7.018121647016833"><ele>945.4</ele><time>2026-05-02T13:33:47Z</time></trkpt><trkpt lat="43.75471369495985" lon="7.018081376991401"><ele>944.8</ele><time>2026-05-02T13:33:48Z</time></trkpt><trkpt lat="43.75460518532817" lon="7.018053227124984"><ele>944.1999999999999</ele><time>2026-05-02T13:33:49Z</time></trkpt><trkpt lat="43.7545163713944" lon="7.01804251563459"><ele>943.5999999999999</ele><time>2026-05-02T13:33:50Z</time></trkpt><trkpt lat="43.75443582262381" lon="7.01800140918146"><ele>943.0</ele><time>2026-05-02T13:33:51Z</time></trkpt><trkpt lat="43.7543644665127" lon="7.017955097979824"><ele>941.3333333333333</ele><time>2026-05-02T13:33:52Z</time></trkpt><trkpt lat="43.754291618154845" lon="7.017933042809814"><ele>939.6666666666666</ele><time>2026-05-02T13:33:53Z</time></trkpt><trkpt lat="43.75420132844437" lon="7.017900841654189"><ele>938.0</ele><time>2026-05-02T13:33:55Z</time></trkpt><trkpt lat="43.75410514862445" lon="7.017891932533278"><ele>936.3333333333333</ele><time>2026-05-02T13:33:57.999Z</time></trkpt><trkpt lat="43.75400558597221" lon="7.01790907333748"><ele>934.6666666666666</ele><time>2026-05-02T13:33:59.999Z</time></trkpt><trkpt lat="43.75393812393525" lon="7.017921527421426"><ele>933.0</ele><time>2026-05-02T13:34:00.999Z</time></trkpt><trkpt lat="43.75382402472727" lon="7.017943340424314"><ele>933.0</ele><time>2026-05-02T13:34:02.999Z</time></trkpt><trkpt lat="43.75373463590226" lon="7.017964808066365"><ele>933.0</ele><time>2026-05-02T13:34:04.999Z</time></trkpt><trkpt lat="43.753624880730875" lon="7.018005172955859"><ele>933.0</ele><time>2026-05-02T13:34:06.999Z</time></trkpt><trkpt lat="43.753522132813075" lon="7.017980613973488"><ele>933.0</ele><time>2026-05-02T13:34:08.999Z</time></trkpt><trkpt lat="43.75346736714569" lon="7.017920485758939"><ele>933.0</ele><time>2026-05-02T13:34:10.999Z</time></trkpt><trkpt lat="43.75339510532467" lon="7.017869032809985"><ele>932.8333333333334</ele><time>2026-05-02T13:34:14.999Z</time></trkpt><trkpt lat="43.75333655469756" lon="7.017812171325776"><ele>932.6666666666667</ele><time>2026-05-02T13:34:17.999Z</time></trkpt><trkpt lat="43.7532783350709" lon="7.0177473050432395"><ele>932.5</ele><time>2026-05-02T13:34:19.999Z</time></trkpt><trkpt lat="43.75320170041801" lon="7.017693300488959"><ele>932.3333333333334</ele><time>2026-05-02T13:34:21.999Z</time></trkpt><trkpt lat="43.75309054213653" lon="7.017612923218588"><ele>932.1666666666667</ele><time>2026-05-02T13:34:23.999Z</time></trkpt><trkpt lat="43.75301921803796" lon="7.017549397006106"><ele>932.0</ele><time>2026-05-02T13:34:24.999Z</time></trkpt><trkpt lat="43.75293636345093" lon="7.017485452567975"><ele>929.8</ele><time>2026-05-02T13:34:25.999Z</time></trkpt><trkpt lat="43.752838085003425" lon="7.017425969831606"><ele>927.6</ele><time>2026-05-02T13:34:26.999Z</time></trkpt><trkpt lat="43.75274758230219" lon="7.017349784358891"><ele>925.3999999999999</ele><time>2026-05-02T13:34:27.999Z</time></trkpt><trkpt lat="43.752656487797964" lon="7.017253955342655"><ele>923.1999999999999</ele><time>2026-05-02T13:34:28.999Z</time></trkpt><trkpt lat="43.75257054232541" lon="7.017174391340831"><ele>921.0</ele><time>2026-05-02T13:34:29.999Z</time></trkpt><trkpt lat="43.75248828680211" lon="7.0170994553458055"><ele>921.0</ele><time>2026-05-02T13:34:30.999Z</time></trkpt><trkpt lat="43.7524122906918" lon="7.017030915494864"><ele>920.9999999999999</ele><time>2026-05-02T13:34:31.999Z</time></trkpt><trkpt lat="43.7523353759788" lon="7.0169538238814715"><ele>920.9999999999999</ele><time>2026-05-02T13:34:32.999Z</time></trkpt><trkpt lat="43.75224769111104" lon="7.016888788327917"><ele>921.0</ele><time>2026-05-02T13:34:33.999Z</time></trkpt><trkpt lat="43.75216341697439" lon="7.01682436026518"><ele>921.0</ele><time>2026-05-02T13:34:34.999Z</time></trkpt><trkpt lat="43.752091117464204" lon="7.016765405063908"><ele>921.0</ele><time>2026-05-02T13:34:35.999Z</time></trkpt><trkpt lat="43.75201421137298" lon="7.016699281282692"><ele>920.9999999999999</ele><time>2026-05-02T13:34:36.999Z</time></trkpt><trkpt lat="43.75194320238045" lon="7.016617691166886"><ele>920.9999999999999</ele><time>2026-05-02T13:34:37.999Z</time></trkpt><trkpt lat="43.751864843218044" lon="7.016513654682934"><ele>921.0</ele><time>2026-05-02T13:34:38.999Z</time></trkpt><trkpt lat="43.751788089501" lon="7.016435741659954"><ele>921.0</ele><time>2026-05-02T13:34:39.999Z</time></trkpt><trkpt lat="43.75171145670181" lon="7.016360038785943"><ele>919.1999999999999</ele><time>2026-05-02T13:34:40.999Z</time></trkpt><trkpt lat="43.751632909498575" lon="7.016307417662251"><ele>917.3999999999999</ele><time>2026-05-02T13:34:41.999Z</time></trkpt><trkpt lat="43.75155102088144" lon="7.0162494758806835"><ele>915.6</ele><time>2026-05-02T13:34:42.999Z</time></trkpt><trkpt lat="43.75144144569565" lon="7.016208019746086"><ele>913.8</ele><time>2026-05-02T13:34:43.999Z</time></trkpt><trkpt lat="43.751332653596535" lon="7.01616306975482"><ele>912.0</ele><time>2026-05-02T13:34:44.999Z</time></trkpt><trkpt lat="43.75124160390596" lon="7.016107662381254"><ele>912.0</ele><time>2026-05-02T13:34:45.999Z</time></trkpt><trkpt lat="43.751163786885556" lon="7.016076568275192"><ele>912.0</ele><time>2026-05-02T13:34:46.999Z</time></trkpt><trkpt lat="43.75109969032596" lon="7.016063358308229"><ele>912.0</ele><time>2026-05-02T13:34:47.999Z</time></trkpt><trkpt lat="43.751008137161826" lon="7.016041896270517"><ele>911.0</ele><time>2026-05-02T13:34:49.999Z</time></trkpt></trkseg><trkseg><trkpt lat="43.75096775729645" lon="7.016123251379634"><ele>911.0000000000001</ele><time>2026-05-02T13:47:42Z</time></trkpt><trkpt lat="43.750927781303716" lon="7.016207928797741"><ele>911.0</ele><time>2026-05-02T13:47:47Z</time></trkpt><trkpt lat="43.75088274150203" lon="7.016275156148027"><ele>911.0</ele><time>2026-05-02T13:47:50Z</time></trkpt><trkpt lat="43.75081788406344" lon="7.0162873997089665"><ele>911.0</ele><time>2026-05-02T13:48:19.999Z</time></trkpt><trkpt lat="43.75074336549945" lon="7.016308328310693"><ele>911.0000000000001</ele><time>2026-05-02T13:48:23.999Z</time></trkpt><trkpt lat="43.75065485843051" lon="7.016288394933773"><ele>911.0</ele><time>2026-05-02T13:48:26.999Z</time></trkpt><trkpt lat="43.75056323657399" lon="7.016273926880604"><ele>911.0</ele><time>2026-05-02T13:48:28.999Z</time></trkpt><trkpt lat="43.750468483942484" lon="7.016256315506553"><ele>910.9999999999999</ele><time>2026-05-02T13:48:30.999Z</time></trkpt><trkpt lat="43.75036619163868" lon="7.016245437679392"><ele>910.9999999999999</ele><time>2026-05-02T13:48:32.999Z</time></trkpt><trkpt lat="43.75025116538469" lon="7.016230042973014"><ele>911.0</ele><time>2026-05-02T13:48:34.999Z</time></trkpt><trkpt lat="43.750146318402926" lon="7.016206957452601"><ele>911.0</ele><time>2026-05-02T13:48:36.999Z</time></trkpt><trkpt lat="43.750066501551565" lon="7.016184654457145"><ele>909.3333333333334</ele><time>2026-05-02T13:48:39.999Z</time></trkpt><trkpt lat="43.74996890177867" lon="7.0161703245648015"><ele>907.6666666666667</ele><time>2026-05-02T13:48:42.999Z</time></trkpt><trkpt lat="43.74989398500125" lon="7.0161456050346995"><ele>906.0</ele><time>2026-05-02T13:48:45.999Z</time></trkpt><trkpt lat="43.74982254155192" lon="7.016124608342567"><ele>904.3333333333333</ele><time>2026-05-02T13:48:48.999Z</time></trkpt><trkpt lat="43.74975312175217" lon="7.016117010604336"><ele>902.6666666666666</ele><time>2026-05-02T13:48:56.999Z</time></trkpt><trkpt lat="43.74968755099498" lon="7.016098314564414"><ele>901.0</ele><time>2026-05-02T13:49:05.999Z</time></trkpt><trkpt lat="43.7496134697243" lon="7.016063963417499"><ele>900.9999999999999</ele><time>2026-05-02T13:49:08.998Z</time></trkpt><trkpt lat="43.74955302395" lon="7.016022439652101"><ele>901.0</ele><time>2026-05-02T13:49:10.998Z</time></trkpt><trkpt lat="43.74948510579456" lon="7.015983991200979"><ele>901.0</ele><time>2026-05-02T13:49:13.998Z</time></trkpt><trkpt lat="43.749385692880274" lon="7.0159413867526865"><ele>901.0</ele><time>2026-05-02T13:49:16.998Z</time></trkpt><trkpt lat="43.74931171654917" lon="7.015909508760247"><ele>900.9999999999999</ele><time>2026-05-02T13:49:20Z</time></trkpt><trkpt lat="43.749245478588016" lon="7.015899383836031"><ele>901.0</ele><time>2026-05-02T13:49:22Z</time></trkpt><trkpt lat="43.74917530970571" lon="7.0158622918460045"><ele>900.9999999999999</ele><time>2026-05-02T13:49:25Z</time></trkpt><trkpt lat="43.749108920475" lon="7.015833344694407"><ele>901.0</ele><time>2026-05-02T13:49:50Z</time></trkpt><trkpt lat="43.74903516943361" lon="7.015809801203309"><ele>901.0</ele><time>2026-05-02T13:49:54Z</time></trkpt><trkpt lat="43.74893025068113" lon="7.015769658723766"><ele>901.0</ele><time>2026-05-02T13:49:56Z</time></trkpt><trkpt lat="43.74882846434539" lon="7.015731798706846"><ele>900.9999999999999</ele><time>2026-05-02T13:49:58Z</time></trkpt><trkpt lat="43.74876442214675" lon="7.015686884992963"><ele>901.0</ele><time>2026-05-02T13:50:01Z</time></trkpt><trkpt lat="43.748707282779776" lon="7.015648658332603"><ele>899.1666666666666</ele><time>2026-05-02T13:50:04Z</time></trkpt><trkpt lat="43.74864944315595" lon="7.015599985589597"><ele>897.3333333333333</ele><time>2026-05-02T13:50:09.999Z</time></trkpt><trkpt lat="43.748557080512576" lon="7.015531019826356"><ele>895.5</ele><time>2026-05-02T13:50:12.999Z</time></trkpt><trkpt lat="43.74848975097527" lon="7.015436453770561"><ele>893.6666666666667</ele><time>2026-05-02T13:50:14.999Z</time></trkpt><trkpt lat="43.74845531854224" lon="7.015339168906656"><ele>891.8333333333334</ele><time>2026-05-02T13:50:15.999Z</time></trkpt><trkpt lat="43.748402644438045" lon="7.01524542856804"><ele>890.0</ele><time>2026-05-02T13:50:16.999Z</time></trkpt><trkpt lat="43.74833326581994" lon="7.015120465894256"><ele>890.0</ele><time>2026-05-02T13:50:17.999Z</time></trkpt><trkpt lat="43.74825836156387" lon="7.015000510466457"><ele>890.0</ele><time>2026-05-02T13:50:18.999Z</time></trkpt><trkpt lat="43.748172099019236" lon="7.01488205121345"><ele>890.0</ele><time>2026-05-02T13:50:19.999Z</time></trkpt><trkpt lat="43.748102401765706" lon="7.014778662939482"><ele>890.0</ele><time>2026-05-02T13:50:20.999Z</time></trkpt><trkpt lat="43.74805300933505" lon="7.014689010600368"><ele>890.0</ele><time>2026-05-02T13:50:21.999Z</time></trkpt><trkpt lat="43.747988440796206" lon="7.014605380660546"><ele>888.8</ele><time>2026-05-02T13:50:23.999Z</time></trkpt><trkpt lat="43.74791301149895" lon="7.0145786141681805"><ele>887.6</ele><time>2026-05-02T13:50:25.999Z</time></trkpt><trkpt lat="43.74780453847837" lon="7.014497619033814"><ele>886.4000000000001</ele><time>2026-05-02T13:50:27.999Z</time></trkpt><trkpt lat="43.74773388313612" lon="7.014440146327911"><ele>885.2</ele><time>2026-05-02T13:50:28.999Z</time></trkpt><trkpt lat="43.747662938296514" lon="7.014325650858486"><ele>884.0</ele><time>2026-05-02T13:50:29.999Z</time></trkpt><trkpt lat="43.747607153332424" lon="7.014240620819578"><ele>884.0000000000001</ele><time>2026-05-02T13:50:30.999Z</time></trkpt><trkpt lat="43.747560555542506" lon="7.014169425104621"><ele>884.0</ele><time>2026-05-02T13:50:31.999Z</time></trkpt><trkpt lat="43.74748391057817" lon="7.0140686788370425"><ele>884.0</ele><time>2026-05-02T13:50:33.999Z</time></trkpt><trkpt lat="43.74741305997303" lon="7.014016986583132"><ele>884.0</ele><time>2026-05-02T13:50:35.999Z</time></trkpt><trkpt lat="43.74733493842848" lon="7.014004123994015"><ele>884.0000000000001</ele><time>2026-05-02T13:50:37.999Z</time></trkpt><trkpt lat="43.74727769622611" lon="7.014056956602751"><ele>884.0</ele><time>2026-05-02T13:50:39.999Z</time></trkpt><trkpt lat="43.747209730457634" lon="7.0141173140725215"><ele>884.0000000000001</ele><time>2026-05-02T13:50:42.999Z</time></trkpt><trkpt lat="43.747172214977006" lon="7.014199418778921"><ele>884.0</ele><time>2026-05-02T13:50:44.999Z</time></trkpt><trkpt lat="43.74710810800114" lon="7.014347816563689"><ele>884.0</ele><time>2026-05-02T13:50:46.999Z</time></trkpt><trkpt lat="43.747061883995414" lon="7.014432363690225"><ele>884.0</ele><time>2026-05-02T13:50:47.999Z</time></trkpt><trkpt lat="43.747023741850995" lon="7.014516750492602"><ele>884.0000000000001</ele><time>2026-05-02T13:50:48.999Z</time></trkpt><trkpt lat="43.74698342923062" lon="7.014601806971594"><ele>884.0</ele><time>2026-05-02T13:50:49.999Z</time></trkpt><trkpt lat="43.74692115824943" lon="7.014692321709728"><ele>884.1666666666667</ele><time>2026-05-02T13:50:50.999Z</time></trkpt><trkpt lat="43.74686480614356" lon="7.014773909479458"><ele>884.3333333333334</ele><time>2026-05-02T13:50:51.999Z</time></trkpt><trkpt lat="43.74680283636696" lon="7.014852404565818"><ele>884.5</ele><time>2026-05-02T13:50:52.999Z</time></trkpt><trkpt lat="43.74673737035622" lon="7.014916172357838"><ele>884.6666666666667</ele><time>2026-05-02T13:50:53.999Z</time></trkpt><trkpt lat="43.746682377843605" lon="7.014993555761806"><ele>884.8333333333334</ele><time>2026-05-02T13:50:54.999Z</time></trkpt><trkpt lat="43.746641554190916" lon="7.0150706234939"><ele>885.0</ele><time>2026-05-02T13:50:55.999Z</time></trkpt><trkpt lat="43.74657569492187" lon="7.015114697541757"><ele>885.0</ele><time>2026-05-02T13:50:56.999Z</time></trkpt><trkpt lat="43.74651936639903" lon="7.015162894187898"><ele>885.0</ele><time>2026-05-02T13:50:57.999Z</time></trkpt><trkpt lat="43.74644445198547" lon="7.015207841198448"><ele>885.0</ele><time>2026-05-02T13:50:58.999Z</time></trkpt><trkpt lat="43.746359181447154" lon="7.015240692220903"><ele>885.0</ele><time>2026-05-02T13:50:59.999Z</time></trkpt><trkpt lat="43.746282379216666" lon="7.015272248060808"><ele>885.0</ele><time>2026-05-02T13:51:00.999Z</time></trkpt><trkpt lat="43.746216397210716" lon="7.0153077661151455"><ele>885.0</ele><time>2026-05-02T13:51:01.999Z</time></trkpt><trkpt lat="43.74614873125491" lon="7.015326775325482"><ele>885.0</ele><time>2026-05-02T13:51:02.999Z</time></trkpt><trkpt lat="43.74607667855691" lon="7.0153116399668285"><ele>885.0</ele><time>2026-05-02T13:51:03.999Z</time></trkpt><trkpt lat="43.74593451322826" lon="7.015327145691662"><ele>885.0</ele><time>2026-05-02T13:51:05.999Z</time></trkpt><trkpt lat="43.74583885822757" lon="7.015348599486905"><ele>885.0</ele><time>2026-05-02T13:51:06.999Z</time></trkpt><trkpt lat="43.745754201878796" lon="7.015387582380728"><ele>885.0</ele><time>2026-05-02T13:51:07.999Z</time></trkpt><trkpt lat="43.7456774014141" lon="7.015414512039184"><ele>880.8333333333334</ele><time>2026-05-02T13:51:08.999Z</time></trkpt><trkpt lat="43.74561999289179" lon="7.01545522056822"><ele>876.6666666666667</ele><time>2026-05-02T13:51:09.999Z</time></trkpt><trkpt lat="43.74549393283552" lon="7.015452400361722"><ele>872.5</ele><time>2026-05-02T13:51:11.999Z</time></trkpt><trkpt lat="43.745420727578605" lon="7.015459985744162"><ele>868.3333333333334</ele><time>2026-05-02T13:51:12.999Z</time></trkpt><trkpt lat="43.74535417278768" lon="7.015498122813695"><ele>864.1666666666667</ele><time>2026-05-02T13:51:13.999Z</time></trkpt><trkpt lat="43.74530606605801" lon="7.015559153371565"><ele>860.0</ele><time>2026-05-02T13:51:14.999Z</time></trkpt><trkpt lat="43.74525823859537" lon="7.015623979475919"><ele>860.0000000000001</ele><time>2026-05-02T13:51:15.999Z</time></trkpt><trkpt lat="43.74521770507971" lon="7.015694572095217"><ele>860.0</ele><time>2026-05-02T13:51:16.999Z</time></trkpt><trkpt lat="43.745164961193666" lon="7.015781221339112"><ele>860.0</ele><time>2026-05-02T13:51:17.999Z</time></trkpt><trkpt lat="43.7451033499061" lon="7.015841956675936"><ele>860.0</ele><time>2026-05-02T13:51:18.999Z</time></trkpt><trkpt lat="43.74503644160669" lon="7.015904574574459"><ele>860.0000000000001</ele><time>2026-05-02T13:51:19.999Z</time></trkpt><trkpt lat="43.744935910087165" lon="7.015999680632407"><ele>860.0</ele><time>2026-05-02T13:51:21.999Z</time></trkpt><trkpt lat="43.74487417751267" lon="7.016067317142074"><ele>861.3333333333334</ele><time>2026-05-02T13:51:22.999Z</time></trkpt><trkpt lat="43.74481005223465" lon="7.016095542686992"><ele>862.6666666666667</ele><time>2026-05-02T13:51:23.998Z</time></trkpt><trkpt lat="43.744751904126986" lon="7.01614534764711"><ele>864.0</ele><time>2026-05-02T13:51:25Z</time></trkpt><trkpt lat="43.744707929517354" lon="7.016224333136499"><ele>865.3333333333333</ele><time>2026-05-02T13:51:26Z</time></trkpt><trkpt lat="43.744643069328625" lon="7.0162848534315625"><ele>866.6666666666666</ele><time>2026-05-02T13:51:27Z</time></trkpt><trkpt lat="43.744580765864555" lon="7.016351054327276"><ele>868.0</ele><time>2026-05-02T13:51:28Z</time></trkpt><trkpt lat="43.74450693680209" lon="7.016424961682796"><ele>867.9999999999999</ele><time>2026-05-02T13:51:29Z</time></trkpt><trkpt lat="43.74444380240462" lon="7.016493931099506"><ele>868.0</ele><time>2026-05-02T13:51:30Z</time></trkpt><trkpt lat="43.74438318444592" lon="7.016594525312084"><ele>868.0</ele><time>2026-05-02T13:51:32Z</time></trkpt><trkpt lat="43.74433005261707" lon="7.016643788464278"><ele>868.0</ele><time>2026-05-02T13:51:33Z</time></trkpt><trkpt lat="43.744249467836546" lon="7.016703702460694"><ele>867.9999999999999</ele><time>2026-05-02T13:51:34Z</time></trkpt><trkpt lat="43.74418079200224" lon="7.016772192861786"><ele>868.0</ele><time>2026-05-02T13:51:35Z</time></trkpt><trkpt lat="43.74409624290843" lon="7.016858060636951"><ele>867.4</ele><time>2026-05-02T13:51:36Z</time></trkpt><trkpt lat="43.743995595907435" lon="7.016913790281674"><ele>866.8</ele><time>2026-05-02T13:51:37Z</time></trkpt><trkpt lat="43.74389685820531" lon="7.016969846005785"><ele>866.2</ele><time>2026-05-02T13:51:38Z</time></trkpt><trkpt lat="43.74382694110089" lon="7.017052348250542"><ele>865.6</ele><time>2026-05-02T13:51:39Z</time></trkpt><trkpt lat="43.743765361327206" lon="7.0171210416281715"><ele>865.0</ele><time>2026-05-02T13:51:40Z</time></trkpt><trkpt lat="43.74370836281795" lon="7.017194291999959"><ele>865.0</ele><time>2026-05-02T13:51:41Z</time></trkpt><trkpt lat="43.74362457880219" lon="7.01725317964251"><ele>865.0</ele><time>2026-05-02T13:51:42Z</time></trkpt><trkpt lat="43.74355138692181" lon="7.017327110198113"><ele>865.0</ele><time>2026-05-02T13:51:43Z</time></trkpt><trkpt lat="43.743487492540666" lon="7.017403747620554"><ele>865.0</ele><time>2026-05-02T13:51:44Z</time></trkpt><trkpt lat="43.743440771081865" lon="7.017475067249004"><ele>865.0</ele><time>2026-05-02T13:51:45Z</time></trkpt><trkpt lat="43.74331573511108" lon="7.0175206702410895"><ele>865.6</ele><time>2026-05-02T13:51:47Z</time></trkpt><trkpt lat="43.74320919127226" lon="7.017552928370653"><ele>866.2</ele><time>2026-05-02T13:51:48Z</time></trkpt><trkpt lat="43.7431042374817" lon="7.017616714856134"><ele>866.8</ele><time>2026-05-02T13:51:49Z</time></trkpt><trkpt lat="43.743022851779514" lon="7.017686306530694"><ele>867.4</ele><time>2026-05-02T13:51:50Z</time></trkpt><trkpt lat="43.742954202211315" lon="7.0177224480450064"><ele>868.0</ele><time>2026-05-02T13:51:51Z</time></trkpt><trkpt lat="43.742874260613675" lon="7.017732145668602"><ele>868.0</ele><time>2026-05-02T13:51:52Z</time></trkpt><trkpt lat="43.742770758335645" lon="7.017749513865367"><ele>868.0</ele><time>2026-05-02T13:51:53Z</time></trkpt><trkpt lat="43.74265124965389" lon="7.01778433149413"><ele>868.0</ele><time>2026-05-02T13:51:54Z</time></trkpt><trkpt lat="43.74254199750042" lon="7.0178120492392235"><ele>868.0</ele><time>2026-05-02T13:51:55Z</time></trkpt><trkpt lat="43.74244808325035" lon="7.017827127444173"><ele>868.0</ele><time>2026-05-02T13:51:56Z</time></trkpt><trkpt lat="43.742361039373726" lon="7.017855038913878"><ele>864.2</ele><time>2026-05-02T13:51:57Z</time></trkpt><trkpt lat="43.74226303113371" lon="7.017900585808315"><ele>860.4</ele><time>2026-05-02T13:51:58Z</time></trkpt><trkpt lat="43.74216123672054" lon="7.0179320092245545"><ele>856.6</ele><time>2026-05-02T13:51:59Z</time></trkpt><trkpt lat="43.74205713404296" lon="7.017951751811302"><ele>852.8000000000001</ele><time>2026-05-02T13:52:00Z</time></trkpt><trkpt lat="43.74196140776969" lon="7.017978308050464"><ele>849.0</ele><time>2026-05-02T13:52:01Z</time></trkpt><trkpt lat="43.74185923737522" lon="7.018013586188914"><ele>847.0</ele><time>2026-05-02T13:52:02Z</time></trkpt><trkpt lat="43.7417647152686" lon="7.018033366439511"><ele>845.0</ele><time>2026-05-02T13:52:03Z</time></trkpt><trkpt lat="43.741679330473424" lon="7.018056233251376"><ele>843.0</ele><time>2026-05-02T13:52:04Z</time></trkpt><trkpt lat="43.74159774891586" lon="7.018082149123234"><ele>841.0</ele><time>2026-05-02T13:52:05Z</time></trkpt><trkpt lat="43.7415158157183" lon="7.018095441112734"><ele>839.0</ele><time>2026-05-02T13:52:06Z</time></trkpt><trkpt lat="43.74142655295371" lon="7.018145458638547"><ele>837.0</ele><time>2026-05-02T13:52:07Z</time></trkpt><trkpt lat="43.74132421574162" lon="7.0181909108337"><ele>837.0</ele><time>2026-05-02T13:52:08Z</time></trkpt><trkpt lat="43.741216648967416" lon="7.01821101602054"><ele>837.0</ele><time>2026-05-02T13:52:09Z</time></trkpt><trkpt lat="43.741109237142396" lon="7.018219278934787"><ele>837.0</ele><time>2026-05-02T13:52:10Z</time></trkpt><trkpt lat="43.74101208214913" lon="7.018229920521107"><ele>837.0</ele><time>2026-05-02T13:52:11Z</time></trkpt><trkpt lat="43.740927243387716" lon="7.018205985025681"><ele>837.0</ele><time>2026-05-02T13:52:12Z</time></trkpt><trkpt lat="43.74082663733739" lon="7.018167471239638"><ele>836.5</ele><time>2026-05-02T13:52:13Z</time></trkpt><trkpt lat="43.740687725629044" lon="7.018129266361192"><ele>836.0</ele><time>2026-05-02T13:52:14Z</time></trkpt><trkpt lat="43.740571933776025" lon="7.018090198975036"><ele>835.5</ele><time>2026-05-02T13:52:15Z</time></trkpt><trkpt lat="43.740472194768806" lon="7.018045310030089"><ele>835.0</ele><time>2026-05-02T13:52:16Z</time></trkpt><trkpt lat="43.74038813564251" lon="7.018008582164847"><ele>835.0</ele><time>2026-05-02T13:52:17Z</time></trkpt><trkpt lat="43.74031278527866" lon="7.017969897948246"><ele>835.0</ele><time>2026-05-02T13:52:18Z</time></trkpt><trkpt lat="43.74024173990811" lon="7.017918965084891"><ele>835.0</ele><time>2026-05-02T13:52:19Z</time></trkpt><trkpt lat="43.74016800840396" lon="7.017903495721596"><ele>835.0</ele><time>2026-05-02T13:52:20Z</time></trkpt><trkpt lat="43.74006341650397" lon="7.017892005333746"><ele>835.0</ele><time>2026-05-02T13:52:21Z</time></trkpt><trkpt lat="43.73995226519663" lon="7.017866586606956"><ele>836.25</ele><time>2026-05-02T13:52:22Z</time></trkpt><trkpt lat="43.739830649062334" lon="7.017822627546378"><ele>837.5</ele><time>2026-05-02T13:52:23Z</time></trkpt><trkpt lat="43.73971525122915" lon="7.017770756240837"><ele>838.75</ele><time>2026-05-02T13:52:24Z</time></trkpt><trkpt lat="43.73961059450257" lon="7.01772217251649"><ele>840.0</ele><time>2026-05-02T13:52:24.999Z</time></trkpt><trkpt lat="43.73951260159771" lon="7.017695260192608"><ele>840.0</ele><time>2026-05-02T13:52:25.999Z</time></trkpt><trkpt lat="43.739414496731804" lon="7.017695315048755"><ele>840.0</ele><time>2026-05-02T13:52:26.999Z</time></trkpt><trkpt lat="43.73931707893842" lon="7.017707651013494"><ele>840.0</ele><time>2026-05-02T13:52:27.999Z</time></trkpt><trkpt lat="43.73923243018317" lon="7.0177215036102725"><ele>840.0</ele><time>2026-05-02T13:52:28.999Z</time></trkpt><trkpt lat="43.739166481547706" lon="7.0177376192837695"><ele>840.0</ele><time>2026-05-02T13:52:29.999Z</time></trkpt><trkpt lat="43.739060168417055" lon="7.01777345881818"><ele>839.5</ele><time>2026-05-02T13:52:31.999Z</time></trkpt><trkpt lat="43.73897128932554" lon="7.017805546512964"><ele>839.0</ele><time>2026-05-02T13:52:33.999Z</time></trkpt><trkpt lat="43.738904412787655" lon="7.017798488905159"><ele>838.5</ele><time>2026-05-02T13:52:34.999Z</time></trkpt><trkpt lat="43.73882474521866" lon="7.017829702117989"><ele>838.0</ele><time>2026-05-02T13:52:35.999Z</time></trkpt><trkpt lat="43.738741548202846" lon="7.017851390610464"><ele>837.5</ele><time>2026-05-02T13:52:36.999Z</time></trkpt><trkpt lat="43.73865917212113" lon="7.017852387232459"><ele>837.0</ele><time>2026-05-02T13:52:37.999Z</time></trkpt><trkpt lat="43.73858127449742" lon="7.017822697501699"><ele>835.8333333333334</ele><time>2026-05-02T13:52:38.999Z</time></trkpt><trkpt lat="43.73850770595048" lon="7.017813125665565"><ele>834.6666666666667</ele><time>2026-05-02T13:52:39.999Z</time></trkpt><trkpt lat="43.73845020330055" lon="7.017854221767631"><ele>833.5</ele><time>2026-05-02T13:52:40.999Z</time></trkpt><trkpt lat="43.73835942701221" lon="7.017861133363553"><ele>832.3333333333334</ele><time>2026-05-02T13:52:41.999Z</time></trkpt><trkpt lat="43.7382751674498" lon="7.01783581354617"><ele>831.1666666666667</ele><time>2026-05-02T13:52:42.999Z</time></trkpt><trkpt lat="43.73819902446156" lon="7.0178202706683885"><ele>830.0</ele><time>2026-05-02T13:52:44.999Z</time></trkpt><trkpt lat="43.738142502279956" lon="7.017869805378731"><ele>830.0000000000001</ele><time>2026-05-02T13:52:47.999Z</time></trkpt><trkpt lat="43.738085069387466" lon="7.0179109818874315"><ele>830.0</ele><time>2026-05-02T13:52:49.999Z</time></trkpt><trkpt lat="43.738019154050775" lon="7.0178968912263855"><ele>830.0</ele><time>2026-05-02T13:52:50.999Z</time></trkpt><trkpt lat="43.737928967921235" lon="7.017898912560417"><ele>830.0</ele><time>2026-05-02T13:52:51.999Z</time></trkpt><trkpt lat="43.73782971633958" lon="7.017893389329949"><ele>830.0000000000001</ele><time>2026-05-02T13:52:52.999Z</time></trkpt><trkpt lat="43.73775503243279" lon="7.017906894970146"><ele>830.0</ele><time>2026-05-02T13:52:53.999Z</time></trkpt><trkpt lat="43.737686246711064" lon="7.017911707564345"><ele>830.0</ele><time>2026-05-02T13:52:54.999Z</time></trkpt><trkpt lat="43.737601252055704" lon="7.01791066052068"><ele>830.0</ele><time>2026-05-02T13:52:55.999Z</time></trkpt><trkpt lat="43.73750542915746" lon="7.017930919317194"><ele>830.0</ele><time>2026-05-02T13:52:56.999Z</time></trkpt><trkpt lat="43.73740572559861" lon="7.0179185533564175"><ele>830.0</ele><time>2026-05-02T13:52:57.999Z</time></trkpt><trkpt lat="43.73732490444567" lon="7.017891698082104"><ele>830.0</ele><time>2026-05-02T13:52:58.999Z</time></trkpt><trkpt lat="43.73721550241398" lon="7.01789659496553"><ele>830.0</ele><time>2026-05-02T13:53:00.999Z</time></trkpt><trkpt lat="43.73713177816801" lon="7.017976147278878"><ele>830.0</ele><time>2026-05-02T13:53:02.999Z</time></trkpt><trkpt lat="43.73704331705565" lon="7.017986779324833"><ele>830.0</ele><time>2026-05-02T13:53:03.999Z</time></trkpt><trkpt lat="43.736927404832585" lon="7.0180117856973485"><ele>830.0</ele><time>2026-05-02T13:53:04.999Z</time></trkpt><trkpt lat="43.73680452614544" lon="7.0180262944276715"><ele>830.0</ele><time>2026-05-02T13:53:05.999Z</time></trkpt><trkpt lat="43.736691719153576" lon="7.018035337597924"><ele>829.0</ele><time>2026-05-02T13:53:06.999Z</time></trkpt><trkpt lat="43.73658931385124" lon="7.018032514676861"><ele>828.0</ele><time>2026-05-02T13:53:07.999Z</time></trkpt><trkpt lat="43.736485825802454" lon="7.01802890205505"><ele>827.0</ele><time>2026-05-02T13:53:08.999Z</time></trkpt><trkpt lat="43.73638922420388" lon="7.018005261653413"><ele>826.0</ele><time>2026-05-02T13:53:09.999Z</time></trkpt><trkpt lat="43.73632481446909" lon="7.01795111751921"><ele>825.0</ele><time>2026-05-02T13:53:10.999Z</time></trkpt><trkpt lat="43.73623862785445" lon="7.017861508708559"><ele>825.0</ele><time>2026-05-02T13:53:12.999Z</time></trkpt><trkpt lat="43.736157721741414" lon="7.017810575134155"><ele>825.0</ele><time>2026-05-02T13:53:14.999Z</time></trkpt><trkpt lat="43.73604262576078" lon="7.017797168477072"><ele>825.0</ele><time>2026-05-02T13:53:16.999Z</time></trkpt><trkpt lat="43.73595711725216" lon="7.017698286157083"><ele>825.0</ele><time>2026-05-02T13:53:18.999Z</time></trkpt><trkpt lat="43.735869602685455" lon="7.01772957483892"><ele>825.0</ele><time>2026-05-02T13:53:20.999Z</time></trkpt><trkpt lat="43.7358225979211" lon="7.0178044790167"><ele>826.3333333333334</ele><time>2026-05-02T13:53:21.999Z</time></trkpt><trkpt lat="43.73576337822677" lon="7.017904503454225"><ele>827.6666666666667</ele><time>2026-05-02T13:53:22.999Z</time></trkpt><trkpt lat="43.73568630594549" lon="7.017930902168785"><ele>829.0</ele><time>2026-05-02T13:53:24.999Z</time></trkpt><trkpt lat="43.73559588828936" lon="7.0178665864816665"><ele>830.3333333333334</ele><time>2026-05-02T13:53:26.999Z</time></trkpt><trkpt lat="43.735533578640904" lon="7.017809824295262"><ele>831.6666666666667</ele><time>2026-05-02T13:53:27.999Z</time></trkpt><trkpt lat="43.7354491990474" lon="7.017766954961036"><ele>833.0</ele><time>2026-05-02T13:53:29.999Z</time></trkpt><trkpt lat="43.73542803178955" lon="7.0176822281983355"><ele>833.0000000000001</ele><time>2026-05-02T13:53:41Z</time></trkpt><trkpt lat="43.7354122519534" lon="7.01756955758211"><ele>833.0</ele><time>2026-05-02T13:53:46Z</time></trkpt><trkpt lat="43.73539690989931" lon="7.017455911338608"><ele>833.0</ele><time>2026-05-02T13:53:49Z</time></trkpt><trkpt lat="43.73537781438907" lon="7.01736679707291"><ele>833.0</ele><time>2026-05-02T13:53:50Z</time></trkpt><trkpt lat="43.73536756571901" lon="7.017261764371738"><ele>833.0000000000001</ele><time>2026-05-02T13:53:51Z</time></trkpt><trkpt lat="43.73535978073504" lon="7.017135854746887"><ele>833.0</ele><time>2026-05-02T13:53:53Z</time></trkpt><trkpt lat="43.73528074886147" lon="7.017070902931208"><ele>834.5999999999999</ele><time>2026-05-02T13:53:55Z</time></trkpt><trkpt lat="43.73520994141381" lon="7.016986435871581"><ele>836.1999999999999</ele><time>2026-05-02T13:53:56Z</time></trkpt><trkpt lat="43.73512690437065" lon="7.016891032114861"><ele>837.8</ele><time>2026-05-02T13:53:57Z</time></trkpt><trkpt lat="43.73504289767173" lon="7.016779787823064"><ele>839.4</ele><time>2026-05-02T13:53:58Z</time></trkpt><trkpt lat="43.734952958806694" lon="7.016671137718927"><ele>841.0</ele><time>2026-05-02T13:53:59Z</time></trkpt><trkpt lat="43.73488520634137" lon="7.016620006571707"><ele>837.0</ele><time>2026-05-02T13:54:00Z</time></trkpt><trkpt lat="43.73481269601184" lon="7.01653130360735"><ele>833.0</ele><time>2026-05-02T13:54:01Z</time></trkpt><trkpt lat="43.73473196906979" lon="7.016487755897646"><ele>829.0</ele><time>2026-05-02T13:54:02Z</time></trkpt><trkpt lat="43.73463221613299" lon="7.016427768474962"><ele>825.0</ele><time>2026-05-02T13:54:03Z</time></trkpt><trkpt lat="43.73452234488881" lon="7.0163346304255105"><ele>821.0</ele><time>2026-05-02T13:54:04Z</time></trkpt><trkpt lat="43.73440817547485" lon="7.016230768828461"><ele>825.25</ele><time>2026-05-02T13:54:05Z</time></trkpt><trkpt lat="43.73429116705088" lon="7.016116288672023"><ele>829.5</ele><time>2026-05-02T13:54:06Z</time></trkpt><trkpt lat="43.734180772840766" lon="7.015997518453889"><ele>833.75</ele><time>2026-05-02T13:54:07Z</time></trkpt><trkpt lat="43.734080983873994" lon="7.015911033562235"><ele>838.0</ele><time>2026-05-02T13:54:08Z</time></trkpt><trkpt lat="43.733983623131635" lon="7.015827736030463"><ele>838.0</ele><time>2026-05-02T13:54:09Z</time></trkpt><trkpt lat="43.7339038701663" lon="7.01574489188178"><ele>838.0</ele><time>2026-05-02T13:54:10Z</time></trkpt><trkpt lat="43.73382373670295" lon="7.015694190204925"><ele>838.0</ele><time>2026-05-02T13:54:11Z</time></trkpt><trkpt lat="43.733719154445566" lon="7.015631869638334"><ele>838.0</ele><time>2026-05-02T13:54:12Z</time></trkpt><trkpt lat="43.73360078692298" lon="7.015542782985811"><ele>838.0</ele><time>2026-05-02T13:54:13Z</time></trkpt><trkpt lat="43.7334978738137" lon="7.015452183663987"><ele>838.0</ele><time>2026-05-02T13:54:14Z</time></trkpt><trkpt lat="43.733415655656536" lon="7.0153335888561505"><ele>838.0</ele><time>2026-05-02T13:54:15Z</time></trkpt><trkpt lat="43.733338215842416" lon="7.015190362705612"><ele>838.0</ele><time>2026-05-02T13:54:16Z</time></trkpt><trkpt lat="43.73324972190523" lon="7.0150418943510235"><ele>838.0</ele><time>2026-05-02T13:54:17Z</time></trkpt><trkpt lat="43.73317341690901" lon="7.014918265629601"><ele>836.2</ele><time>2026-05-02T13:54:18Z</time></trkpt><trkpt lat="43.73310323967332" lon="7.014831584534543"><ele>834.4</ele><time>2026-05-02T13:54:19Z</time></trkpt><trkpt lat="43.7330305876041" lon="7.014753230335905"><ele>832.6</ele><time>2026-05-02T13:54:20Z</time></trkpt><trkpt lat="43.732956229564905" lon="7.014675349226271"><ele>830.8000000000001</ele><time>2026-05-02T13:54:21Z</time></trkpt><trkpt lat="43.732878308231996" lon="7.014589097791382"><ele>829.0</ele><time>2026-05-02T13:54:22Z</time></trkpt><trkpt lat="43.73280237098172" lon="7.014510314460186"><ele>831.0</ele><time>2026-05-02T13:54:23Z</time></trkpt><trkpt lat="43.732721457430436" lon="7.014444674541658"><ele>833.0</ele><time>2026-05-02T13:54:24Z</time></trkpt><trkpt lat="43.73264846673979" lon="7.014395922648192"><ele>835.0</ele><time>2026-05-02T13:54:25Z</time></trkpt><trkpt lat="43.7325634007285" lon="7.014286252460948"><ele>837.0</ele><time>2026-05-02T13:54:27Z</time></trkpt><trkpt lat="43.73253060393616" lon="7.014195019214896"><ele>839.0</ele><time>2026-05-02T13:54:28Z</time></trkpt><trkpt lat="43.73247303885497" lon="7.014108535352331"><ele>839.0</ele><time>2026-05-02T13:54:29Z</time></trkpt><trkpt lat="43.732431891087494" lon="7.014020977639418"><ele>839.0</ele><time>2026-05-02T13:54:30Z</time></trkpt><trkpt lat="43.73241050589747" lon="7.013905888511122"><ele>839.0</ele><time>2026-05-02T13:54:31Z</time></trkpt><trkpt lat="43.73242189435326" lon="7.01375744258817"><ele>839.0</ele><time>2026-05-02T13:54:32Z</time></trkpt><trkpt lat="43.73244723870995" lon="7.013628204046721"><ele>839.0</ele><time>2026-05-02T13:54:33Z</time></trkpt><trkpt lat="43.732468442675426" lon="7.013485347271833"><ele>839.0000000000001</ele><time>2026-05-02T13:54:34Z</time></trkpt><trkpt lat="43.73253746094303" lon="7.01336098218912"><ele>839.0</ele><time>2026-05-02T13:54:36Z</time></trkpt><trkpt lat="43.732605776777596" lon="7.013320786443285"><ele>839.0</ele><time>2026-05-02T13:54:37Z</time></trkpt><trkpt lat="43.732676011366635" lon="7.0132828701101815"><ele>839.0</ele><time>2026-05-02T13:54:38Z</time></trkpt><trkpt lat="43.73275296755001" lon="7.013284194559604"><ele>839.0000000000001</ele><time>2026-05-02T13:54:39Z</time></trkpt><trkpt lat="43.7328512491969" lon="7.013281726702864"><ele>839.0</ele><time>2026-05-02T13:54:40.999Z</time></trkpt><trkpt lat="43.73286661238407" lon="7.013179460155609"><ele>836.8000000000001</ele><time>2026-05-02T13:54:42.999Z</time></trkpt><trkpt lat="43.732919811474986" lon="7.013046096055658"><ele>834.6</ele><time>2026-05-02T13:54:45.999Z</time></trkpt><trkpt lat="43.73298754140734" lon="7.01300444236392"><ele>832.4</ele><time>2026-05-02T13:54:46.999Z</time></trkpt><trkpt lat="43.73302448017605" lon="7.012923696326158"><ele>830.2</ele><time>2026-05-02T13:54:47.999Z</time></trkpt><trkpt lat="43.73311530571527" lon="7.0128314538948056"><ele>828.0</ele><time>2026-05-02T13:54:48.999Z</time></trkpt><trkpt lat="43.733203488231105" lon="7.012759540219524"><ele>828.0</ele><time>2026-05-02T13:54:49.999Z</time></trkpt><trkpt lat="43.73328960992852" lon="7.012698654236949"><ele>828.0</ele><time>2026-05-02T13:54:50.999Z</time></trkpt><trkpt lat="43.73337797112774" lon="7.012639373230991"><ele>828.0</ele><time>2026-05-02T13:54:51.999Z</time></trkpt><trkpt lat="43.7334644939214" lon="7.0126044621938135"><ele>828.0</ele><time>2026-05-02T13:54:52.999Z</time></trkpt><trkpt lat="43.73352576136669" lon="7.012501401518895"><ele>828.0</ele><time>2026-05-02T13:54:54.999Z</time></trkpt><trkpt lat="43.73354535666519" lon="7.012396688232077"><ele>828.4</ele><time>2026-05-02T13:54:55.999Z</time></trkpt><trkpt lat="43.73354772107437" lon="7.012299227516313"><ele>828.8</ele><time>2026-05-02T13:54:56.999Z</time></trkpt><trkpt lat="43.733479201530926" lon="7.012167206285442"><ele>829.2</ele><time>2026-05-02T13:54:58.999Z</time></trkpt><trkpt lat="43.733454972552984" lon="7.012005758272876"><ele>829.6</ele><time>2026-05-02T13:55:00.999Z</time></trkpt><trkpt lat="43.73347396417591" lon="7.011899807868758"><ele>830.0</ele><time>2026-05-02T13:55:01.999Z</time></trkpt><trkpt lat="43.733513644872566" lon="7.0118270882039155"><ele>827.8333333333334</ele><time>2026-05-02T13:55:02.999Z</time></trkpt><trkpt lat="43.73360002148582" lon="7.011812698863798"><ele>825.6666666666667</ele><time>2026-05-02T13:55:03.999Z</time></trkpt><trkpt lat="43.73369423030013" lon="7.011812747494404"><ele>823.5</ele><time>2026-05-02T13:55:04.999Z</time></trkpt><trkpt lat="43.73376522289173" lon="7.011779461393534"><ele>821.3333333333333</ele><time>2026-05-02T13:55:05.999Z</time></trkpt><trkpt lat="43.73381814191053" lon="7.011703919260746"><ele>819.1666666666666</ele><time>2026-05-02T13:55:06.999Z</time></trkpt><trkpt lat="43.73387262966568" lon="7.011601759713186"><ele>817.0</ele><time>2026-05-02T13:55:07.999Z</time></trkpt><trkpt lat="43.733907828753395" lon="7.011506695188412"><ele>815.6</ele><time>2026-05-02T13:55:08.999Z</time></trkpt><trkpt lat="43.733951222815385" lon="7.011381118212319"><ele>814.2</ele><time>2026-05-02T13:55:10.999Z</time></trkpt><trkpt lat="43.73412651701781" lon="7.011384755179467"><ele>812.8</ele><time>2026-05-02T13:55:13.999Z</time></trkpt><trkpt lat="43.73419975807059" lon="7.011399863901957"><ele>811.4</ele><time>2026-05-02T13:55:14.999Z</time></trkpt><trkpt lat="43.73425860120171" lon="7.011432239793421"><ele>810.0</ele><time>2026-05-02T13:55:16.999Z</time></trkpt><trkpt lat="43.73426851728705" lon="7.011556948650046"><ele>811.4</ele><time>2026-05-02T13:55:18.999Z</time></trkpt><trkpt lat="43.734340574722985" lon="7.011686851211721"><ele>812.8</ele><time>2026-05-02T13:55:20.999Z</time></trkpt><trkpt lat="43.734400203067636" lon="7.01174459357638"><ele>814.2</ele><time>2026-05-02T13:55:21.999Z</time></trkpt><trkpt lat="43.734450082925385" lon="7.011891909569269"><ele>815.6</ele><time>2026-05-02T13:55:23.999Z</time></trkpt><trkpt lat="43.73450173930759" lon="7.01198907807568"><ele>817.0</ele><time>2026-05-02T13:55:24.999Z</time></trkpt><trkpt lat="43.73456490535778" lon="7.012074958886331"><ele>815.0</ele><time>2026-05-02T13:55:25.999Z</time></trkpt><trkpt lat="43.73464286861053" lon="7.012180416548531"><ele>813.0</ele><time>2026-05-02T13:55:26.999Z</time></trkpt><trkpt lat="43.73470867751334" lon="7.012292718602601"><ele>811.0</ele><time>2026-05-02T13:55:27.999Z</time></trkpt><trkpt lat="43.73475257332959" lon="7.012409802648746"><ele>809.0</ele><time>2026-05-02T13:55:28.999Z</time></trkpt><trkpt lat="43.73480074726531" lon="7.012522648147607"><ele>807.0</ele><time>2026-05-02T13:55:29.999Z</time></trkpt><trkpt lat="43.734862012233094" lon="7.012619389826862"><ele>807.0</ele><time>2026-05-02T13:55:30.999Z</time></trkpt><trkpt lat="43.73491324840629" lon="7.01268020293801"><ele>807.0</ele><time>2026-05-02T13:55:31.999Z</time></trkpt><trkpt lat="43.73497930792055" lon="7.012761601224198"><ele>807.0</ele><time>2026-05-02T13:55:32.999Z</time></trkpt><trkpt lat="43.73505178816209" lon="7.012831570361577"><ele>807.0</ele><time>2026-05-02T13:55:33.999Z</time></trkpt><trkpt lat="43.73511652492263" lon="7.0128388102528305"><ele>807.0</ele><time>2026-05-02T13:55:34.999Z</time></trkpt><trkpt lat="43.73518229386596" lon="7.012858299142376"><ele>807.0</ele><time>2026-05-02T13:55:35.999Z</time></trkpt><trkpt lat="43.735249398377654" lon="7.012915433462598"><ele>807.0</ele><time>2026-05-02T13:55:37Z</time></trkpt><trkpt lat="43.73529633158984" lon="7.012979659507113"><ele>807.0</ele><time>2026-05-02T13:55:38Z</time></trkpt><trkpt lat="43.73528819982567" lon="7.013153212301444"><ele>807.0</ele><time>2026-05-02T13:55:40Z</time></trkpt><trkpt lat="43.735230627645414" lon="7.013216031838523"><ele>807.0</ele><time>2026-05-02T13:55:41Z</time></trkpt><trkpt lat="43.73515352135914" lon="7.013271200645535"><ele>807.0</ele><time>2026-05-02T13:55:42Z</time></trkpt><trkpt lat="43.73508397853053" lon="7.013328819745016"><ele>807.0</ele><time>2026-05-02T13:55:43Z</time></trkpt><trkpt lat="43.73502046702677" lon="7.01338552866843"><ele>806.6</ele><time>2026-05-02T13:55:44Z</time></trkpt><trkpt lat="43.73492818970205" lon="7.013491132788361"><ele>806.2</ele><time>2026-05-02T13:55:46Z</time></trkpt><trkpt lat="43.73486032933512" lon="7.013556908930495"><ele>805.8</ele><time>2026-05-02T13:55:47Z</time></trkpt><trkpt lat="43.7347927084826" lon="7.013580935776047"><ele>805.4</ele><time>2026-05-02T13:55:48Z</time></trkpt><trkpt lat="43.734722270446625" lon="7.0137060469560595"><ele>805.0</ele><time>2026-05-02T13:55:50Z</time></trkpt><trkpt lat="43.73466714520357" lon="7.013874686922609"><ele>805.0</ele><time>2026-05-02T13:55:51Z</time></trkpt><trkpt lat="43.73461859122529" lon="7.0140026661043"><ele>805.0</ele><time>2026-05-02T13:55:52Z</time></trkpt><trkpt lat="43.73459071133302" lon="7.014087782337379"><ele>805.0</ele><time>2026-05-02T13:55:53Z</time></trkpt><trkpt lat="43.734567698424925" lon="7.014230301620128"><ele>805.0</ele><time>2026-05-02T13:55:55Z</time></trkpt><trkpt lat="43.73455417652464" lon="7.0143275892995645"><ele>805.0</ele><time>2026-05-02T13:55:56Z</time></trkpt><trkpt lat="43.73453628731535" lon="7.014469438322774"><ele>803.8</ele><time>2026-05-02T13:55:58Z</time></trkpt><trkpt lat="43.73455174132875" lon="7.014565724032445"><ele>802.6</ele><time>2026-05-02T13:56:00Z</time></trkpt><trkpt lat="43.73461336997773" lon="7.014611350583137"><ele>801.4000000000001</ele><time>2026-05-02T13:56:02Z</time></trkpt><trkpt lat="43.734689982424754" lon="7.014676572298692"><ele>800.2</ele><time>2026-05-02T13:56:04Z</time></trkpt><trkpt lat="43.734818655436726" lon="7.014819039498651"><ele>799.0</ele><time>2026-05-02T13:56:06Z</time></trkpt><trkpt lat="43.73493195125395" lon="7.014832275208656"><ele>798.9999999999999</ele><time>2026-05-02T13:56:08Z</time></trkpt><trkpt lat="43.73500296407874" lon="7.014777059622711"><ele>799.0</ele><time>2026-05-02T13:56:10Z</time></trkpt><trkpt lat="43.73507147692418" lon="7.01480100799329"><ele>799.0</ele><time>2026-05-02T13:56:11Z</time></trkpt><trkpt lat="43.73513399533653" lon="7.014746691188669"><ele>799.0</ele><time>2026-05-02T13:56:12Z</time></trkpt><trkpt lat="43.73521217270542" lon="7.014653354619285"><ele>798.9999999999999</ele><time>2026-05-02T13:56:13Z</time></trkpt><trkpt lat="43.73533136812268" lon="7.014640716728754"><ele>799.0</ele><time>2026-05-02T13:56:15Z</time></trkpt><trkpt lat="43.735457822136034" lon="7.01460794797715"><ele>796.8000000000001</ele><time>2026-05-02T13:56:17Z</time></trkpt><trkpt lat="43.73558828642671" lon="7.014641381028882"><ele>794.6</ele><time>2026-05-02T13:56:19Z</time></trkpt><trkpt lat="43.73566972647333" lon="7.014657255452067"><ele>792.4</ele><time>2026-05-02T13:56:20Z</time></trkpt><trkpt lat="43.73577756967663" lon="7.014636164430547"><ele>790.2</ele><time>2026-05-02T13:56:22Z</time></trkpt><trkpt lat="43.73585475600099" lon="7.014568842256774"><ele>788.0</ele><time>2026-05-02T13:56:23Z</time></trkpt><trkpt lat="43.735945750122376" lon="7.014512282474996"><ele>788.0000000000001</ele><time>2026-05-02T13:56:24Z</time></trkpt><trkpt lat="43.736039116756054" lon="7.014503910191058"><ele>788.0</ele><time>2026-05-02T13:56:25Z</time></trkpt><trkpt lat="43.73612797594177" lon="7.0145357462638716"><ele>788.0</ele><time>2026-05-02T13:56:26Z</time></trkpt><trkpt lat="43.73619848408389" lon="7.014550824565615"><ele>788.0</ele><time>2026-05-02T13:56:27Z</time></trkpt><trkpt lat="43.73628180385853" lon="7.014537790864291"><ele>788.0000000000001</ele><time>2026-05-02T13:56:29Z</time></trkpt><trkpt lat="43.73634555749478" lon="7.0144497965019275"><ele>788.0</ele><time>2026-05-02T13:56:31Z</time></trkpt><trkpt lat="43.736364738827994" lon="7.014292744292803"><ele>784.25</ele><time>2026-05-02T13:56:33Z</time></trkpt><trkpt lat="43.73635379043711" lon="7.014104449165071"><ele>780.5</ele><time>2026-05-02T13:56:35Z</time></trkpt><trkpt lat="43.736408883765215" lon="7.014006519612511"><ele>776.75</ele><time>2026-05-02T13:56:36Z</time></trkpt><trkpt lat="43.73647416356724" lon="7.013868825723299"><ele>773.0</ele><time>2026-05-02T13:56:38Z</time></trkpt><trkpt lat="43.736418763524696" lon="7.013737830463564"><ele>773.0</ele><time>2026-05-02T13:56:40Z</time></trkpt><trkpt lat="43.73647067561651" lon="7.01362573313348"><ele>773.0</ele><time>2026-05-02T13:56:43Z</time></trkpt><trkpt lat="43.73652231828615" lon="7.013680546098177"><ele>773.0</ele><time>2026-05-02T13:56:45Z</time></trkpt><trkpt lat="43.73660560256262" lon="7.013762844673395"><ele>773.0</ele><time>2026-05-02T13:56:47Z</time></trkpt><trkpt lat="43.73667191317414" lon="7.013884924159689"><ele>773.0</ele><time>2026-05-02T13:56:49Z</time></trkpt><trkpt lat="43.73675669694376" lon="7.013874914347245"><ele>773.0</ele><time>2026-05-02T13:56:52.999Z</time></trkpt><trkpt lat="43.7368029317782" lon="7.013724091037573"><ele>773.0</ele><time>2026-05-02T13:56:54.999Z</time></trkpt><trkpt lat="43.736819355407285" lon="7.013588467647064"><ele>773.0</ele><time>2026-05-02T13:56:55.999Z</time></trkpt><trkpt lat="43.73684039381476" lon="7.013439909346972"><ele>773.0</ele><time>2026-05-02T13:56:56.999Z</time></trkpt><trkpt lat="43.736884589941134" lon="7.01334896363786"><ele>773.0</ele><time>2026-05-02T13:56:57.999Z</time></trkpt><trkpt lat="43.736959399803574" lon="7.013284183075931"><ele>772.5714285714286</ele><time>2026-05-02T13:56:59.999Z</time></trkpt><trkpt lat="43.73702105209781" lon="7.013211800147086"><ele>772.1428571428571</ele><time>2026-05-02T13:57:01.999Z</time></trkpt><trkpt lat="43.736968792369126" lon="7.013108802830801"><ele>771.7142857142858</ele><time>2026-05-02T13:57:04.999Z</time></trkpt><trkpt lat="43.73692588430831" lon="7.0130437690807454"><ele>771.2857142857142</ele><time>2026-05-02T13:57:05.999Z</time></trkpt><trkpt lat="43.736874242402735" lon="7.0129830287207735"><ele>770.8571428571429</ele><time>2026-05-02T13:57:06.999Z</time></trkpt><trkpt lat="43.736829029016995" lon="7.012921016858042"><ele>770.4285714285714</ele><time>2026-05-02T13:57:07.999Z</time></trkpt><trkpt lat="43.73676839004178" lon="7.01288627695887"><ele>770.0</ele><time>2026-05-02T13:57:09.999Z</time></trkpt><trkpt lat="43.73670746409868" lon="7.012776578069037"><ele>770.0</ele><time>2026-05-02T13:57:11.999Z</time></trkpt><trkpt lat="43.73664791509544" lon="7.01273027402952"><ele>770.0</ele><time>2026-05-02T13:57:12.999Z</time></trkpt><trkpt lat="43.73654743377322" lon="7.012495973840187"><ele>770.0</ele><time>2026-05-02T13:57:13.999Z</time></trkpt><trkpt lat="43.73644479962475" lon="7.012387818458183"><ele>770.0</ele><time>2026-05-02T13:57:14.999Z</time></trkpt><trkpt lat="43.73635852138581" lon="7.012260381647365"><ele>768.8</ele><time>2026-05-02T13:57:15.999Z</time></trkpt><trkpt lat="43.73626491697448" lon="7.012149562701133"><ele>767.6</ele><time>2026-05-02T13:57:17.999Z</time></trkpt><trkpt lat="43.73622400136658" lon="7.012026945973127"><ele>766.4000000000001</ele><time>2026-05-02T13:57:18.999Z</time></trkpt><trkpt lat="43.73619303179876" lon="7.01189475453884"><ele>765.2</ele><time>2026-05-02T13:57:19.999Z</time></trkpt><trkpt lat="43.736176987113886" lon="7.011780960625917"><ele>764.0</ele><time>2026-05-02T13:57:20.999Z</time></trkpt><trkpt lat="43.736182328854326" lon="7.011665738104007"><ele>765.3333333333333</ele><time>2026-05-02T13:57:21.999Z</time></trkpt><trkpt lat="43.73617261164722" lon="7.011573791941489"><ele>766.6666666666666</ele><time>2026-05-02T13:57:22.999Z</time></trkpt><trkpt lat="43.736136590556136" lon="7.011485342468604"><ele>768.0</ele><time>2026-05-02T13:57:23.999Z</time></trkpt><trkpt lat="43.73609749767648" lon="7.011360129783286"><ele>769.3333333333333</ele><time>2026-05-02T13:57:24.999Z</time></trkpt><trkpt lat="43.73607166302533" lon="7.011238291723654"><ele>770.6666666666666</ele><time>2026-05-02T13:57:26.999Z</time></trkpt><trkpt lat="43.736011948915674" lon="7.011266480314459"><ele>772.0</ele><time>2026-05-02T13:57:28.999Z</time></trkpt><trkpt lat="43.735973637266184" lon="7.011018034129117"><ele>772.0</ele><time>2026-05-02T13:57:33.999Z</time></trkpt><trkpt lat="43.73595808005734" lon="7.010912480465619"><ele>772.0</ele><time>2026-05-02T13:57:34.999Z</time></trkpt><trkpt lat="43.73596583003535" lon="7.010771096398769"><ele>772.0</ele><time>2026-05-02T13:57:36.999Z</time></trkpt><trkpt lat="43.73600355059195" lon="7.01062679290183"><ele>772.0</ele><time>2026-05-02T13:57:37.999Z</time></trkpt><trkpt lat="43.73596701481368" lon="7.01041079233439"><ele>772.1666666666666</ele><time>2026-05-02T13:57:39.999Z</time></trkpt><trkpt lat="43.7359556196769" lon="7.010301765978424"><ele>772.3333333333333</ele><time>2026-05-02T13:57:40.999Z</time></trkpt><trkpt lat="43.735941887679985" lon="7.010181054850104"><ele>772.5</ele><time>2026-05-02T13:57:41.999Z</time></trkpt><trkpt lat="43.73593209857598" lon="7.010054547850117"><ele>772.6666666666667</ele><time>2026-05-02T13:57:43Z</time></trkpt><trkpt lat="43.735932543223775" lon="7.009942536263505"><ele>772.8333333333334</ele><time>2026-05-02T13:57:44Z</time></trkpt><trkpt lat="43.73592673093065" lon="7.009829366476931"><ele>773.0</ele><time>2026-05-02T13:57:45Z</time></trkpt><trkpt lat="43.73592101271284" lon="7.0097369915474195"><ele>773.0</ele><time>2026-05-02T13:57:46Z</time></trkpt><trkpt lat="43.73594760723767" lon="7.00957873624159"><ele>773.0</ele><time>2026-05-02T13:57:48Z</time></trkpt><trkpt lat="43.73589554795255" lon="7.0096297229556095"><ele>773.0</ele><time>2026-05-02T13:57:56Z</time></trkpt><trkpt lat="43.735992674840524" lon="7.009588485294056"><ele>773.0</ele><time>2026-05-02T13:58:19Z</time></trkpt><trkpt lat="43.73599059683056" lon="7.009719338761"><ele>773.0</ele><time>2026-05-02T13:58:23Z</time></trkpt><trkpt lat="43.73600505575561" lon="7.009865238512887"><ele>765.75</ele><time>2026-05-02T13:58:25Z</time></trkpt><trkpt lat="43.73606222060867" lon="7.010014475183843"><ele>758.5</ele><time>2026-05-02T13:58:27Z</time></trkpt><trkpt lat="43.73611759599027" lon="7.010124914853923"><ele>751.25</ele><time>2026-05-02T13:58:29Z</time></trkpt><trkpt lat="43.736151773022094" lon="7.01029652589651"><ele>744.0</ele><time>2026-05-02T13:58:31Z</time></trkpt><trkpt lat="43.73610462085008" lon="7.01048792026208"><ele>744.0</ele><time>2026-05-02T13:58:33Z</time></trkpt><trkpt lat="43.736061689000344" lon="7.010617967095468"><ele>744.0</ele><time>2026-05-02T13:58:34Z</time></trkpt><trkpt lat="43.73604313509913" lon="7.010720174065472"><ele>744.0</ele><time>2026-05-02T13:58:35Z</time></trkpt><trkpt lat="43.73605248871458" lon="7.0108221224205"><ele>744.0</ele><time>2026-05-02T13:58:36Z</time></trkpt><trkpt lat="43.736066454593875" lon="7.010929508134788"><ele>744.0</ele><time>2026-05-02T13:58:37Z</time></trkpt><trkpt lat="43.736105991776554" lon="7.011029058674204"><ele>744.0</ele><time>2026-05-02T13:58:39Z</time></trkpt><trkpt lat="43.73615798911633" lon="7.011093474707057"><ele>745.3333333333334</ele><time>2026-05-02T13:58:42Z</time></trkpt><trkpt lat="43.73617835779771" lon="7.011189282469033"><ele>746.6666666666666</ele><time>2026-05-02T13:58:44Z</time></trkpt><trkpt lat="43.73623228752179" lon="7.0112579701587165"><ele>748.0</ele><time>2026-05-02T13:58:45Z</time></trkpt><trkpt lat="43.73627938110958" lon="7.011327639635956"><ele>749.3333333333333</ele><time>2026-05-02T13:58:46Z</time></trkpt><trkpt lat="43.73627285327723" lon="7.011464134432904"><ele>750.6666666666666</ele><time>2026-05-02T13:58:49Z</time></trkpt><trkpt lat="43.73628926698224" lon="7.011557280106501"><ele>752.0</ele><time>2026-05-02T13:58:52Z</time></trkpt><trkpt lat="43.73634280345438" lon="7.011622545972121"><ele>764.0</ele><time>2026-05-02T13:58:55Z</time></trkpt><trkpt lat="43.736592179500605" lon="7.012242764465205"><ele>764.0</ele><time>2026-05-02T13:58:56.999Z</time></trkpt><trkpt lat="43.73665229627718" lon="7.012335299398632"><ele>764.0</ele><time>2026-05-02T13:58:57.999Z</time></trkpt><trkpt lat="43.7367010676328" lon="7.012427009593664"><ele>764.0</ele><time>2026-05-02T13:58:58.999Z</time></trkpt><trkpt lat="43.73674430128783" lon="7.012510332717433"><ele>764.0</ele><time>2026-05-02T13:58:59.999Z</time></trkpt><trkpt lat="43.73677816192676" lon="7.012586342129092"><ele>764.0</ele><time>2026-05-02T13:59:00.999Z</time></trkpt><trkpt lat="43.736815948732165" lon="7.012659953033517"><ele>764.0</ele><time>2026-05-02T13:59:01.999Z</time></trkpt><trkpt lat="43.7368593145755" lon="7.012742234247595"><ele>763.2</ele><time>2026-05-02T13:59:02.999Z</time></trkpt><trkpt lat="43.73691988755211" lon="7.012835074879974"><ele>762.4000000000001</ele><time>2026-05-02T13:59:03.999Z</time></trkpt><trkpt lat="43.736988747935534" lon="7.012949994911367"><ele>761.6</ele><time>2026-05-02T13:59:04.999Z</time></trkpt><trkpt lat="43.73704795526776" lon="7.013044797115509"><ele>760.8</ele><time>2026-05-02T13:59:05.999Z</time></trkpt><trkpt lat="43.73709928768894" lon="7.013123449468988"><ele>760.0</ele><time>2026-05-02T13:59:06.999Z</time></trkpt><trkpt lat="43.737121155310014" lon="7.013241211055533"><ele>760.0</ele><time>2026-05-02T13:59:07.999Z</time></trkpt><trkpt lat="43.73702482589908" lon="7.013265841024657"><ele>760.0</ele><time>2026-05-02T13:59:09.999Z</time></trkpt><trkpt lat="43.736921469192346" lon="7.013368395055587"><ele>760.0</ele><time>2026-05-02T13:59:11.999Z</time></trkpt><trkpt lat="43.73687832630059" lon="7.013517427459987"><ele>760.0</ele><time>2026-05-02T13:59:13.999Z</time></trkpt><trkpt lat="43.736847253382194" lon="7.0136420455725395"><ele>760.0</ele><time>2026-05-02T13:59:14.999Z</time></trkpt><trkpt lat="43.73657205265721" lon="7.013166902044699"><ele>762.5</ele><time>2026-05-02T13:59:15.999Z</time></trkpt><trkpt lat="43.73646397907016" lon="7.01320180223593"><ele>765.0</ele><time>2026-05-02T13:59:18.999Z</time></trkpt><trkpt lat="43.736483907064894" lon="7.013347968919"><ele>767.5</ele><time>2026-05-02T13:59:20.999Z</time></trkpt><trkpt lat="43.736479398494644" lon="7.013582153866392"><ele>770.0</ele><time>2026-05-02T13:59:23.999Z</time></trkpt><trkpt lat="43.73641005877363" lon="7.013613352063766"><ele>770.5000000000001</ele><time>2026-05-02T13:59:25.999Z</time></trkpt><trkpt lat="43.73640133806379" lon="7.013748872730276"><ele>771.0</ele><time>2026-05-02T13:59:27.999Z</time></trkpt><trkpt lat="43.736439041863584" lon="7.013835747459083"><ele>771.5</ele><time>2026-05-02T13:59:28.999Z</time></trkpt><trkpt lat="43.73647432436483" lon="7.013936377457448"><ele>772.0</ele><time>2026-05-02T13:59:29.999Z</time></trkpt><trkpt lat="43.736411559655735" lon="7.014046292529104"><ele>772.5000000000001</ele><time>2026-05-02T13:59:31.999Z</time></trkpt><trkpt lat="43.736371131237966" lon="7.014127767436475"><ele>773.0</ele><time>2026-05-02T13:59:32.999Z</time></trkpt><trkpt lat="43.73636760470671" lon="7.014217031735577"><ele>773.5999999999999</ele><time>2026-05-02T13:59:33.999Z</time></trkpt><trkpt lat="43.73638197034829" lon="7.014352040192006"><ele>774.1999999999999</ele><time>2026-05-02T13:59:34.999Z</time></trkpt><trkpt lat="43.73638595509619" lon="7.014467694383086"><ele>774.8</ele><time>2026-05-02T13:59:35.999Z</time></trkpt><trkpt lat="43.736354765913816" lon="7.014559882510989"><ele>775.4</ele><time>2026-05-02T13:59:36.999Z</time></trkpt><trkpt lat="43.73638663380855" lon="7.014684054868697"><ele>776.0</ele><time>2026-05-02T13:59:38.999Z</time></trkpt><trkpt lat="43.73647861130608" lon="7.014744534802157"><ele>776.0</ele><time>2026-05-02T13:59:40.999Z</time></trkpt><trkpt lat="43.736546428304386" lon="7.014749053605592"><ele>776.0</ele><time>2026-05-02T13:59:43.999Z</time></trkpt><trkpt lat="43.73661431110306" lon="7.01472282515887"><ele>776.0</ele><time>2026-05-02T13:59:47.999Z</time></trkpt><trkpt lat="43.73654863066395" lon="7.014730411704156"><ele>776.0</ele><time>2026-05-02T14:00:38Z</time></trkpt><trkpt lat="43.73648732140534" lon="7.0147557247043855"><ele>776.0</ele><time>2026-05-02T14:00:41Z</time></trkpt><trkpt lat="43.736398632470824" lon="7.014754181026686"><ele>776.0</ele><time>2026-05-02T14:00:43Z</time></trkpt><trkpt lat="43.736340100662446" lon="7.0146633447507645"><ele>776.0</ele><time>2026-05-02T14:00:45Z</time></trkpt><trkpt lat="43.73627008964584" lon="7.0146348539477446"><ele>776.0000000000001</ele><time>2026-05-02T14:00:47Z</time></trkpt><trkpt lat="43.73620150108112" lon="7.014611865247825"><ele>776.0</ele><time>2026-05-02T14:00:48Z</time></trkpt><trkpt lat="43.73613768086807" lon="7.014622868261451"><ele>776.0</ele><time>2026-05-02T14:00:49Z</time></trkpt><trkpt lat="43.73600979571068" lon="7.014640414820363"><ele>776.0</ele><time>2026-05-02T14:00:51Z</time></trkpt><trkpt lat="43.73593328463924" lon="7.014680796568804"><ele>776.0000000000001</ele><time>2026-05-02T14:00:52Z</time></trkpt><trkpt lat="43.73586542957965" lon="7.014752508333273"><ele>776.0</ele><time>2026-05-02T14:00:53Z</time></trkpt><trkpt lat="43.73575262861356" lon="7.01476559866558"><ele>778.0000000000001</ele><time>2026-05-02T14:00:55Z</time></trkpt><trkpt lat="43.7356749039984" lon="7.014725099939624"><ele>780.0</ele><time>2026-05-02T14:00:56Z</time></trkpt><trkpt lat="43.73557209031961" lon="7.014666343231762"><ele>782.0</ele><time>2026-05-02T14:00:57Z</time></trkpt><trkpt lat="43.735486252258795" lon="7.014629405301428"><ele>784.0</ele><time>2026-05-02T14:00:58Z</time></trkpt><trkpt lat="43.735402894656914" lon="7.01465230031445"><ele>786.0000000000001</ele><time>2026-05-02T14:00:59Z</time></trkpt><trkpt lat="43.73533350306882" lon="7.014687828668423"><ele>788.0</ele><time>2026-05-02T14:01:00Z</time></trkpt><trkpt lat="43.7352796111053" lon="7.014754350486244"><ele>788.0000000000001</ele><time>2026-05-02T14:01:01Z</time></trkpt><trkpt lat="43.735229984867225" lon="7.014828312837891"><ele>788.0</ele><time>2026-05-02T14:01:02Z</time></trkpt><trkpt lat="43.735155308292505" lon="7.014880397538482"><ele>788.0</ele><time>2026-05-02T14:01:03Z</time></trkpt><trkpt lat="43.735061709413884" lon="7.014907032460491"><ele>788.0</ele><time>2026-05-02T14:01:04Z</time></trkpt><trkpt lat="43.73499807025814" lon="7.014908485706929"><ele>788.0000000000001</ele><time>2026-05-02T14:01:05Z</time></trkpt><trkpt lat="43.73489439836968" lon="7.0149363015779755"><ele>788.0</ele><time>2026-05-02T14:01:06.999Z</time></trkpt><trkpt lat="43.734829661614036" lon="7.014898258485141"><ele>789.8333333333334</ele><time>2026-05-02T14:01:07.999Z</time></trkpt><trkpt lat="43.7347525915035" lon="7.014828221689744"><ele>791.6666666666667</ele><time>2026-05-02T14:01:08.999Z</time></trkpt><trkpt lat="43.73468884508735" lon="7.014784858899551"><ele>793.5</ele><time>2026-05-02T14:01:09.999Z</time></trkpt><trkpt lat="43.7346098341761" lon="7.014701162940806"><ele>795.3333333333333</ele><time>2026-05-02T14:01:10.999Z</time></trkpt><trkpt lat="43.73453471994941" lon="7.014675293474637"><ele>797.1666666666666</ele><time>2026-05-02T14:01:11.999Z</time></trkpt><trkpt lat="43.73446727252794" lon="7.014592664081145"><ele>799.0</ele><time>2026-05-02T14:01:13.999Z</time></trkpt><trkpt lat="43.73446195437033" lon="7.014437175186623"><ele>799.0</ele><time>2026-05-02T14:01:15.999Z</time></trkpt><trkpt lat="43.73447409442793" lon="7.014341236728619"><ele>799.0</ele><time>2026-05-02T14:01:16.999Z</time></trkpt><trkpt lat="43.734468688459955" lon="7.014231510426587"><ele>799.0</ele><time>2026-05-02T14:01:17.999Z</time></trkpt><trkpt lat="43.73447917827723" lon="7.014103028638027"><ele>799.0</ele><time>2026-05-02T14:01:18.999Z</time></trkpt><trkpt lat="43.73452151647701" lon="7.013957306988027"><ele>799.0</ele><time>2026-05-02T14:01:19.999Z</time></trkpt><trkpt lat="43.73453488372345" lon="7.013798401737386"><ele>800.2</ele><time>2026-05-02T14:01:20.999Z</time></trkpt><trkpt lat="43.7345624380914" lon="7.013654017957813"><ele>801.4000000000001</ele><time>2026-05-02T14:01:21.999Z</time></trkpt><trkpt lat="43.73462399176162" lon="7.0135768614280956"><ele>802.6</ele><time>2026-05-02T14:01:22.999Z</time></trkpt><trkpt lat="43.73469993829507" lon="7.013491115225631"><ele>803.8</ele><time>2026-05-02T14:01:23.999Z</time></trkpt><trkpt lat="43.73478493301847" lon="7.013418550576228"><ele>805.0</ele><time>2026-05-02T14:01:24.999Z</time></trkpt><trkpt lat="43.7348420536032" lon="7.013355299764782"><ele>805.3333333333333</ele><time>2026-05-02T14:01:25.999Z</time></trkpt><trkpt lat="43.734928181119884" lon="7.013302558997543"><ele>805.6666666666666</ele><time>2026-05-02T14:01:26.999Z</time></trkpt><trkpt lat="43.73499616701544" lon="7.01325589973376"><ele>806.0</ele><time>2026-05-02T14:01:27.999Z</time></trkpt><trkpt lat="43.735060182314776" lon="7.0131782026538465"><ele>806.3333333333333</ele><time>2026-05-02T14:01:28.999Z</time></trkpt><trkpt lat="43.735104201025045" lon="7.013112072748718"><ele>806.6666666666666</ele><time>2026-05-02T14:01:29.999Z</time></trkpt><trkpt lat="43.73511008932264" lon="7.012975119448245"><ele>807.0</ele><time>2026-05-02T14:01:31.999Z</time></trkpt><trkpt lat="43.73503870276077" lon="7.012885182409472"><ele>807.0</ele><time>2026-05-02T14:01:33.999Z</time></trkpt><trkpt lat="43.73495742164114" lon="7.01285084928862"><ele>807.0</ele><time>2026-05-02T14:01:34.999Z</time></trkpt><trkpt lat="43.73487994400738" lon="7.0127785824758835"><ele>807.0</ele><time>2026-05-02T14:01:35.999Z</time></trkpt><trkpt lat="43.73482239750551" lon="7.012710972639843"><ele>807.0</ele><time>2026-05-02T14:01:36.999Z</time></trkpt><trkpt lat="43.73473453753091" lon="7.012518725825849"><ele>807.0</ele><time>2026-05-02T14:01:38.999Z</time></trkpt><trkpt lat="43.73469254975276" lon="7.012401943755711"><ele>805.8</ele><time>2026-05-02T14:01:39.999Z</time></trkpt><trkpt lat="43.73461051513814" lon="7.01226379622413"><ele>804.6</ele><time>2026-05-02T14:01:40.999Z</time></trkpt><trkpt lat="43.73453931821782" lon="7.012174436785798"><ele>803.4</ele><time>2026-05-02T14:01:41.999Z</time></trkpt><trkpt lat="43.73446856893253" lon="7.0121116788857645"><ele>802.1999999999999</ele><time>2026-05-02T14:01:42.999Z</time></trkpt><trkpt lat="43.73442370509213" lon="7.012005011545002"><ele>801.0</ele><time>2026-05-02T14:01:43.999Z</time></trkpt><trkpt lat="43.73436128744475" lon="7.011877103386731"><ele>802.5</ele><time>2026-05-02T14:01:45.999Z</time></trkpt><trkpt lat="43.73431546320069" lon="7.0117940608021625"><ele>804.0</ele><time>2026-05-02T14:01:46.999Z</time></trkpt><trkpt lat="43.734267340713664" lon="7.0117044278421865"><ele>805.5</ele><time>2026-05-02T14:01:47.999Z</time></trkpt><trkpt lat="43.734250365092166" lon="7.011556480083554"><ele>807.0</ele><time>2026-05-02T14:01:48.999Z</time></trkpt><trkpt lat="43.73419382454252" lon="7.011474050987067"><ele>808.5</ele><time>2026-05-02T14:01:50.999Z</time></trkpt><trkpt lat="43.73412997758445" lon="7.011467715609812"><ele>810.0</ele><time>2026-05-02T14:01:51.999Z</time></trkpt><trkpt lat="43.73405251296611" lon="7.011446247072326"><ele>810.0</ele><time>2026-05-02T14:01:52.999Z</time></trkpt><trkpt lat="43.73397223285835" lon="7.011461557102273"><ele>810.0</ele><time>2026-05-02T14:01:53.999Z</time></trkpt><trkpt lat="43.7339029016959" lon="7.011571259794241"><ele>810.0</ele><time>2026-05-02T14:01:57.001Z</time></trkpt><trkpt lat="43.73388365152665" lon="7.011678327129614"><ele>810.0</ele><time>2026-05-02T14:01:58.001Z</time></trkpt><trkpt lat="43.7338478091538" lon="7.011753215561267"><ele>810.0</ele><time>2026-05-02T14:01:59.001Z</time></trkpt><trkpt lat="43.7337626499637" lon="7.011808190103418"><ele>810.0</ele><time>2026-05-02T14:02:00Z</time></trkpt><trkpt lat="43.73366315200425" lon="7.011834144019746"><ele>811.1666666666666</ele><time>2026-05-02T14:02:01Z</time></trkpt><trkpt lat="43.73358322943725" lon="7.0118632667171"><ele>812.3333333333333</ele><time>2026-05-02T14:02:02Z</time></trkpt><trkpt lat="43.733516658834866" lon="7.011888699526481"><ele>813.5</ele><time>2026-05-02T14:02:03Z</time></trkpt><trkpt lat="43.73349039947426" lon="7.012044726032298"><ele>814.6666666666666</ele><time>2026-05-02T14:02:05Z</time></trkpt><trkpt lat="43.733511810496836" lon="7.012154778255328"><ele>815.8333333333333</ele><time>2026-05-02T14:02:06Z</time></trkpt><trkpt lat="43.73353104476233" lon="7.012260118251264"><ele>817.0</ele><time>2026-05-02T14:02:07Z</time></trkpt><trkpt lat="43.73359283031591" lon="7.012404380490303"><ele>817.8</ele><time>2026-05-02T14:02:09Z</time></trkpt><trkpt lat="43.73356851882683" lon="7.012553764057516"><ele>818.6</ele><time>2026-05-02T14:02:11Z</time></trkpt><trkpt lat="43.73347865201091" lon="7.012650802684582"><ele>819.4</ele><time>2026-05-02T14:02:13Z</time></trkpt><trkpt lat="43.73340780231209" lon="7.012680174082963"><ele>820.1999999999999</ele><time>2026-05-02T14:02:14Z</time></trkpt><trkpt lat="43.73331119710616" lon="7.012714446310497"><ele>821.0</ele><time>2026-05-02T14:02:15Z</time></trkpt><trkpt lat="43.733238705358055" lon="7.012787823827352"><ele>822.4</ele><time>2026-05-02T14:02:16Z</time></trkpt><trkpt lat="43.73317546424424" lon="7.012864056352958"><ele>823.8</ele><time>2026-05-02T14:02:17Z</time></trkpt><trkpt lat="43.733110243454824" lon="7.012954138308192"><ele>825.1999999999999</ele><time>2026-05-02T14:02:18Z</time></trkpt><trkpt lat="43.733010233017595" lon="7.013024825154761"><ele>826.5999999999999</ele><time>2026-05-02T14:02:19Z</time></trkpt><trkpt lat="43.73294404525063" lon="7.013092914942089"><ele>828.0</ele><time>2026-05-02T14:02:20Z</time></trkpt><trkpt lat="43.73292184022928" lon="7.013233645598873"><ele>828.0</ele><time>2026-05-02T14:02:23Z</time></trkpt><trkpt lat="43.732858874658405" lon="7.013265941998505"><ele>828.0</ele><time>2026-05-02T14:02:25Z</time></trkpt><trkpt lat="43.73272124721871" lon="7.013259124521061"><ele>828.0</ele><time>2026-05-02T14:02:27Z</time></trkpt><trkpt lat="43.73264186318063" lon="7.0132875608943825"><ele>828.0</ele><time>2026-05-02T14:02:28Z</time></trkpt><trkpt lat="43.73257376204118" lon="7.013330723384555"><ele>828.0</ele><time>2026-05-02T14:02:29Z</time></trkpt><trkpt lat="43.732532702964264" lon="7.013439965110343"><ele>830.2</ele><time>2026-05-02T14:02:31Z</time></trkpt><trkpt lat="43.73250904985697" lon="7.013569431456262"><ele>832.4</ele><time>2026-05-02T14:02:33Z</time></trkpt><trkpt lat="43.73248953628024" lon="7.0136756693607065"><ele>834.6</ele><time>2026-05-02T14:02:34Z</time></trkpt><trkpt lat="43.73247558822789" lon="7.013811911266822"><ele>836.8000000000001</ele><time>2026-05-02T14:02:35Z</time></trkpt><trkpt lat="43.732483752284246" lon="7.013938139064927"><ele>839.0</ele><time>2026-05-02T14:02:36Z</time></trkpt><trkpt lat="43.73252110487097" lon="7.014069299105974"><ele>840.0000000000001</ele><time>2026-05-02T14:02:37Z</time></trkpt><trkpt lat="43.73255857444168" lon="7.014160100338439"><ele>841.0</ele><time>2026-05-02T14:02:38Z</time></trkpt><trkpt lat="43.73260574409387" lon="7.014223342075474"><ele>842.0</ele><time>2026-05-02T14:02:39Z</time></trkpt><trkpt lat="43.73266921687869" lon="7.014325171694148"><ele>843.0</ele><time>2026-05-02T14:02:41Z</time></trkpt><trkpt lat="43.732608479973386" lon="7.014363303310702"><ele>844.0000000000001</ele><time>2026-05-02T14:02:45Z</time></trkpt><trkpt lat="43.732545813932894" lon="7.01429310583059"><ele>845.0</ele><time>2026-05-02T14:02:56Z</time></trkpt><trkpt lat="43.73246601858858" lon="7.014242643866808"><ele>845.0000000000001</ele><time>2026-05-02T14:02:58Z</time></trkpt><trkpt lat="43.732399097270715" lon="7.014187179784272"><ele>845.0</ele><time>2026-05-02T14:02:59Z</time></trkpt><trkpt lat="43.73232397175433" lon="7.014132422800404"><ele>845.0</ele><time>2026-05-02T14:03:00Z</time></trkpt><trkpt lat="43.732256405029915" lon="7.014045781010391"><ele>845.0</ele><time>2026-05-02T14:03:01Z</time></trkpt><trkpt lat="43.73219141642992" lon="7.013956952639071"><ele>845.0000000000001</ele><time>2026-05-02T14:03:02Z</time></trkpt><trkpt lat="43.73213573402088" lon="7.013867529834263"><ele>845.0</ele><time>2026-05-02T14:03:03Z</time></trkpt><trkpt lat="43.732083495327245" lon="7.013788619847208"><ele>845.0000000000001</ele><time>2026-05-02T14:03:04Z</time></trkpt><trkpt lat="43.73204761679157" lon="7.013706365656006"><ele>845.0</ele><time>2026-05-02T14:03:05Z</time></trkpt><trkpt lat="43.73199739224171" lon="7.013640292797541"><ele>845.0</ele><time>2026-05-02T14:03:06Z</time></trkpt><trkpt lat="43.731940621620645" lon="7.013561919314321"><ele>845.0</ele><time>2026-05-02T14:03:07Z</time></trkpt><trkpt lat="43.73187206487718" lon="7.013440976771146"><ele>845.0000000000001</ele><time>2026-05-02T14:03:09Z</time></trkpt><trkpt lat="43.731822978068884" lon="7.0133853893374605"><ele>845.0</ele><time>2026-05-02T14:03:10Z</time></trkpt><trkpt lat="43.73176896552832" lon="7.013320441214284"><ele>845.0000000000001</ele><time>2026-05-02T14:03:10.999Z</time></trkpt><trkpt lat="43.7317063372049" lon="7.013252246508943"><ele>845.0</ele><time>2026-05-02T14:03:11.999Z</time></trkpt><trkpt lat="43.73164472843639" lon="7.013177636805894"><ele>845.0</ele><time>2026-05-02T14:03:12.999Z</time></trkpt><trkpt lat="43.73157857053321" lon="7.013116981413988"><ele>845.0</ele><time>2026-05-02T14:03:13.999Z</time></trkpt><trkpt lat="43.73150514003036" lon="7.013062225133915"><ele>845.0000000000001</ele><time>2026-05-02T14:03:14.999Z</time></trkpt><trkpt lat="43.73143617346111" lon="7.013031822083354"><ele>845.0</ele><time>2026-05-02T14:03:15.999Z</time></trkpt><trkpt lat="43.73136888152955" lon="7.013027588584578"><ele>845.0000000000001</ele><time>2026-05-02T14:03:16.999Z</time></trkpt><trkpt lat="43.73130363007221" lon="7.013041428339558"><ele>845.0</ele><time>2026-05-02T14:03:17.999Z</time></trkpt><trkpt lat="43.731229809169406" lon="7.013062429958292"><ele>845.0</ele><time>2026-05-02T14:03:18.999Z</time></trkpt><trkpt lat="43.73114192450087" lon="7.013084918916638"><ele>845.0</ele><time>2026-05-02T14:03:19.999Z</time></trkpt><trkpt lat="43.731051853651564" lon="7.013099695433694"><ele>845.0000000000001</ele><time>2026-05-02T14:03:20.999Z</time></trkpt><trkpt lat="43.73094511138441" lon="7.0130847931364295"><ele>845.0</ele><time>2026-05-02T14:03:22.999Z</time></trkpt><trkpt lat="43.730867540364365" lon="7.012918175218413"><ele>848.2</ele><time>2026-05-02T14:03:24.999Z</time></trkpt><trkpt lat="43.73083171074446" lon="7.012799351248559"><ele>851.4</ele><time>2026-05-02T14:03:25.999Z</time></trkpt><trkpt lat="43.7307665248721" lon="7.012684175612883"><ele>854.5999999999999</ele><time>2026-05-02T14:03:26.999Z</time></trkpt><trkpt lat="43.730722476023175" lon="7.012566078145846"><ele>857.8</ele><time>2026-05-02T14:03:27.999Z</time></trkpt><trkpt lat="43.73069628458104" lon="7.012444688187323"><ele>861.0</ele><time>2026-05-02T14:03:28.999Z</time></trkpt><trkpt lat="43.730664944682275" lon="7.01235275549885"><ele>861.0</ele><time>2026-05-02T14:03:29.999Z</time></trkpt><trkpt lat="43.73062508514796" lon="7.012248321876943"><ele>861.0</ele><time>2026-05-02T14:03:30.999Z</time></trkpt><trkpt lat="43.730570510180755" lon="7.0121992484512115"><ele>861.0</ele><time>2026-05-02T14:03:31.999Z</time></trkpt><trkpt lat="43.730515405402734" lon="7.012134290502572"><ele>861.0</ele><time>2026-05-02T14:03:32.999Z</time></trkpt><trkpt lat="43.73045231503293" lon="7.012107375058782"><ele>861.0</ele><time>2026-05-02T14:03:33.999Z</time></trkpt><trkpt lat="43.73033897637124" lon="7.012047982826331"><ele>861.0</ele><time>2026-05-02T14:03:34.999Z</time></trkpt><trkpt lat="43.73024753319747" lon="7.011987928201007"><ele>862.6666666666666</ele><time>2026-05-02T14:03:35.999Z</time></trkpt><trkpt lat="43.7301625691031" lon="7.011945659919876"><ele>864.3333333333333</ele><time>2026-05-02T14:03:36.999Z</time></trkpt><trkpt lat="43.73009789652374" lon="7.0119093874539775"><ele>866.0</ele><time>2026-05-02T14:03:37.999Z</time></trkpt><trkpt lat="43.73004461667338" lon="7.01184659717648"><ele>867.6666666666666</ele><time>2026-05-02T14:03:38.999Z</time></trkpt><trkpt lat="43.73001431735977" lon="7.011762335325318"><ele>869.3333333333333</ele><time>2026-05-02T14:03:39.999Z</time></trkpt><trkpt lat="43.72995278232109" lon="7.011649654712091"><ele>871.0</ele><time>2026-05-02T14:03:41.999Z</time></trkpt><trkpt lat="43.7299836199063" lon="7.011491877179265"><ele>871.0</ele><time>2026-05-02T14:03:43.999Z</time></trkpt><trkpt lat="43.730026515831504" lon="7.011401900246774"><ele>870.9999999999999</ele><time>2026-05-02T14:03:44.999Z</time></trkpt><trkpt lat="43.73008222889" lon="7.011266748337667"><ele>870.9999999999999</ele><time>2026-05-02T14:03:46.999Z</time></trkpt><trkpt lat="43.73016395534489" lon="7.011148024549795"><ele>871.0</ele><time>2026-05-02T14:03:48.999Z</time></trkpt><trkpt lat="43.73022384263061" lon="7.011009136851498"><ele>871.0</ele><time>2026-05-02T14:03:50.999Z</time></trkpt><trkpt lat="43.730240298636694" lon="7.0109051862557035"><ele>871.5999999999999</ele><time>2026-05-02T14:03:52.999Z</time></trkpt><trkpt lat="43.73018653167581" lon="7.010791848926125"><ele>872.1999999999999</ele><time>2026-05-02T14:03:54.999Z</time></trkpt><trkpt lat="43.73016153103108" lon="7.010702729119163"><ele>872.8000000000001</ele><time>2026-05-02T14:03:55.999Z</time></trkpt><trkpt lat="43.73011698303432" lon="7.010581775047631"><ele>873.4000000000001</ele><time>2026-05-02T14:03:56.999Z</time></trkpt><trkpt lat="43.73008449238161" lon="7.010450002656473"><ele>874.0</ele><time>2026-05-02T14:03:57.999Z</time></trkpt><trkpt lat="43.730046572113345" lon="7.010316103609451"><ele>874.0</ele><time>2026-05-02T14:03:58.999Z</time></trkpt><trkpt lat="43.73001132744857" lon="7.0101636932065485"><ele>874.0000000000001</ele><time>2026-05-02T14:03:59.999Z</time></trkpt><trkpt lat="43.729991470939666" lon="7.010040750333347"><ele>874.0000000000001</ele><time>2026-05-02T14:04:01Z</time></trkpt><trkpt lat="43.729957734480365" lon="7.009909989474214"><ele>874.0</ele><time>2026-05-02T14:04:02Z</time></trkpt><trkpt lat="43.72992059695974" lon="7.009812670527372"><ele>874.0</ele><time>2026-05-02T14:04:03Z</time></trkpt><trkpt lat="43.729866929032525" lon="7.009758155079363"><ele>874.3333333333333</ele><time>2026-05-02T14:04:04Z</time></trkpt><trkpt lat="43.72980065283717" lon="7.009662319780963"><ele>874.6666666666666</ele><time>2026-05-02T14:04:06Z</time></trkpt><trkpt lat="43.72975037126332" lon="7.009592578796058"><ele>875.0</ele><time>2026-05-02T14:04:07Z</time></trkpt><trkpt lat="43.729680180569744" lon="7.0095304479525495"><ele>875.3333333333333</ele><time>2026-05-02T14:04:08Z</time></trkpt><trkpt lat="43.7296222701454" lon="7.009484193737434"><ele>875.6666666666666</ele><time>2026-05-02T14:04:09Z</time></trkpt><trkpt lat="43.72955317043227" lon="7.009443650951543"><ele>876.0</ele><time>2026-05-02T14:04:11Z</time></trkpt><trkpt lat="43.72956699294003" lon="7.009545207301601"><ele>876.0</ele><time>2026-05-02T14:04:15Z</time></trkpt><trkpt lat="43.729571151694664" lon="7.009650309008168"><ele>876.0</ele><time>2026-05-02T14:04:19Z</time></trkpt><trkpt lat="43.72951942224145" lon="7.009711832910679"><ele>876.0</ele><time>2026-05-02T14:04:47Z</time></trkpt><trkpt lat="43.72947678641985" lon="7.009803314538351"><ele>876.0</ele><time>2026-05-02T14:04:57Z</time></trkpt><trkpt lat="43.72942615056026" lon="7.009885845356589"><ele>876.0</ele><time>2026-05-02T14:04:58Z</time></trkpt><trkpt lat="43.72936754176397" lon="7.009988803790214"><ele>876.0</ele><time>2026-05-02T14:04:59Z</time></trkpt><trkpt lat="43.72929870298444" lon="7.010098437980018"><ele>877.75</ele><time>2026-05-02T14:05:00Z</time></trkpt><trkpt lat="43.72922312932321" lon="7.010215323795815"><ele>879.5</ele><time>2026-05-02T14:05:01Z</time></trkpt><trkpt lat="43.72916592038305" lon="7.010357052384572"><ele>881.25</ele><time>2026-05-02T14:05:02Z</time></trkpt><trkpt lat="43.729115338668365" lon="7.010512698620746"><ele>883.0</ele><time>2026-05-02T14:05:03Z</time></trkpt><trkpt lat="43.72906546832366" lon="7.010669779234359"><ele>883.0</ele><time>2026-05-02T14:05:04Z</time></trkpt><trkpt lat="43.72901589498782" lon="7.010817099762504"><ele>883.0</ele><time>2026-05-02T14:05:05Z</time></trkpt><trkpt lat="43.72898180233116" lon="7.010984690722437"><ele>883.0</ele><time>2026-05-02T14:05:06Z</time></trkpt><trkpt lat="43.72893128684393" lon="7.011151227750482"><ele>883.0</ele><time>2026-05-02T14:05:07Z</time></trkpt><trkpt lat="43.72886036716494" lon="7.011289420886477"><ele>884.0</ele><time>2026-05-02T14:05:08Z</time></trkpt><trkpt lat="43.72877617961546" lon="7.0114180774205455"><ele>885.0</ele><time>2026-05-02T14:05:09Z</time></trkpt><trkpt lat="43.72866710119667" lon="7.011532520343086"><ele>886.0</ele><time>2026-05-02T14:05:10Z</time></trkpt><trkpt lat="43.728559597206456" lon="7.011655795187035"><ele>887.0</ele><time>2026-05-02T14:05:11Z</time></trkpt><trkpt lat="43.72847359778545" lon="7.011751060812436"><ele>889.6666666666667</ele><time>2026-05-02T14:05:12Z</time></trkpt><trkpt lat="43.72841640286407" lon="7.011852497340628"><ele>892.3333333333334</ele><time>2026-05-02T14:05:13Z</time></trkpt><trkpt lat="43.72837677807668" lon="7.011963886069061"><ele>895.0</ele><time>2026-05-02T14:05:14Z</time></trkpt><trkpt lat="43.72834307787744" lon="7.0120939725704705"><ele>897.6666666666667</ele><time>2026-05-02T14:05:15Z</time></trkpt><trkpt lat="43.72832229185636" lon="7.012211049945236"><ele>900.3333333333334</ele><time>2026-05-02T14:05:16Z</time></trkpt><trkpt lat="43.72832040593814" lon="7.012299747664389"><ele>903.0</ele><time>2026-05-02T14:05:17Z</time></trkpt><trkpt lat="43.72833564246286" lon="7.012385314790157"><ele>903.0</ele><time>2026-05-02T14:05:17.999Z</time></trkpt><trkpt lat="43.72837064979336" lon="7.012470532074682"><ele>903.0</ele><time>2026-05-02T14:05:18.999Z</time></trkpt><trkpt lat="43.728423485891206" lon="7.012552371412301"><ele>903.0</ele><time>2026-05-02T14:05:19.999Z</time></trkpt><trkpt lat="43.72846265822691" lon="7.01266263634008"><ele>903.0</ele><time>2026-05-02T14:05:20.999Z</time></trkpt><trkpt lat="43.72849819375466" lon="7.012764178512203"><ele>903.0</ele><time>2026-05-02T14:05:21.999Z</time></trkpt><trkpt lat="43.72851813672702" lon="7.012894600974348"><ele>903.0</ele><time>2026-05-02T14:05:22.999Z</time></trkpt><trkpt lat="43.72853255059564" lon="7.013014505379884"><ele>903.8</ele><time>2026-05-02T14:05:23.999Z</time></trkpt><trkpt lat="43.728529865598986" lon="7.013151869352318"><ele>904.5999999999999</ele><time>2026-05-02T14:05:24.999Z</time></trkpt><trkpt lat="43.72850243451554" lon="7.013283562335893"><ele>905.4000000000001</ele><time>2026-05-02T14:05:25.999Z</time></trkpt><trkpt lat="43.72845228332508" lon="7.0134089737519725"><ele>906.2</ele><time>2026-05-02T14:05:26.999Z</time></trkpt><trkpt lat="43.728414781401774" lon="7.01352667509938"><ele>907.0</ele><time>2026-05-02T14:05:27.999Z</time></trkpt><trkpt lat="43.72840661923978" lon="7.01365696365931"><ele>908.6</ele><time>2026-05-02T14:05:28.999Z</time></trkpt><trkpt lat="43.72842180505146" lon="7.013763183260698"><ele>910.2</ele><time>2026-05-02T14:05:29.999Z</time></trkpt><trkpt lat="43.728436061714646" lon="7.013875487606193"><ele>911.8</ele><time>2026-05-02T14:05:31.999Z</time></trkpt><trkpt lat="43.72834032994247" lon="7.013880941328798"><ele>913.4</ele><time>2026-05-02T14:05:33.999Z</time></trkpt><trkpt lat="43.72823579120635" lon="7.013776330025519"><ele>915.0</ele><time>2026-05-02T14:05:35.999Z</time></trkpt><trkpt lat="43.72812366479799" lon="7.013680989651727"><ele>915.0</ele><time>2026-05-02T14:05:38.999Z</time></trkpt><trkpt lat="43.728032931947546" lon="7.013611888978641"><ele>915.0</ele><time>2026-05-02T14:05:39.999Z</time></trkpt><trkpt lat="43.72795358162256" lon="7.0135517373258205"><ele>915.0</ele><time>2026-05-02T14:05:40.999Z</time></trkpt><trkpt lat="43.72787371110703" lon="7.013479154624746"><ele>915.0</ele><time>2026-05-02T14:05:41.999Z</time></trkpt><trkpt lat="43.72779755315187" lon="7.013379840310303"><ele>915.0</ele><time>2026-05-02T14:05:42.999Z</time></trkpt><trkpt lat="43.72770448555969" lon="7.013259484195618"><ele>919.25</ele><time>2026-05-02T14:05:43.999Z</time></trkpt><trkpt lat="43.72760715552912" lon="7.013113168496551"><ele>923.5</ele><time>2026-05-02T14:05:44.999Z</time></trkpt><trkpt lat="43.72753998709917" lon="7.012983302901702"><ele>927.75</ele><time>2026-05-02T14:05:45.999Z</time></trkpt><trkpt lat="43.727462024382795" lon="7.012841587606561"><ele>932.0</ele><time>2026-05-02T14:05:46.999Z</time></trkpt><trkpt lat="43.727384576019176" lon="7.012710270438253"><ele>932.0</ele><time>2026-05-02T14:05:47.999Z</time></trkpt><trkpt lat="43.727309443450096" lon="7.0125759690534775"><ele>932.0</ele><time>2026-05-02T14:05:48.999Z</time></trkpt><trkpt lat="43.7272297940467" lon="7.012441964840196"><ele>932.0</ele><time>2026-05-02T14:05:49.999Z</time></trkpt><trkpt lat="43.727150113073115" lon="7.012318549633091"><ele>932.0</ele><time>2026-05-02T14:05:50.999Z</time></trkpt><trkpt lat="43.727066210591815" lon="7.012195945080359"><ele>929.4000000000001</ele><time>2026-05-02T14:05:51.999Z</time></trkpt><trkpt lat="43.726987380198864" lon="7.012086380354384"><ele>926.8000000000001</ele><time>2026-05-02T14:05:52.999Z</time></trkpt><trkpt lat="43.72691498552623" lon="7.011984632548616"><ele>924.2</ele><time>2026-05-02T14:05:53.999Z</time></trkpt><trkpt lat="43.72686239706038" lon="7.01192984011507"><ele>921.6</ele><time>2026-05-02T14:05:54.999Z</time></trkpt><trkpt lat="43.72676347146391" lon="7.011934524616429"><ele>919.0</ele><time>2026-05-02T14:05:56.999Z</time></trkpt><trkpt lat="43.72667520075204" lon="7.01195787132271"><ele>919.0</ele><time>2026-05-02T14:05:58.999Z</time></trkpt><trkpt lat="43.72660912518909" lon="7.011925146114867"><ele>919.0</ele><time>2026-05-02T14:06:00.999Z</time></trkpt><trkpt lat="43.726537408440244" lon="7.011934695725855"><ele>919.0</ele><time>2026-05-02T14:06:04.999Z</time></trkpt></trkseg><trkseg><trkpt lat="43.7168220339102" lon="7.05879360294158"><ele>413.8</ele><time>2026-05-02T15:17:30Z</time></trkpt><trkpt lat="43.71695063905118" lon="7.058764777999004"><ele>415.6</ele><time>2026-05-02T15:18:02Z</time></trkpt><trkpt lat="43.717016647893864" lon="7.058722990807474"><ele>417.40000000000003</ele><time>2026-05-02T15:18:18Z</time></trkpt><trkpt lat="43.71704945266973" lon="7.058645354009758"><ele>419.20000000000005</ele><time>2026-05-02T15:18:23Z</time></trkpt><trkpt lat="43.71701695453219" lon="7.058828626402446"><ele>421.0</ele><time>2026-05-02T15:18:42.999Z</time></trkpt><trkpt lat="43.7169393414159" lon="7.058856265398315"><ele>419.7142857142857</ele><time>2026-05-02T15:19:45.999Z</time></trkpt><trkpt lat="43.71687614801633" lon="7.058868687072597"><ele>418.42857142857144</ele><time>2026-05-02T15:20:39Z</time></trkpt><trkpt lat="43.71687228448538" lon="7.058966451240348"><ele>417.1428571428571</ele><time>2026-05-02T15:21:47.999Z</time></trkpt><trkpt lat="43.716854490098136" lon="7.059060205795533"><ele>415.8571428571429</ele><time>2026-05-02T15:21:52.999Z</time></trkpt><trkpt lat="43.71683452242447" lon="7.059176446377603"><ele>414.57142857142856</ele><time>2026-05-02T15:21:56.999Z</time></trkpt><trkpt lat="43.716831634076506" lon="7.059280975647073"><ele>413.2857142857143</ele><time>2026-05-02T15:21:59.999Z</time></trkpt><trkpt lat="43.716763425929074" lon="7.059310529628205"><ele>412.0</ele><time>2026-05-02T15:22:09Z</time></trkpt><trkpt lat="43.716708465847745" lon="7.0592590430638005"><ele>411.40000000000003</ele><time>2026-05-02T15:22:31Z</time></trkpt><trkpt lat="43.716649171904145" lon="7.0592091548931695"><ele>410.8</ele><time>2026-05-02T15:22:37Z</time></trkpt><trkpt lat="43.71658346131117" lon="7.059180726746325"><ele>410.2</ele><time>2026-05-02T15:22:42Z</time></trkpt><trkpt lat="43.71660176670893" lon="7.059267229199361"><ele>409.6</ele><time>2026-05-02T15:24:33.998Z</time></trkpt><trkpt lat="43.71681906040849" lon="7.059387031759056"><ele>409.0</ele><time>2026-05-02T15:24:51Z</time></trkpt><trkpt lat="43.71685799055491" lon="7.05951992996761"><ele>410.0</ele><time>2026-05-02T15:24:53Z</time></trkpt><trkpt lat="43.7169045528981" lon="7.059588017669382"><ele>411.0</ele><time>2026-05-02T15:24:55Z</time></trkpt><trkpt lat="43.71692304236187" lon="7.059677201977687"><ele>412.0</ele><time>2026-05-02T15:24:57Z</time></trkpt><trkpt lat="43.71699281551878" lon="7.059790090627099"><ele>413.0</ele><time>2026-05-02T15:24:59Z</time></trkpt><trkpt lat="43.71703240480684" lon="7.0598671041361"><ele>414.0</ele><time>2026-05-02T15:25:00Z</time></trkpt><trkpt lat="43.71706726579125" lon="7.059946335764088"><ele>415.0</ele><time>2026-05-02T15:25:01Z</time></trkpt><trkpt lat="43.7171029696751" lon="7.060030845483228"><ele>416.0</ele><time>2026-05-02T15:25:02Z</time></trkpt><trkpt lat="43.71717339917738" lon="7.060156699364278"><ele>415.99999999999994</ele><time>2026-05-02T15:25:04Z</time></trkpt><trkpt lat="43.717187649018165" lon="7.0602444101849136"><ele>416.0</ele><time>2026-05-02T15:25:05Z</time></trkpt><trkpt lat="43.717231768757884" lon="7.0603654319461375"><ele>416.0</ele><time>2026-05-02T15:25:07Z</time></trkpt><trkpt lat="43.71726018301164" lon="7.06049388081676"><ele>416.0</ele><time>2026-05-02T15:25:09Z</time></trkpt><trkpt lat="43.71730068926786" lon="7.060585090135593"><ele>415.99999999999994</ele><time>2026-05-02T15:25:11Z</time></trkpt><trkpt lat="43.717357100409" lon="7.060657181845765"><ele>416.0</ele><time>2026-05-02T15:25:14Z</time></trkpt><trkpt lat="43.71740523557042" lon="7.060720746086821"><ele>414.20000000000005</ele><time>2026-05-02T15:25:19Z</time></trkpt><trkpt lat="43.717455633276934" lon="7.0608645435989805"><ele>412.40000000000003</ele><time>2026-05-02T15:25:24Z</time></trkpt><trkpt lat="43.71749900297995" lon="7.060960372003276"><ele>410.6</ele><time>2026-05-02T15:25:25Z</time></trkpt><trkpt lat="43.71755713738005" lon="7.061077521791639"><ele>408.8</ele><time>2026-05-02T15:25:26Z</time></trkpt><trkpt lat="43.71763791805195" lon="7.061214041701533"><ele>407.0</ele><time>2026-05-02T15:25:27Z</time></trkpt><trkpt lat="43.717696258815266" lon="7.061379251276583"><ele>408.3333333333333</ele><time>2026-05-02T15:25:28Z</time></trkpt><trkpt lat="43.71773873210362" lon="7.061519179622874"><ele>409.66666666666663</ele><time>2026-05-02T15:25:29Z</time></trkpt><trkpt lat="43.717758143885035" lon="7.061651694392097"><ele>411.0</ele><time>2026-05-02T15:25:30Z</time></trkpt><trkpt lat="43.71776069224224" lon="7.061758695953913"><ele>412.33333333333337</ele><time>2026-05-02T15:25:31Z</time></trkpt><trkpt lat="43.71774371215471" lon="7.061866284107832"><ele>413.6666666666667</ele><time>2026-05-02T15:25:32Z</time></trkpt><trkpt lat="43.717756648129864" lon="7.061980387835268"><ele>415.0</ele><time>2026-05-02T15:25:33Z</time></trkpt><trkpt lat="43.71776950746017" lon="7.062107411813644"><ele>415.0</ele><time>2026-05-02T15:25:34Z</time></trkpt><trkpt lat="43.71778519446837" lon="7.062243925294068"><ele>415.0</ele><time>2026-05-02T15:25:35Z</time></trkpt><trkpt lat="43.71788377242572" lon="7.0623777655539595"><ele>415.0</ele><time>2026-05-02T15:25:36Z</time></trkpt><trkpt lat="43.7179734608481" lon="7.062515687034708"><ele>415.0</ele><time>2026-05-02T15:25:37Z</time></trkpt><trkpt lat="43.71804918307678" lon="7.062617909697899"><ele>413.0</ele><time>2026-05-02T15:25:38Z</time></trkpt><trkpt lat="43.71811461428683" lon="7.062708374362133"><ele>411.0</ele><time>2026-05-02T15:25:39Z</time></trkpt><trkpt lat="43.71817492723746" lon="7.0627984386659275"><ele>409.0</ele><time>2026-05-02T15:25:40Z</time></trkpt><trkpt lat="43.718212778291715" lon="7.062938699666391"><ele>407.0</ele><time>2026-05-02T15:25:42Z</time></trkpt><trkpt lat="43.71815461254109" lon="7.062991259325397"><ele>405.0</ele><time>2026-05-02T15:25:43Z</time></trkpt><trkpt lat="43.71808123363901" lon="7.063077115057928"><ele>405.0</ele><time>2026-05-02T15:25:44Z</time></trkpt><trkpt lat="43.71797605389348" lon="7.063116772942594"><ele>405.0</ele><time>2026-05-02T15:25:45Z</time></trkpt><trkpt lat="43.71786481116947" lon="7.063176829125547"><ele>405.0</ele><time>2026-05-02T15:25:46Z</time></trkpt><trkpt lat="43.71778601243748" lon="7.063226666621744"><ele>405.0</ele><time>2026-05-02T15:25:47Z</time></trkpt><trkpt lat="43.717716084354606" lon="7.063285912221224"><ele>405.0</ele><time>2026-05-02T15:25:49Z</time></trkpt><trkpt lat="43.71777047979005" lon="7.063334645896621"><ele>405.0</ele><time>2026-05-02T15:25:55.999Z</time></trkpt><trkpt lat="43.717898864054284" lon="7.063322172724092"><ele>405.0</ele><time>2026-05-02T15:25:57.999Z</time></trkpt><trkpt lat="43.71799097874583" lon="7.063276513715449"><ele>405.0</ele><time>2026-05-02T15:25:58.999Z</time></trkpt><trkpt lat="43.718077620865145" lon="7.063245080637198"><ele>405.0</ele><time>2026-05-02T15:25:59.999Z</time></trkpt><trkpt lat="43.718167686057356" lon="7.063226086908319"><ele>405.0</ele><time>2026-05-02T15:26:00.999Z</time></trkpt><trkpt lat="43.71827629292106" lon="7.063232420441544"><ele>405.0</ele><time>2026-05-02T15:26:01.999Z</time></trkpt><trkpt lat="43.71839101983503" lon="7.063276550372585"><ele>405.0</ele><time>2026-05-02T15:26:02.999Z</time></trkpt><trkpt lat="43.71848968983378" lon="7.063299949538332"><ele>405.0</ele><time>2026-05-02T15:26:03.999Z</time></trkpt><trkpt lat="43.71857463742777" lon="7.063322220787862"><ele>405.0</ele><time>2026-05-02T15:26:04.999Z</time></trkpt><trkpt lat="43.71863575139563" lon="7.0634017202549675"><ele>405.0</ele><time>2026-05-02T15:26:05.999Z</time></trkpt><trkpt lat="43.71866633383372" lon="7.063520829021735"><ele>405.0</ele><time>2026-05-02T15:26:06.999Z</time></trkpt><trkpt lat="43.718677647849574" lon="7.063638926090205"><ele>405.0</ele><time>2026-05-02T15:26:07.999Z</time></trkpt><trkpt lat="43.71871266033551" lon="7.063713735262607"><ele>405.0</ele><time>2026-05-02T15:26:08.999Z</time></trkpt><trkpt lat="43.718796449554674" lon="7.063780340061424"><ele>405.0</ele><time>2026-05-02T15:26:10.999Z</time></trkpt><trkpt lat="43.71887079513168" lon="7.0638495958898995"><ele>405.0</ele><time>2026-05-02T15:26:12.999Z</time></trkpt><trkpt lat="43.71890718843022" lon="7.063931433787617"><ele>405.0</ele><time>2026-05-02T15:26:13.999Z</time></trkpt><trkpt lat="43.71894226596302" lon="7.064043236848452"><ele>405.75</ele><time>2026-05-02T15:26:14.999Z</time></trkpt><trkpt lat="43.71898749996753" lon="7.064153553801504"><ele>406.5</ele><time>2026-05-02T15:26:15.999Z</time></trkpt><trkpt lat="43.71903633992429" lon="7.064287711577822"><ele>407.25</ele><time>2026-05-02T15:26:16.999Z</time></trkpt><trkpt lat="43.71909063227954" lon="7.0644569745792385"><ele>408.0</ele><time>2026-05-02T15:26:17.999Z</time></trkpt><trkpt lat="43.71915480540961" lon="7.064626264390211"><ele>408.0</ele><time>2026-05-02T15:26:18.999Z</time></trkpt><trkpt lat="43.719224409455244" lon="7.064802086223016"><ele>408.0</ele><time>2026-05-02T15:26:19.999Z</time></trkpt><trkpt lat="43.71930029217249" lon="7.064978847456612"><ele>408.0</ele><time>2026-05-02T15:26:20.999Z</time></trkpt><trkpt lat="43.719364038806035" lon="7.065151041700975"><ele>408.0</ele><time>2026-05-02T15:26:21.999Z</time></trkpt><trkpt lat="43.719406800730326" lon="7.0653054398199115"><ele>410.75</ele><time>2026-05-02T15:26:22.999Z</time></trkpt><trkpt lat="43.7194045337773" lon="7.065509646303102"><ele>413.5</ele><time>2026-05-02T15:26:23.999Z</time></trkpt><trkpt lat="43.71943431972196" lon="7.065692337147743"><ele>416.25</ele><time>2026-05-02T15:26:24.999Z</time></trkpt><trkpt lat="43.719471858165605" lon="7.065844928601929"><ele>419.0</ele><time>2026-05-02T15:26:25.999Z</time></trkpt><trkpt lat="43.71948439609189" lon="7.065977395678087"><ele>419.75</ele><time>2026-05-02T15:26:26.999Z</time></trkpt><trkpt lat="43.71949620067063" lon="7.06610060219119"><ele>420.5</ele><time>2026-05-02T15:26:27.999Z</time></trkpt><trkpt lat="43.71951233966265" lon="7.066225044504353"><ele>421.25</ele><time>2026-05-02T15:26:28.999Z</time></trkpt><trkpt lat="43.71969279756751" lon="7.066306196618609"><ele>422.0</ele><time>2026-05-02T15:26:29.999Z</time></trkpt><trkpt lat="43.719798663007516" lon="7.066437636137455"><ele>422.0</ele><time>2026-05-02T15:26:30.999Z</time></trkpt><trkpt lat="43.71991952393753" lon="7.066520742568867"><ele>422.0</ele><time>2026-05-02T15:26:31.999Z</time></trkpt><trkpt lat="43.72002748400756" lon="7.0666155311414975"><ele>422.0</ele><time>2026-05-02T15:26:32.999Z</time></trkpt><trkpt lat="43.72013288186455" lon="7.066709561529929"><ele>422.0</ele><time>2026-05-02T15:26:33.999Z</time></trkpt><trkpt lat="43.720214906448845" lon="7.066795893059449"><ele>423.0</ele><time>2026-05-02T15:26:34.999Z</time></trkpt><trkpt lat="43.72026930787276" lon="7.06684299051123"><ele>431.0</ele><time>2026-05-02T15:26:35.999Z</time></trkpt><trkpt lat="43.72020140939778" lon="7.0667859338025485"><ele>423.0</ele><time>2026-05-02T15:26:40.999Z</time></trkpt><trkpt lat="43.72023689057392" lon="7.06685828360163"><ele>431.0</ele><time>2026-05-02T15:27:03Z</time></trkpt><trkpt lat="43.72018635750955" lon="7.066800182709374"><ele>423.0</ele><time>2026-05-02T15:28:30.999Z</time></trkpt><trkpt lat="43.72008883323501" lon="7.0669403719615325"><ele>423.0</ele><time>2026-05-02T15:28:48Z</time></trkpt></trkseg></trk></gpx>